Wetterdaten: Donnerstag, 16.02.2017
Datum Zeit Temp. A. Temp. A. max Feuchte A. Luftdruck Regen Wind Richtung Richtung Sonnenschein ET UV Solar Taupunkt Windchill Windböen
16.02.2017 00:00 -0,7 °C -0,6 °C 80 % 1035,8 hPa 0,0 mm 0,0 km/h (0 Bft) W 268 ° 0 min 0,000 mm 0,0 UV-I 0 W/m² -3,7 °C -0,7 °C 0,0 km/h (0 Bft)
16.02.2017 00:01 -0,7 °C -0,7 °C 80 % 1035,8 hPa 0,0 mm 1,3 km/h (1 Bft) W 268 ° 0 min 0,000 mm 0,0 UV-I 0 W/m² -3,7 °C -0,7 °C 1,6 km/h (1 Bft)
16.02.2017 00:02 -0,7 °C -0,7 °C 81 % 1035,8 hPa 0,0 mm 0,5 km/h (0 Bft) W 268 ° 0 min 0,000 mm 0,0 UV-I 0 W/m² -3,5 °C -0,7 °C 1,6 km/h (1 Bft)
16.02.2017 00:03 -0,8 °C -0,7 °C 81 % 1035,8 hPa 0,0 mm 0,1 km/h (0 Bft) W 268 ° 0 min 0,000 mm 0,0 UV-I 0 W/m² -3,6 °C -0,8 °C 1,6 km/h (1 Bft)
16.02.2017 00:04 -0,8 °C -0,8 °C 81 % 1035,9 hPa 0,0 mm 0,1 km/h (0 Bft) W 268 ° 0 min 0,000 mm 0,0 UV-I 0 W/m² -3,6 °C -0,8 °C 1,6 km/h (1 Bft)
16.02.2017 00:05 -0,8 °C -0,8 °C 81 % 1035,9 hPa 0,0 mm 0,1 km/h (0 Bft) W 268 ° 0 min 0,000 mm 0,0 UV-I 0 W/m² -3,6 °C -0,8 °C 1,6 km/h (1 Bft)
16.02.2017 00:06 -0,9 °C -0,8 °C 81 % 1035,9 hPa 0,0 mm 0,0 km/h (0 Bft) W 268 ° 0 min 0,000 mm 0,0 UV-I 0 W/m² -3,7 °C -0,9 °C 0,0 km/h (0 Bft)
16.02.2017 00:07 -0,9 °C -0,9 °C 82 % 1035,9 hPa 0,0 mm 0,2 km/h (0 Bft) W 268 ° 0 min 0,000 mm 0,0 UV-I 0 W/m² -3,6 °C -0,9 °C 1,6 km/h (1 Bft)
16.02.2017 00:08 -0,8 °C -0,8 °C 82 % 1035,8 hPa 0,0 mm 0,0 km/h (0 Bft) W 268 ° 0 min 0,000 mm 0,0 UV-I 0 W/m² -3,5 °C -0,8 °C 0,0 km/h (0 Bft)
16.02.2017 00:09 -0,8 °C -0,7 °C 82 % 1035,8 hPa 0,0 mm 0,0 km/h (0 Bft) W 268 ° 0 min 0,000 mm 0,0 UV-I 0 W/m² -3,5 °C -0,8 °C 0,0 km/h (0 Bft)
16.02.2017 00:10 -0,7 °C -0,7 °C 81 % 1035,8 hPa 0,0 mm 0,1 km/h (0 Bft) W 268 ° 0 min 0,000 mm 0,0 UV-I 0 W/m² -3,5 °C -0,7 °C 1,6 km/h (1 Bft)
16.02.2017 00:11 -0,7 °C -0,7 °C 81 % 1035,8 hPa 0,0 mm 0,0 km/h (0 Bft) W 268 ° 0 min 0,000 mm 0,0 UV-I 0 W/m² -3,5 °C -0,7 °C 0,0 km/h (0 Bft)
16.02.2017 00:12 -0,7 °C -0,7 °C 82 % 1035,7 hPa 0,0 mm 0,0 km/h (0 Bft) W 268 ° 0 min 0,000 mm 0,0 UV-I 0 W/m² -3,4 °C -0,7 °C 0,0 km/h (0 Bft)
16.02.2017 00:13 -0,8 °C -0,7 °C 81 % 1035,8 hPa 0,0 mm 0,0 km/h (0 Bft) W 268 ° 0 min 0,000 mm 0,0 UV-I 0 W/m² -3,6 °C -0,8 °C 0,0 km/h (0 Bft)
16.02.2017 00:14 -0,7 °C -0,7 °C 81 % 1035,8 hPa 0,0 mm 0,1 km/h (0 Bft) W 268 ° 0 min 0,000 mm 0,0 UV-I 0 W/m² -3,5 °C -0,7 °C 1,6 km/h (1 Bft)
16.02.2017 00:15 -0,7 °C -0,7 °C 81 % 1035,8 hPa 0,0 mm 0,0 km/h (0 Bft) W 268 ° 0 min 0,000 mm 0,0 UV-I 0 W/m² -3,5 °C -0,7 °C 0,0 km/h (0 Bft)
16.02.2017 00:16 -0,7 °C -0,7 °C 82 % 1035,8 hPa 0,0 mm 0,0 km/h (0 Bft) W 268 ° 0 min 0,000 mm 0,0 UV-I 0 W/m² -3,4 °C -0,7 °C 0,0 km/h (0 Bft)
16.02.2017 00:17 -0,7 °C -0,7 °C 81 % 1035,8 hPa 0,0 mm 0,0 km/h (0 Bft) W 268 ° 0 min 0,000 mm 0,0 UV-I 0 W/m² -3,5 °C -0,7 °C 0,0 km/h (0 Bft)
16.02.2017 00:18 -0,7 °C -0,7 °C 81 % 1035,8 hPa 0,0 mm 0,0 km/h (0 Bft) W 268 ° 0 min 0,000 mm 0,0 UV-I 0 W/m² -3,5 °C -0,7 °C 0,0 km/h (0 Bft)
16.02.2017 00:19 -0,8 °C -0,7 °C 81 % 1035,8 hPa 0,0 mm 0,0 km/h (0 Bft) W 268 ° 0 min 0,000 mm 0,0 UV-I 0 W/m² -3,6 °C -0,8 °C 0,0 km/h (0 Bft)
16.02.2017 00:20 -0,8 °C -0,8 °C 81 % 1035,7 hPa 0,0 mm 1,3 km/h (1 Bft) W 268 ° 0 min 0,000 mm 0,0 UV-I 0 W/m² -3,6 °C -0,8 °C 1,6 km/h (1 Bft)
16.02.2017 00:21 -0,8 °C -0,8 °C 81 % 1035,7 hPa 0,0 mm 1,0 km/h (0 Bft) W 268 ° 0 min 0,000 mm 0,0 UV-I 0 W/m² -3,6 °C -0,8 °C 1,6 km/h (1 Bft)
16.02.2017 00:22 -0,9 °C -0,8 °C 81 % 1035,7 hPa 0,0 mm 0,7 km/h (0 Bft) W 268 ° 0 min 0,000 mm 0,0 UV-I 0 W/m² -3,7 °C -0,9 °C 1,6 km/h (1 Bft)
16.02.2017 00:23 -0,9 °C -0,9 °C 82 % 1035,7 hPa 0,0 mm 0,3 km/h (0 Bft) W 268 ° 0 min 0,000 mm 0,0 UV-I 0 W/m² -3,6 °C -0,9 °C 1,6 km/h (1 Bft)
16.02.2017 00:24 -0,9 °C -0,8 °C 82 % 1035,7 hPa 0,0 mm 0,2 km/h (0 Bft) W 268 ° 0 min 0,000 mm 0,0 UV-I 0 W/m² -3,6 °C -0,9 °C 1,6 km/h (1 Bft)
16.02.2017 00:25 -0,8 °C -0,8 °C 82 % 1035,8 hPa 0,0 mm 0,1 km/h (0 Bft) W 268 ° 0 min 0,000 mm 0,0 UV-I 0 W/m² -3,5 °C -0,8 °C 1,6 km/h (1 Bft)
16.02.2017 00:26 -0,8 °C -0,8 °C 81 % 1035,8 hPa 0,0 mm 0,0 km/h (0 Bft) W 268 ° 0 min 0,000 mm 0,0 UV-I 0 W/m² -3,6 °C -0,8 °C 0,0 km/h (0 Bft)
16.02.2017 00:27 -0,9 °C -0,8 °C 81 % 1035,8 hPa 0,0 mm 0,0 km/h (0 Bft) W 268 ° 0 min 0,000 mm 0,0 UV-I 0 W/m² -3,7 °C -0,9 °C 0,0 km/h (0 Bft)
16.02.2017 00:28 -0,9 °C -0,9 °C 81 % 1035,7 hPa 0,0 mm 0,1 km/h (0 Bft) W 268 ° 0 min 0,000 mm 0,0 UV-I 0 W/m² -3,7 °C -0,9 °C 1,6 km/h (1 Bft)
16.02.2017 00:29 -0,9 °C -0,9 °C 81 % 1035,7 hPa 0,0 mm 0,0 km/h (0 Bft) W 268 ° 0 min 0,000 mm 0,0 UV-I 0 W/m² -3,7 °C -0,9 °C 0,0 km/h (0 Bft)
16.02.2017 00:30 -0,9 °C -0,9 °C 81 % 1035,7 hPa 0,0 mm 0,9 km/h (0 Bft) W 268 ° 0 min 0,000 mm 0,0 UV-I 0 W/m² -3,7 °C -0,9 °C 1,6 km/h (1 Bft)
16.02.2017 00:31 -1,0 °C -0,9 °C 81 % 1035,8 hPa 0,0 mm 0,2 km/h (0 Bft) W 268 ° 0 min 0,000 mm 0,0 UV-I 0 W/m² -3,8 °C -1,0 °C 1,6 km/h (1 Bft)
16.02.2017 00:32 -1,0 °C -0,9 °C 82 % 1035,8 hPa 0,0 mm 0,2 km/h (0 Bft) W 268 ° 0 min 0,000 mm 0,0 UV-I 0 W/m² -3,7 °C -1,0 °C 1,6 km/h (1 Bft)
16.02.2017 00:33 -1,0 °C -1,0 °C 82 % 1035,8 hPa 0,0 mm 0,1 km/h (0 Bft) W 268 ° 0 min 0,000 mm 0,0 UV-I 0 W/m² -3,7 °C -1,0 °C 1,6 km/h (1 Bft)
16.02.2017 00:34 -1,0 °C -1,0 °C 82 % 1035,8 hPa 0,0 mm 0,1 km/h (0 Bft) W 268 ° 0 min 0,000 mm 0,0 UV-I 0 W/m² -3,7 °C -1,0 °C 1,6 km/h (1 Bft)
16.02.2017 00:35 -1,0 °C -1,0 °C 82 % 1035,8 hPa 0,0 mm 0,0 km/h (0 Bft) W 268 ° 0 min 0,000 mm 0,0 UV-I 0 W/m² -3,7 °C -1,0 °C 0,0 km/h (0 Bft)
16.02.2017 00:36 -0,9 °C -0,9 °C 82 % 1035,8 hPa 0,0 mm 0,0 km/h (0 Bft) W 268 ° 0 min 0,000 mm 0,0 UV-I 0 W/m² -3,6 °C -0,9 °C 0,0 km/h (0 Bft)
16.02.2017 00:37 -0,9 °C -0,9 °C 82 % 1035,7 hPa 0,0 mm 0,0 km/h (0 Bft) W 268 ° 0 min 0,000 mm 0,0 UV-I 0 W/m² -3,6 °C -0,9 °C 0,0 km/h (0 Bft)
16.02.2017 00:38 -0,9 °C -0,9 °C 82 % 1035,8 hPa 0,0 mm 0,2 km/h (0 Bft) W 268 ° 0 min 0,000 mm 0,0 UV-I 0 W/m² -3,6 °C -0,9 °C 1,6 km/h (1 Bft)
16.02.2017 00:39 -0,9 °C -0,9 °C 82 % 1035,8 hPa 0,0 mm 0,3 km/h (0 Bft) W 268 ° 0 min 0,000 mm 0,0 UV-I 0 W/m² -3,6 °C -0,9 °C 1,6 km/h (1 Bft)
16.02.2017 00:40 -0,8 °C -0,8 °C 82 % 1035,7 hPa 0,0 mm 0,6 km/h (0 Bft) W 268 ° 0 min 0,000 mm 0,0 UV-I 0 W/m² -3,5 °C -0,8 °C 1,6 km/h (1 Bft)
16.02.2017 00:41 -0,8 °C -0,8 °C 82 % 1035,7 hPa 0,0 mm 0,1 km/h (0 Bft) W 268 ° 0 min 0,000 mm 0,0 UV-I 0 W/m² -3,5 °C -0,8 °C 1,6 km/h (1 Bft)
16.02.2017 00:42 -0,8 °C -0,8 °C 81 % 1035,7 hPa 0,0 mm 0,2 km/h (0 Bft) W 268 ° 0 min 0,000 mm 0,0 UV-I 0 W/m² -3,6 °C -0,8 °C 1,6 km/h (1 Bft)
16.02.2017 00:43 -0,8 °C -0,8 °C 81 % 1035,8 hPa 0,0 mm 0,4 km/h (0 Bft) W 268 ° 0 min 0,000 mm 0,0 UV-I 0 W/m² -3,6 °C -0,8 °C 1,6 km/h (1 Bft)
16.02.2017 00:44 -0,8 °C -0,8 °C 81 % 1035,8 hPa 0,0 mm 0,2 km/h (0 Bft) W 268 ° 0 min 0,000 mm 0,0 UV-I 0 W/m² -3,6 °C -0,8 °C 1,6 km/h (1 Bft)
16.02.2017 00:45 -0,9 °C -0,8 °C 81 % 1035,8 hPa 0,0 mm 0,0 km/h (0 Bft) W 268 ° 0 min 0,000 mm 0,0 UV-I 0 W/m² -3,7 °C -0,9 °C 0,0 km/h (0 Bft)
16.02.2017 00:46 -0,9 °C -0,9 °C 81 % 1035,7 hPa 0,0 mm 0,7 km/h (0 Bft) W 268 ° 0 min 0,000 mm 0,0 UV-I 0 W/m² -3,7 °C -0,9 °C 1,6 km/h (1 Bft)
16.02.2017 00:47 -0,9 °C -0,9 °C 81 % 1035,8 hPa 0,0 mm 0,1 km/h (0 Bft) W 268 ° 0 min 0,000 mm 0,0 UV-I 0 W/m² -3,7 °C -0,9 °C 1,6 km/h (1 Bft)
16.02.2017 00:48 -0,9 °C -0,9 °C 81 % 1035,7 hPa 0,0 mm 0,0 km/h (0 Bft) W 268 ° 0 min 0,000 mm 0,0 UV-I 0 W/m² -3,7 °C -0,9 °C 0,0 km/h (0 Bft)
16.02.2017 00:49 -0,9 °C -0,9 °C 81 % 1035,7 hPa 0,0 mm 0,0 km/h (0 Bft) W 268 ° 0 min 0,000 mm 0,0 UV-I 0 W/m² -3,7 °C -0,9 °C 0,0 km/h (0 Bft)
16.02.2017 00:50 -0,9 °C -0,9 °C 80 % 1035,7 hPa 0,0 mm 0,6 km/h (0 Bft) W 268 ° 0 min 0,000 mm 0,0 UV-I 0 W/m² -3,9 °C -0,9 °C 1,6 km/h (1 Bft)
16.02.2017 00:51 -0,9 °C -0,9 °C 81 % 1035,7 hPa 0,0 mm 0,0 km/h (0 Bft) W 268 ° 0 min 0,000 mm 0,0 UV-I 0 W/m² -3,7 °C -0,9 °C 0,0 km/h (0 Bft)
16.02.2017 00:52 -1,1 °C -0,9 °C 80 % 1035,8 hPa 0,0 mm 0,3 km/h (0 Bft) W 268 ° 0 min 0,000 mm 0,0 UV-I 0 W/m² -4,1 °C -1,1 °C 1,6 km/h (1 Bft)
16.02.2017 00:53 -1,1 °C -1,1 °C 80 % 1035,7 hPa 0,0 mm 0,2 km/h (0 Bft) W 268 ° 0 min 0,000 mm 0,0 UV-I 0 W/m² -4,1 °C -1,1 °C 1,6 km/h (1 Bft)
16.02.2017 00:54 -1,2 °C -1,1 °C 81 % 1035,7 hPa 0,0 mm 0,0 km/h (0 Bft) W 268 ° 0 min 0,000 mm 0,0 UV-I 0 W/m² -4,0 °C -1,2 °C 0,0 km/h (0 Bft)
16.02.2017 00:55 -1,2 °C -1,2 °C 81 % 1035,8 hPa 0,0 mm 0,3 km/h (0 Bft) W 268 ° 0 min 0,000 mm 0,0 UV-I 0 W/m² -4,0 °C -1,2 °C 1,6 km/h (1 Bft)
16.02.2017 00:56 -1,2 °C -1,2 °C 82 % 1035,7 hPa 0,0 mm 0,0 km/h (0 Bft) W 268 ° 0 min 0,000 mm 0,0 UV-I 0 W/m² -3,9 °C -1,2 °C 0,0 km/h (0 Bft)
16.02.2017 00:57 -1,3 °C -1,2 °C 82 % 1035,7 hPa 0,0 mm 0,0 km/h (0 Bft) W 268 ° 0 min 0,000 mm 0,0 UV-I 0 W/m² -4,0 °C -1,3 °C 0,0 km/h (0 Bft)
16.02.2017 00:58 -1,2 °C -1,2 °C 82 % 1035,7 hPa 0,0 mm 0,0 km/h (0 Bft) W 268 ° 0 min 0,000 mm 0,0 UV-I 0 W/m² -3,9 °C -1,2 °C 0,0 km/h (0 Bft)
16.02.2017 00:59 -1,2 °C -1,2 °C 82 % 1035,8 hPa 0,0 mm 0,1 km/h (0 Bft) W 268 ° 0 min 0,000 mm 0,0 UV-I 0 W/m² -3,9 °C -1,2 °C 1,6 km/h (1 Bft)
16.02.2017 01:00 -1,2 °C -1,2 °C 82 % 1035,8 hPa 0,0 mm 0,0 km/h (0 Bft) W 268 ° 0 min 0,000 mm 0,0 UV-I 0 W/m² -3,9 °C -1,2 °C 0,0 km/h (0 Bft)
16.02.2017 01:01 -1,2 °C -1,2 °C 82 % 1035,7 hPa 0,0 mm 0,0 km/h (0 Bft) W 268 ° 0 min 0,000 mm 0,0 UV-I 0 W/m² -3,9 °C -1,2 °C 0,0 km/h (0 Bft)
16.02.2017 01:02 -1,2 °C -1,2 °C 82 % 1035,7 hPa 0,0 mm 0,0 km/h (0 Bft) W 268 ° 0 min 0,000 mm 0,0 UV-I 0 W/m² -3,9 °C -1,2 °C 0,0 km/h (0 Bft)
16.02.2017 01:03 -1,1 °C -1,1 °C 82 % 1035,7 hPa 0,0 mm 0,0 km/h (0 Bft) W 268 ° 0 min 0,000 mm 0,0 UV-I 0 W/m² -3,8 °C -1,1 °C 0,0 km/h (0 Bft)
16.02.2017 01:04 -1,1 °C -1,1 °C 81 % 1035,7 hPa 0,0 mm 0,0 km/h (0 Bft) W 268 ° 0 min 0,000 mm 0,0 UV-I 0 W/m² -3,9 °C -1,1 °C 0,0 km/h (0 Bft)
16.02.2017 01:05 -1,1 °C -1,1 °C 81 % 1035,7 hPa 0,0 mm 0,0 km/h (0 Bft) W 268 ° 0 min 0,000 mm 0,0 UV-I 0 W/m² -3,9 °C -1,1 °C 0,0 km/h (0 Bft)
16.02.2017 01:06 -1,1 °C -1,1 °C 82 % 1035,7 hPa 0,0 mm 0,0 km/h (0 Bft) W 268 ° 0 min 0,000 mm 0,0 UV-I 0 W/m² -3,8 °C -1,1 °C 0,0 km/h (0 Bft)
16.02.2017 01:07 -1,0 °C -1,0 °C 81 % 1035,7 hPa 0,0 mm 0,0 km/h (0 Bft) W 268 ° 0 min 0,000 mm 0,0 UV-I 0 W/m² -3,8 °C -1,0 °C 0,0 km/h (0 Bft)
16.02.2017 01:08 -1,1 °C -1,0 °C 82 % 1035,7 hPa 0,0 mm 0,0 km/h (0 Bft) W 268 ° 0 min 0,000 mm 0,0 UV-I 0 W/m² -3,8 °C -1,1 °C 0,0 km/h (0 Bft)
16.02.2017 01:09 -1,0 °C -1,0 °C 82 % 1035,7 hPa 0,0 mm 0,0 km/h (0 Bft) W 268 ° 0 min 0,000 mm 0,0 UV-I 0 W/m² -3,7 °C -1,0 °C 0,0 km/h (0 Bft)
16.02.2017 01:10 -1,1 °C -1,0 °C 81 % 1035,7 hPa 0,0 mm 0,0 km/h (0 Bft) W 268 ° 0 min 0,000 mm 0,0 UV-I 0 W/m² -3,9 °C -1,1 °C 0,0 km/h (0 Bft)
16.02.2017 01:11 -1,1 °C -1,1 °C 81 % 1035,7 hPa 0,0 mm 0,1 km/h (0 Bft) W 268 ° 0 min 0,000 mm 0,0 UV-I 0 W/m² -3,9 °C -1,1 °C 1,6 km/h (1 Bft)
16.02.2017 01:12 -1,1 °C -1,1 °C 82 % 1035,7 hPa 0,0 mm 1,1 km/h (1 Bft) W 268 ° 0 min 0,000 mm 0,0 UV-I 0 W/m² -3,8 °C -1,1 °C 1,6 km/h (1 Bft)
16.02.2017 01:13 -1,1 °C -1,1 °C 82 % 1035,7 hPa 0,0 mm 0,1 km/h (0 Bft) W 268 ° 0 min 0,000 mm 0,0 UV-I 0 W/m² -3,8 °C -1,1 °C 1,6 km/h (1 Bft)
16.02.2017 01:14 -1,1 °C -1,1 °C 82 % 1035,7 hPa 0,0 mm 0,0 km/h (0 Bft) W 268 ° 0 min 0,000 mm 0,0 UV-I 0 W/m² -3,8 °C -1,1 °C 0,0 km/h (0 Bft)
16.02.2017 01:15 -1,1 °C -1,1 °C 82 % 1035,7 hPa 0,0 mm 0,0 km/h (0 Bft) W 268 ° 0 min 0,000 mm 0,0 UV-I 0 W/m² -3,8 °C -1,1 °C 0,0 km/h (0 Bft)
16.02.2017 01:16 -1,1 °C -1,1 °C 82 % 1035,7 hPa 0,0 mm 0,0 km/h (0 Bft) W 268 ° 0 min 0,000 mm 0,0 UV-I 0 W/m² -3,8 °C -1,1 °C 0,0 km/h (0 Bft)
16.02.2017 01:17 -1,1 °C -1,1 °C 81 % 1035,7 hPa 0,0 mm 0,3 km/h (0 Bft) W 268 ° 0 min 0,000 mm 0,0 UV-I 0 W/m² -3,9 °C -1,1 °C 1,6 km/h (1 Bft)
16.02.2017 01:18 -1,1 °C -1,1 °C 81 % 1035,6 hPa 0,0 mm 0,2 km/h (0 Bft) W 268 ° 0 min 0,000 mm 0,0 UV-I 0 W/m² -3,9 °C -1,1 °C 1,6 km/h (1 Bft)
16.02.2017 01:19 -1,1 °C -1,0 °C 82 % 1035,6 hPa 0,0 mm 0,4 km/h (0 Bft) W 268 ° 0 min 0,000 mm 0,0 UV-I 0 W/m² -3,8 °C -1,1 °C 1,6 km/h (1 Bft)
16.02.2017 01:20 -0,9 °C -0,9 °C 82 % 1035,6 hPa 0,0 mm 0,2 km/h (0 Bft) W 268 ° 0 min 0,000 mm 0,0 UV-I 0 W/m² -3,6 °C -0,9 °C 1,6 km/h (1 Bft)
16.02.2017 01:21 -0,9 °C -0,9 °C 81 % 1035,6 hPa 0,0 mm 0,2 km/h (0 Bft) W 268 ° 0 min 0,000 mm 0,0 UV-I 0 W/m² -3,7 °C -0,9 °C 1,6 km/h (1 Bft)
16.02.2017 01:22 -0,9 °C -0,9 °C 82 % 1035,6 hPa 0,0 mm 0,3 km/h (0 Bft) W 268 ° 0 min 0,000 mm 0,0 UV-I 0 W/m² -3,6 °C -0,9 °C 1,6 km/h (1 Bft)
16.02.2017 01:23 -0,9 °C -0,9 °C 81 % 1035,6 hPa 0,0 mm 0,7 km/h (0 Bft) W 268 ° 0 min 0,000 mm 0,0 UV-I 0 W/m² -3,7 °C -0,9 °C 3,2 km/h (1 Bft)
16.02.2017 01:24 -0,9 °C -0,9 °C 81 % 1035,6 hPa 0,0 mm 0,1 km/h (0 Bft) W 268 ° 0 min 0,000 mm 0,0 UV-I 0 W/m² -3,7 °C -0,9 °C 1,6 km/h (1 Bft)
16.02.2017 01:25 -1,0 °C -0,9 °C 81 % 1035,7 hPa 0,0 mm 0,7 km/h (0 Bft) W 268 ° 0 min 0,000 mm 0,0 UV-I 0 W/m² -3,8 °C -1,0 °C 1,6 km/h (1 Bft)
16.02.2017 01:26 -1,1 °C -1,0 °C 81 % 1035,7 hPa 0,0 mm 0,2 km/h (0 Bft) W 268 ° 0 min 0,000 mm 0,0 UV-I 0 W/m² -3,9 °C -1,1 °C 1,6 km/h (1 Bft)
16.02.2017 01:27 -1,0 °C -1,0 °C 82 % 1035,7 hPa 0,0 mm 0,2 km/h (0 Bft) W 268 ° 0 min 0,000 mm 0,0 UV-I 0 W/m² -3,7 °C -1,0 °C 1,6 km/h (1 Bft)
16.02.2017 01:28 -1,1 °C -1,0 °C 81 % 1035,6 hPa 0,0 mm 0,1 km/h (0 Bft) W 268 ° 0 min 0,000 mm 0,0 UV-I 0 W/m² -3,9 °C -1,1 °C 1,6 km/h (1 Bft)
16.02.2017 01:29 -1,1 °C -1,1 °C 82 % 1035,6 hPa 0,0 mm 0,5 km/h (0 Bft) W 268 ° 0 min 0,000 mm 0,0 UV-I 0 W/m² -3,8 °C -1,1 °C 1,6 km/h (1 Bft)
16.02.2017 01:30 -1,1 °C -1,1 °C 81 % 1035,6 hPa 0,0 mm 0,3 km/h (0 Bft) W 268 ° 0 min 0,000 mm 0,0 UV-I 0 W/m² -3,9 °C -1,1 °C 1,6 km/h (1 Bft)
16.02.2017 01:31 -1,1 °C -1,1 °C 81 % 1035,7 hPa 0,0 mm 0,2 km/h (0 Bft) W 268 ° 0 min 0,000 mm 0,0 UV-I 0 W/m² -3,9 °C -1,1 °C 1,6 km/h (1 Bft)
16.02.2017 01:32 -1,2 °C -1,1 °C 81 % 1035,6 hPa 0,0 mm 0,6 km/h (0 Bft) W 268 ° 0 min 0,000 mm 0,0 UV-I 0 W/m² -4,0 °C -1,2 °C 1,6 km/h (1 Bft)
16.02.2017 01:33 -1,2 °C -1,2 °C 81 % 1035,6 hPa 0,0 mm 0,1 km/h (0 Bft) W 268 ° 0 min 0,000 mm 0,0 UV-I 0 W/m² -4,0 °C -1,2 °C 1,6 km/h (1 Bft)
16.02.2017 01:34 -1,2 °C -1,2 °C 82 % 1035,6 hPa 0,0 mm 0,0 km/h (0 Bft) W 268 ° 0 min 0,000 mm 0,0 UV-I 0 W/m² -3,9 °C -1,2 °C 0,0 km/h (0 Bft)
16.02.2017 01:35 -1,2 °C -1,2 °C 82 % 1035,6 hPa 0,0 mm 0,0 km/h (0 Bft) W 268 ° 0 min 0,000 mm 0,0 UV-I 0 W/m² -3,9 °C -1,2 °C 0,0 km/h (0 Bft)
16.02.2017 01:36 -1,2 °C -1,2 °C 82 % 1035,6 hPa 0,0 mm 0,0 km/h (0 Bft) W 268 ° 0 min 0,000 mm 0,0 UV-I 0 W/m² -3,9 °C -1,2 °C 0,0 km/h (0 Bft)
16.02.2017 01:37 -1,2 °C -1,2 °C 82 % 1035,6 hPa 0,0 mm 0,0 km/h (0 Bft) W 268 ° 0 min 0,000 mm 0,0 UV-I 0 W/m² -3,9 °C -1,2 °C 0,0 km/h (0 Bft)
16.02.2017 01:38 -1,3 °C -1,2 °C 82 % 1035,6 hPa 0,0 mm 0,0 km/h (0 Bft) W 268 ° 0 min 0,000 mm 0,0 UV-I 0 W/m² -4,0 °C -1,3 °C 0,0 km/h (0 Bft)
16.02.2017 01:39 -1,3 °C -1,2 °C 82 % 1035,6 hPa 0,0 mm 0,0 km/h (0 Bft) W 268 ° 0 min 0,000 mm 0,0 UV-I 0 W/m² -4,0 °C -1,3 °C 0,0 km/h (0 Bft)
16.02.2017 01:40 -1,3 °C -1,2 °C 82 % 1035,6 hPa 0,0 mm 0,0 km/h (0 Bft) W 268 ° 0 min 0,000 mm 0,0 UV-I 0 W/m² -4,0 °C -1,3 °C 0,0 km/h (0 Bft)
16.02.2017 01:41 -1,3 °C -1,3 °C 82 % 1035,6 hPa 0,0 mm 0,0 km/h (0 Bft) W 268 ° 0 min 0,000 mm 0,0 UV-I 0 W/m² -4,0 °C -1,3 °C 0,0 km/h (0 Bft)
16.02.2017 01:42 -1,3 °C -1,2 °C 82 % 1035,6 hPa 0,0 mm 0,0 km/h (0 Bft) W 268 ° 0 min 0,000 mm 0,0 UV-I 0 W/m² -4,0 °C -1,3 °C 0,0 km/h (0 Bft)
16.02.2017 01:43 -1,3 °C -1,3 °C 81 % 1035,7 hPa 0,0 mm 0,0 km/h (0 Bft) W 268 ° 0 min 0,000 mm 0,0 UV-I 0 W/m² -4,1 °C -1,3 °C 0,0 km/h (0 Bft)
16.02.2017 01:44 -1,3 °C -1,3 °C 81 % 1035,7 hPa 0,0 mm 0,0 km/h (0 Bft) W 268 ° 0 min 0,000 mm 0,0 UV-I 0 W/m² -4,1 °C -1,3 °C 0,0 km/h (0 Bft)
16.02.2017 01:45 -1,3 °C -1,3 °C 81 % 1035,6 hPa 0,0 mm 0,0 km/h (0 Bft) W 268 ° 0 min 0,000 mm 0,0 UV-I 0 W/m² -4,1 °C -1,3 °C 0,0 km/h (0 Bft)
16.02.2017 01:46 -1,3 °C -1,3 °C 82 % 1035,6 hPa 0,0 mm 0,0 km/h (0 Bft) W 268 ° 0 min 0,000 mm 0,0 UV-I 0 W/m² -4,0 °C -1,3 °C 0,0 km/h (0 Bft)
16.02.2017 01:47 -1,3 °C -1,3 °C 82 % 1035,7 hPa 0,0 mm 0,0 km/h (0 Bft) W 268 ° 0 min 0,000 mm 0,0 UV-I 0 W/m² -4,0 °C -1,3 °C 0,0 km/h (0 Bft)
16.02.2017 01:48 -1,3 °C -1,3 °C 82 % 1035,6 hPa 0,0 mm 0,0 km/h (0 Bft) W 268 ° 0 min 0,000 mm 0,0 UV-I 0 W/m² -4,0 °C -1,3 °C 0,0 km/h (0 Bft)
16.02.2017 01:49 -1,3 °C -1,3 °C 82 % 1035,7 hPa 0,0 mm 0,0 km/h (0 Bft) W 268 ° 0 min 0,000 mm 0,0 UV-I 0 W/m² -4,0 °C -1,3 °C 0,0 km/h (0 Bft)
16.02.2017 01:50 -1,3 °C -1,3 °C 82 % 1035,6 hPa 0,0 mm 0,0 km/h (0 Bft) W 268 ° 0 min 0,000 mm 0,0 UV-I 0 W/m² -4,0 °C -1,3 °C 0,0 km/h (0 Bft)
16.02.2017 01:51 -1,3 °C -1,3 °C 82 % 1035,7 hPa 0,0 mm 0,0 km/h (0 Bft) W 268 ° 0 min 0,000 mm 0,0 UV-I 0 W/m² -4,0 °C -1,3 °C 0,0 km/h (0 Bft)
16.02.2017 01:52 -1,3 °C -1,3 °C 81 % 1035,7 hPa 0,0 mm 0,0 km/h (0 Bft) W 268 ° 0 min 0,000 mm 0,0 UV-I 0 W/m² -4,1 °C -1,3 °C 0,0 km/h (0 Bft)
16.02.2017 01:53 -1,3 °C -1,3 °C 81 % 1035,7 hPa 0,0 mm 0,0 km/h (0 Bft) W 268 ° 0 min 0,000 mm 0,0 UV-I 0 W/m² -4,1 °C -1,3 °C 0,0 km/h (0 Bft)
16.02.2017 01:54 -1,3 °C -1,3 °C 81 % 1035,7 hPa 0,0 mm 0,0 km/h (0 Bft) W 268 ° 0 min 0,000 mm 0,0 UV-I 0 W/m² -4,1 °C -1,3 °C 0,0 km/h (0 Bft)
16.02.2017 01:55 -1,3 °C -1,3 °C 81 % 1035,7 hPa 0,0 mm 0,0 km/h (0 Bft) W 268 ° 0 min 0,000 mm 0,0 UV-I 0 W/m² -4,1 °C -1,3 °C 0,0 km/h (0 Bft)
16.02.2017 01:56 -1,3 °C -1,3 °C 81 % 1035,7 hPa 0,0 mm 0,0 km/h (0 Bft) W 268 ° 0 min 0,000 mm 0,0 UV-I 0 W/m² -4,1 °C -1,3 °C 0,0 km/h (0 Bft)
16.02.2017 01:57 -1,3 °C -1,3 °C 81 % 1035,7 hPa 0,0 mm 0,0 km/h (0 Bft) W 268 ° 0 min 0,000 mm 0,0 UV-I 0 W/m² -4,1 °C -1,3 °C 0,0 km/h (0 Bft)
16.02.2017 01:58 -1,3 °C -1,3 °C 80 % 1035,7 hPa 0,0 mm 0,0 km/h (0 Bft) W 268 ° 0 min 0,000 mm 0,0 UV-I 0 W/m² -4,3 °C -1,3 °C 0,0 km/h (0 Bft)
16.02.2017 01:59 -1,3 °C -1,3 °C 80 % 1035,7 hPa 0,0 mm 0,0 km/h (0 Bft) W 268 ° 0 min 0,000 mm 0,0 UV-I 0 W/m² -4,3 °C -1,3 °C 0,0 km/h (0 Bft)
16.02.2017 02:00 -1,3 °C -1,3 °C 80 % 1035,7 hPa 0,0 mm 0,0 km/h (0 Bft) W 268 ° 0 min 0,000 mm 0,0 UV-I 0 W/m² -4,3 °C -1,3 °C 0,0 km/h (0 Bft)
16.02.2017 02:01 -1,3 °C -1,3 °C 80 % 1035,7 hPa 0,0 mm 0,0 km/h (0 Bft) W 268 ° 0 min 0,000 mm 0,0 UV-I 0 W/m² -4,3 °C -1,3 °C 0,0 km/h (0 Bft)
16.02.2017 02:02 -1,3 °C -1,3 °C 80 % 1035,7 hPa 0,0 mm 0,0 km/h (0 Bft) W 268 ° 0 min 0,000 mm 0,0 UV-I 0 W/m² -4,3 °C -1,3 °C 0,0 km/h (0 Bft)
16.02.2017 02:03 -1,3 °C -1,3 °C 80 % 1035,7 hPa 0,0 mm 0,0 km/h (0 Bft) W 268 ° 0 min 0,000 mm 0,0 UV-I 0 W/m² -4,3 °C -1,3 °C 0,0 km/h (0 Bft)
16.02.2017 02:04 -1,3 °C -1,3 °C 80 % 1035,7 hPa 0,0 mm 0,0 km/h (0 Bft) W 268 ° 0 min 0,000 mm 0,0 UV-I 0 W/m² -4,3 °C -1,3 °C 0,0 km/h (0 Bft)
16.02.2017 02:05 -1,3 °C -1,3 °C 80 % 1035,7 hPa 0,0 mm 0,0 km/h (0 Bft) W 268 ° 0 min 0,000 mm 0,0 UV-I 0 W/m² -4,3 °C -1,3 °C 0,0 km/h (0 Bft)
16.02.2017 02:06 -1,4 °C -1,3 °C 80 % 1035,7 hPa 0,0 mm 0,0 km/h (0 Bft) W 268 ° 0 min 0,000 mm 0,0 UV-I 0 W/m² -4,4 °C -1,4 °C 0,0 km/h (0 Bft)
16.02.2017 02:07 -1,3 °C -1,3 °C 81 % 1035,7 hPa 0,0 mm 0,0 km/h (0 Bft) W 268 ° 0 min 0,000 mm 0,0 UV-I 0 W/m² -4,1 °C -1,3 °C 0,0 km/h (0 Bft)
16.02.2017 02:08 -1,3 °C -1,3 °C 81 % 1035,7 hPa 0,0 mm 0,0 km/h (0 Bft) W 268 ° 0 min 0,000 mm 0,0 UV-I 0 W/m² -4,1 °C -1,3 °C 0,0 km/h (0 Bft)
16.02.2017 02:09 -1,3 °C -1,3 °C 81 % 1035,7 hPa 0,0 mm 0,0 km/h (0 Bft) W 268 ° 0 min 0,000 mm 0,0 UV-I 0 W/m² -4,1 °C -1,3 °C 0,0 km/h (0 Bft)
16.02.2017 02:10 -1,4 °C -1,3 °C 81 % 1035,7 hPa 0,0 mm 0,0 km/h (0 Bft) W 268 ° 0 min 0,000 mm 0,0 UV-I 0 W/m² -4,2 °C -1,4 °C 0,0 km/h (0 Bft)
16.02.2017 02:11 -1,4 °C -1,3 °C 81 % 1035,7 hPa 0,0 mm 0,0 km/h (0 Bft) W 268 ° 0 min 0,000 mm 0,0 UV-I 0 W/m² -4,2 °C -1,4 °C 0,0 km/h (0 Bft)
16.02.2017 02:12 -1,3 °C -1,3 °C 81 % 1035,7 hPa 0,0 mm 0,0 km/h (0 Bft) W 268 ° 0 min 0,000 mm 0,0 UV-I 0 W/m² -4,1 °C -1,3 °C 0,0 km/h (0 Bft)
16.02.2017 02:13 -1,4 °C -1,3 °C 81 % 1035,7 hPa 0,0 mm 0,0 km/h (0 Bft) W 268 ° 0 min 0,000 mm 0,0 UV-I 0 W/m² -4,2 °C -1,4 °C 0,0 km/h (0 Bft)
16.02.2017 02:14 -1,4 °C -1,4 °C 80 % 1035,7 hPa 0,0 mm 0,0 km/h (0 Bft) W 268 ° 0 min 0,000 mm 0,0 UV-I 0 W/m² -4,4 °C -1,4 °C 0,0 km/h (0 Bft)
16.02.2017 02:15 -1,4 °C -1,4 °C 81 % 1035,6 hPa 0,0 mm 0,0 km/h (0 Bft) W 268 ° 0 min 0,000 mm 0,0 UV-I 0 W/m² -4,2 °C -1,4 °C 0,0 km/h (0 Bft)
16.02.2017 02:16 -1,4 °C -1,4 °C 80 % 1035,7 hPa 0,0 mm 0,0 km/h (0 Bft) W 268 ° 0 min 0,000 mm 0,0 UV-I 0 W/m² -4,4 °C -1,4 °C 0,0 km/h (0 Bft)
16.02.2017 02:17 -1,4 °C -1,4 °C 80 % 1035,7 hPa 0,0 mm 0,0 km/h (0 Bft) W 268 ° 0 min 0,000 mm 0,0 UV-I 0 W/m² -4,4 °C -1,4 °C 0,0 km/h (0 Bft)
16.02.2017 02:18 -1,4 °C -1,4 °C 80 % 1035,7 hPa 0,0 mm 0,0 km/h (0 Bft) W 268 ° 0 min 0,000 mm 0,0 UV-I 0 W/m² -4,4 °C -1,4 °C 0,0 km/h (0 Bft)
16.02.2017 02:19 -1,4 °C -1,4 °C 80 % 1035,6 hPa 0,0 mm 0,0 km/h (0 Bft) W 268 ° 0 min 0,000 mm 0,0 UV-I 0 W/m² -4,4 °C -1,4 °C 0,0 km/h (0 Bft)
16.02.2017 02:20 -1,4 °C -1,4 °C 81 % 1035,6 hPa 0,0 mm 0,0 km/h (0 Bft) W 268 ° 0 min 0,000 mm 0,0 UV-I 0 W/m² -4,2 °C -1,4 °C 0,0 km/h (0 Bft)
16.02.2017 02:21 -1,4 °C -1,4 °C 81 % 1035,7 hPa 0,0 mm 0,0 km/h (0 Bft) W 268 ° 0 min 0,000 mm 0,0 UV-I 0 W/m² -4,2 °C -1,4 °C 0,0 km/h (0 Bft)
16.02.2017 02:22 -1,4 °C -1,4 °C 81 % 1035,7 hPa 0,0 mm 0,0 km/h (0 Bft) W 268 ° 0 min 0,000 mm 0,0 UV-I 0 W/m² -4,2 °C -1,4 °C 0,0 km/h (0 Bft)
16.02.2017 02:23 -1,4 °C -1,4 °C 81 % 1035,7 hPa 0,0 mm 0,0 km/h (0 Bft) W 268 ° 0 min 0,000 mm 0,0 UV-I 0 W/m² -4,2 °C -1,4 °C 0,0 km/h (0 Bft)
16.02.2017 02:24 -1,4 °C -1,4 °C 81 % 1035,6 hPa 0,0 mm 0,0 km/h (0 Bft) W 268 ° 0 min 0,000 mm 0,0 UV-I 0 W/m² -4,2 °C -1,4 °C 0,0 km/h (0 Bft)
16.02.2017 02:25 -1,4 °C -1,4 °C 81 % 1035,6 hPa 0,0 mm 0,0 km/h (0 Bft) W 268 ° 0 min 0,000 mm 0,0 UV-I 0 W/m² -4,2 °C -1,4 °C 0,0 km/h (0 Bft)
16.02.2017 02:26 -1,4 °C -1,4 °C 81 % 1035,6 hPa 0,0 mm 0,0 km/h (0 Bft) W 268 ° 0 min 0,000 mm 0,0 UV-I 0 W/m² -4,2 °C -1,4 °C 0,0 km/h (0 Bft)
16.02.2017 02:27 -1,4 °C -1,4 °C 81 % 1035,6 hPa 0,0 mm 0,0 km/h (0 Bft) W 268 ° 0 min 0,000 mm 0,0 UV-I 0 W/m² -4,2 °C -1,4 °C 0,0 km/h (0 Bft)
16.02.2017 02:28 -1,5 °C -1,4 °C 81 % 1035,7 hPa 0,0 mm 0,0 km/h (0 Bft) W 268 ° 0 min 0,000 mm 0,0 UV-I 0 W/m² -4,3 °C -1,5 °C 0,0 km/h (0 Bft)
16.02.2017 02:29 -1,5 °C -1,5 °C 81 % 1035,7 hPa 0,0 mm 0,0 km/h (0 Bft) W 268 ° 0 min 0,000 mm 0,0 UV-I 0 W/m² -4,3 °C -1,5 °C 0,0 km/h (0 Bft)
16.02.2017 02:30 -1,5 °C -1,5 °C 81 % 1035,7 hPa 0,0 mm 0,0 km/h (0 Bft) W 268 ° 0 min 0,000 mm 0,0 UV-I 0 W/m² -4,3 °C -1,5 °C 0,0 km/h (0 Bft)
16.02.2017 02:31 -1,5 °C -1,5 °C 81 % 1035,7 hPa 0,0 mm 0,0 km/h (0 Bft) W 268 ° 0 min 0,000 mm 0,0 UV-I 0 W/m² -4,3 °C -1,5 °C 0,0 km/h (0 Bft)
16.02.2017 02:32 -1,5 °C -1,5 °C 81 % 1035,7 hPa 0,0 mm 0,0 km/h (0 Bft) W 268 ° 0 min 0,000 mm 0,0 UV-I 0 W/m² -4,3 °C -1,5 °C 0,0 km/h (0 Bft)
16.02.2017 02:33 -1,6 °C -1,5 °C 81 % 1035,7 hPa 0,0 mm 0,0 km/h (0 Bft) W 268 ° 0 min 0,000 mm 0,0 UV-I 0 W/m² -4,4 °C -1,6 °C 0,0 km/h (0 Bft)
16.02.2017 02:34 -1,5 °C -1,5 °C 81 % 1035,7 hPa 0,0 mm 0,0 km/h (0 Bft) W 268 ° 0 min 0,000 mm 0,0 UV-I 0 W/m² -4,3 °C -1,5 °C 0,0 km/h (0 Bft)
16.02.2017 02:35 -1,6 °C -1,5 °C 81 % 1035,6 hPa 0,0 mm 0,0 km/h (0 Bft) W 268 ° 0 min 0,000 mm 0,0 UV-I 0 W/m² -4,4 °C -1,6 °C 0,0 km/h (0 Bft)
16.02.2017 02:36 -1,6 °C -1,6 °C 81 % 1035,6 hPa 0,0 mm 0,0 km/h (0 Bft) W 268 ° 0 min 0,000 mm 0,0 UV-I 0 W/m² -4,4 °C -1,6 °C 0,0 km/h (0 Bft)
16.02.2017 02:37 -1,6 °C -1,6 °C 81 % 1035,7 hPa 0,0 mm 0,0 km/h (0 Bft) W 268 ° 0 min 0,000 mm 0,0 UV-I 0 W/m² -4,4 °C -1,6 °C 0,0 km/h (0 Bft)
16.02.2017 02:38 -1,6 °C -1,6 °C 81 % 1035,6 hPa 0,0 mm 0,0 km/h (0 Bft) W 268 ° 0 min 0,000 mm 0,0 UV-I 0 W/m² -4,4 °C -1,6 °C 0,0 km/h (0 Bft)
16.02.2017 02:39 -1,6 °C -1,6 °C 81 % 1035,6 hPa 0,0 mm 0,0 km/h (0 Bft) W 268 ° 0 min 0,000 mm 0,0 UV-I 0 W/m² -4,4 °C -1,6 °C 0,0 km/h (0 Bft)
16.02.2017 02:40 -1,6 °C -1,6 °C 81 % 1035,6 hPa 0,0 mm 0,0 km/h (0 Bft) W 268 ° 0 min 0,000 mm 0,0 UV-I 0 W/m² -4,4 °C -1,6 °C 0,0 km/h (0 Bft)
16.02.2017 02:41 -1,6 °C -1,6 °C 81 % 1035,6 hPa 0,0 mm 0,0 km/h (0 Bft) W 268 ° 0 min 0,000 mm 0,0 UV-I 0 W/m² -4,4 °C -1,6 °C 0,0 km/h (0 Bft)
16.02.2017 02:42 -1,6 °C -1,6 °C 81 % 1035,7 hPa 0,0 mm 0,0 km/h (0 Bft) W 268 ° 0 min 0,000 mm 0,0 UV-I 0 W/m² -4,4 °C -1,6 °C 0,0 km/h (0 Bft)
16.02.2017 02:43 -1,6 °C -1,6 °C 81 % 1035,6 hPa 0,0 mm 0,0 km/h (0 Bft) W 268 ° 0 min 0,000 mm 0,0 UV-I 0 W/m² -4,4 °C -1,6 °C 0,0 km/h (0 Bft)
16.02.2017 02:44 -1,7 °C -1,6 °C 81 % 1035,6 hPa 0,0 mm 0,0 km/h (0 Bft) W 268 ° 0 min 0,000 mm 0,0 UV-I 0 W/m² -4,5 °C -1,7 °C 0,0 km/h (0 Bft)
16.02.2017 02:45 -1,7 °C -1,7 °C 81 % 1035,6 hPa 0,0 mm 0,0 km/h (0 Bft) W 268 ° 0 min 0,000 mm 0,0 UV-I 0 W/m² -4,5 °C -1,7 °C 0,0 km/h (0 Bft)
16.02.2017 02:46 -1,7 °C -1,7 °C 81 % 1035,6 hPa 0,0 mm 0,0 km/h (0 Bft) W 268 ° 0 min 0,000 mm 0,0 UV-I 0 W/m² -4,5 °C -1,7 °C 0,0 km/h (0 Bft)
16.02.2017 02:47 -1,7 °C -1,7 °C 81 % 1035,6 hPa 0,0 mm 0,0 km/h (0 Bft) W 268 ° 0 min 0,000 mm 0,0 UV-I 0 W/m² -4,5 °C -1,7 °C 0,0 km/h (0 Bft)
16.02.2017 02:48 -1,7 °C -1,7 °C 81 % 1035,6 hPa 0,0 mm 0,0 km/h (0 Bft) W 268 ° 0 min 0,000 mm 0,0 UV-I 0 W/m² -4,5 °C -1,7 °C 0,0 km/h (0 Bft)
16.02.2017 02:49 -1,7 °C -1,7 °C 81 % 1035,6 hPa 0,0 mm 0,0 km/h (0 Bft) W 268 ° 0 min 0,000 mm 0,0 UV-I 0 W/m² -4,5 °C -1,7 °C 0,0 km/h (0 Bft)
16.02.2017 02:50 -1,7 °C -1,7 °C 81 % 1035,6 hPa 0,0 mm 0,0 km/h (0 Bft) W 268 ° 0 min 0,000 mm 0,0 UV-I 0 W/m² -4,5 °C -1,7 °C 0,0 km/h (0 Bft)
16.02.2017 02:51 -1,7 °C -1,7 °C 81 % 1035,6 hPa 0,0 mm 0,0 km/h (0 Bft) W 268 ° 0 min 0,000 mm 0,0 UV-I 0 W/m² -4,5 °C -1,7 °C 0,0 km/h (0 Bft)
16.02.2017 02:52 -1,7 °C -1,7 °C 81 % 1035,6 hPa 0,0 mm 0,0 km/h (0 Bft) W 268 ° 0 min 0,000 mm 0,0 UV-I 0 W/m² -4,5 °C -1,7 °C 0,0 km/h (0 Bft)
16.02.2017 02:53 -1,8 °C -1,7 °C 81 % 1035,6 hPa 0,0 mm 0,0 km/h (0 Bft) W 268 ° 0 min 0,000 mm 0,0 UV-I 0 W/m² -4,6 °C -1,8 °C 0,0 km/h (0 Bft)
16.02.2017 02:54 -1,8 °C -1,7 °C 81 % 1035,6 hPa 0,0 mm 0,0 km/h (0 Bft) W 268 ° 0 min 0,000 mm 0,0 UV-I 0 W/m² -4,6 °C -1,8 °C 0,0 km/h (0 Bft)
16.02.2017 02:55 -1,8 °C -1,8 °C 81 % 1035,6 hPa 0,0 mm 0,0 km/h (0 Bft) W 268 ° 0 min 0,000 mm 0,0 UV-I 0 W/m² -4,6 °C -1,8 °C 0,0 km/h (0 Bft)
16.02.2017 02:56 -1,8 °C -1,8 °C 81 % 1035,5 hPa 0,0 mm 0,0 km/h (0 Bft) W 268 ° 0 min 0,000 mm 0,0 UV-I 0 W/m² -4,6 °C -1,8 °C 0,0 km/h (0 Bft)
16.02.2017 02:57 -1,8 °C -1,8 °C 81 % 1035,5 hPa 0,0 mm 0,0 km/h (0 Bft) W 268 ° 0 min 0,000 mm 0,0 UV-I 0 W/m² -4,6 °C -1,8 °C 0,0 km/h (0 Bft)
16.02.2017 02:58 -1,8 °C -1,7 °C 81 % 1035,5 hPa 0,0 mm 0,0 km/h (0 Bft) W 268 ° 0 min 0,000 mm 0,0 UV-I 0 W/m² -4,6 °C -1,8 °C 0,0 km/h (0 Bft)
16.02.2017 02:59 -1,8 °C -1,8 °C 81 % 1035,5 hPa 0,0 mm 0,0 km/h (0 Bft) W 268 ° 0 min 0,000 mm 0,0 UV-I 0 W/m² -4,6 °C -1,8 °C 0,0 km/h (0 Bft)
16.02.2017 03:00 -1,8 °C -1,8 °C 81 % 1035,5 hPa 0,0 mm 0,0 km/h (0 Bft) W 268 ° 0 min 0,000 mm 0,0 UV-I 0 W/m² -4,6 °C -1,8 °C 0,0 km/h (0 Bft)
16.02.2017 03:01 -1,8 °C -1,8 °C 82 % 1035,4 hPa 0,0 mm 0,0 km/h (0 Bft) W 268 ° 0 min 0,000 mm 0,0 UV-I 0 W/m² -4,5 °C -1,8 °C 0,0 km/h (0 Bft)
16.02.2017 03:02 -1,8 °C -1,8 °C 82 % 1035,5 hPa 0,0 mm 0,0 km/h (0 Bft) W 268 ° 0 min 0,000 mm 0,0 UV-I 0 W/m² -4,5 °C -1,8 °C 0,0 km/h (0 Bft)
16.02.2017 03:03 -1,8 °C -1,8 °C 82 % 1035,5 hPa 0,0 mm 0,0 km/h (0 Bft) W 268 ° 0 min 0,000 mm 0,0 UV-I 0 W/m² -4,5 °C -1,8 °C 0,0 km/h (0 Bft)
16.02.2017 03:04 -1,8 °C -1,8 °C 82 % 1035,5 hPa 0,0 mm 0,0 km/h (0 Bft) W 268 ° 0 min 0,000 mm 0,0 UV-I 0 W/m² -4,5 °C -1,8 °C 0,0 km/h (0 Bft)
16.02.2017 03:05 -1,8 °C -1,8 °C 81 % 1035,5 hPa 0,0 mm 0,0 km/h (0 Bft) W 268 ° 0 min 0,000 mm 0,0 UV-I 0 W/m² -4,6 °C -1,8 °C 0,0 km/h (0 Bft)
16.02.2017 03:06 -1,8 °C -1,8 °C 82 % 1035,5 hPa 0,0 mm 0,0 km/h (0 Bft) W 268 ° 0 min 0,000 mm 0,0 UV-I 0 W/m² -4,5 °C -1,8 °C 0,0 km/h (0 Bft)
16.02.2017 03:07 -1,8 °C -1,8 °C 82 % 1035,5 hPa 0,0 mm 0,0 km/h (0 Bft) W 268 ° 0 min 0,000 mm 0,0 UV-I 0 W/m² -4,5 °C -1,8 °C 0,0 km/h (0 Bft)
16.02.2017 03:08 -1,8 °C -1,8 °C 82 % 1035,4 hPa 0,0 mm 0,0 km/h (0 Bft) W 268 ° 0 min 0,000 mm 0,0 UV-I 0 W/m² -4,5 °C -1,8 °C 0,0 km/h (0 Bft)
16.02.2017 03:09 -1,8 °C -1,8 °C 82 % 1035,4 hPa 0,0 mm 0,0 km/h (0 Bft) W 268 ° 0 min 0,000 mm 0,0 UV-I 0 W/m² -4,5 °C -1,8 °C 0,0 km/h (0 Bft)
16.02.2017 03:10 -1,8 °C -1,8 °C 81 % 1035,5 hPa 0,0 mm 0,0 km/h (0 Bft) W 268 ° 0 min 0,000 mm 0,0 UV-I 0 W/m² -4,6 °C -1,8 °C 0,0 km/h (0 Bft)
16.02.2017 03:11 -1,8 °C -1,8 °C 81 % 1035,4 hPa 0,0 mm 0,0 km/h (0 Bft) W 268 ° 0 min 0,000 mm 0,0 UV-I 0 W/m² -4,6 °C -1,8 °C 0,0 km/h (0 Bft)
16.02.2017 03:12 -1,8 °C -1,8 °C 81 % 1035,4 hPa 0,0 mm 0,0 km/h (0 Bft) W 268 ° 0 min 0,000 mm 0,0 UV-I 0 W/m² -4,6 °C -1,8 °C 0,0 km/h (0 Bft)
16.02.2017 03:13 -1,8 °C -1,8 °C 81 % 1035,4 hPa 0,0 mm 0,0 km/h (0 Bft) W 268 ° 0 min 0,000 mm 0,0 UV-I 0 W/m² -4,6 °C -1,8 °C 0,0 km/h (0 Bft)
16.02.2017 03:14 -1,8 °C -1,8 °C 82 % 1035,3 hPa 0,0 mm 0,0 km/h (0 Bft) W 268 ° 0 min 0,000 mm 0,0 UV-I 0 W/m² -4,5 °C -1,8 °C 0,0 km/h (0 Bft)
16.02.2017 03:15 -1,8 °C -1,8 °C 82 % 1035,3 hPa 0,0 mm 0,0 km/h (0 Bft) W 268 ° 0 min 0,000 mm 0,0 UV-I 0 W/m² -4,5 °C -1,8 °C 0,0 km/h (0 Bft)
16.02.2017 03:16 -1,9 °C -1,8 °C 82 % 1035,3 hPa 0,0 mm 0,0 km/h (0 Bft) W 268 ° 0 min 0,000 mm 0,0 UV-I 0 W/m² -4,6 °C -1,9 °C 0,0 km/h (0 Bft)
16.02.2017 03:17 -1,9 °C -1,8 °C 82 % 1035,3 hPa 0,0 mm 0,0 km/h (0 Bft) W 268 ° 0 min 0,000 mm 0,0 UV-I 0 W/m² -4,6 °C -1,9 °C 0,0 km/h (0 Bft)
16.02.2017 03:18 -1,9 °C -1,8 °C 82 % 1035,3 hPa 0,0 mm 0,0 km/h (0 Bft) W 268 ° 0 min 0,000 mm 0,0 UV-I 0 W/m² -4,6 °C -1,9 °C 0,0 km/h (0 Bft)
16.02.2017 03:19 -1,9 °C -1,9 °C 82 % 1035,3 hPa 0,0 mm 0,0 km/h (0 Bft) W 268 ° 0 min 0,000 mm 0,0 UV-I 0 W/m² -4,6 °C -1,9 °C 0,0 km/h (0 Bft)
16.02.2017 03:20 -1,9 °C -1,9 °C 82 % 1035,3 hPa 0,0 mm 0,0 km/h (0 Bft) W 268 ° 0 min 0,000 mm 0,0 UV-I 0 W/m² -4,6 °C -1,9 °C 0,0 km/h (0 Bft)
16.02.2017 03:21 -1,9 °C -1,9 °C 82 % 1035,3 hPa 0,0 mm 0,0 km/h (0 Bft) W 268 ° 0 min 0,000 mm 0,0 UV-I 0 W/m² -4,6 °C -1,9 °C 0,0 km/h (0 Bft)
16.02.2017 03:22 -1,9 °C -1,9 °C 82 % 1035,2 hPa 0,0 mm 0,0 km/h (0 Bft) W 268 ° 0 min 0,000 mm 0,0 UV-I 0 W/m² -4,6 °C -1,9 °C 0,0 km/h (0 Bft)
16.02.2017 03:23 -1,9 °C -1,9 °C 82 % 1035,2 hPa 0,0 mm 0,0 km/h (0 Bft) W 268 ° 0 min 0,000 mm 0,0 UV-I 0 W/m² -4,6 °C -1,9 °C 0,0 km/h (0 Bft)
16.02.2017 03:24 -1,9 °C -1,9 °C 82 % 1035,2 hPa 0,0 mm 0,0 km/h (0 Bft) W 268 ° 0 min 0,000 mm 0,0 UV-I 0 W/m² -4,6 °C -1,9 °C 0,0 km/h (0 Bft)
16.02.2017 03:25 -1,9 °C -1,9 °C 81 % 1035,2 hPa 0,0 mm 0,0 km/h (0 Bft) W 268 ° 0 min 0,000 mm 0,0 UV-I 0 W/m² -4,7 °C -1,9 °C 0,0 km/h (0 Bft)
16.02.2017 03:26 -1,9 °C -1,9 °C 81 % 1035,3 hPa 0,0 mm 0,0 km/h (0 Bft) W 268 ° 0 min 0,000 mm 0,0 UV-I 0 W/m² -4,7 °C -1,9 °C 0,0 km/h (0 Bft)
16.02.2017 03:27 -1,9 °C -1,9 °C 81 % 1035,2 hPa 0,0 mm 0,0 km/h (0 Bft) W 268 ° 0 min 0,000 mm 0,0 UV-I 0 W/m² -4,7 °C -1,9 °C 0,0 km/h (0 Bft)
16.02.2017 03:28 -1,9 °C -1,9 °C 82 % 1035,2 hPa 0,0 mm 0,0 km/h (0 Bft) W 268 ° 0 min 0,000 mm 0,0 UV-I 0 W/m² -4,6 °C -1,9 °C 0,0 km/h (0 Bft)
16.02.2017 03:29 -1,9 °C -1,9 °C 81 % 1035,2 hPa 0,0 mm 0,0 km/h (0 Bft) W 268 ° 0 min 0,000 mm 0,0 UV-I 0 W/m² -4,7 °C -1,9 °C 0,0 km/h (0 Bft)
16.02.2017 03:30 -1,9 °C -1,9 °C 81 % 1035,2 hPa 0,0 mm 0,0 km/h (0 Bft) W 268 ° 0 min 0,000 mm 0,0 UV-I 0 W/m² -4,7 °C -1,9 °C 0,0 km/h (0 Bft)
16.02.2017 03:31 -1,9 °C -1,9 °C 82 % 1035,2 hPa 0,0 mm 0,0 km/h (0 Bft) W 268 ° 0 min 0,000 mm 0,0 UV-I 0 W/m² -4,6 °C -1,9 °C 0,0 km/h (0 Bft)
16.02.2017 03:32 -1,9 °C -1,9 °C 82 % 1035,2 hPa 0,0 mm 0,0 km/h (0 Bft) W 268 ° 0 min 0,000 mm 0,0 UV-I 0 W/m² -4,6 °C -1,9 °C 0,0 km/h (0 Bft)
16.02.2017 03:33 -2,0 °C -1,9 °C 82 % 1035,2 hPa 0,0 mm 0,0 km/h (0 Bft) W 268 ° 0 min 0,000 mm 0,0 UV-I 0 W/m² -4,7 °C -2,0 °C 0,0 km/h (0 Bft)
16.02.2017 03:34 -1,9 °C -1,9 °C 82 % 1035,2 hPa 0,0 mm 0,0 km/h (0 Bft) W 268 ° 0 min 0,000 mm 0,0 UV-I 0 W/m² -4,6 °C -1,9 °C 0,0 km/h (0 Bft)
16.02.2017 03:35 -2,0 °C -1,9 °C 82 % 1035,2 hPa 0,0 mm 0,0 km/h (0 Bft) W 268 ° 0 min 0,000 mm 0,0 UV-I 0 W/m² -4,7 °C -2,0 °C 0,0 km/h (0 Bft)
16.02.2017 03:36 -2,0 °C -2,0 °C 82 % 1035,2 hPa 0,0 mm 0,0 km/h (0 Bft) W 268 ° 0 min 0,000 mm 0,0 UV-I 0 W/m² -4,7 °C -2,0 °C 0,0 km/h (0 Bft)
16.02.2017 03:37 -2,0 °C -2,0 °C 82 % 1035,1 hPa 0,0 mm 0,8 km/h (0 Bft) W 268 ° 0 min 0,000 mm 0,0 UV-I 0 W/m² -4,7 °C -2,0 °C 3,2 km/h (1 Bft)
16.02.2017 03:38 -2,0 °C -2,0 °C 82 % 1035,1 hPa 0,0 mm 2,5 km/h (1 Bft) N-NW 340 ° 0 min 0,000 mm 0,0 UV-I 0 W/m² -4,7 °C -2,0 °C 4,8 km/h (1 Bft)
16.02.2017 03:39 -2,0 °C -2,0 °C 82 % 1035,1 hPa 0,0 mm 2,6 km/h (1 Bft) S-SW 200 ° 0 min 0,000 mm 0,0 UV-I 0 W/m² -4,7 °C -2,0 °C 4,8 km/h (1 Bft)
16.02.2017 03:40 -2,1 °C -2,0 °C 82 % 1035,1 hPa 0,0 mm 0,5 km/h (0 Bft) S-SW 200 ° 0 min 0,000 mm 0,0 UV-I 0 W/m² -4,7 °C -2,1 °C 1,6 km/h (1 Bft)
16.02.2017 03:41 -2,0 °C -2,0 °C 82 % 1035,0 hPa 0,0 mm 0,0 km/h (0 Bft) S-SW 200 ° 0 min 0,000 mm 0,0 UV-I 0 W/m² -4,7 °C -2,0 °C 0,0 km/h (0 Bft)
16.02.2017 03:42 -2,0 °C -2,0 °C 82 % 1035,0 hPa 0,0 mm 0,3 km/h (0 Bft) S-SW 200 ° 0 min 0,000 mm 0,0 UV-I 0 W/m² -4,7 °C -2,0 °C 1,6 km/h (1 Bft)
16.02.2017 03:43 -2,0 °C -2,0 °C 82 % 1035,0 hPa 0,0 mm 0,5 km/h (0 Bft) S-SW 200 ° 0 min 0,000 mm 0,0 UV-I 0 W/m² -4,7 °C -2,0 °C 1,6 km/h (1 Bft)
16.02.2017 03:44 -2,0 °C -2,0 °C 82 % 1035,1 hPa 0,0 mm 0,0 km/h (0 Bft) S-SW 200 ° 0 min 0,000 mm 0,0 UV-I 0 W/m² -4,7 °C -2,0 °C 0,0 km/h (0 Bft)
16.02.2017 03:45 -2,0 °C -2,0 °C 82 % 1035,1 hPa 0,0 mm 0,1 km/h (0 Bft) S-SW 200 ° 0 min 0,000 mm 0,0 UV-I 0 W/m² -4,7 °C -2,0 °C 1,6 km/h (1 Bft)
16.02.2017 03:46 -2,1 °C -2,0 °C 82 % 1035,0 hPa 0,0 mm 0,0 km/h (0 Bft) S-SW 200 ° 0 min 0,000 mm 0,0 UV-I 0 W/m² -4,7 °C -2,1 °C 0,0 km/h (0 Bft)
16.02.2017 03:47 -2,1 °C -2,0 °C 82 % 1035,0 hPa 0,0 mm 0,0 km/h (0 Bft) S-SW 200 ° 0 min 0,000 mm 0,0 UV-I 0 W/m² -4,7 °C -2,1 °C 0,0 km/h (0 Bft)
16.02.2017 03:48 -2,1 °C -2,0 °C 82 % 1035,0 hPa 0,0 mm 0,1 km/h (0 Bft) S-SW 200 ° 0 min 0,000 mm 0,0 UV-I 0 W/m² -4,7 °C -2,1 °C 1,6 km/h (1 Bft)
16.02.2017 03:49 -2,1 °C -2,0 °C 82 % 1035,0 hPa 0,0 mm 0,0 km/h (0 Bft) S-SW 200 ° 0 min 0,000 mm 0,0 UV-I 0 W/m² -4,7 °C -2,1 °C 0,0 km/h (0 Bft)
16.02.2017 03:50 -2,1 °C -2,0 °C 82 % 1035,1 hPa 0,0 mm 1,4 km/h (1 Bft) S-SW 200 ° 0 min 0,000 mm 0,0 UV-I 0 W/m² -4,7 °C -2,1 °C 3,2 km/h (1 Bft)
16.02.2017 03:51 -2,0 °C -2,0 °C 82 % 1035,1 hPa 0,0 mm 0,1 km/h (0 Bft) S-SW 200 ° 0 min 0,000 mm 0,0 UV-I 0 W/m² -4,7 °C -2,0 °C 1,6 km/h (1 Bft)
16.02.2017 03:52 -2,1 °C -2,0 °C 82 % 1035,1 hPa 0,0 mm 0,0 km/h (0 Bft) S-SW 200 ° 0 min 0,000 mm 0,0 UV-I 0 W/m² -4,7 °C -2,1 °C 0,0 km/h (0 Bft)
16.02.2017 03:53 -2,1 °C -2,1 °C 82 % 1035,0 hPa 0,0 mm 0,0 km/h (0 Bft) S-SW 200 ° 0 min 0,000 mm 0,0 UV-I 0 W/m² -4,7 °C -2,1 °C 0,0 km/h (0 Bft)
16.02.2017 03:54 -2,1 °C -2,1 °C 82 % 1035,1 hPa 0,0 mm 0,0 km/h (0 Bft) S-SW 200 ° 0 min 0,000 mm 0,0 UV-I 0 W/m² -4,7 °C -2,1 °C 0,0 km/h (0 Bft)
16.02.2017 03:55 -2,1 °C -2,0 °C 82 % 1035,0 hPa 0,0 mm 0,0 km/h (0 Bft) S-SW 200 ° 0 min 0,000 mm 0,0 UV-I 0 W/m² -4,7 °C -2,1 °C 0,0 km/h (0 Bft)
16.02.2017 03:56 -2,1 °C -2,1 °C 82 % 1035,0 hPa 0,0 mm 0,1 km/h (0 Bft) S-SW 200 ° 0 min 0,000 mm 0,0 UV-I 0 W/m² -4,7 °C -2,1 °C 1,6 km/h (1 Bft)
16.02.2017 03:57 -2,1 °C -2,1 °C 82 % 1035,1 hPa 0,0 mm 0,0 km/h (0 Bft) S-SW 200 ° 0 min 0,000 mm 0,0 UV-I 0 W/m² -4,7 °C -2,1 °C 0,0 km/h (0 Bft)
16.02.2017 03:58 -2,1 °C -2,1 °C 82 % 1035,0 hPa 0,0 mm 0,0 km/h (0 Bft) S-SW 200 ° 0 min 0,000 mm 0,0 UV-I 0 W/m² -4,7 °C -2,1 °C 0,0 km/h (0 Bft)
16.02.2017 03:59 -2,1 °C -2,1 °C 83 % 1035,0 hPa 0,0 mm 0,0 km/h (0 Bft) S-SW 200 ° 0 min 0,000 mm 0,0 UV-I 0 W/m² -4,6 °C -2,1 °C 0,0 km/h (0 Bft)
16.02.2017 04:00 -2,1 °C -2,1 °C 83 % 1035,0 hPa 0,0 mm 0,0 km/h (0 Bft) S-SW 200 ° 0 min 0,000 mm 0,0 UV-I 0 W/m² -4,6 °C -2,1 °C 0,0 km/h (0 Bft)
16.02.2017 04:01 -2,1 °C -2,1 °C 83 % 1035,0 hPa 0,0 mm 0,0 km/h (0 Bft) S-SW 200 ° 0 min 0,000 mm 0,0 UV-I 0 W/m² -4,6 °C -2,1 °C 0,0 km/h (0 Bft)
16.02.2017 04:02 -2,1 °C -2,1 °C 82 % 1035,0 hPa 0,0 mm 0,3 km/h (0 Bft) S-SW 200 ° 0 min 0,000 mm 0,0 UV-I 0 W/m² -4,7 °C -2,1 °C 1,6 km/h (1 Bft)
16.02.2017 04:03 -2,1 °C -2,1 °C 82 % 1035,1 hPa 0,0 mm 0,0 km/h (0 Bft) S-SW 200 ° 0 min 0,000 mm 0,0 UV-I 0 W/m² -4,7 °C -2,1 °C 0,0 km/h (0 Bft)
16.02.2017 04:04 -2,1 °C -2,1 °C 82 % 1035,0 hPa 0,0 mm 0,0 km/h (0 Bft) S-SW 200 ° 0 min 0,000 mm 0,0 UV-I 0 W/m² -4,7 °C -2,1 °C 0,0 km/h (0 Bft)
16.02.2017 04:05 -2,1 °C -2,1 °C 82 % 1035,1 hPa 0,0 mm 0,0 km/h (0 Bft) S-SW 200 ° 0 min 0,000 mm 0,0 UV-I 0 W/m² -4,7 °C -2,1 °C 0,0 km/h (0 Bft)
16.02.2017 04:06 -2,1 °C -2,1 °C 82 % 1035,0 hPa 0,0 mm 0,0 km/h (0 Bft) S-SW 200 ° 0 min 0,000 mm 0,0 UV-I 0 W/m² -4,7 °C -2,1 °C 0,0 km/h (0 Bft)
16.02.2017 04:07 -2,1 °C -2,1 °C 82 % 1035,0 hPa 0,0 mm 0,0 km/h (0 Bft) S-SW 200 ° 0 min 0,000 mm 0,0 UV-I 0 W/m² -4,7 °C -2,1 °C 0,0 km/h (0 Bft)
16.02.2017 04:08 -2,1 °C -2,1 °C 82 % 1035,1 hPa 0,0 mm 0,0 km/h (0 Bft) S-SW 200 ° 0 min 0,000 mm 0,0 UV-I 0 W/m² -4,7 °C -2,1 °C 0,0 km/h (0 Bft)
16.02.2017 04:09 -2,1 °C -2,1 °C 82 % 1035,1 hPa 0,0 mm 0,0 km/h (0 Bft) S-SW 200 ° 0 min 0,000 mm 0,0 UV-I 0 W/m² -4,7 °C -2,1 °C 0,0 km/h (0 Bft)
16.02.2017 04:10 -2,1 °C -2,1 °C 82 % 1035,1 hPa 0,0 mm 0,0 km/h (0 Bft) S-SW 200 ° 0 min 0,000 mm 0,0 UV-I 0 W/m² -4,7 °C -2,1 °C 0,0 km/h (0 Bft)
16.02.2017 04:11 -2,1 °C -2,1 °C 82 % 1035,1 hPa 0,0 mm 0,0 km/h (0 Bft) S-SW 200 ° 0 min 0,000 mm 0,0 UV-I 0 W/m² -4,7 °C -2,1 °C 0,0 km/h (0 Bft)
16.02.2017 04:12 -2,1 °C -2,1 °C 82 % 1035,1 hPa 0,0 mm 0,0 km/h (0 Bft) S-SW 200 ° 0 min 0,000 mm 0,0 UV-I 0 W/m² -4,7 °C -2,1 °C 0,0 km/h (0 Bft)
16.02.2017 04:13 -2,1 °C -2,1 °C 82 % 1035,0 hPa 0,0 mm 0,0 km/h (0 Bft) S-SW 200 ° 0 min 0,000 mm 0,0 UV-I 0 W/m² -4,7 °C -2,1 °C 0,0 km/h (0 Bft)
16.02.2017 04:14 -2,1 °C -2,1 °C 82 % 1035,1 hPa 0,0 mm 0,0 km/h (0 Bft) S-SW 200 ° 0 min 0,000 mm 0,0 UV-I 0 W/m² -4,7 °C -2,1 °C 0,0 km/h (0 Bft)
16.02.2017 04:15 -2,1 °C -2,1 °C 82 % 1035,0 hPa 0,0 mm 0,2 km/h (0 Bft) S-SW 200 ° 0 min 0,000 mm 0,0 UV-I 0 W/m² -4,7 °C -2,1 °C 1,6 km/h (1 Bft)
16.02.2017 04:16 -2,1 °C -2,1 °C 82 % 1035,0 hPa 0,0 mm 0,0 km/h (0 Bft) S-SW 200 ° 0 min 0,000 mm 0,0 UV-I 0 W/m² -4,7 °C -2,1 °C 0,0 km/h (0 Bft)
16.02.2017 04:17 -2,1 °C -2,1 °C 82 % 1035,0 hPa 0,0 mm 0,0 km/h (0 Bft) S-SW 200 ° 0 min 0,000 mm 0,0 UV-I 0 W/m² -4,7 °C -2,1 °C 0,0 km/h (0 Bft)
16.02.2017 04:18 -2,1 °C -2,1 °C 82 % 1035,0 hPa 0,0 mm 0,0 km/h (0 Bft) S-SW 200 ° 0 min 0,000 mm 0,0 UV-I 0 W/m² -4,7 °C -2,1 °C 0,0 km/h (0 Bft)
16.02.2017 04:19 -2,1 °C -2,1 °C 82 % 1035,0 hPa 0,0 mm 0,3 km/h (0 Bft) S-SW 200 ° 0 min 0,000 mm 0,0 UV-I 0 W/m² -4,7 °C -2,1 °C 1,6 km/h (1 Bft)
16.02.2017 04:20 -2,1 °C -2,1 °C 82 % 1035,0 hPa 0,0 mm 0,1 km/h (0 Bft) S-SW 200 ° 0 min 0,000 mm 0,0 UV-I 0 W/m² -4,7 °C -2,1 °C 1,6 km/h (1 Bft)
16.02.2017 04:21 -2,1 °C -2,1 °C 82 % 1035,0 hPa 0,0 mm 0,1 km/h (0 Bft) S-SW 200 ° 0 min 0,000 mm 0,0 UV-I 0 W/m² -4,7 °C -2,1 °C 1,6 km/h (1 Bft)
16.02.2017 04:22 -2,1 °C -2,1 °C 82 % 1035,1 hPa 0,0 mm 0,2 km/h (0 Bft) S-SW 200 ° 0 min 0,000 mm 0,0 UV-I 0 W/m² -4,7 °C -2,1 °C 1,6 km/h (1 Bft)
16.02.2017 04:23 -2,1 °C -2,0 °C 82 % 1035,0 hPa 0,0 mm 0,5 km/h (0 Bft) S-SW 200 ° 0 min 0,000 mm 0,0 UV-I 0 W/m² -4,7 °C -2,1 °C 1,6 km/h (1 Bft)
16.02.2017 04:24 -2,1 °C -2,0 °C 82 % 1035,0 hPa 0,0 mm 0,3 km/h (0 Bft) S-SW 200 ° 0 min 0,000 mm 0,0 UV-I 0 W/m² -4,7 °C -2,1 °C 1,6 km/h (1 Bft)
16.02.2017 04:25 -2,0 °C -2,0 °C 82 % 1035,0 hPa 0,0 mm 0,6 km/h (0 Bft) S-SW 200 ° 0 min 0,000 mm 0,0 UV-I 0 W/m² -4,7 °C -2,0 °C 1,6 km/h (1 Bft)
16.02.2017 04:26 -1,9 °C -1,9 °C 82 % 1034,9 hPa 0,0 mm 0,4 km/h (0 Bft) S-SW 200 ° 0 min 0,000 mm 0,0 UV-I 0 W/m² -4,6 °C -1,9 °C 1,6 km/h (1 Bft)
16.02.2017 04:27 -1,9 °C -1,9 °C 82 % 1034,9 hPa 0,0 mm 0,1 km/h (0 Bft) S-SW 200 ° 0 min 0,000 mm 0,0 UV-I 0 W/m² -4,6 °C -1,9 °C 1,6 km/h (1 Bft)
16.02.2017 04:28 -1,9 °C -1,9 °C 82 % 1035,0 hPa 0,0 mm 0,0 km/h (0 Bft) S-SW 200 ° 0 min 0,000 mm 0,0 UV-I 0 W/m² -4,6 °C -1,9 °C 0,0 km/h (0 Bft)
16.02.2017 04:29 -1,9 °C -1,9 °C 82 % 1035,0 hPa 0,0 mm 0,0 km/h (0 Bft) S-SW 200 ° 0 min 0,000 mm 0,0 UV-I 0 W/m² -4,6 °C -1,9 °C 0,0 km/h (0 Bft)
16.02.2017 04:30 -1,9 °C -1,9 °C 82 % 1034,9 hPa 0,0 mm 0,0 km/h (0 Bft) S-SW 200 ° 0 min 0,000 mm 0,0 UV-I 0 W/m² -4,6 °C -1,9 °C 0,0 km/h (0 Bft)
16.02.2017 04:31 -1,9 °C -1,9 °C 82 % 1035,0 hPa 0,0 mm 1,3 km/h (1 Bft) S-SW 200 ° 0 min 0,000 mm 0,0 UV-I 0 W/m² -4,6 °C -1,9 °C 3,2 km/h (1 Bft)
16.02.2017 04:32 -1,9 °C -1,9 °C 81 % 1034,9 hPa 0,0 mm 0,1 km/h (0 Bft) S-SW 200 ° 0 min 0,000 mm 0,0 UV-I 0 W/m² -4,7 °C -1,9 °C 1,6 km/h (1 Bft)
16.02.2017 04:33 -1,8 °C -1,8 °C 81 % 1034,9 hPa 0,0 mm 0,0 km/h (0 Bft) S-SW 200 ° 0 min 0,000 mm 0,0 UV-I 0 W/m² -4,6 °C -1,8 °C 0,0 km/h (0 Bft)
16.02.2017 04:34 -1,8 °C -1,8 °C 81 % 1034,9 hPa 0,0 mm 0,0 km/h (0 Bft) S-SW 200 ° 0 min 0,000 mm 0,0 UV-I 0 W/m² -4,6 °C -1,8 °C 0,0 km/h (0 Bft)
16.02.2017 04:35 -1,8 °C -1,8 °C 81 % 1034,9 hPa 0,0 mm 0,0 km/h (0 Bft) S-SW 200 ° 0 min 0,000 mm 0,0 UV-I 0 W/m² -4,6 °C -1,8 °C 0,0 km/h (0 Bft)
16.02.2017 04:36 -1,8 °C -1,8 °C 81 % 1034,9 hPa 0,0 mm 0,8 km/h (0 Bft) S-SW 200 ° 0 min 0,000 mm 0,0 UV-I 0 W/m² -4,6 °C -1,8 °C 1,6 km/h (1 Bft)
16.02.2017 04:37 -1,8 °C -1,8 °C 81 % 1034,9 hPa 0,0 mm 0,3 km/h (0 Bft) S-SW 200 ° 0 min 0,000 mm 0,0 UV-I 0 W/m² -4,6 °C -1,8 °C 1,6 km/h (1 Bft)
16.02.2017 04:38 -1,8 °C -1,8 °C 81 % 1035,0 hPa 0,0 mm 0,0 km/h (0 Bft) S-SW 200 ° 0 min 0,000 mm 0,0 UV-I 0 W/m² -4,6 °C -1,8 °C 0,0 km/h (0 Bft)
16.02.2017 04:39 -1,8 °C -1,8 °C 81 % 1035,0 hPa 0,0 mm 0,0 km/h (0 Bft) S-SW 200 ° 0 min 0,000 mm 0,0 UV-I 0 W/m² -4,6 °C -1,8 °C 0,0 km/h (0 Bft)
16.02.2017 04:40 -1,8 °C -1,8 °C 81 % 1035,0 hPa 0,0 mm 0,0 km/h (0 Bft) S-SW 200 ° 0 min 0,000 mm 0,0 UV-I 0 W/m² -4,6 °C -1,8 °C 0,0 km/h (0 Bft)
16.02.2017 04:41 -1,8 °C -1,8 °C 81 % 1035,0 hPa 0,0 mm 0,0 km/h (0 Bft) S-SW 200 ° 0 min 0,000 mm 0,0 UV-I 0 W/m² -4,6 °C -1,8 °C 0,0 km/h (0 Bft)
16.02.2017 04:42 -1,8 °C -1,8 °C 81 % 1035,0 hPa 0,0 mm 0,0 km/h (0 Bft) S-SW 200 ° 0 min 0,000 mm 0,0 UV-I 0 W/m² -4,6 °C -1,8 °C 0,0 km/h (0 Bft)
16.02.2017 04:43 -1,8 °C -1,8 °C 81 % 1035,0 hPa 0,0 mm 0,0 km/h (0 Bft) S-SW 200 ° 0 min 0,000 mm 0,0 UV-I 0 W/m² -4,6 °C -1,8 °C 0,0 km/h (0 Bft)
16.02.2017 04:44 -1,8 °C -1,8 °C 81 % 1035,0 hPa 0,0 mm 0,0 km/h (0 Bft) S-SW 200 ° 0 min 0,000 mm 0,0 UV-I 0 W/m² -4,6 °C -1,8 °C 0,0 km/h (0 Bft)
16.02.2017 04:45 -1,8 °C -1,8 °C 81 % 1034,9 hPa 0,0 mm 0,0 km/h (0 Bft) S-SW 200 ° 0 min 0,000 mm 0,0 UV-I 0 W/m² -4,6 °C -1,8 °C 0,0 km/h (0 Bft)
16.02.2017 04:46 -1,8 °C -1,8 °C 81 % 1034,9 hPa 0,0 mm 0,0 km/h (0 Bft) S-SW 200 ° 0 min 0,000 mm 0,0 UV-I 0 W/m² -4,6 °C -1,8 °C 0,0 km/h (0 Bft)
16.02.2017 04:47 -1,8 °C -1,8 °C 81 % 1035,0 hPa 0,0 mm 0,0 km/h (0 Bft) S-SW 200 ° 0 min 0,000 mm 0,0 UV-I 0 W/m² -4,6 °C -1,8 °C 0,0 km/h (0 Bft)
16.02.2017 04:48 -1,8 °C -1,8 °C 81 % 1034,9 hPa 0,0 mm 0,1 km/h (0 Bft) S-SW 200 ° 0 min 0,000 mm 0,0 UV-I 0 W/m² -4,6 °C -1,8 °C 1,6 km/h (1 Bft)
16.02.2017 04:49 -1,8 °C -1,8 °C 80 % 1035,0 hPa 0,0 mm 0,1 km/h (0 Bft) S-SW 200 ° 0 min 0,000 mm 0,0 UV-I 0 W/m² -4,8 °C -1,8 °C 1,6 km/h (1 Bft)
16.02.2017 04:50 -1,8 °C -1,8 °C 81 % 1034,9 hPa 0,0 mm 0,1 km/h (0 Bft) S-SW 200 ° 0 min 0,000 mm 0,0 UV-I 0 W/m² -4,6 °C -1,8 °C 1,6 km/h (1 Bft)
16.02.2017 04:51 -1,8 °C -1,8 °C 81 % 1034,9 hPa 0,0 mm 0,0 km/h (0 Bft) S-SW 200 ° 0 min 0,000 mm 0,0 UV-I 0 W/m² -4,6 °C -1,8 °C 0,0 km/h (0 Bft)
16.02.2017 04:52 -1,8 °C -1,8 °C 81 % 1034,9 hPa 0,0 mm 0,4 km/h (0 Bft) S-SW 200 ° 0 min 0,000 mm 0,0 UV-I 0 W/m² -4,6 °C -1,8 °C 1,6 km/h (1 Bft)
16.02.2017 04:53 -1,8 °C -1,8 °C 82 % 1034,9 hPa 0,0 mm 1,0 km/h (0 Bft) S-SW 200 ° 0 min 0,000 mm 0,0 UV-I 0 W/m² -4,5 °C -1,8 °C 1,6 km/h (1 Bft)
16.02.2017 04:54 -1,8 °C -1,8 °C 82 % 1034,9 hPa 0,0 mm 0,8 km/h (0 Bft) S-SW 200 ° 0 min 0,000 mm 0,0 UV-I 0 W/m² -4,5 °C -1,8 °C 1,6 km/h (1 Bft)
16.02.2017 04:55 -1,8 °C -1,8 °C 82 % 1034,9 hPa 0,0 mm 0,1 km/h (0 Bft) S-SW 200 ° 0 min 0,000 mm 0,0 UV-I 0 W/m² -4,5 °C -1,8 °C 1,6 km/h (1 Bft)
16.02.2017 04:56 -1,8 °C -1,8 °C 82 % 1035,0 hPa 0,0 mm 0,2 km/h (0 Bft) S-SW 200 ° 0 min 0,000 mm 0,0 UV-I 0 W/m² -4,5 °C -1,8 °C 1,6 km/h (1 Bft)
16.02.2017 04:57 -1,8 °C -1,8 °C 82 % 1035,0 hPa 0,0 mm 0,0 km/h (0 Bft) S-SW 200 ° 0 min 0,000 mm 0,0 UV-I 0 W/m² -4,5 °C -1,8 °C 0,0 km/h (0 Bft)
16.02.2017 04:58 -1,8 °C -1,8 °C 82 % 1035,0 hPa 0,0 mm 1,5 km/h (1 Bft) S-SW 200 ° 0 min 0,000 mm 0,0 UV-I 0 W/m² -4,5 °C -1,8 °C 3,2 km/h (1 Bft)
16.02.2017 04:59 -1,8 °C -1,8 °C 82 % 1035,0 hPa 0,0 mm 0,5 km/h (0 Bft) S-SW 200 ° 0 min 0,000 mm 0,0 UV-I 0 W/m² -4,5 °C -1,8 °C 1,6 km/h (1 Bft)
16.02.2017 05:00 -1,8 °C -1,8 °C 81 % 1035,0 hPa 0,0 mm 0,3 km/h (0 Bft) S-SW 200 ° 0 min 0,000 mm 0,0 UV-I 0 W/m² -4,6 °C -1,8 °C 1,6 km/h (1 Bft)
16.02.2017 05:01 -1,8 °C -1,8 °C 82 % 1034,9 hPa 0,0 mm 0,0 km/h (0 Bft) S-SW 200 ° 0 min 0,000 mm 0,0 UV-I 0 W/m² -4,5 °C -1,8 °C 0,0 km/h (0 Bft)
16.02.2017 05:02 -1,8 °C -1,8 °C 82 % 1034,9 hPa 0,0 mm 0,0 km/h (0 Bft) S-SW 200 ° 0 min 0,000 mm 0,0 UV-I 0 W/m² -4,5 °C -1,8 °C 0,0 km/h (0 Bft)
16.02.2017 05:03 -1,8 °C -1,8 °C 82 % 1034,9 hPa 0,0 mm 0,1 km/h (0 Bft) S-SW 200 ° 0 min 0,000 mm 0,0 UV-I 0 W/m² -4,5 °C -1,8 °C 1,6 km/h (1 Bft)
16.02.2017 05:04 -1,8 °C -1,8 °C 81 % 1035,0 hPa 0,0 mm 0,5 km/h (0 Bft) S-SW 200 ° 0 min 0,000 mm 0,0 UV-I 0 W/m² -4,6 °C -1,8 °C 1,6 km/h (1 Bft)
16.02.2017 05:05 -1,8 °C -1,8 °C 81 % 1034,9 hPa 0,0 mm 0,0 km/h (0 Bft) S-SW 200 ° 0 min 0,000 mm 0,0 UV-I 0 W/m² -4,6 °C -1,8 °C 0,0 km/h (0 Bft)
16.02.2017 05:06 -1,8 °C -1,8 °C 81 % 1034,9 hPa 0,0 mm 0,2 km/h (0 Bft) S-SW 200 ° 0 min 0,000 mm 0,0 UV-I 0 W/m² -4,6 °C -1,8 °C 1,6 km/h (1 Bft)
16.02.2017 05:07 -1,8 °C -1,8 °C 81 % 1035,0 hPa 0,0 mm 0,0 km/h (0 Bft) S-SW 200 ° 0 min 0,000 mm 0,0 UV-I 0 W/m² -4,6 °C -1,8 °C 0,0 km/h (0 Bft)
16.02.2017 05:08 -1,8 °C -1,8 °C 81 % 1034,9 hPa 0,0 mm 0,0 km/h (0 Bft) S-SW 200 ° 0 min 0,000 mm 0,0 UV-I 0 W/m² -4,6 °C -1,8 °C 0,0 km/h (0 Bft)
16.02.2017 05:09 -1,8 °C -1,8 °C 81 % 1034,9 hPa 0,0 mm 0,5 km/h (0 Bft) S-SW 200 ° 0 min 0,000 mm 0,0 UV-I 0 W/m² -4,6 °C -1,8 °C 1,6 km/h (1 Bft)
16.02.2017 05:10 -1,8 °C -1,8 °C 81 % 1035,0 hPa 0,0 mm 0,5 km/h (0 Bft) S-SW 200 ° 0 min 0,000 mm 0,0 UV-I 0 W/m² -4,6 °C -1,8 °C 1,6 km/h (1 Bft)
16.02.2017 05:11 -1,8 °C -1,8 °C 81 % 1034,9 hPa 0,0 mm 0,5 km/h (0 Bft) S-SW 200 ° 0 min 0,000 mm 0,0 UV-I 0 W/m² -4,6 °C -1,8 °C 1,6 km/h (1 Bft)
16.02.2017 05:12 -1,9 °C -1,8 °C 81 % 1034,9 hPa 0,0 mm 0,6 km/h (0 Bft) S-SW 200 ° 0 min 0,000 mm 0,0 UV-I 0 W/m² -4,7 °C -1,9 °C 1,6 km/h (1 Bft)
16.02.2017 05:13 -1,9 °C -1,8 °C 81 % 1034,9 hPa 0,0 mm 1,0 km/h (0 Bft) S-SW 200 ° 0 min 0,000 mm 0,0 UV-I 0 W/m² -4,7 °C -1,9 °C 1,6 km/h (1 Bft)
16.02.2017 05:14 -1,9 °C -1,8 °C 81 % 1034,9 hPa 0,0 mm 0,5 km/h (0 Bft) S-SW 200 ° 0 min 0,000 mm 0,0 UV-I 0 W/m² -4,7 °C -1,9 °C 1,6 km/h (1 Bft)
16.02.2017 05:15 -1,9 °C -1,9 °C 81 % 1034,9 hPa 0,0 mm 0,3 km/h (0 Bft) S-SW 200 ° 0 min 0,000 mm 0,0 UV-I 0 W/m² -4,7 °C -1,9 °C 1,6 km/h (1 Bft)
16.02.2017 05:16 -1,9 °C -1,9 °C 81 % 1034,9 hPa 0,0 mm 0,2 km/h (0 Bft) S-SW 200 ° 0 min 0,000 mm 0,0 UV-I 0 W/m² -4,7 °C -1,9 °C 1,6 km/h (1 Bft)
16.02.2017 05:17 -1,9 °C -1,9 °C 81 % 1034,9 hPa 0,0 mm 0,7 km/h (0 Bft) S-SW 200 ° 0 min 0,000 mm 0,0 UV-I 0 W/m² -4,7 °C -1,9 °C 1,6 km/h (1 Bft)
16.02.2017 05:18 -1,9 °C -1,9 °C 81 % 1034,9 hPa 0,0 mm 0,4 km/h (0 Bft) S-SW 200 ° 0 min 0,000 mm 0,0 UV-I 0 W/m² -4,7 °C -1,9 °C 1,6 km/h (1 Bft)
16.02.2017 05:19 -1,9 °C -1,9 °C 82 % 1034,9 hPa 0,0 mm 0,6 km/h (0 Bft) S-SW 200 ° 0 min 0,000 mm 0,0 UV-I 0 W/m² -4,6 °C -1,9 °C 1,6 km/h (1 Bft)
16.02.2017 05:20 -1,9 °C -1,9 °C 82 % 1034,9 hPa 0,0 mm 0,1 km/h (0 Bft) S-SW 200 ° 0 min 0,000 mm 0,0 UV-I 0 W/m² -4,6 °C -1,9 °C 1,6 km/h (1 Bft)
16.02.2017 05:21 -1,9 °C -1,9 °C 82 % 1034,9 hPa 0,0 mm 0,0 km/h (0 Bft) S-SW 200 ° 0 min 0,000 mm 0,0 UV-I 0 W/m² -4,6 °C -1,9 °C 0,0 km/h (0 Bft)
16.02.2017 05:22 -1,9 °C -1,9 °C 82 % 1034,8 hPa 0,0 mm 0,0 km/h (0 Bft) S-SW 200 ° 0 min 0,000 mm 0,0 UV-I 0 W/m² -4,6 °C -1,9 °C 0,0 km/h (0 Bft)
16.02.2017 05:23 -1,9 °C -1,9 °C 82 % 1034,9 hPa 0,0 mm 1,2 km/h (1 Bft) S-SW 200 ° 0 min 0,000 mm 0,0 UV-I 0 W/m² -4,6 °C -1,9 °C 1,6 km/h (1 Bft)
16.02.2017 05:24 -2,0 °C -1,9 °C 82 % 1034,9 hPa 0,0 mm 0,6 km/h (0 Bft) S-SW 200 ° 0 min 0,000 mm 0,0 UV-I 0 W/m² -4,7 °C -2,0 °C 1,6 km/h (1 Bft)
16.02.2017 05:25 -2,1 °C -1,9 °C 82 % 1034,8 hPa 0,0 mm 0,9 km/h (0 Bft) S-SW 200 ° 0 min 0,000 mm 0,0 UV-I 0 W/m² -4,7 °C -2,1 °C 1,6 km/h (1 Bft)
16.02.2017 05:26 -2,0 °C -2,0 °C 82 % 1034,8 hPa 0,0 mm 0,4 km/h (0 Bft) S-SW 200 ° 0 min 0,000 mm 0,0 UV-I 0 W/m² -4,7 °C -2,0 °C 1,6 km/h (1 Bft)
16.02.2017 05:27 -2,1 °C -2,0 °C 82 % 1034,8 hPa 0,0 mm 0,8 km/h (0 Bft) S-SW 200 ° 0 min 0,000 mm 0,0 UV-I 0 W/m² -4,7 °C -2,1 °C 1,6 km/h (1 Bft)
16.02.2017 05:28 -2,1 °C -2,1 °C 82 % 1034,8 hPa 0,0 mm 0,8 km/h (0 Bft) S-SW 200 ° 0 min 0,000 mm 0,0 UV-I 0 W/m² -4,7 °C -2,1 °C 1,6 km/h (1 Bft)
16.02.2017 05:29 -2,1 °C -2,1 °C 82 % 1034,8 hPa 0,0 mm 0,6 km/h (0 Bft) S-SW 200 ° 0 min 0,000 mm 0,0 UV-I 0 W/m² -4,7 °C -2,1 °C 1,6 km/h (1 Bft)
16.02.2017 05:30 -2,1 °C -2,1 °C 82 % 1034,8 hPa 0,0 mm 1,0 km/h (0 Bft) S-SW 200 ° 0 min 0,000 mm 0,0 UV-I 0 W/m² -4,7 °C -2,1 °C 1,6 km/h (1 Bft)
16.02.2017 05:31 -2,1 °C -2,1 °C 82 % 1034,8 hPa 0,0 mm 0,1 km/h (0 Bft) S-SW 200 ° 0 min 0,000 mm 0,0 UV-I 0 W/m² -4,7 °C -2,1 °C 1,6 km/h (1 Bft)
16.02.2017 05:32 -2,1 °C -2,1 °C 82 % 1034,8 hPa 0,0 mm 0,3 km/h (0 Bft) S-SW 200 ° 0 min 0,000 mm 0,0 UV-I 0 W/m² -4,7 °C -2,1 °C 1,6 km/h (1 Bft)
16.02.2017 05:33 -2,1 °C -2,1 °C 82 % 1034,8 hPa 0,0 mm 0,7 km/h (0 Bft) S-SW 200 ° 0 min 0,000 mm 0,0 UV-I 0 W/m² -4,7 °C -2,1 °C 1,6 km/h (1 Bft)
16.02.2017 05:34 -2,1 °C -2,1 °C 83 % 1034,8 hPa 0,0 mm 0,3 km/h (0 Bft) S-SW 200 ° 0 min 0,000 mm 0,0 UV-I 0 W/m² -4,6 °C -2,1 °C 1,6 km/h (1 Bft)
16.02.2017 05:35 -2,2 °C -2,1 °C 83 % 1034,8 hPa 0,0 mm 0,8 km/h (0 Bft) S-SW 200 ° 0 min 0,000 mm 0,0 UV-I 0 W/m² -4,7 °C -2,2 °C 1,6 km/h (1 Bft)
16.02.2017 05:36 -2,2 °C -2,1 °C 83 % 1034,8 hPa 0,0 mm 0,8 km/h (0 Bft) S-SW 200 ° 0 min 0,000 mm 0,0 UV-I 0 W/m² -4,7 °C -2,2 °C 1,6 km/h (1 Bft)
16.02.2017 05:37 -2,2 °C -2,2 °C 83 % 1034,8 hPa 0,0 mm 1,0 km/h (0 Bft) S-SW 200 ° 0 min 0,000 mm 0,0 UV-I 0 W/m² -4,7 °C -2,2 °C 1,6 km/h (1 Bft)
16.02.2017 05:38 -2,2 °C -2,2 °C 83 % 1034,8 hPa 0,0 mm 0,6 km/h (0 Bft) S-SW 200 ° 0 min 0,000 mm 0,0 UV-I 0 W/m² -4,7 °C -2,2 °C 1,6 km/h (1 Bft)
16.02.2017 05:39 -2,2 °C -2,2 °C 83 % 1034,7 hPa 0,0 mm 0,7 km/h (0 Bft) S-SW 200 ° 0 min 0,000 mm 0,0 UV-I 0 W/m² -4,7 °C -2,2 °C 1,6 km/h (1 Bft)
16.02.2017 05:40 -2,2 °C -2,2 °C 83 % 1034,7 hPa 0,0 mm 1,2 km/h (1 Bft) S-SW 200 ° 0 min 0,000 mm 0,0 UV-I 0 W/m² -4,7 °C -2,2 °C 3,2 km/h (1 Bft)
16.02.2017 05:41 -2,2 °C -2,2 °C 83 % 1034,7 hPa 0,0 mm 0,8 km/h (0 Bft) S-SW 200 ° 0 min 0,000 mm 0,0 UV-I 0 W/m² -4,7 °C -2,2 °C 1,6 km/h (1 Bft)
16.02.2017 05:42 -2,2 °C -2,2 °C 83 % 1034,8 hPa 0,0 mm 0,5 km/h (0 Bft) S-SW 200 ° 0 min 0,000 mm 0,0 UV-I 0 W/m² -4,7 °C -2,2 °C 1,6 km/h (1 Bft)
16.02.2017 05:43 -2,2 °C -2,2 °C 83 % 1034,8 hPa 0,0 mm 1,4 km/h (1 Bft) S-SW 200 ° 0 min 0,000 mm 0,0 UV-I 0 W/m² -4,7 °C -2,2 °C 1,6 km/h (1 Bft)
16.02.2017 05:44 -2,3 °C -2,2 °C 83 % 1034,8 hPa 0,0 mm 1,0 km/h (0 Bft) S-SW 200 ° 0 min 0,000 mm 0,0 UV-I 0 W/m² -4,8 °C -2,3 °C 1,6 km/h (1 Bft)
16.02.2017 05:45 -2,3 °C -2,3 °C 83 % 1034,8 hPa 0,0 mm 0,4 km/h (0 Bft) S-SW 200 ° 0 min 0,000 mm 0,0 UV-I 0 W/m² -4,8 °C -2,3 °C 1,6 km/h (1 Bft)
16.02.2017 05:46 -2,3 °C -2,3 °C 83 % 1034,8 hPa 0,0 mm 1,5 km/h (1 Bft) S-SW 200 ° 0 min 0,000 mm 0,0 UV-I 0 W/m² -4,8 °C -2,3 °C 3,2 km/h (1 Bft)
16.02.2017 05:47 -2,3 °C -2,3 °C 84 % 1034,8 hPa 0,0 mm 0,4 km/h (0 Bft) S-SW 200 ° 0 min 0,000 mm 0,0 UV-I 0 W/m² -4,6 °C -2,3 °C 1,6 km/h (1 Bft)
16.02.2017 05:48 -2,3 °C -2,3 °C 84 % 1034,8 hPa 0,0 mm 0,8 km/h (0 Bft) S-SW 200 ° 0 min 0,000 mm 0,0 UV-I 0 W/m² -4,6 °C -2,3 °C 1,6 km/h (1 Bft)
16.02.2017 05:49 -2,3 °C -2,3 °C 84 % 1034,8 hPa 0,0 mm 1,6 km/h (1 Bft) S-SW 200 ° 0 min 0,000 mm 0,0 UV-I 0 W/m² -4,6 °C -2,3 °C 3,2 km/h (1 Bft)
16.02.2017 05:50 -2,3 °C -2,3 °C 84 % 1034,8 hPa 0,0 mm 2,1 km/h (1 Bft) S-SW 200 ° 0 min 0,000 mm 0,0 UV-I 0 W/m² -4,6 °C -2,3 °C 3,2 km/h (1 Bft)
16.02.2017 05:51 -2,3 °C -2,3 °C 84 % 1034,8 hPa 0,0 mm 1,8 km/h (1 Bft) S-SW 200 ° 0 min 0,000 mm 0,0 UV-I 0 W/m² -4,6 °C -2,3 °C 3,2 km/h (1 Bft)
16.02.2017 05:52 -2,3 °C -2,3 °C 84 % 1034,8 hPa 0,0 mm 1,7 km/h (1 Bft) S-SW 200 ° 0 min 0,000 mm 0,0 UV-I 0 W/m² -4,6 °C -2,3 °C 3,2 km/h (1 Bft)
16.02.2017 05:53 -2,4 °C -2,3 °C 84 % 1034,8 hPa 0,0 mm 1,4 km/h (1 Bft) S-SW 200 ° 0 min 0,000 mm 0,0 UV-I 0 W/m² -4,7 °C -2,4 °C 1,6 km/h (1 Bft)
16.02.2017 05:54 -2,4 °C -2,3 °C 85 % 1034,8 hPa 0,0 mm 1,4 km/h (1 Bft) S-SW 200 ° 0 min 0,000 mm 0,0 UV-I 0 W/m² -4,6 °C -2,4 °C 3,2 km/h (1 Bft)
16.02.2017 05:55 -2,4 °C -2,3 °C 85 % 1034,8 hPa 0,0 mm 0,7 km/h (0 Bft) S-SW 200 ° 0 min 0,000 mm 0,0 UV-I 0 W/m² -4,6 °C -2,4 °C 1,6 km/h (1 Bft)
16.02.2017 05:56 -2,3 °C -2,3 °C 85 % 1034,8 hPa 0,0 mm 0,0 km/h (0 Bft) S-SW 200 ° 0 min 0,000 mm 0,0 UV-I 0 W/m² -4,5 °C -2,3 °C 0,0 km/h (0 Bft)
16.02.2017 05:57 -2,3 °C -2,3 °C 85 % 1034,7 hPa 0,0 mm 0,0 km/h (0 Bft) S-SW 200 ° 0 min 0,000 mm 0,0 UV-I 0 W/m² -4,5 °C -2,3 °C 0,0 km/h (0 Bft)
16.02.2017 05:58 -2,3 °C -2,3 °C 85 % 1034,8 hPa 0,0 mm 0,1 km/h (0 Bft) S-SW 200 ° 0 min 0,000 mm 0,0 UV-I 0 W/m² -4,5 °C -2,3 °C 1,6 km/h (1 Bft)
16.02.2017 05:59 -2,3 °C -2,3 °C 84 % 1034,8 hPa 0,0 mm 0,0 km/h (0 Bft) S-SW 200 ° 0 min 0,000 mm 0,0 UV-I 0 W/m² -4,6 °C -2,3 °C 0,0 km/h (0 Bft)
16.02.2017 06:00 -2,3 °C -2,3 °C 84 % 1034,7 hPa 0,0 mm 0,0 km/h (0 Bft) S-SW 200 ° 0 min 0,000 mm 0,0 UV-I 0 W/m² -4,6 °C -2,3 °C 0,0 km/h (0 Bft)
16.02.2017 06:01 -2,3 °C -2,3 °C 84 % 1034,7 hPa 0,0 mm 0,1 km/h (0 Bft) S-SW 200 ° 0 min 0,000 mm 0,0 UV-I 0 W/m² -4,6 °C -2,3 °C 1,6 km/h (1 Bft)
16.02.2017 06:02 -2,3 °C -2,3 °C 84 % 1034,7 hPa 0,0 mm 0,0 km/h (0 Bft) S-SW 200 ° 0 min 0,000 mm 0,0 UV-I 0 W/m² -4,6 °C -2,3 °C 0,0 km/h (0 Bft)
16.02.2017 06:03 -2,3 °C -2,3 °C 84 % 1034,7 hPa 0,0 mm 0,0 km/h (0 Bft) S-SW 200 ° 0 min 0,000 mm 0,0 UV-I 0 W/m² -4,6 °C -2,3 °C 0,0 km/h (0 Bft)
16.02.2017 06:04 -2,3 °C -2,3 °C 84 % 1034,7 hPa 0,0 mm 0,0 km/h (0 Bft) S-SW 200 ° 0 min 0,000 mm 0,0 UV-I 0 W/m² -4,6 °C -2,3 °C 0,0 km/h (0 Bft)
16.02.2017 06:05 -2,3 °C -2,3 °C 84 % 1034,7 hPa 0,0 mm 0,1 km/h (0 Bft) S-SW 200 ° 0 min 0,000 mm 0,0 UV-I 0 W/m² -4,6 °C -2,3 °C 1,6 km/h (1 Bft)
16.02.2017 06:06 -2,3 °C -2,3 °C 84 % 1034,7 hPa 0,0 mm 0,0 km/h (0 Bft) S-SW 200 ° 0 min 0,000 mm 0,0 UV-I 0 W/m² -4,6 °C -2,3 °C 0,0 km/h (0 Bft)
16.02.2017 06:07 -2,3 °C -2,3 °C 84 % 1034,7 hPa 0,0 mm 0,0 km/h (0 Bft) S-SW 200 ° 0 min 0,000 mm 0,0 UV-I 0 W/m² -4,6 °C -2,3 °C 0,0 km/h (0 Bft)
16.02.2017 06:08 -2,3 °C -2,3 °C 84 % 1034,7 hPa 0,0 mm 0,1 km/h (0 Bft) S-SW 200 ° 0 min 0,000 mm 0,0 UV-I 0 W/m² -4,6 °C -2,3 °C 1,6 km/h (1 Bft)
16.02.2017 06:09 -2,3 °C -2,3 °C 84 % 1034,7 hPa 0,0 mm 0,1 km/h (0 Bft) S-SW 200 ° 0 min 0,000 mm 0,0 UV-I 0 W/m² -4,6 °C -2,3 °C 1,6 km/h (1 Bft)
16.02.2017 06:10 -2,3 °C -2,3 °C 84 % 1034,7 hPa 0,0 mm 1,7 km/h (1 Bft) S-SW 200 ° 0 min 0,000 mm 0,0 UV-I 0 W/m² -4,6 °C -2,3 °C 3,2 km/h (1 Bft)
16.02.2017 06:11 -2,3 °C -2,3 °C 84 % 1034,7 hPa 0,0 mm 0,5 km/h (0 Bft) S-SW 200 ° 0 min 0,000 mm 0,0 UV-I 0 W/m² -4,6 °C -2,3 °C 1,6 km/h (1 Bft)
16.02.2017 06:12 -2,3 °C -2,3 °C 84 % 1034,7 hPa 0,0 mm 0,3 km/h (0 Bft) S-SW 200 ° 0 min 0,000 mm 0,0 UV-I 0 W/m² -4,6 °C -2,3 °C 1,6 km/h (1 Bft)
16.02.2017 06:13 -2,4 °C -2,3 °C 84 % 1034,7 hPa 0,0 mm 0,8 km/h (0 Bft) S-SW 200 ° 0 min 0,000 mm 0,0 UV-I 0 W/m² -4,7 °C -2,4 °C 1,6 km/h (1 Bft)
16.02.2017 06:14 -2,4 °C -2,3 °C 84 % 1034,7 hPa 0,0 mm 0,3 km/h (0 Bft) S-SW 200 ° 0 min 0,000 mm 0,0 UV-I 0 W/m² -4,7 °C -2,4 °C 1,6 km/h (1 Bft)
16.02.2017 06:15 -2,4 °C -2,3 °C 85 % 1034,7 hPa 0,0 mm 0,3 km/h (0 Bft) S-SW 200 ° 0 min 0,000 mm 0,0 UV-I 0 W/m² -4,6 °C -2,4 °C 1,6 km/h (1 Bft)
16.02.2017 06:16 -2,3 °C -2,3 °C 85 % 1034,6 hPa 0,0 mm 0,0 km/h (0 Bft) S-SW 200 ° 0 min 0,000 mm 0,0 UV-I 0 W/m² -4,5 °C -2,3 °C 0,0 km/h (0 Bft)
16.02.2017 06:17 -2,3 °C -2,3 °C 85 % 1034,7 hPa 0,0 mm 0,0 km/h (0 Bft) S-SW 200 ° 0 min 0,000 mm 0,0 UV-I 0 W/m² -4,5 °C -2,3 °C 0,0 km/h (0 Bft)
16.02.2017 06:18 -2,3 °C -2,3 °C 85 % 1034,7 hPa 0,0 mm 0,2 km/h (0 Bft) S-SW 200 ° 0 min 0,000 mm 0,0 UV-I 0 W/m² -4,5 °C -2,3 °C 1,6 km/h (1 Bft)
16.02.2017 06:19 -2,3 °C -2,3 °C 85 % 1034,7 hPa 0,0 mm 0,0 km/h (0 Bft) S-SW 200 ° 0 min 0,000 mm 0,0 UV-I 0 W/m² -4,5 °C -2,3 °C 0,0 km/h (0 Bft)
16.02.2017 06:20 -2,3 °C -2,3 °C 84 % 1034,7 hPa 0,0 mm 0,0 km/h (0 Bft) S-SW 200 ° 0 min 0,000 mm 0,0 UV-I 0 W/m² -4,6 °C -2,3 °C 0,0 km/h (0 Bft)
16.02.2017 06:21 -2,3 °C -2,3 °C 84 % 1034,7 hPa 0,0 mm 1,2 km/h (1 Bft) S-SW 200 ° 0 min 0,000 mm 0,0 UV-I 0 W/m² -4,6 °C -2,3 °C 1,6 km/h (1 Bft)
16.02.2017 06:22 -2,3 °C -2,3 °C 84 % 1034,7 hPa 0,0 mm 0,1 km/h (0 Bft) S-SW 200 ° 0 min 0,000 mm 0,0 UV-I 0 W/m² -4,6 °C -2,3 °C 1,6 km/h (1 Bft)
16.02.2017 06:23 -2,3 °C -2,3 °C 85 % 1034,7 hPa 0,0 mm 0,1 km/h (0 Bft) S-SW 200 ° 0 min 0,000 mm 0,0 UV-I 0 W/m² -4,5 °C -2,3 °C 1,6 km/h (1 Bft)
16.02.2017 06:24 -2,3 °C -2,3 °C 85 % 1034,7 hPa 0,0 mm 0,0 km/h (0 Bft) S-SW 200 ° 0 min 0,000 mm 0,0 UV-I 0 W/m² -4,5 °C -2,3 °C 0,0 km/h (0 Bft)
16.02.2017 06:25 -2,3 °C -2,3 °C 85 % 1034,7 hPa 0,0 mm 0,0 km/h (0 Bft) S-SW 200 ° 0 min 0,000 mm 0,0 UV-I 0 W/m² -4,5 °C -2,3 °C 0,0 km/h (0 Bft)
16.02.2017 06:26 -2,3 °C -2,3 °C 85 % 1034,7 hPa 0,0 mm 0,3 km/h (0 Bft) S-SW 200 ° 0 min 0,000 mm 0,0 UV-I 0 W/m² -4,5 °C -2,3 °C 1,6 km/h (1 Bft)
16.02.2017 06:27 -2,3 °C -2,3 °C 85 % 1034,7 hPa 0,0 mm 0,0 km/h (0 Bft) S-SW 200 ° 0 min 0,000 mm 0,0 UV-I 0 W/m² -4,5 °C -2,3 °C 0,0 km/h (0 Bft)
16.02.2017 06:28 -2,3 °C -2,3 °C 85 % 1034,7 hPa 0,0 mm 0,3 km/h (0 Bft) S-SW 200 ° 0 min 0,000 mm 0,0 UV-I 0 W/m² -4,5 °C -2,3 °C 1,6 km/h (1 Bft)
16.02.2017 06:29 -2,3 °C -2,3 °C 84 % 1034,7 hPa 0,0 mm 0,6 km/h (0 Bft) S-SW 200 ° 0 min 0,000 mm 0,0 UV-I 0 W/m² -4,6 °C -2,3 °C 1,6 km/h (1 Bft)
16.02.2017 06:30 -2,3 °C -2,3 °C 84 % 1034,6 hPa 0,0 mm 0,6 km/h (0 Bft) S-SW 200 ° 0 min 0,000 mm 0,0 UV-I 0 W/m² -4,6 °C -2,3 °C 1,6 km/h (1 Bft)
16.02.2017 06:31 -2,3 °C -2,3 °C 84 % 1034,6 hPa 0,0 mm 0,0 km/h (0 Bft) S-SW 200 ° 0 min 0,000 mm 0,0 UV-I 0 W/m² -4,6 °C -2,3 °C 0,0 km/h (0 Bft)
16.02.2017 06:32 -2,3 °C -2,3 °C 84 % 1034,6 hPa 0,0 mm 0,0 km/h (0 Bft) S-SW 200 ° 0 min 0,000 mm 0,0 UV-I 0 W/m² -4,6 °C -2,3 °C 0,0 km/h (0 Bft)
16.02.2017 06:33 -2,3 °C -2,3 °C 84 % 1034,6 hPa 0,0 mm 0,0 km/h (0 Bft) S-SW 200 ° 0 min 0,000 mm 0,0 UV-I 0 W/m² -4,6 °C -2,3 °C 0,0 km/h (0 Bft)
16.02.2017 06:34 -2,3 °C -2,3 °C 84 % 1034,6 hPa 0,0 mm 0,0 km/h (0 Bft) S-SW 200 ° 0 min 0,000 mm 0,0 UV-I 0 W/m² -4,6 °C -2,3 °C 0,0 km/h (0 Bft)
16.02.2017 06:35 -2,3 °C -2,3 °C 84 % 1034,6 hPa 0,0 mm 0,1 km/h (0 Bft) S-SW 200 ° 0 min 0,000 mm 0,0 UV-I 0 W/m² -4,6 °C -2,3 °C 1,6 km/h (1 Bft)
16.02.2017 06:36 -2,3 °C -2,3 °C 84 % 1034,5 hPa 0,0 mm 0,0 km/h (0 Bft) S-SW 200 ° 0 min 0,000 mm 0,0 UV-I 0 W/m² -4,6 °C -2,3 °C 0,0 km/h (0 Bft)
16.02.2017 06:37 -2,3 °C -2,3 °C 84 % 1034,6 hPa 0,0 mm 0,3 km/h (0 Bft) S-SW 200 ° 0 min 0,000 mm 0,0 UV-I 0 W/m² -4,6 °C -2,3 °C 1,6 km/h (1 Bft)
16.02.2017 06:38 -2,3 °C -2,3 °C 85 % 1034,5 hPa 0,0 mm 0,1 km/h (0 Bft) S-SW 200 ° 0 min 0,000 mm 0,0 UV-I 0 W/m² -4,5 °C -2,3 °C 1,6 km/h (1 Bft)
16.02.2017 06:39 -2,3 °C -2,3 °C 84 % 1034,5 hPa 0,0 mm 0,3 km/h (0 Bft) S-SW 200 ° 0 min 0,000 mm 0,0 UV-I 0 W/m² -4,6 °C -2,3 °C 1,6 km/h (1 Bft)
16.02.2017 06:40 -2,3 °C -2,3 °C 85 % 1034,5 hPa 0,0 mm 0,1 km/h (0 Bft) S-SW 200 ° 0 min 0,000 mm 0,0 UV-I 0 W/m² -4,5 °C -2,3 °C 1,6 km/h (1 Bft)
16.02.2017 06:41 -2,3 °C -2,3 °C 85 % 1034,5 hPa 0,0 mm 0,0 km/h (0 Bft) S-SW 200 ° 0 min 0,000 mm 0,0 UV-I 0 W/m² -4,5 °C -2,3 °C 0,0 km/h (0 Bft)
16.02.2017 06:42 -2,3 °C -2,3 °C 85 % 1034,5 hPa 0,0 mm 0,0 km/h (0 Bft) S-SW 200 ° 0 min 0,000 mm 0,0 UV-I 0 W/m² -4,5 °C -2,3 °C 0,0 km/h (0 Bft)
16.02.2017 06:43 -2,3 °C -2,3 °C 85 % 1034,5 hPa 0,0 mm 0,0 km/h (0 Bft) S-SW 200 ° 0 min 0,000 mm 0,0 UV-I 0 W/m² -4,5 °C -2,3 °C 0,0 km/h (0 Bft)
16.02.2017 06:44 -2,4 °C -2,3 °C 85 % 1034,5 hPa 0,0 mm 0,0 km/h (0 Bft) S-SW 200 ° 0 min 0,000 mm 0,0 UV-I 0 W/m² -4,6 °C -2,4 °C 0,0 km/h (0 Bft)
16.02.2017 06:45 -2,4 °C -2,3 °C 85 % 1034,5 hPa 0,0 mm 0,0 km/h (0 Bft) S-SW 200 ° 0 min 0,000 mm 0,0 UV-I 0 W/m² -4,6 °C -2,4 °C 0,0 km/h (0 Bft)
16.02.2017 06:46 -2,3 °C -2,3 °C 85 % 1034,5 hPa 0,0 mm 0,5 km/h (0 Bft) S-SW 200 ° 0 min 0,000 mm 0,0 UV-I 0 W/m² -4,5 °C -2,3 °C 1,6 km/h (1 Bft)
16.02.2017 06:47 -2,3 °C -2,3 °C 84 % 1034,5 hPa 0,0 mm 0,0 km/h (0 Bft) S-SW 200 ° 0 min 0,000 mm 0,0 UV-I 0 W/m² -4,6 °C -2,3 °C 0,0 km/h (0 Bft)
16.02.2017 06:48 -2,4 °C -2,3 °C 84 % 1034,5 hPa 0,0 mm 0,9 km/h (0 Bft) S-SW 200 ° 0 min 0,000 mm 0,0 UV-I 0 W/m² -4,7 °C -2,4 °C 3,2 km/h (1 Bft)
16.02.2017 06:49 -2,4 °C -2,3 °C 84 % 1034,5 hPa 0,0 mm 0,0 km/h (0 Bft) S-SW 200 ° 0 min 0,000 mm 0,0 UV-I 0 W/m² -4,7 °C -2,4 °C 0,0 km/h (0 Bft)
16.02.2017 06:50 -2,4 °C -2,3 °C 84 % 1034,5 hPa 0,0 mm 0,4 km/h (0 Bft) S-SW 200 ° 0 min 0,000 mm 0,0 UV-I 0 W/m² -4,7 °C -2,4 °C 1,6 km/h (1 Bft)
16.02.2017 06:51 -2,4 °C -2,4 °C 84 % 1034,5 hPa 0,0 mm 0,0 km/h (0 Bft) S-SW 200 ° 0 min 0,000 mm 0,0 UV-I 0 W/m² -4,7 °C -2,4 °C 0,0 km/h (0 Bft)
16.02.2017 06:52 -2,4 °C -2,4 °C 84 % 1034,5 hPa 0,0 mm 0,0 km/h (0 Bft) S-SW 200 ° 0 min 0,000 mm 0,0 UV-I 0 W/m² -4,7 °C -2,4 °C 0,0 km/h (0 Bft)
16.02.2017 06:53 -2,4 °C -2,4 °C 84 % 1034,5 hPa 0,0 mm 0,0 km/h (0 Bft) S-SW 200 ° 0 min 0,000 mm 0,0 UV-I 0 W/m² -4,7 °C -2,4 °C 0,0 km/h (0 Bft)
16.02.2017 06:54 -2,4 °C -2,4 °C 84 % 1034,5 hPa 0,0 mm 0,5 km/h (0 Bft) S-SW 200 ° 0 min 0,000 mm 0,0 UV-I 0 W/m² -4,7 °C -2,4 °C 1,6 km/h (1 Bft)
16.02.2017 06:55 -2,4 °C -2,4 °C 84 % 1034,5 hPa 0,0 mm 0,1 km/h (0 Bft) S-SW 200 ° 0 min 0,000 mm 0,0 UV-I 0 W/m² -4,7 °C -2,4 °C 1,6 km/h (1 Bft)
16.02.2017 06:56 -2,4 °C -2,4 °C 84 % 1034,5 hPa 0,0 mm 0,0 km/h (0 Bft) S-SW 200 ° 0 min 0,000 mm 0,0 UV-I 0 W/m² -4,7 °C -2,4 °C 0,0 km/h (0 Bft)
16.02.2017 06:57 -2,4 °C -2,4 °C 84 % 1034,5 hPa 0,0 mm 0,0 km/h (0 Bft) S-SW 200 ° 0 min 0,000 mm 0,0 UV-I 0 W/m² -4,7 °C -2,4 °C 0,0 km/h (0 Bft)
16.02.2017 06:58 -2,4 °C -2,4 °C 84 % 1034,5 hPa 0,0 mm 0,1 km/h (0 Bft) S-SW 200 ° 0 min 0,000 mm 0,0 UV-I 0 W/m² -4,7 °C -2,4 °C 1,6 km/h (1 Bft)
16.02.2017 06:59 -2,4 °C -2,4 °C 84 % 1034,5 hPa 0,0 mm 0,0 km/h (0 Bft) S-SW 200 ° 0 min 0,000 mm 0,0 UV-I 0 W/m² -4,7 °C -2,4 °C 0,0 km/h (0 Bft)
16.02.2017 07:00 -2,4 °C -2,4 °C 84 % 1034,5 hPa 0,0 mm 0,0 km/h (0 Bft) S-SW 200 ° 0 min 0,000 mm 0,0 UV-I 0 W/m² -4,7 °C -2,4 °C 0,0 km/h (0 Bft)
16.02.2017 07:01 -2,4 °C -2,4 °C 84 % 1034,5 hPa 0,0 mm 0,0 km/h (0 Bft) S-SW 200 ° 0 min 0,000 mm 0,0 UV-I 0 W/m² -4,7 °C -2,4 °C 0,0 km/h (0 Bft)
16.02.2017 07:02 -2,4 °C -2,4 °C 84 % 1034,5 hPa 0,0 mm 0,0 km/h (0 Bft) S-SW 200 ° 0 min 0,000 mm 0,0 UV-I 0 W/m² -4,7 °C -2,4 °C 0,0 km/h (0 Bft)
16.02.2017 07:03 -2,4 °C -2,4 °C 84 % 1034,5 hPa 0,0 mm 0,0 km/h (0 Bft) S-SW 200 ° 0 min 0,000 mm 0,0 UV-I 0 W/m² -4,7 °C -2,4 °C 0,0 km/h (0 Bft)
16.02.2017 07:04 -2,5 °C -2,4 °C 84 % 1034,5 hPa 0,0 mm 0,0 km/h (0 Bft) S-SW 200 ° 0 min 0,000 mm 0,0 UV-I 0 W/m² -4,8 °C -2,5 °C 0,0 km/h (0 Bft)
16.02.2017 07:05 -2,5 °C -2,5 °C 84 % 1034,5 hPa 0,0 mm 0,0 km/h (0 Bft) S-SW 200 ° 0 min 0,000 mm 0,0 UV-I 0 W/m² -4,8 °C -2,5 °C 0,0 km/h (0 Bft)
16.02.2017 07:06 -2,5 °C -2,5 °C 84 % 1034,5 hPa 0,0 mm 0,0 km/h (0 Bft) S-SW 200 ° 0 min 0,000 mm 0,0 UV-I 0 W/m² -4,8 °C -2,5 °C 0,0 km/h (0 Bft)
16.02.2017 07:07 -2,5 °C -2,5 °C 84 % 1034,5 hPa 0,0 mm 0,0 km/h (0 Bft) S-SW 200 ° 0 min 0,000 mm 0,0 UV-I 0 W/m² -4,8 °C -2,5 °C 0,0 km/h (0 Bft)
16.02.2017 07:08 -2,5 °C -2,5 °C 84 % 1034,5 hPa 0,0 mm 0,0 km/h (0 Bft) S-SW 200 ° 0 min 0,000 mm 0,0 UV-I 0 W/m² -4,8 °C -2,5 °C 0,0 km/h (0 Bft)
16.02.2017 07:09 -2,6 °C -2,5 °C 84 % 1034,5 hPa 0,0 mm 0,0 km/h (0 Bft) S-SW 200 ° 0 min 0,000 mm 0,0 UV-I 0 W/m² -4,9 °C -2,6 °C 0,0 km/h (0 Bft)
16.02.2017 07:10 -2,5 °C -2,5 °C 84 % 1034,5 hPa 0,0 mm 0,0 km/h (0 Bft) S-SW 200 ° 0 min 0,000 mm 0,0 UV-I 0 W/m² -4,8 °C -2,5 °C 0,0 km/h (0 Bft)
16.02.2017 07:11 -2,6 °C -2,5 °C 85 % 1034,5 hPa 0,0 mm 0,0 km/h (0 Bft) S-SW 200 ° 0 min 0,000 mm 0,0 UV-I 0 W/m² -4,8 °C -2,6 °C 0,0 km/h (0 Bft)
16.02.2017 07:12 -2,6 °C -2,6 °C 85 % 1034,5 hPa 0,0 mm 0,0 km/h (0 Bft) S-SW 200 ° 0 min 0,000 mm 0,0 UV-I 0 W/m² -4,8 °C -2,6 °C 0,0 km/h (0 Bft)
16.02.2017 07:13 -2,6 °C -2,6 °C 85 % 1034,5 hPa 0,0 mm 0,0 km/h (0 Bft) S-SW 200 ° 0 min 0,000 mm 0,0 UV-I 0 W/m² -4,8 °C -2,6 °C 0,0 km/h (0 Bft)
16.02.2017 07:14 -2,6 °C -2,6 °C 85 % 1034,4 hPa 0,0 mm 0,0 km/h (0 Bft) S-SW 200 ° 0 min 0,000 mm 0,0 UV-I 0 W/m² -4,8 °C -2,6 °C 0,0 km/h (0 Bft)
16.02.2017 07:15 -2,6 °C -2,6 °C 85 % 1034,4 hPa 0,0 mm 0,0 km/h (0 Bft) S-SW 200 ° 0 min 0,000 mm 0,0 UV-I 0 W/m² -4,8 °C -2,6 °C 0,0 km/h (0 Bft)
16.02.2017 07:16 -2,6 °C -2,6 °C 85 % 1034,4 hPa 0,0 mm 0,0 km/h (0 Bft) S-SW 200 ° 0 min 0,000 mm 0,0 UV-I 0 W/m² -4,8 °C -2,6 °C 0,0 km/h (0 Bft)
16.02.2017 07:17 -2,6 °C -2,6 °C 85 % 1034,4 hPa 0,0 mm 0,0 km/h (0 Bft) S-SW 200 ° 0 min 0,000 mm 0,0 UV-I 0 W/m² -4,8 °C -2,6 °C 0,0 km/h (0 Bft)
16.02.2017 07:18 -2,6 °C -2,6 °C 85 % 1034,4 hPa 0,0 mm 0,0 km/h (0 Bft) S-SW 200 ° 0 min 0,000 mm 0,0 UV-I 0 W/m² -4,8 °C -2,6 °C 0,0 km/h (0 Bft)
16.02.2017 07:19 -2,6 °C -2,6 °C 85 % 1034,4 hPa 0,0 mm 0,0 km/h (0 Bft) S-SW 200 ° 0 min 0,000 mm 0,0 UV-I 0 W/m² -4,8 °C -2,6 °C 0,0 km/h (0 Bft)
16.02.2017 07:20 -2,6 °C -2,6 °C 85 % 1034,4 hPa 0,0 mm 0,0 km/h (0 Bft) S-SW 200 ° 0 min 0,000 mm 0,0 UV-I 0 W/m² -4,8 °C -2,6 °C 0,0 km/h (0 Bft)
16.02.2017 07:21 -2,6 °C -2,6 °C 85 % 1034,4 hPa 0,0 mm 0,0 km/h (0 Bft) S-SW 200 ° 0 min 0,000 mm 0,0 UV-I 0 W/m² -4,8 °C -2,6 °C 0,0 km/h (0 Bft)
16.02.2017 07:22 -2,6 °C -2,6 °C 85 % 1034,3 hPa 0,0 mm 0,4 km/h (0 Bft) S-SW 200 ° 0 min 0,000 mm 0,0 UV-I 5 W/m² -4,8 °C -2,6 °C 1,6 km/h (1 Bft)
16.02.2017 07:23 -2,7 °C -2,6 °C 85 % 1034,4 hPa 0,0 mm 0,7 km/h (0 Bft) S-SW 200 ° 0 min 0,000 mm 0,0 UV-I 5 W/m² -4,9 °C -2,7 °C 3,2 km/h (1 Bft)
16.02.2017 07:24 -2,6 °C -2,6 °C 85 % 1034,4 hPa 0,0 mm 0,3 km/h (0 Bft) S-SW 200 ° 0 min 0,000 mm 0,0 UV-I 5 W/m² -4,8 °C -2,6 °C 1,6 km/h (1 Bft)
16.02.2017 07:25 -2,7 °C -2,6 °C 86 % 1034,4 hPa 0,0 mm 0,4 km/h (0 Bft) S-SW 200 ° 0 min 0,000 mm 0,0 UV-I 5 W/m² -4,7 °C -2,7 °C 1,6 km/h (1 Bft)
16.02.2017 07:26 -2,7 °C -2,6 °C 86 % 1034,3 hPa 0,0 mm 0,0 km/h (0 Bft) S-SW 200 ° 0 min 0,000 mm 0,0 UV-I 5 W/m² -4,7 °C -2,7 °C 0,0 km/h (0 Bft)
16.02.2017 07:27 -2,7 °C -2,7 °C 86 % 1034,4 hPa 0,0 mm 0,1 km/h (0 Bft) S-SW 200 ° 0 min 0,000 mm 0,0 UV-I 7 W/m² -4,7 °C -2,7 °C 1,6 km/h (1 Bft)
16.02.2017 07:28 -2,7 °C -2,7 °C 86 % 1034,4 hPa 0,0 mm 0,0 km/h (0 Bft) S-SW 200 ° 0 min 0,000 mm 0,0 UV-I 7 W/m² -4,7 °C -2,7 °C 0,0 km/h (0 Bft)
16.02.2017 07:29 -2,7 °C -2,7 °C 86 % 1034,4 hPa 0,0 mm 0,0 km/h (0 Bft) S-SW 200 ° 0 min 0,000 mm 0,0 UV-I 7 W/m² -4,7 °C -2,7 °C 0,0 km/h (0 Bft)
16.02.2017 07:30 -2,7 °C -2,7 °C 86 % 1034,4 hPa 0,0 mm 0,0 km/h (0 Bft) S-SW 200 ° 0 min 0,000 mm 0,0 UV-I 7 W/m² -4,7 °C -2,7 °C 0,0 km/h (0 Bft)
16.02.2017 07:31 -2,6 °C -2,6 °C 86 % 1034,4 hPa 0,0 mm 0,0 km/h (0 Bft) S-SW 200 ° 0 min 0,000 mm 0,0 UV-I 7 W/m² -4,6 °C -2,6 °C 0,0 km/h (0 Bft)
16.02.2017 07:32 -2,7 °C -2,6 °C 86 % 1034,4 hPa 0,0 mm 0,2 km/h (0 Bft) S-SW 200 ° 0 min 0,000 mm 0,0 UV-I 9 W/m² -4,7 °C -2,7 °C 1,6 km/h (1 Bft)
16.02.2017 07:33 -2,7 °C -2,7 °C 86 % 1034,4 hPa 0,0 mm 0,0 km/h (0 Bft) S-SW 200 ° 0 min 0,000 mm 0,0 UV-I 9 W/m² -4,7 °C -2,7 °C 0,0 km/h (0 Bft)
16.02.2017 07:34 -2,7 °C -2,7 °C 86 % 1034,4 hPa 0,0 mm 0,0 km/h (0 Bft) S-SW 200 ° 0 min 0,000 mm 0,0 UV-I 9 W/m² -4,7 °C -2,7 °C 0,0 km/h (0 Bft)
16.02.2017 07:35 -2,7 °C -2,7 °C 86 % 1034,3 hPa 0,0 mm 0,0 km/h (0 Bft) S-SW 200 ° 0 min 0,000 mm 0,0 UV-I 9 W/m² -4,7 °C -2,7 °C 0,0 km/h (0 Bft)
16.02.2017 07:36 -2,7 °C -2,7 °C 86 % 1034,3 hPa 0,0 mm 0,0 km/h (0 Bft) S-SW 200 ° 0 min 0,000 mm 0,0 UV-I 11 W/m² -4,7 °C -2,7 °C 0,0 km/h (0 Bft)
16.02.2017 07:37 -2,7 °C -2,7 °C 86 % 1034,4 hPa 0,0 mm 0,0 km/h (0 Bft) S-SW 200 ° 0 min 0,000 mm 0,0 UV-I 11 W/m² -4,7 °C -2,7 °C 0,0 km/h (0 Bft)
16.02.2017 07:38 -2,7 °C -2,7 °C 86 % 1034,4 hPa 0,0 mm 0,0 km/h (0 Bft) S-SW 200 ° 0 min 0,000 mm 0,0 UV-I 11 W/m² -4,7 °C -2,7 °C 0,0 km/h (0 Bft)
16.02.2017 07:39 -2,7 °C -2,7 °C 86 % 1034,4 hPa 0,0 mm 0,0 km/h (0 Bft) S-SW 200 ° 0 min 0,000 mm 0,0 UV-I 11 W/m² -4,7 °C -2,7 °C 0,0 km/h (0 Bft)
16.02.2017 07:40 -2,7 °C -2,6 °C 86 % 1034,4 hPa 0,0 mm 0,0 km/h (0 Bft) S-SW 200 ° 0 min 0,000 mm 0,0 UV-I 11 W/m² -4,7 °C -2,7 °C 0,0 km/h (0 Bft)
16.02.2017 07:41 -2,7 °C -2,6 °C 86 % 1034,4 hPa 0,0 mm 0,0 km/h (0 Bft) S-SW 200 ° 0 min 0,000 mm 0,0 UV-I 12 W/m² -4,7 °C -2,7 °C 0,0 km/h (0 Bft)
16.02.2017 07:42 -2,7 °C -2,6 °C 86 % 1034,4 hPa 0,0 mm 0,0 km/h (0 Bft) S-SW 200 ° 0 min 0,000 mm 0,0 UV-I 12 W/m² -4,7 °C -2,7 °C 0,0 km/h (0 Bft)
16.02.2017 07:43 -2,7 °C -2,7 °C 86 % 1034,4 hPa 0,0 mm 0,0 km/h (0 Bft) S-SW 200 ° 0 min 0,000 mm 0,0 UV-I 12 W/m² -4,7 °C -2,7 °C 0,0 km/h (0 Bft)
16.02.2017 07:44 -2,6 °C -2,6 °C 86 % 1034,4 hPa 0,0 mm 0,1 km/h (0 Bft) S-SW 200 ° 0 min 0,000 mm 0,0 UV-I 12 W/m² -4,6 °C -2,6 °C 1,6 km/h (1 Bft)
16.02.2017 07:45 -2,7 °C -2,6 °C 86 % 1034,4 hPa 0,0 mm 0,7 km/h (0 Bft) S-SW 200 ° 0 min 0,000 mm 0,0 UV-I 12 W/m² -4,7 °C -2,7 °C 1,6 km/h (1 Bft)
16.02.2017 07:46 -2,7 °C -2,6 °C 86 % 1034,4 hPa 0,0 mm 1,1 km/h (1 Bft) S-SW 200 ° 0 min 0,000 mm 0,0 UV-I 12 W/m² -4,7 °C -2,7 °C 1,6 km/h (1 Bft)
16.02.2017 07:47 -2,6 °C -2,6 °C 86 % 1034,5 hPa 0,0 mm 0,8 km/h (0 Bft) S-SW 200 ° 0 min 0,000 mm 0,0 UV-I 14 W/m² -4,6 °C -2,6 °C 1,6 km/h (1 Bft)
16.02.2017 07:48 -2,6 °C -2,6 °C 86 % 1034,4 hPa 0,0 mm 1,5 km/h (1 Bft) S-SW 200 ° 0 min 0,000 mm 0,0 UV-I 14 W/m² -4,6 °C -2,6 °C 1,6 km/h (1 Bft)
16.02.2017 07:49 -2,7 °C -2,6 °C 86 % 1034,4 hPa 0,0 mm 0,7 km/h (0 Bft) S-SW 200 ° 0 min 0,000 mm 0,0 UV-I 14 W/m² -4,7 °C -2,7 °C 1,6 km/h (1 Bft)
16.02.2017 07:50 -2,6 °C -2,6 °C 86 % 1034,5 hPa 0,0 mm 0,8 km/h (0 Bft) S-SW 200 ° 0 min 0,000 mm 0,0 UV-I 14 W/m² -4,6 °C -2,6 °C 1,6 km/h (1 Bft)
16.02.2017 07:51 -2,6 °C -2,6 °C 86 % 1034,5 hPa 0,0 mm 0,4 km/h (0 Bft) S-SW 200 ° 0 min 0,000 mm 0,0 UV-I 14 W/m² -4,6 °C -2,6 °C 1,6 km/h (1 Bft)
16.02.2017 07:52 -2,6 °C -2,6 °C 87 % 1034,4 hPa 0,0 mm 0,0 km/h (0 Bft) S-SW 200 ° 0 min 0,000 mm 0,0 UV-I 16 W/m² -4,5 °C -2,6 °C 0,0 km/h (0 Bft)
16.02.2017 07:53 -2,6 °C -2,6 °C 87 % 1034,4 hPa 0,0 mm 0,1 km/h (0 Bft) S-SW 200 ° 0 min 0,000 mm 0,0 UV-I 16 W/m² -4,5 °C -2,6 °C 1,6 km/h (1 Bft)
16.02.2017 07:54 -2,6 °C -2,6 °C 87 % 1034,4 hPa 0,0 mm 0,0 km/h (0 Bft) S-SW 200 ° 0 min 0,000 mm 0,0 UV-I 16 W/m² -4,5 °C -2,6 °C 0,0 km/h (0 Bft)
16.02.2017 07:55 -2,6 °C -2,6 °C 87 % 1034,5 hPa 0,0 mm 0,0 km/h (0 Bft) S-SW 200 ° 0 min 0,000 mm 0,0 UV-I 16 W/m² -4,5 °C -2,6 °C 0,0 km/h (0 Bft)
16.02.2017 07:56 -2,6 °C -2,6 °C 87 % 1034,5 hPa 0,0 mm 0,0 km/h (0 Bft) S-SW 200 ° 0 min 0,000 mm 0,0 UV-I 16 W/m² -4,5 °C -2,6 °C 0,0 km/h (0 Bft)
16.02.2017 07:57 -2,6 °C -2,6 °C 87 % 1034,5 hPa 0,0 mm 0,0 km/h (0 Bft) S-SW 200 ° 0 min 0,000 mm 0,0 UV-I 16 W/m² -4,5 °C -2,6 °C 0,0 km/h (0 Bft)
16.02.2017 07:58 -2,6 °C -2,5 °C 87 % 1034,4 hPa 0,0 mm 0,0 km/h (0 Bft) S-SW 200 ° 0 min 0,000 mm 0,0 UV-I 16 W/m² -4,5 °C -2,6 °C 0,0 km/h (0 Bft)
16.02.2017 07:59 -2,5 °C -2,5 °C 87 % 1034,4 hPa 0,0 mm 0,0 km/h (0 Bft) S-SW 200 ° 0 min 0,000 mm 0,0 UV-I 18 W/m² -4,4 °C -2,5 °C 0,0 km/h (0 Bft)
16.02.2017 08:00 -2,5 °C -2,5 °C 87 % 1034,4 hPa 0,0 mm 0,0 km/h (0 Bft) S-SW 200 ° 0 min 0,000 mm 0,0 UV-I 18 W/m² -4,4 °C -2,5 °C 0,0 km/h (0 Bft)
16.02.2017 08:01 -2,5 °C -2,5 °C 87 % 1034,4 hPa 0,0 mm 0,0 km/h (0 Bft) S-SW 200 ° 0 min 0,000 mm 0,0 UV-I 18 W/m² -4,4 °C -2,5 °C 0,0 km/h (0 Bft)
16.02.2017 08:02 -2,5 °C -2,5 °C 87 % 1034,4 hPa 0,0 mm 0,0 km/h (0 Bft) S-SW 200 ° 0 min 0,000 mm 0,0 UV-I 18 W/m² -4,4 °C -2,5 °C 0,0 km/h (0 Bft)
16.02.2017 08:03 -2,5 °C -2,4 °C 87 % 1034,4 hPa 0,0 mm 0,0 km/h (0 Bft) S-SW 200 ° 0 min 0,000 mm 0,0 UV-I 18 W/m² -4,4 °C -2,5 °C 0,0 km/h (0 Bft)
16.02.2017 08:04 -2,5 °C -2,4 °C 87 % 1034,5 hPa 0,0 mm 0,6 km/h (0 Bft) S-SW 200 ° 0 min 0,000 mm 0,0 UV-I 18 W/m² -4,4 °C -2,5 °C 1,6 km/h (1 Bft)
16.02.2017 08:05 -2,4 °C -2,4 °C 87 % 1034,5 hPa 0,0 mm 0,9 km/h (0 Bft) S-SW 200 ° 0 min 0,000 mm 0,0 UV-I 18 W/m² -4,3 °C -2,4 °C 1,6 km/h (1 Bft)
16.02.2017 08:06 -2,4 °C -2,4 °C 87 % 1034,4 hPa 0,0 mm 1,1 km/h (1 Bft) S-SW 200 ° 0 min 0,000 mm 0,0 UV-I 19 W/m² -4,3 °C -2,4 °C 1,6 km/h (1 Bft)
16.02.2017 08:07 -2,4 °C -2,4 °C 86 % 1034,4 hPa 0,0 mm 0,3 km/h (0 Bft) S-SW 200 ° 0 min 0,000 mm 0,0 UV-I 19 W/m² -4,4 °C -2,4 °C 1,6 km/h (1 Bft)
16.02.2017 08:08 -2,4 °C -2,4 °C 86 % 1034,5 hPa 0,0 mm 1,1 km/h (1 Bft) S-SW 200 ° 0 min 0,000 mm 0,0 UV-I 19 W/m² -4,4 °C -2,4 °C 3,2 km/h (1 Bft)
16.02.2017 08:09 -2,4 °C -2,4 °C 87 % 1034,5 hPa 0,0 mm 2,5 km/h (1 Bft) S-SW 200 ° 0 min 0,000 mm 0,0 UV-I 19 W/m² -4,3 °C -2,4 °C 3,2 km/h (1 Bft)
16.02.2017 08:10 -2,4 °C -2,4 °C 87 % 1034,5 hPa 0,0 mm 2,4 km/h (1 Bft) S-SW 200 ° 0 min 0,000 mm 0,0 UV-I 19 W/m² -4,3 °C -2,4 °C 3,2 km/h (1 Bft)
16.02.2017 08:11 -2,4 °C -2,4 °C 87 % 1034,5 hPa 0,0 mm 1,1 km/h (1 Bft) S-SW 200 ° 0 min 0,000 mm 0,0 UV-I 19 W/m² -4,3 °C -2,4 °C 3,2 km/h (1 Bft)
16.02.2017 08:12 -2,4 °C -2,4 °C 87 % 1034,4 hPa 0,0 mm 0,2 km/h (0 Bft) S-SW 200 ° 0 min 0,000 mm 0,0 UV-I 19 W/m² -4,3 °C -2,4 °C 1,6 km/h (1 Bft)
16.02.2017 08:13 -2,3 °C -2,3 °C 87 % 1034,4 hPa 0,0 mm 0,0 km/h (0 Bft) S-SW 200 ° 0 min 0,000 mm 0,0 UV-I 19 W/m² -4,2 °C -2,3 °C 0,0 km/h (0 Bft)
16.02.2017 08:14 -2,3 °C -2,3 °C 87 % 1034,4 hPa 0,0 mm 0,0 km/h (0 Bft) S-SW 200 ° 0 min 0,000 mm 0,0 UV-I 21 W/m² -4,2 °C -2,3 °C 0,0 km/h (0 Bft)
16.02.2017 08:15 -2,3 °C -2,3 °C 87 % 1034,5 hPa 0,0 mm 0,0 km/h (0 Bft) S-SW 200 ° 0 min 0,000 mm 0,0 UV-I 21 W/m² -4,2 °C -2,3 °C 0,0 km/h (0 Bft)
16.02.2017 08:16 -2,2 °C -2,2 °C 87 % 1034,4 hPa 0,0 mm 0,0 km/h (0 Bft) S-SW 200 ° 0 min 0,000 mm 0,0 UV-I 21 W/m² -4,1 °C -2,2 °C 0,0 km/h (0 Bft)
16.02.2017 08:17 -2,2 °C -2,2 °C 86 % 1034,4 hPa 0,0 mm 0,0 km/h (0 Bft) S-SW 200 ° 0 min 0,000 mm 0,0 UV-I 21 W/m² -4,2 °C -2,2 °C 0,0 km/h (0 Bft)
16.02.2017 08:18 -2,2 °C -2,2 °C 86 % 1034,3 hPa 0,0 mm 0,0 km/h (0 Bft) S-SW 200 ° 0 min 0,000 mm 0,0 UV-I 21 W/m² -4,2 °C -2,2 °C 0,0 km/h (0 Bft)
16.02.2017 08:19 -2,2 °C -2,2 °C 86 % 1034,3 hPa 0,0 mm 0,0 km/h (0 Bft) S-SW 200 ° 0 min 0,000 mm 0,0 UV-I 21 W/m² -4,2 °C -2,2 °C 0,0 km/h (0 Bft)
16.02.2017 08:20 -2,2 °C -2,2 °C 86 % 1034,3 hPa 0,0 mm 0,0 km/h (0 Bft) S-SW 200 ° 0 min 0,000 mm 0,0 UV-I 21 W/m² -4,2 °C -2,2 °C 0,0 km/h (0 Bft)
16.02.2017 08:21 -2,2 °C -2,2 °C 86 % 1034,3 hPa 0,0 mm 0,0 km/h (0 Bft) S-SW 200 ° 0 min 0,000 mm 0,0 UV-I 21 W/m² -4,2 °C -2,2 °C 0,0 km/h (0 Bft)
16.02.2017 08:22 -2,1 °C -2,1 °C 86 % 1034,3 hPa 0,0 mm 0,0 km/h (0 Bft) S-SW 200 ° 0 min 0,000 mm 0,0 UV-I 21 W/m² -4,1 °C -2,1 °C 0,0 km/h (0 Bft)
16.02.2017 08:23 -2,1 °C -2,1 °C 86 % 1034,3 hPa 0,0 mm 0,0 km/h (0 Bft) S-SW 200 ° 0 min 0,000 mm 0,0 UV-I 21 W/m² -4,1 °C -2,1 °C 0,0 km/h (0 Bft)
16.02.2017 08:24 -2,1 °C -2,1 °C 86 % 1034,3 hPa 0,0 mm 0,0 km/h (0 Bft) S-SW 200 ° 0 min 0,000 mm 0,0 UV-I 23 W/m² -4,1 °C -2,1 °C 0,0 km/h (0 Bft)
16.02.2017 08:25 -2,1 °C -2,1 °C 86 % 1034,3 hPa 0,0 mm 0,1 km/h (0 Bft) S-SW 200 ° 0 min 0,000 mm 0,0 UV-I 23 W/m² -4,1 °C -2,1 °C 1,6 km/h (1 Bft)
16.02.2017 08:26 -2,0 °C -2,0 °C 86 % 1034,3 hPa 0,0 mm 0,0 km/h (0 Bft) S-SW 200 ° 0 min 0,000 mm 0,0 UV-I 23 W/m² -4,0 °C -2,0 °C 0,0 km/h (0 Bft)
16.02.2017 08:27 -2,0 °C -2,0 °C 86 % 1034,3 hPa 0,0 mm 0,0 km/h (0 Bft) S-SW 200 ° 0 min 0,000 mm 0,0 UV-I 23 W/m² -4,0 °C -2,0 °C 0,0 km/h (0 Bft)
16.02.2017 08:28 -2,0 °C -2,0 °C 86 % 1034,3 hPa 0,0 mm 0,0 km/h (0 Bft) S-SW 200 ° 0 min 0,000 mm 0,0 UV-I 23 W/m² -4,0 °C -2,0 °C 0,0 km/h (0 Bft)
16.02.2017 08:29 -1,9 °C -1,9 °C 85 % 1034,3 hPa 0,0 mm 0,0 km/h (0 Bft) S-SW 200 ° 0 min 0,000 mm 0,0 UV-I 23 W/m² -4,1 °C -1,9 °C 0,0 km/h (0 Bft)
16.02.2017 08:30 -1,9 °C -1,9 °C 85 % 1034,3 hPa 0,0 mm 0,1 km/h (0 Bft) S-SW 200 ° 0 min 0,000 mm 0,0 UV-I 23 W/m² -4,1 °C -1,9 °C 1,6 km/h (1 Bft)
16.02.2017 08:31 -1,9 °C -1,9 °C 85 % 1034,3 hPa 0,0 mm 0,0 km/h (0 Bft) S-SW 200 ° 0 min 0,000 mm 0,0 UV-I 23 W/m² -4,1 °C -1,9 °C 0,0 km/h (0 Bft)
16.02.2017 08:32 -1,9 °C -1,9 °C 85 % 1034,3 hPa 0,0 mm 0,0 km/h (0 Bft) S-SW 200 ° 0 min 0,000 mm 0,0 UV-I 23 W/m² -4,1 °C -1,9 °C 0,0 km/h (0 Bft)
16.02.2017 08:33 -1,9 °C -1,9 °C 85 % 1034,3 hPa 0,0 mm 0,0 km/h (0 Bft) S-SW 200 ° 0 min 0,000 mm 0,0 UV-I 23 W/m² -4,1 °C -1,9 °C 0,0 km/h (0 Bft)
16.02.2017 08:34 -1,9 °C -1,9 °C 85 % 1034,3 hPa 0,0 mm 0,0 km/h (0 Bft) S-SW 200 ° 0 min 0,000 mm 0,0 UV-I 23 W/m² -4,1 °C -1,9 °C 0,0 km/h (0 Bft)
16.02.2017 08:35 -1,9 °C -1,9 °C 85 % 1034,3 hPa 0,0 mm 0,1 km/h (0 Bft) S-SW 200 ° 0 min 0,000 mm 0,0 UV-I 25 W/m² -4,1 °C -1,9 °C 1,6 km/h (1 Bft)
16.02.2017 08:36 -1,8 °C -1,8 °C 85 % 1034,3 hPa 0,0 mm 1,5 km/h (1 Bft) S-SW 200 ° 0 min 0,000 mm 0,0 UV-I 25 W/m² -4,0 °C -1,8 °C 1,6 km/h (1 Bft)
16.02.2017 08:37 -1,8 °C -1,8 °C 85 % 1034,3 hPa 0,0 mm 0,8 km/h (0 Bft) S-SW 200 ° 0 min 0,000 mm 0,0 UV-I 25 W/m² -4,0 °C -1,8 °C 1,6 km/h (1 Bft)
16.02.2017 08:38 -1,8 °C -1,8 °C 85 % 1034,3 hPa 0,0 mm 0,5 km/h (0 Bft) S-SW 200 ° 0 min 0,000 mm 0,0 UV-I 25 W/m² -4,0 °C -1,8 °C 1,6 km/h (1 Bft)
16.02.2017 08:39 -1,8 °C -1,8 °C 86 % 1034,3 hPa 0,0 mm 0,0 km/h (0 Bft) S-SW 200 ° 0 min 0,000 mm 0,0 UV-I 25 W/m² -3,8 °C -1,8 °C 0,0 km/h (0 Bft)
16.02.2017 08:40 -1,8 °C -1,8 °C 86 % 1034,2 hPa 0,0 mm 0,4 km/h (0 Bft) S-SW 200 ° 0 min 0,000 mm 0,0 UV-I 25 W/m² -3,8 °C -1,8 °C 1,6 km/h (1 Bft)
16.02.2017 08:41 -1,6 °C -1,6 °C 86 % 1034,3 hPa 0,0 mm 0,0 km/h (0 Bft) S-SW 200 ° 0 min 0,000 mm 0,0 UV-I 25 W/m² -3,6 °C -1,6 °C 0,0 km/h (0 Bft)
16.02.2017 08:42 -1,5 °C -1,5 °C 86 % 1034,3 hPa 0,0 mm 0,0 km/h (0 Bft) S-SW 200 ° 0 min 0,000 mm 0,0 UV-I 25 W/m² -3,5 °C -1,5 °C 0,0 km/h (0 Bft)
16.02.2017 08:43 -1,3 °C -1,3 °C 86 % 1034,2 hPa 0,0 mm 0,0 km/h (0 Bft) S-SW 200 ° 0 min 0,000 mm 0,0 UV-I 25 W/m² -3,3 °C -1,3 °C 0,0 km/h (0 Bft)
16.02.2017 08:44 -1,2 °C -1,2 °C 85 % 1034,3 hPa 0,0 mm 0,0 km/h (0 Bft) S-SW 200 ° 0 min 0,000 mm 0,0 UV-I 25 W/m² -3,4 °C -1,2 °C 0,0 km/h (0 Bft)
16.02.2017 08:45 -1,1 °C -1,1 °C 85 % 1034,3 hPa 0,0 mm 0,0 km/h (0 Bft) S-SW 200 ° 0 min 0,000 mm 0,0 UV-I 25 W/m² -3,3 °C -1,1 °C 0,0 km/h (0 Bft)
16.02.2017 08:46 -0,9 °C -0,9 °C 84 % 1034,3 hPa 0,0 mm 0,0 km/h (0 Bft) S-SW 200 ° 0 min 0,000 mm 0,0 UV-I 25 W/m² -3,3 °C -0,9 °C 0,0 km/h (0 Bft)
16.02.2017 08:47 -0,7 °C -0,7 °C 84 % 1034,3 hPa 0,0 mm 0,0 km/h (0 Bft) S-SW 200 ° 0 min 0,000 mm 0,0 UV-I 26 W/m² -3,1 °C -0,7 °C 0,0 km/h (0 Bft)
16.02.2017 08:48 -0,6 °C -0,6 °C 83 % 1034,3 hPa 0,0 mm 0,1 km/h (0 Bft) S-SW 200 ° 0 min 0,000 mm 0,0 UV-I 26 W/m² -3,1 °C -0,6 °C 1,6 km/h (1 Bft)
16.02.2017 08:49 -0,4 °C -0,4 °C 83 % 1034,3 hPa 0,0 mm 0,1 km/h (0 Bft) S-SW 200 ° 0 min 0,000 mm 0,0 UV-I 26 W/m² -2,9 °C -0,4 °C 1,6 km/h (1 Bft)
16.02.2017 08:50 -0,3 °C -0,3 °C 81 % 1034,3 hPa 0,0 mm 0,0 km/h (0 Bft) S-SW 200 ° 0 min 0,000 mm 0,0 UV-I 26 W/m² -3,2 °C -0,3 °C 0,0 km/h (0 Bft)
16.02.2017 08:51 -0,3 °C -0,3 °C 81 % 1034,2 hPa 0,0 mm 0,0 km/h (0 Bft) S-SW 200 ° 0 min 0,000 mm 0,0 UV-I 26 W/m² -3,2 °C -0,3 °C 0,0 km/h (0 Bft)
16.02.2017 08:52 -0,3 °C -0,2 °C 80 % 1034,3 hPa 0,0 mm 0,0 km/h (0 Bft) S-SW 200 ° 0 min 0,000 mm 0,0 UV-I 26 W/m² -3,3 °C -0,3 °C 0,0 km/h (0 Bft)
16.02.2017 08:53 -0,2 °C -0,2 °C 80 % 1034,3 hPa 0,0 mm 0,0 km/h (0 Bft) S-SW 200 ° 0 min 0,000 mm 0,0 UV-I 26 W/m² -3,2 °C -0,2 °C 0,0 km/h (0 Bft)
16.02.2017 08:54 -0,2 °C -0,2 °C 81 % 1034,3 hPa 0,0 mm 0,1 km/h (0 Bft) S-SW 200 ° 0 min 0,000 mm 0,0 UV-I 26 W/m² -3,1 °C -0,2 °C 1,6 km/h (1 Bft)
16.02.2017 08:55 -0,3 °C -0,2 °C 81 % 1034,2 hPa 0,0 mm 0,1 km/h (0 Bft) S-SW 200 ° 0 min 0,000 mm 0,0 UV-I 26 W/m² -3,2 °C -0,3 °C 1,6 km/h (1 Bft)
16.02.2017 08:56 -0,2 °C -0,2 °C 82 % 1034,2 hPa 0,0 mm 0,6 km/h (0 Bft) S-SW 200 ° 0 min 0,000 mm 0,0 UV-I 26 W/m² -2,9 °C -0,2 °C 1,6 km/h (1 Bft)
16.02.2017 08:57 -0,2 °C -0,2 °C 82 % 1034,3 hPa 0,0 mm 1,3 km/h (1 Bft) S-SW 200 ° 0 min 0,000 mm 0,0 UV-I 26 W/m² -2,9 °C -0,2 °C 1,6 km/h (1 Bft)
16.02.2017 08:58 -0,2 °C -0,2 °C 81 % 1034,3 hPa 0,0 mm 1,6 km/h (1 Bft) S-SW 200 ° 0 min 0,000 mm 0,0 UV-I 26 W/m² -3,1 °C -0,2 °C 3,2 km/h (1 Bft)
16.02.2017 08:59 -0,1 °C -0,1 °C 81 % 1034,3 hPa 0,0 mm 0,5 km/h (0 Bft) S-SW 200 ° 0 min 0,000 mm 0,0 UV-I 26 W/m² -3,0 °C -0,1 °C 1,6 km/h (1 Bft)
16.02.2017 09:00 0,0 °C 0,0 °C 81 % 1034,3 hPa 0,0 mm 1,7 km/h (1 Bft) S-SW 200 ° 0 min 0,000 mm 0,0 UV-I 28 W/m² -2,9 °C 0,0 °C 3,2 km/h (1 Bft)
16.02.2017 09:01 0,1 °C 0,1 °C 81 % 1034,2 hPa 0,0 mm 1,7 km/h (1 Bft) S-SW 200 ° 0 min 0,000 mm 0,0 UV-I 28 W/m² -2,8 °C 0,1 °C 3,2 km/h (1 Bft)
16.02.2017 09:02 0,2 °C 0,2 °C 80 % 1034,3 hPa 0,0 mm 0,8 km/h (0 Bft) S-SW 200 ° 0 min 0,000 mm 0,0 UV-I 28 W/m² -2,8 °C 0,2 °C 1,6 km/h (1 Bft)
16.02.2017 09:03 0,2 °C 0,2 °C 80 % 1034,2 hPa 0,0 mm 0,3 km/h (0 Bft) S-SW 200 ° 0 min 0,000 mm 0,0 UV-I 28 W/m² -2,8 °C 0,2 °C 1,6 km/h (1 Bft)
16.02.2017 09:04 0,3 °C 0,3 °C 80 % 1034,2 hPa 0,0 mm 1,7 km/h (1 Bft) S-SW 200 ° 0 min 0,000 mm 0,0 UV-I 28 W/m² -2,7 °C 0,3 °C 3,2 km/h (1 Bft)
16.02.2017 09:05 0,4 °C 0,4 °C 80 % 1034,3 hPa 0,0 mm 1,7 km/h (1 Bft) S-SW 200 ° 0 min 0,000 mm 0,0 UV-I 28 W/m² -2,6 °C 0,4 °C 3,2 km/h (1 Bft)
16.02.2017 09:06 0,6 °C 0,6 °C 79 % 1034,2 hPa 0,0 mm 1,0 km/h (0 Bft) S-SW 200 ° 0 min 0,000 mm 0,0 UV-I 28 W/m² -2,6 °C 0,6 °C 1,6 km/h (1 Bft)
16.02.2017 09:07 0,6 °C 0,7 °C 79 % 1034,3 hPa 0,0 mm 0,1 km/h (0 Bft) S-SW 200 ° 0 min 0,000 mm 0,0 UV-I 28 W/m² -2,6 °C 0,6 °C 1,6 km/h (1 Bft)
16.02.2017 09:08 0,7 °C 0,7 °C 79 % 1034,2 hPa 0,0 mm 0,1 km/h (0 Bft) S-SW 200 ° 0 min 0,000 mm 0,0 UV-I 28 W/m² -2,5 °C 0,7 °C 1,6 km/h (1 Bft)
16.02.2017 09:09 0,8 °C 0,8 °C 79 % 1034,2 hPa 0,0 mm 0,3 km/h (0 Bft) S-SW 200 ° 0 min 0,000 mm 0,0 UV-I 28 W/m² -2,4 °C 0,8 °C 1,6 km/h (1 Bft)
16.02.2017 09:10 1,0 °C 1,0 °C 79 % 1034,3 hPa 0,0 mm 0,1 km/h (0 Bft) S-SW 200 ° 0 min 0,000 mm 0,0 UV-I 28 W/m² -2,2 °C 1,0 °C 1,6 km/h (1 Bft)
16.02.2017 09:11 1,1 °C 1,1 °C 78 % 1034,2 hPa 0,0 mm 0,0 km/h (0 Bft) S-SW 200 ° 0 min 0,000 mm 0,0 UV-I 28 W/m² -2,3 °C 1,1 °C 0,0 km/h (0 Bft)
16.02.2017 09:12 1,1 °C 1,2 °C 78 % 1034,3 hPa 0,0 mm 0,5 km/h (0 Bft) S-SW 200 ° 0 min 0,000 mm 0,0 UV-I 28 W/m² -2,3 °C 1,1 °C 1,6 km/h (1 Bft)
16.02.2017 09:13 1,2 °C 1,2 °C 77 % 1034,2 hPa 0,0 mm 0,0 km/h (0 Bft) S-SW 200 ° 0 min 0,000 mm 0,0 UV-I 30 W/m² -2,4 °C 1,2 °C 0,0 km/h (0 Bft)
16.02.2017 09:14 1,1 °C 1,2 °C 77 % 1034,3 hPa 0,0 mm 0,0 km/h (0 Bft) S-SW 200 ° 0 min 0,000 mm 0,0 UV-I 30 W/m² -2,5 °C 1,1 °C 0,0 km/h (0 Bft)
16.02.2017 09:15 1,1 °C 1,1 °C 77 % 1034,3 hPa 0,0 mm 0,0 km/h (0 Bft) S-SW 200 ° 0 min 0,000 mm 0,0 UV-I 30 W/m² -2,5 °C 1,1 °C 0,0 km/h (0 Bft)
16.02.2017 09:16 1,0 °C 1,1 °C 77 % 1034,2 hPa 0,0 mm 0,0 km/h (0 Bft) S-SW 200 ° 0 min 0,000 mm 0,0 UV-I 30 W/m² -2,6 °C 1,0 °C 0,0 km/h (0 Bft)
16.02.2017 09:17 1,0 °C 1,0 °C 77 % 1034,3 hPa 0,0 mm 0,4 km/h (0 Bft) S-SW 200 ° 0 min 0,000 mm 0,0 UV-I 30 W/m² -2,6 °C 1,0 °C 1,6 km/h (1 Bft)
16.02.2017 09:18 1,1 °C 1,1 °C 78 % 1034,3 hPa 0,0 mm 1,2 km/h (1 Bft) S-SW 200 ° 0 min 0,000 mm 0,0 UV-I 30 W/m² -2,3 °C 1,1 °C 1,6 km/h (1 Bft)
16.02.2017 09:19 1,1 °C 1,1 °C 78 % 1034,3 hPa 0,0 mm 1,9 km/h (1 Bft) S-SW 200 ° 0 min 0,000 mm 0,0 UV-I 32 W/m² -2,3 °C 1,1 °C 3,2 km/h (1 Bft)
16.02.2017 09:20 1,2 °C 1,2 °C 77 % 1034,3 hPa 0,0 mm 2,0 km/h (1 Bft) S-SW 200 ° 0 min 0,000 mm 0,0 UV-I 32 W/m² -2,4 °C 1,2 °C 3,2 km/h (1 Bft)
16.02.2017 09:21 1,3 °C 1,3 °C 77 % 1034,3 hPa 0,0 mm 1,8 km/h (1 Bft) S-SW 200 ° 0 min 0,000 mm 0,0 UV-I 32 W/m² -2,3 °C 1,3 °C 3,2 km/h (1 Bft)
16.02.2017 09:22 1,4 °C 1,4 °C 77 % 1034,3 hPa 0,0 mm 1,2 km/h (1 Bft) S-SW 200 ° 0 min 0,000 mm 0,0 UV-I 32 W/m² -2,2 °C 1,4 °C 1,6 km/h (1 Bft)
16.02.2017 09:23 1,6 °C 1,6 °C 77 % 1034,2 hPa 0,0 mm 2,3 km/h (1 Bft) S-SW 200 ° 0 min 0,000 mm 0,0 UV-I 33 W/m² -2,0 °C 1,6 °C 3,2 km/h (1 Bft)
16.02.2017 09:24 1,7 °C 1,7 °C 76 % 1034,2 hPa 0,0 mm 1,9 km/h (1 Bft) S-SW 200 ° 0 min 0,000 mm 0,0 UV-I 35 W/m² -2,1 °C 1,7 °C 3,2 km/h (1 Bft)
16.02.2017 09:25 1,7 °C 1,7 °C 76 % 1034,2 hPa 0,0 mm 1,1 km/h (1 Bft) S-SW 200 ° 0 min 0,000 mm 0,0 UV-I 33 W/m² -2,1 °C 1,7 °C 1,6 km/h (1 Bft)
16.02.2017 09:26 1,8 °C 1,8 °C 75 % 1034,1 hPa 0,0 mm 0,3 km/h (0 Bft) S-SW 200 ° 0 min 0,000 mm 0,0 UV-I 33 W/m² -2,1 °C 1,8 °C 1,6 km/h (1 Bft)
16.02.2017 09:27 1,7 °C 1,8 °C 74 % 1034,2 hPa 0,0 mm 0,0 km/h (0 Bft) S-SW 200 ° 0 min 0,000 mm 0,0 UV-I 33 W/m² -2,4 °C 1,7 °C 0,0 km/h (0 Bft)
16.02.2017 09:28 1,7 °C 1,7 °C 75 % 1034,2 hPa 0,0 mm 0,0 km/h (0 Bft) S-SW 200 ° 0 min 0,000 mm 0,0 UV-I 33 W/m² -2,2 °C 1,7 °C 0,0 km/h (0 Bft)
16.02.2017 09:29 1,7 °C 1,7 °C 75 % 1034,2 hPa 0,0 mm 0,0 km/h (0 Bft) S-SW 200 ° 0 min 0,000 mm 0,0 UV-I 33 W/m² -2,2 °C 1,7 °C 0,0 km/h (0 Bft)
16.02.2017 09:30 1,7 °C 1,7 °C 75 % 1034,2 hPa 0,0 mm 0,0 km/h (0 Bft) S-SW 200 ° 0 min 0,000 mm 0,0 UV-I 33 W/m² -2,2 °C 1,7 °C 0,0 km/h (0 Bft)
16.02.2017 09:31 1,8 °C 1,8 °C 75 % 1034,1 hPa 0,0 mm 0,0 km/h (0 Bft) S-SW 200 ° 0 min 0,000 mm 0,0 UV-I 32 W/m² -2,1 °C 1,8 °C 0,0 km/h (0 Bft)
16.02.2017 09:32 1,9 °C 1,9 °C 75 % 1034,1 hPa 0,0 mm 0,0 km/h (0 Bft) S-SW 200 ° 0 min 0,000 mm 0,0 UV-I 32 W/m² -2,1 °C 1,9 °C 0,0 km/h (0 Bft)
16.02.2017 09:33 2,0 °C 2,0 °C 74 % 1034,1 hPa 0,0 mm 0,0 km/h (0 Bft) S-SW 200 ° 0 min 0,000 mm 0,0 UV-I 32 W/m² -2,1 °C 2,0 °C 0,0 km/h (0 Bft)
16.02.2017 09:34 2,1 °C 2,1 °C 74 % 1034,1 hPa 0,0 mm 0,0 km/h (0 Bft) S-SW 200 ° 0 min 0,000 mm 0,0 UV-I 33 W/m² -2,0 °C 2,1 °C 0,0 km/h (0 Bft)
16.02.2017 09:35 2,2 °C 2,2 °C 74 % 1034,1 hPa 0,0 mm 0,0 km/h (0 Bft) S-SW 200 ° 0 min 0,000 mm 0,0 UV-I 33 W/m² -1,9 °C 2,2 °C 0,0 km/h (0 Bft)
16.02.2017 09:36 2,2 °C 2,2 °C 73 % 1034,1 hPa 0,0 mm 0,8 km/h (0 Bft) S-SW 200 ° 0 min 0,000 mm 0,0 UV-I 32 W/m² -2,1 °C 2,2 °C 1,6 km/h (1 Bft)
16.02.2017 09:37 2,2 °C 2,2 °C 73 % 1034,1 hPa 0,0 mm 0,6 km/h (0 Bft) S-SW 200 ° 0 min 0,000 mm 0,0 UV-I 32 W/m² -2,1 °C 2,2 °C 1,6 km/h (1 Bft)
16.02.2017 09:38 2,3 °C 2,3 °C 73 % 1034,1 hPa 0,0 mm 0,0 km/h (0 Bft) S-SW 200 ° 0 min 0,000 mm 0,0 UV-I 32 W/m² -2,0 °C 2,3 °C 0,0 km/h (0 Bft)
16.02.2017 09:39 2,3 °C 2,3 °C 73 % 1034,1 hPa 0,0 mm 0,0 km/h (0 Bft) S-SW 200 ° 0 min 0,000 mm 0,0 UV-I 32 W/m² -2,0 °C 2,3 °C 0,0 km/h (0 Bft)
16.02.2017 09:40 2,4 °C 2,4 °C 73 % 1034,1 hPa 0,0 mm 0,1 km/h (0 Bft) S-SW 200 ° 0 min 0,000 mm 0,0 UV-I 32 W/m² -1,9 °C 2,4 °C 1,6 km/h (1 Bft)
16.02.2017 09:41 2,5 °C 2,5 °C 73 % 1034,1 hPa 0,0 mm 0,7 km/h (0 Bft) S-SW 200 ° 0 min 0,000 mm 0,0 UV-I 32 W/m² -1,8 °C 2,5 °C 1,6 km/h (1 Bft)
16.02.2017 09:42 2,7 °C 2,7 °C 73 % 1034,1 hPa 0,0 mm 1,5 km/h (1 Bft) S-SW 200 ° 0 min 0,000 mm 0,0 UV-I 32 W/m² -1,6 °C 2,7 °C 1,6 km/h (1 Bft)
16.02.2017 09:43 2,8 °C 2,8 °C 73 % 1034,1 hPa 0,0 mm 1,5 km/h (1 Bft) S-SW 200 ° 0 min 0,000 mm 0,0 UV-I 32 W/m² -1,5 °C 2,8 °C 1,6 km/h (1 Bft)
16.02.2017 09:44 2,8 °C 2,8 °C 72 % 1034,1 hPa 0,0 mm 0,8 km/h (0 Bft) S-SW 200 ° 0 min 0,000 mm 0,0 UV-I 32 W/m² -1,7 °C 2,8 °C 1,6 km/h (1 Bft)
16.02.2017 09:45 2,8 °C 2,8 °C 72 % 1034,0 hPa 0,0 mm 0,2 km/h (0 Bft) S-SW 200 ° 0 min 0,000 mm 0,0 UV-I 32 W/m² -1,7 °C 2,8 °C 1,6 km/h (1 Bft)
16.02.2017 09:46 2,7 °C 2,8 °C 72 % 1034,0 hPa 0,0 mm 0,0 km/h (0 Bft) S-SW 200 ° 0 min 0,000 mm 0,0 UV-I 32 W/m² -1,8 °C 2,7 °C 0,0 km/h (0 Bft)
16.02.2017 09:47 2,6 °C 2,7 °C 72 % 1034,1 hPa 0,0 mm 0,1 km/h (0 Bft) S-SW 200 ° 0 min 0,000 mm 0,0 UV-I 33 W/m² -1,9 °C 2,6 °C 1,6 km/h (1 Bft)
16.02.2017 09:48 2,7 °C 2,7 °C 72 % 1034,1 hPa 0,0 mm 0,0 km/h (0 Bft) S-SW 200 ° 0 min 0,000 mm 0,0 UV-I 33 W/m² -1,8 °C 2,7 °C 0,0 km/h (0 Bft)
16.02.2017 09:49 2,7 °C 2,7 °C 72 % 1034,0 hPa 0,0 mm 0,0 km/h (0 Bft) S-SW 200 ° 0 min 0,000 mm 0,0 UV-I 33 W/m² -1,8 °C 2,7 °C 0,0 km/h (0 Bft)
16.02.2017 09:50 2,8 °C 2,8 °C 71 % 1034,0 hPa 0,0 mm 0,0 km/h (0 Bft) S-SW 200 ° 0 min 0,000 mm 0,0 UV-I 33 W/m² -1,9 °C 2,8 °C 0,0 km/h (0 Bft)
16.02.2017 09:51 2,9 °C 2,9 °C 71 % 1034,1 hPa 0,0 mm 0,0 km/h (0 Bft) S-SW 200 ° 0 min 0,000 mm 0,0 UV-I 33 W/m² -1,8 °C 2,9 °C 0,0 km/h (0 Bft)
16.02.2017 09:52 3,0 °C 3,0 °C 71 % 1034,0 hPa 0,0 mm 0,0 km/h (0 Bft) S-SW 200 ° 0 min 0,000 mm 0,0 UV-I 33 W/m² -1,7 °C 3,0 °C 0,0 km/h (0 Bft)
16.02.2017 09:53 3,2 °C 3,2 °C 71 % 1034,0 hPa 0,0 mm 0,9 km/h (0 Bft) S-SW 200 ° 0 min 0,000 mm 0,0 UV-I 33 W/m² -1,5 °C 3,2 °C 1,6 km/h (1 Bft)
16.02.2017 09:54 3,3 °C 3,3 °C 70 % 1034,1 hPa 0,0 mm 1,1 km/h (1 Bft) S-SW 200 ° 0 min 0,000 mm 0,0 UV-I 33 W/m² -1,6 °C 3,3 °C 1,6 km/h (1 Bft)
16.02.2017 09:55 3,4 °C 3,4 °C 70 % 1034,0 hPa 0,0 mm 1,3 km/h (1 Bft) S-SW 200 ° 0 min 0,000 mm 0,0 UV-I 33 W/m² -1,5 °C 3,4 °C 1,6 km/h (1 Bft)
16.02.2017 09:56 3,5 °C 3,5 °C 69 % 1034,0 hPa 0,0 mm 0,8 km/h (0 Bft) S-SW 200 ° 0 min 0,000 mm 0,0 UV-I 35 W/m² -1,6 °C 3,5 °C 1,6 km/h (1 Bft)
16.02.2017 09:57 3,6 °C 3,6 °C 69 % 1034,0 hPa 0,0 mm 1,5 km/h (1 Bft) S-SW 200 ° 0 min 0,000 mm 0,0 UV-I 33 W/m² -1,5 °C 3,6 °C 1,6 km/h (1 Bft)
16.02.2017 09:58 3,7 °C 3,7 °C 68 % 1034,0 hPa 0,0 mm 2,0 km/h (1 Bft) S-SW 200 ° 0 min 0,000 mm 0,0 UV-I 33 W/m² -1,6 °C 3,7 °C 3,2 km/h (1 Bft)
16.02.2017 09:59 3,8 °C 3,8 °C 68 % 1034,0 hPa 0,0 mm 1,7 km/h (1 Bft) S-SW 200 ° 0 min 0,000 mm 0,0 UV-I 37 W/m² -1,6 °C 3,8 °C 3,2 km/h (1 Bft)
16.02.2017 10:00 3,9 °C 3,9 °C 68 % 1034,0 hPa 0,0 mm 1,2 km/h (1 Bft) S-SW 200 ° 0 min 0,000 mm 0,0 UV-I 42 W/m² -1,5 °C 3,9 °C 1,6 km/h (1 Bft)
16.02.2017 10:01 4,1 °C 4,1 °C 68 % 1034,0 hPa 0,0 mm 0,9 km/h (0 Bft) S-SW 200 ° 0 min 0,025 mm 0,0 UV-I 42 W/m² -1,3 °C 4,1 °C 1,6 km/h (1 Bft)
16.02.2017 10:02 4,2 °C 4,2 °C 68 % 1034,0 hPa 0,0 mm 0,4 km/h (0 Bft) S-SW 200 ° 0 min 0,000 mm 0,0 UV-I 37 W/m² -1,2 °C 4,2 °C 1,6 km/h (1 Bft)
16.02.2017 10:03 4,3 °C 4,3 °C 68 % 1034,0 hPa 0,0 mm 0,0 km/h (0 Bft) S-SW 200 ° 0 min 0,000 mm 0,0 UV-I 39 W/m² -1,1 °C 4,3 °C 0,0 km/h (0 Bft)
16.02.2017 10:04 4,1 °C 4,3 °C 66 % 1034,0 hPa 0,0 mm 0,0 km/h (0 Bft) S-SW 200 ° 0 min 0,000 mm 0,0 UV-I 39 W/m² -1,7 °C 4,1 °C 0,0 km/h (0 Bft)
16.02.2017 10:05 3,9 °C 4,1 °C 67 % 1034,0 hPa 0,0 mm 0,0 km/h (0 Bft) S-SW 200 ° 0 min 0,000 mm 0,0 UV-I 35 W/m² -1,7 °C 3,9 °C 0,0 km/h (0 Bft)
16.02.2017 10:06 3,9 °C 3,9 °C 68 % 1033,9 hPa 0,0 mm 0,0 km/h (0 Bft) S-SW 200 ° 0 min 0,000 mm 0,0 UV-I 35 W/m² -1,5 °C 3,9 °C 0,0 km/h (0 Bft)
16.02.2017 10:07 3,9 °C 3,9 °C 68 % 1033,9 hPa 0,0 mm 0,0 km/h (0 Bft) S-SW 200 ° 0 min 0,000 mm 0,0 UV-I 35 W/m² -1,5 °C 3,9 °C 0,0 km/h (0 Bft)
16.02.2017 10:08 4,1 °C 4,1 °C 68 % 1033,9 hPa 0,0 mm 0,0 km/h (0 Bft) S-SW 200 ° 0 min 0,000 mm 0,0 UV-I 37 W/m² -1,3 °C 4,1 °C 0,0 km/h (0 Bft)
16.02.2017 10:09 4,2 °C 4,2 °C 67 % 1033,9 hPa 0,0 mm 0,8 km/h (0 Bft) S-SW 200 ° 0 min 0,000 mm 0,0 UV-I 35 W/m² -1,4 °C 4,2 °C 1,6 km/h (1 Bft)
16.02.2017 10:10 4,2 °C 4,2 °C 68 % 1033,9 hPa 0,0 mm 1,2 km/h (1 Bft) S-SW 200 ° 0 min 0,000 mm 0,0 UV-I 35 W/m² -1,2 °C 4,2 °C 1,6 km/h (1 Bft)
16.02.2017 10:11 4,3 °C 4,3 °C 67 % 1033,9 hPa 0,0 mm 1,1 km/h (1 Bft) S-SW 200 ° 0 min 0,000 mm 0,0 UV-I 37 W/m² -1,3 °C 4,3 °C 1,6 km/h (1 Bft)
16.02.2017 10:12 4,4 °C 4,4 °C 66 % 1033,9 hPa 0,0 mm 0,2 km/h (0 Bft) S-SW 200 ° 0 min 0,000 mm 0,0 UV-I 37 W/m² -1,4 °C 4,4 °C 1,6 km/h (1 Bft)
16.02.2017 10:13 4,5 °C 4,5 °C 65 % 1033,9 hPa 0,0 mm 0,0 km/h (0 Bft) S-SW 200 ° 0 min 0,000 mm 0,0 UV-I 39 W/m² -1,5 °C 4,5 °C 0,0 km/h (0 Bft)
16.02.2017 10:14 4,7 °C 4,7 °C 65 % 1033,9 hPa 0,0 mm 0,0 km/h (0 Bft) S-SW 200 ° 0 min 0,000 mm 0,0 UV-I 40 W/m² -1,3 °C 4,7 °C 0,0 km/h (0 Bft)
16.02.2017 10:15 4,7 °C 4,7 °C 65 % 1033,9 hPa 0,0 mm 0,8 km/h (0 Bft) S-SW 200 ° 0 min 0,000 mm 0,0 UV-I 46 W/m² -1,3 °C 4,7 °C 1,6 km/h (1 Bft)
16.02.2017 10:16 4,8 °C 4,8 °C 64 % 1033,9 hPa 0,0 mm 1,4 km/h (1 Bft) S-SW 200 ° 0 min 0,000 mm 0,0 UV-I 46 W/m² -1,4 °C 4,8 °C 1,6 km/h (1 Bft)
16.02.2017 10:17 4,9 °C 4,9 °C 64 % 1033,9 hPa 0,0 mm 0,5 km/h (0 Bft) S-SW 200 ° 0 min 0,000 mm 0,0 UV-I 49 W/m² -1,3 °C 4,9 °C 1,6 km/h (1 Bft)
16.02.2017 10:18 5,1 °C 5,1 °C 64 % 1033,8 hPa 0,0 mm 0,0 km/h (0 Bft) S-SW 200 ° 0 min 0,000 mm 0,0 UV-I 44 W/m² -1,1 °C 5,1 °C 0,0 km/h (0 Bft)
16.02.2017 10:19 5,2 °C 5,2 °C 64 % 1033,9 hPa 0,0 mm 0,0 km/h (0 Bft) S-SW 200 ° 0 min 0,000 mm 0,0 UV-I 47 W/m² -1,0 °C 5,2 °C 0,0 km/h (0 Bft)
16.02.2017 10:20 5,2 °C 5,2 °C 63 % 1033,8 hPa 0,0 mm 0,0 km/h (0 Bft) S-SW 200 ° 0 min 0,000 mm 0,0 UV-I 51 W/m² -1,3 °C 5,2 °C 0,0 km/h (0 Bft)
16.02.2017 10:21 5,3 °C 5,3 °C 63 % 1033,8 hPa 0,0 mm 0,5 km/h (0 Bft) S-SW 200 ° 0 min 0,000 mm 0,0 UV-I 58 W/m² -1,2 °C 5,3 °C 1,6 km/h (1 Bft)
16.02.2017 10:22 5,3 °C 5,3 °C 63 % 1033,8 hPa 0,0 mm 1,1 km/h (1 Bft) S-SW 200 ° 0 min 0,000 mm 1,1 UV-I 65 W/m² -1,2 °C 5,3 °C 1,6 km/h (1 Bft)
16.02.2017 10:23 5,4 °C 5,4 °C 63 % 1033,9 hPa 0,0 mm 0,3 km/h (0 Bft) S-SW 200 ° 0 min 0,000 mm 1,1 UV-I 67 W/m² -1,1 °C 5,4 °C 1,6 km/h (1 Bft)
16.02.2017 10:24 5,4 °C 5,4 °C 63 % 1033,8 hPa 0,0 mm 0,3 km/h (0 Bft) S-SW 200 ° 0 min 0,000 mm 1,2 UV-I 63 W/m² -1,1 °C 5,4 °C 1,6 km/h (1 Bft)
16.02.2017 10:25 5,4 °C 5,4 °C 63 % 1033,8 hPa 0,0 mm 1,4 km/h (1 Bft) S-SW 200 ° 0 min 0,000 mm 0,0 UV-I 54 W/m² -1,1 °C 5,4 °C 1,6 km/h (1 Bft)
16.02.2017 10:26 5,5 °C 5,5 °C 63 % 1033,9 hPa 0,0 mm 1,9 km/h (1 Bft) S-SW 200 ° 0 min 0,000 mm 1,2 UV-I 81 W/m² -1,0 °C 5,5 °C 3,2 km/h (1 Bft)
16.02.2017 10:27 5,7 °C 5,7 °C 63 % 1033,8 hPa 0,0 mm 2,1 km/h (1 Bft) S-SW 200 ° 0 min 0,000 mm 1,2 UV-I 84 W/m² -0,8 °C 5,7 °C 3,2 km/h (1 Bft)
16.02.2017 10:28 5,8 °C 5,8 °C 62 % 1033,8 hPa 0,0 mm 1,9 km/h (1 Bft) S-SW 200 ° 0 min 0,000 mm 1,2 UV-I 79 W/m² -0,9 °C 5,8 °C 3,2 km/h (1 Bft)
16.02.2017 10:29 5,8 °C 5,8 °C 62 % 1033,7 hPa 0,0 mm 2,0 km/h (1 Bft) S-SW 200 ° 0 min 0,000 mm 1,2 UV-I 86 W/m² -0,9 °C 5,8 °C 3,2 km/h (1 Bft)
16.02.2017 10:30 5,9 °C 5,9 °C 62 % 1033,8 hPa 0,0 mm 1,2 km/h (1 Bft) S-SW 200 ° 0 min 0,000 mm 1,2 UV-I 93 W/m² -0,8 °C 5,9 °C 1,6 km/h (1 Bft)
16.02.2017 10:31 5,9 °C 6,0 °C 62 % 1033,8 hPa 0,0 mm 0,7 km/h (0 Bft) S-SW 200 ° 0 min 0,000 mm 1,2 UV-I 93 W/m² -0,8 °C 5,9 °C 1,6 km/h (1 Bft)
16.02.2017 10:32 6,1 °C 6,1 °C 61 % 1033,8 hPa 0,0 mm 0,5 km/h (0 Bft) S-SW 200 ° 0 min 0,000 mm 1,2 UV-I 72 W/m² -0,8 °C 6,1 °C 1,6 km/h (1 Bft)
16.02.2017 10:33 6,1 °C 6,1 °C 61 % 1033,8 hPa 0,0 mm 0,3 km/h (0 Bft) S-SW 200 ° 0 min 0,000 mm 1,2 UV-I 70 W/m² -0,8 °C 6,1 °C 1,6 km/h (1 Bft)
16.02.2017 10:34 6,1 °C 6,1 °C 61 % 1033,8 hPa 0,0 mm 0,0 km/h (0 Bft) S-SW 200 ° 0 min 0,000 mm 1,2 UV-I 69 W/m² -0,8 °C 6,1 °C 0,0 km/h (0 Bft)
16.02.2017 10:35 6,1 °C 6,1 °C 61 % 1033,8 hPa 0,0 mm 0,0 km/h (0 Bft) S-SW 200 ° 0 min 0,000 mm 1,2 UV-I 60 W/m² -0,8 °C 6,1 °C 0,0 km/h (0 Bft)
16.02.2017 10:36 6,0 °C 6,1 °C 62 % 1033,8 hPa 0,0 mm 0,0 km/h (0 Bft) S-SW 200 ° 0 min 0,000 mm 1,2 UV-I 65 W/m² -0,7 °C 6,0 °C 0,0 km/h (0 Bft)
16.02.2017 10:37 6,1 °C 6,1 °C 62 % 1033,8 hPa 0,0 mm 0,0 km/h (0 Bft) S-SW 200 ° 0 min 0,000 mm 1,2 UV-I 65 W/m² -0,6 °C 6,1 °C 0,0 km/h (0 Bft)
16.02.2017 10:38 6,2 °C 6,2 °C 62 % 1033,8 hPa 0,0 mm 0,0 km/h (0 Bft) S-SW 200 ° 0 min 0,000 mm 1,2 UV-I 54 W/m² -0,5 °C 6,2 °C 0,0 km/h (0 Bft)
16.02.2017 10:39 6,2 °C 6,2 °C 61 % 1033,8 hPa 0,0 mm 0,0 km/h (0 Bft) S-SW 200 ° 0 min 0,000 mm 0,0 UV-I 49 W/m² -0,7 °C 6,2 °C 0,0 km/h (0 Bft)
16.02.2017 10:40 6,3 °C 6,3 °C 61 % 1033,8 hPa 0,0 mm 0,0 km/h (0 Bft) S-SW 200 ° 0 min 0,000 mm 0,0 UV-I 49 W/m² -0,7 °C 6,3 °C 0,0 km/h (0 Bft)
16.02.2017 10:41 6,3 °C 6,3 °C 61 % 1033,8 hPa 0,0 mm 1,5 km/h (1 Bft) S-SW 200 ° 0 min 0,000 mm 0,0 UV-I 53 W/m² -0,7 °C 6,3 °C 3,2 km/h (1 Bft)
16.02.2017 10:42 6,4 °C 6,4 °C 61 % 1033,7 hPa 0,0 mm 2,1 km/h (1 Bft) S-SW 200 ° 0 min 0,000 mm 0,0 UV-I 54 W/m² -0,6 °C 6,4 °C 3,2 km/h (1 Bft)
16.02.2017 10:43 6,5 °C 6,5 °C 59 % 1033,8 hPa 0,0 mm 1,7 km/h (1 Bft) S-SW 200 ° 0 min 0,000 mm 0,0 UV-I 51 W/m² -0,9 °C 6,5 °C 3,2 km/h (1 Bft)
16.02.2017 10:44 6,6 °C 6,6 °C 58 % 1033,7 hPa 0,0 mm 1,3 km/h (1 Bft) S-SW 200 ° 0 min 0,000 mm 1,2 UV-I 72 W/m² -1,1 °C 6,6 °C 1,6 km/h (1 Bft)
16.02.2017 10:45 6,8 °C 6,8 °C 58 % 1033,7 hPa 0,0 mm 1,0 km/h (0 Bft) S-SW 200 ° 0 min 0,000 mm 1,3 UV-I 83 W/m² -0,9 °C 6,8 °C 1,6 km/h (1 Bft)
16.02.2017 10:46 6,8 °C 6,8 °C 57 % 1033,7 hPa 0,0 mm 1,2 km/h (1 Bft) S-SW 200 ° 0 min 0,000 mm 1,3 UV-I 77 W/m² -1,1 °C 6,8 °C 1,6 km/h (1 Bft)
16.02.2017 10:47 6,8 °C 6,8 °C 57 % 1033,8 hPa 0,0 mm 0,3 km/h (0 Bft) S-SW 200 ° 0 min 0,000 mm 1,3 UV-I 63 W/m² -1,1 °C 6,8 °C 1,6 km/h (1 Bft)
16.02.2017 10:48 6,9 °C 6,9 °C 56 % 1033,7 hPa 0,0 mm 0,0 km/h (0 Bft) S-SW 200 ° 0 min 0,000 mm 0,0 UV-I 53 W/m² -1,3 °C 6,9 °C 0,0 km/h (0 Bft)
16.02.2017 10:49 6,9 °C 6,9 °C 56 % 1033,8 hPa 0,0 mm 0,5 km/h (0 Bft) S-SW 200 ° 0 min 0,000 mm 0,0 UV-I 46 W/m² -1,3 °C 6,9 °C 1,6 km/h (1 Bft)
16.02.2017 10:50 6,9 °C 6,9 °C 55 % 1033,8 hPa 0,0 mm 0,1 km/h (0 Bft) S-SW 200 ° 0 min 0,000 mm 0,0 UV-I 44 W/m² -1,5 °C 6,9 °C 1,6 km/h (1 Bft)
16.02.2017 10:51 6,9 °C 6,9 °C 55 % 1033,7 hPa 0,0 mm 0,1 km/h (0 Bft) S-SW 200 ° 0 min 0,000 mm 0,0 UV-I 54 W/m² -1,5 °C 6,9 °C 1,6 km/h (1 Bft)
16.02.2017 10:52 6,9 °C 6,9 °C 55 % 1033,7 hPa 0,0 mm 0,0 km/h (0 Bft) S-SW 200 ° 0 min 0,000 mm 1,3 UV-I 60 W/m² -1,5 °C 6,9 °C 0,0 km/h (0 Bft)
16.02.2017 10:53 6,9 °C 6,9 °C 54 % 1033,7 hPa 0,0 mm 0,5 km/h (0 Bft) S-SW 200 ° 0 min 0,000 mm 1,3 UV-I 60 W/m² -1,8 °C 6,9 °C 1,6 km/h (1 Bft)
16.02.2017 10:54 7,0 °C 7,0 °C 55 % 1033,6 hPa 0,0 mm 0,6 km/h (0 Bft) S-SW 200 ° 0 min 0,000 mm 1,3 UV-I 58 W/m² -1,4 °C 7,0 °C 1,6 km/h (1 Bft)
16.02.2017 10:55 7,1 °C 7,1 °C 55 % 1033,7 hPa 0,0 mm 2,8 km/h (1 Bft) S-SW 200 ° 0 min 0,000 mm 1,3 UV-I 56 W/m² -1,3 °C 7,1 °C 3,2 km/h (1 Bft)
16.02.2017 10:56 7,2 °C 7,2 °C 55 % 1033,6 hPa 0,0 mm 1,2 km/h (1 Bft) S-SW 200 ° 0 min 0,000 mm 1,3 UV-I 46 W/m² -1,2 °C 7,2 °C 1,6 km/h (1 Bft)
16.02.2017 10:57 7,2 °C 7,2 °C 55 % 1033,7 hPa 0,0 mm 1,5 km/h (1 Bft) S-SW 200 ° 0 min 0,000 mm 0,0 UV-I 46 W/m² -1,2 °C 7,2 °C 3,2 km/h (1 Bft)
16.02.2017 10:58 7,3 °C 7,3 °C 54 % 1033,6 hPa 0,0 mm 0,9 km/h (0 Bft) S-SW 200 ° 0 min 0,000 mm 0,0 UV-I 44 W/m² -1,4 °C 7,3 °C 1,6 km/h (1 Bft)
16.02.2017 10:59 7,4 °C 7,4 °C 54 % 1033,6 hPa 0,0 mm 1,1 km/h (1 Bft) S-SW 200 ° 0 min 0,000 mm 0,0 UV-I 42 W/m² -1,3 °C 7,4 °C 1,6 km/h (1 Bft)
16.02.2017 11:00 7,5 °C 7,5 °C 54 % 1033,6 hPa 0,0 mm 0,9 km/h (0 Bft) S-SW 200 ° 0 min 0,000 mm 0,0 UV-I 42 W/m² -1,2 °C 7,5 °C 3,2 km/h (1 Bft)
16.02.2017 11:01 7,6 °C 7,6 °C 53 % 1033,6 hPa 0,0 mm 2,0 km/h (1 Bft) S-SW 200 ° 0 min 0,026 mm 0,0 UV-I 53 W/m² -1,4 °C 7,6 °C 3,2 km/h (1 Bft)
16.02.2017 11:02 7,6 °C 7,6 °C 53 % 1033,6 hPa 0,0 mm 1,8 km/h (1 Bft) S-SW 200 ° 0 min 0,000 mm 0,0 UV-I 81 W/m² -1,4 °C 7,6 °C 3,2 km/h (1 Bft)
16.02.2017 11:03 7,6 °C 7,6 °C 53 % 1033,6 hPa 0,0 mm 1,9 km/h (1 Bft) S-SW 200 ° 0 min 0,000 mm 1,4 UV-I 135 W/m² -1,4 °C 7,6 °C 3,2 km/h (1 Bft)
16.02.2017 11:04 7,6 °C 7,6 °C 53 % 1033,5 hPa 0,0 mm 2,1 km/h (1 Bft) S-SW 200 ° 0 min 0,000 mm 1,5 UV-I 185 W/m² -1,4 °C 7,6 °C 3,2 km/h (1 Bft)
16.02.2017 11:05 7,7 °C 7,7 °C 52 % 1033,6 hPa 0,0 mm 0,6 km/h (0 Bft) S-SW 200 ° 1 min 0,000 mm 1,6 UV-I 213 W/m² -1,5 °C 7,7 °C 1,6 km/h (1 Bft)
16.02.2017 11:06 7,8 °C 7,8 °C 52 % 1033,6 hPa 0,0 mm 0,1 km/h (0 Bft) S-SW 200 ° 1 min 0,000 mm 1,6 UV-I 236 W/m² -1,4 °C 7,8 °C 1,6 km/h (1 Bft)
16.02.2017 11:07 7,9 °C 7,9 °C 52 % 1033,6 hPa 0,0 mm 0,1 km/h (0 Bft) S-SW 200 ° 1 min 0,000 mm 1,6 UV-I 202 W/m² -1,3 °C 7,9 °C 1,6 km/h (1 Bft)
16.02.2017 11:08 8,0 °C 8,0 °C 52 % 1033,6 hPa 0,0 mm 0,0 km/h (0 Bft) S-SW 200 ° 1 min 0,000 mm 1,6 UV-I 213 W/m² -1,2 °C 8,0 °C 0,0 km/h (0 Bft)
16.02.2017 11:09 7,9 °C 8,0 °C 52 % 1033,6 hPa 0,0 mm 0,0 km/h (0 Bft) S-SW 200 ° 1 min 0,000 mm 1,7 UV-I 232 W/m² -1,3 °C 7,9 °C 0,0 km/h (0 Bft)
16.02.2017 11:10 8,0 °C 8,0 °C 51 % 1033,5 hPa 0,0 mm 0,1 km/h (0 Bft) S-SW 200 ° 1 min 0,000 mm 1,7 UV-I 220 W/m² -1,5 °C 8,0 °C 1,6 km/h (1 Bft)
16.02.2017 11:11 8,1 °C 8,1 °C 51 % 1033,5 hPa 0,0 mm 0,1 km/h (0 Bft) S-SW 200 ° 0 min 0,000 mm 1,6 UV-I 188 W/m² -1,4 °C 8,1 °C 1,6 km/h (1 Bft)
16.02.2017 11:12 8,2 °C 8,2 °C 51 % 1033,5 hPa 0,0 mm 0,0 km/h (0 Bft) S-SW 200 ° 0 min 0,000 mm 1,6 UV-I 171 W/m² -1,3 °C 8,2 °C 0,0 km/h (0 Bft)
16.02.2017 11:13 8,2 °C 8,2 °C 51 % 1033,5 hPa 0,0 mm 0,3 km/h (0 Bft) S-SW 200 ° 1 min 0,000 mm 1,6 UV-I 244 W/m² -1,3 °C 8,2 °C 1,6 km/h (1 Bft)
16.02.2017 11:14 8,2 °C 8,2 °C 51 % 1033,5 hPa 0,0 mm 0,2 km/h (0 Bft) S-SW 200 ° 1 min 0,000 mm 1,8 UV-I 272 W/m² -1,3 °C 8,2 °C 1,6 km/h (1 Bft)
16.02.2017 11:15 8,3 °C 8,3 °C 50 % 1033,6 hPa 0,0 mm 1,5 km/h (1 Bft) S-SW 200 ° 1 min 0,000 mm 1,8 UV-I 258 W/m² -1,5 °C 8,3 °C 3,2 km/h (1 Bft)
16.02.2017 11:16 8,3 °C 8,3 °C 50 % 1033,6 hPa 0,0 mm 1,6 km/h (1 Bft) S-SW 200 ° 1 min 0,000 mm 1,7 UV-I 253 W/m² -1,5 °C 8,3 °C 3,2 km/h (1 Bft)
16.02.2017 11:17 8,3 °C 8,3 °C 50 % 1033,6 hPa 0,0 mm 1,0 km/h (0 Bft) S-SW 200 ° 1 min 0,000 mm 1,8 UV-I 299 W/m² -1,5 °C 8,3 °C 3,2 km/h (1 Bft)
16.02.2017 11:18 8,3 °C 8,3 °C 50 % 1033,5 hPa 0,0 mm 0,1 km/h (0 Bft) S-SW 200 ° 1 min 0,000 mm 1,9 UV-I 295 W/m² -1,5 °C 8,3 °C 1,6 km/h (1 Bft)
16.02.2017 11:19 8,3 °C 8,3 °C 50 % 1033,5 hPa 0,0 mm 2,0 km/h (1 Bft) S-SW 200 ° 1 min 0,000 mm 1,8 UV-I 223 W/m² -1,5 °C 8,3 °C 3,2 km/h (1 Bft)
16.02.2017 11:20 8,3 °C 8,3 °C 50 % 1033,5 hPa 0,0 mm 1,7 km/h (1 Bft) S-SW 200 ° 0 min 0,000 mm 1,4 UV-I 62 W/m² -1,5 °C 8,3 °C 3,2 km/h (1 Bft)
16.02.2017 11:21 8,2 °C 8,3 °C 50 % 1033,5 hPa 0,0 mm 0,8 km/h (0 Bft) S-SW 200 ° 0 min 0,000 mm 0,0 UV-I 46 W/m² -1,6 °C 8,2 °C 1,6 km/h (1 Bft)
16.02.2017 11:22 8,2 °C 8,2 °C 50 % 1033,5 hPa 0,0 mm 0,9 km/h (0 Bft) S-SW 200 ° 0 min 0,000 mm 1,4 UV-I 84 W/m² -1,6 °C 8,2 °C 1,6 km/h (1 Bft)
16.02.2017 11:23 8,2 °C 8,3 °C 50 % 1033,5 hPa 0,0 mm 0,2 km/h (0 Bft) S-SW 200 ° 0 min 0,000 mm 1,8 UV-I 84 W/m² -1,6 °C 8,2 °C 1,6 km/h (1 Bft)
16.02.2017 11:24 8,3 °C 8,3 °C 49 % 1033,5 hPa 0,0 mm 0,3 km/h (0 Bft) S-SW 200 ° 0 min 0,000 mm 2,2 UV-I 84 W/m² -1,8 °C 8,3 °C 1,6 km/h (1 Bft)
16.02.2017 11:25 8,3 °C 8,4 °C 49 % 1033,5 hPa 0,0 mm 0,7 km/h (0 Bft) S-SW 200 ° 1 min 0,000 mm 2,2 UV-I 464 W/m² -1,8 °C 8,3 °C 1,6 km/h (1 Bft)
16.02.2017 11:26 8,4 °C 8,4 °C 50 % 1033,4 hPa 0,0 mm 0,7 km/h (0 Bft) S-SW 200 ° 1 min 0,000 mm 2,2 UV-I 397 W/m² -1,4 °C 8,4 °C 1,6 km/h (1 Bft)
16.02.2017 11:27 8,5 °C 8,5 °C 49 % 1033,4 hPa 0,0 mm 0,6 km/h (0 Bft) S-SW 200 ° 1 min 0,000 mm 2,0 UV-I 325 W/m² -1,6 °C 8,5 °C 1,6 km/h (1 Bft)
16.02.2017 11:28 8,5 °C 8,5 °C 49 % 1033,4 hPa 0,0 mm 0,1 km/h (0 Bft) S-SW 200 ° 1 min 0,000 mm 2,1 UV-I 376 W/m² -1,6 °C 8,5 °C 1,6 km/h (1 Bft)
16.02.2017 11:29 8,4 °C 8,5 °C 49 % 1033,4 hPa 0,0 mm 0,3 km/h (0 Bft) S-SW 200 ° 1 min 0,000 mm 2,2 UV-I 461 W/m² -1,7 °C 8,4 °C 1,6 km/h (1 Bft)
16.02.2017 11:30 8,5 °C 8,5 °C 49 % 1033,4 hPa 0,0 mm 0,5 km/h (0 Bft) S-SW 200 ° 1 min 0,000 mm 2,3 UV-I 469 W/m² -1,6 °C 8,5 °C 1,6 km/h (1 Bft)
16.02.2017 11:31 8,6 °C 8,6 °C 49 % 1033,4 hPa 0,0 mm 1,1 km/h (1 Bft) S-SW 200 ° 1 min 0,000 mm 2,3 UV-I 471 W/m² -1,5 °C 8,6 °C 1,6 km/h (1 Bft)
16.02.2017 11:32 8,7 °C 8,7 °C 48 % 1033,4 hPa 0,0 mm 1,2 km/h (1 Bft) S-SW 200 ° 1 min 0,000 mm 2,3 UV-I 473 W/m² -1,7 °C 8,7 °C 1,6 km/h (1 Bft)
16.02.2017 11:33 8,8 °C 8,8 °C 48 % 1033,4 hPa 0,0 mm 0,1 km/h (0 Bft) S-SW 200 ° 1 min 0,000 mm 2,3 UV-I 406 W/m² -1,6 °C 8,8 °C 1,6 km/h (1 Bft)
16.02.2017 11:34 8,9 °C 8,9 °C 48 % 1033,4 hPa 0,0 mm 1,1 km/h (1 Bft) S-SW 200 ° 1 min 0,000 mm 2,0 UV-I 406 W/m² -1,5 °C 8,9 °C 3,2 km/h (1 Bft)
16.02.2017 11:35 8,9 °C 8,9 °C 48 % 1033,4 hPa 0,0 mm 0,1 km/h (0 Bft) S-SW 200 ° 1 min 0,000 mm 1,6 UV-I 406 W/m² -1,5 °C 8,9 °C 1,6 km/h (1 Bft)
16.02.2017 11:36 9,1 °C 9,1 °C 47 % 1033,3 hPa 0,0 mm 1,9 km/h (1 Bft) S-SW 200 ° 0 min 0,000 mm 1,4 UV-I 62 W/m² -1,6 °C 9,1 °C 3,2 km/h (1 Bft)
16.02.2017 11:37 9,0 °C 9,1 °C 47 % 1033,3 hPa 0,0 mm 1,3 km/h (1 Bft) S-SW 200 ° 0 min 0,000 mm 1,5 UV-I 81 W/m² -1,7 °C 9,0 °C 3,2 km/h (1 Bft)
16.02.2017 11:38 8,9 °C 9,0 °C 47 % 1033,3 hPa 0,0 mm 3,3 km/h (1 Bft) SW 223 ° 0 min 0,000 mm 1,5 UV-I 72 W/m² -1,8 °C 8,9 °C 4,8 km/h (1 Bft)
16.02.2017 11:39 8,9 °C 8,9 °C 48 % 1033,2 hPa 0,0 mm 2,5 km/h (1 Bft) SW 236 ° 0 min 0,000 mm 1,6 UV-I 142 W/m² -1,5 °C 8,9 °C 3,2 km/h (1 Bft)
16.02.2017 11:40 8,9 °C 8,9 °C 48 % 1033,3 hPa 0,0 mm 2,1 km/h (1 Bft) SW 236 ° 0 min 0,000 mm 1,9 UV-I 142 W/m² -1,5 °C 8,9 °C 3,2 km/h (1 Bft)
16.02.2017 11:41 8,7 °C 8,9 °C 48 % 1033,3 hPa 0,0 mm 0,5 km/h (0 Bft) SW 236 ° 0 min 0,000 mm 2,2 UV-I 142 W/m² -1,7 °C 8,7 °C 1,6 km/h (1 Bft)
16.02.2017 11:42 8,5 °C 8,7 °C 48 % 1033,3 hPa 0,0 mm 0,8 km/h (0 Bft) SW 236 ° 1 min 0,000 mm 2,4 UV-I 480 W/m² -1,9 °C 8,5 °C 1,6 km/h (1 Bft)
16.02.2017 11:43 8,5 °C 8,5 °C 49 % 1033,3 hPa 0,0 mm 1,0 km/h (0 Bft) SW 236 ° 1 min 0,000 mm 2,4 UV-I 478 W/m² -1,6 °C 8,5 °C 1,6 km/h (1 Bft)
16.02.2017 11:44 8,7 °C 8,7 °C 48 % 1033,2 hPa 0,0 mm 0,3 km/h (0 Bft) SW 236 ° 1 min 0,000 mm 2,4 UV-I 478 W/m² -1,7 °C 8,7 °C 1,6 km/h (1 Bft)
16.02.2017 11:45 8,8 °C 8,8 °C 48 % 1033,2 hPa 0,0 mm 1,7 km/h (1 Bft) SW 236 ° 1 min 0,000 mm 2,4 UV-I 480 W/m² -1,6 °C 8,8 °C 3,2 km/h (1 Bft)
16.02.2017 11:46 8,9 °C 8,9 °C 48 % 1033,2 hPa 0,0 mm 2,6 km/h (1 Bft) SW 236 ° 1 min 0,000 mm 2,4 UV-I 483 W/m² -1,5 °C 8,9 °C 3,2 km/h (1 Bft)
16.02.2017 11:47 8,9 °C 8,9 °C 48 % 1033,2 hPa 0,0 mm 2,5 km/h (1 Bft) W 264 ° 1 min 0,000 mm 2,4 UV-I 482 W/m² -1,5 °C 8,9 °C 4,8 km/h (1 Bft)
16.02.2017 11:48 8,8 °C 8,9 °C 48 % 1033,1 hPa 0,0 mm 2,1 km/h (1 Bft) W 264 ° 1 min 0,000 mm 2,4 UV-I 360 W/m² -1,6 °C 8,8 °C 3,2 km/h (1 Bft)
16.02.2017 11:49 8,6 °C 8,8 °C 48 % 1033,1 hPa 0,0 mm 1,2 km/h (1 Bft) W 264 ° 1 min 0,000 mm 2,2 UV-I 360 W/m² -1,8 °C 8,6 °C 1,6 km/h (1 Bft)
16.02.2017 11:50 8,7 °C 8,7 °C 49 % 1033,1 hPa 0,0 mm 0,5 km/h (0 Bft) W 264 ° 0 min 0,000 mm 1,8 UV-I 172 W/m² -1,4 °C 8,7 °C 1,6 km/h (1 Bft)
16.02.2017 11:51 8,7 °C 8,7 °C 48 % 1033,1 hPa 0,0 mm 0,8 km/h (0 Bft) W 264 ° 0 min 0,000 mm 1,6 UV-I 121 W/m² -1,7 °C 8,7 °C 1,6 km/h (1 Bft)
16.02.2017 11:52 8,7 °C 8,7 °C 50 % 1033,1 hPa 0,0 mm 0,1 km/h (0 Bft) W 264 ° 0 min 0,000 mm 1,8 UV-I 121 W/m² -1,1 °C 8,7 °C 1,6 km/h (1 Bft)
16.02.2017 11:53 8,7 °C 8,7 °C 50 % 1033,1 hPa 0,0 mm 0,4 km/h (0 Bft) W 264 ° 0 min 0,000 mm 2,3 UV-I 121 W/m² -1,1 °C 8,7 °C 1,6 km/h (1 Bft)
16.02.2017 11:54 8,7 °C 8,7 °C 50 % 1033,1 hPa 0,0 mm 1,3 km/h (1 Bft) W 264 ° 1 min 0,000 mm 2,4 UV-I 487 W/m² -1,1 °C 8,7 °C 1,6 km/h (1 Bft)
16.02.2017 11:55 8,7 °C 8,7 °C 49 % 1033,1 hPa 0,0 mm 0,0 km/h (0 Bft) W 264 ° 1 min 0,000 mm 2,5 UV-I 489 W/m² -1,4 °C 8,7 °C 0,0 km/h (0 Bft)
16.02.2017 11:56 8,7 °C 8,7 °C 49 % 1033,0 hPa 0,0 mm 0,4 km/h (0 Bft) W 264 ° 1 min 0,000 mm 2,5 UV-I 490 W/m² -1,4 °C 8,7 °C 1,6 km/h (1 Bft)
16.02.2017 11:57 8,7 °C 8,7 °C 49 % 1033,1 hPa 0,0 mm 1,7 km/h (1 Bft) W 264 ° 1 min 0,000 mm 2,5 UV-I 490 W/m² -1,4 °C 8,7 °C 3,2 km/h (1 Bft)
16.02.2017 11:58 8,8 °C 8,8 °C 49 % 1033,0 hPa 0,0 mm 1,1 km/h (1 Bft) W 264 ° 1 min 0,000 mm 2,5 UV-I 490 W/m² -1,3 °C 8,8 °C 3,2 km/h (1 Bft)
16.02.2017 11:59 8,8 °C 8,8 °C 49 % 1033,0 hPa 0,0 mm 2,3 km/h (1 Bft) W 264 ° 1 min 0,000 mm 2,3 UV-I 490 W/m² -1,3 °C 8,8 °C 3,2 km/h (1 Bft)
16.02.2017 12:00 8,7 °C 8,8 °C 50 % 1032,9 hPa 0,0 mm 2,7 km/h (1 Bft) W 264 ° 1 min 0,000 mm 1,9 UV-I 490 W/m² -1,1 °C 8,7 °C 4,8 km/h (1 Bft)
16.02.2017 12:01 8,7 °C 8,7 °C 50 % 1033,0 hPa 0,0 mm 2,4 km/h (1 Bft) W 279 ° 0 min 0,127 mm 1,5 UV-I 60 W/m² -1,1 °C 8,7 °C 3,2 km/h (1 Bft)
16.02.2017 12:02 8,7 °C 8,7 °C 50 % 1032,9 hPa 0,0 mm 3,2 km/h (1 Bft) W 279 ° 0 min 0,000 mm 1,5 UV-I 69 W/m² -1,1 °C 8,7 °C 4,8 km/h (1 Bft)
16.02.2017 12:03 8,9 °C 8,9 °C 48 % 1032,9 hPa 0,0 mm 1,6 km/h (1 Bft) W 279 ° 0 min 0,000 mm 1,6 UV-I 113 W/m² -1,5 °C 8,9 °C 3,2 km/h (1 Bft)
16.02.2017 12:04 9,1 °C 9,1 °C 48 % 1032,9 hPa 0,0 mm 3,7 km/h (1 Bft) W 279 ° 0 min 0,000 mm 1,9 UV-I 113 W/m² -1,3 °C 9,1 °C 4,8 km/h (1 Bft)
16.02.2017 12:05 9,1 °C 9,1 °C 48 % 1032,9 hPa 0,0 mm 2,6 km/h (1 Bft) W 279 ° 1 min 0,000 mm 2,1 UV-I 315 W/m² -1,3 °C 9,1 °C 3,2 km/h (1 Bft)
16.02.2017 12:06 9,2 °C 9,2 °C 47 % 1032,9 hPa 0,0 mm 2,9 km/h (1 Bft) W 279 ° 1 min 0,000 mm 2,1 UV-I 295 W/m² -1,5 °C 9,2 °C 4,8 km/h (1 Bft)
16.02.2017 12:07 9,3 °C 9,3 °C 46 % 1032,9 hPa 0,0 mm 2,2 km/h (1 Bft) W 279 ° 0 min 0,000 mm 1,6 UV-I 86 W/m² -1,7 °C 9,3 °C 3,2 km/h (1 Bft)
16.02.2017 12:08 9,2 °C 9,3 °C 47 % 1032,8 hPa 0,0 mm 0,5 km/h (0 Bft) W 279 ° 0 min 0,000 mm 1,5 UV-I 56 W/m² -1,5 °C 9,2 °C 1,6 km/h (1 Bft)
16.02.2017 12:09 9,2 °C 9,2 °C 48 % 1032,9 hPa 0,0 mm 0,0 km/h (0 Bft) W 279 ° 0 min 0,000 mm 1,6 UV-I 91 W/m² -1,2 °C 9,2 °C 0,0 km/h (0 Bft)
16.02.2017 12:10 9,2 °C 9,2 °C 47 % 1032,8 hPa 0,0 mm 0,8 km/h (0 Bft) W 279 ° 0 min 0,000 mm 1,7 UV-I 142 W/m² -1,5 °C 9,2 °C 3,2 km/h (1 Bft)
16.02.2017 12:11 9,1 °C 9,2 °C 49 % 1032,9 hPa 0,0 mm 2,6 km/h (1 Bft) W 279 ° 0 min 0,000 mm 2,0 UV-I 142 W/m² -1,0 °C 9,1 °C 4,8 km/h (1 Bft)
16.02.2017 12:12 8,9 °C 9,1 °C 49 % 1032,8 hPa 0,0 mm 3,6 km/h (1 Bft) W 279 ° 1 min 0,000 mm 2,3 UV-I 397 W/m² -1,2 °C 8,9 °C 4,8 km/h (1 Bft)
16.02.2017 12:13 8,9 °C 9,0 °C 49 % 1032,8 hPa 0,0 mm 2,8 km/h (1 Bft) W 279 ° 1 min 0,000 mm 1,7 UV-I 397 W/m² -1,2 °C 8,9 °C 3,2 km/h (1 Bft)
16.02.2017 12:14 8,9 °C 8,9 °C 49 % 1032,8 hPa 0,0 mm 2,6 km/h (1 Bft) W 279 ° 1 min 0,000 mm 1,9 UV-I 244 W/m² -1,2 °C 8,9 °C 3,2 km/h (1 Bft)
16.02.2017 12:15 8,8 °C 8,9 °C 50 % 1032,7 hPa 0,0 mm 2,0 km/h (1 Bft) W 279 ° 1 min 0,000 mm 2,2 UV-I 244 W/m² -1,0 °C 8,8 °C 3,2 km/h (1 Bft)
16.02.2017 12:16 8,8 °C 8,8 °C 50 % 1032,7 hPa 0,0 mm 1,5 km/h (1 Bft) W 279 ° 1 min 0,000 mm 2,3 UV-I 401 W/m² -1,0 °C 8,8 °C 3,2 km/h (1 Bft)
16.02.2017 12:17 8,7 °C 8,8 °C 50 % 1032,7 hPa 0,0 mm 0,9 km/h (0 Bft) W 279 ° 1 min 0,000 mm 2,2 UV-I 239 W/m² -1,1 °C 8,7 °C 1,6 km/h (1 Bft)
16.02.2017 12:18 8,7 °C 8,7 °C 50 % 1032,7 hPa 0,0 mm 1,4 km/h (1 Bft) W 279 ° 1 min 0,000 mm 2,0 UV-I 239 W/m² -1,1 °C 8,7 °C 3,2 km/h (1 Bft)
16.02.2017 12:19 8,8 °C 8,8 °C 50 % 1032,7 hPa 0,0 mm 2,5 km/h (1 Bft) W 279 ° 0 min 0,000 mm 1,6 UV-I 116 W/m² -1,0 °C 8,8 °C 4,8 km/h (1 Bft)
16.02.2017 12:20 8,9 °C 8,9 °C 49 % 1032,7 hPa 0,0 mm 2,4 km/h (1 Bft) W 279 ° 0 min 0,000 mm 1,8 UV-I 169 W/m² -1,2 °C 8,9 °C 3,2 km/h (1 Bft)
16.02.2017 12:21 9,1 °C 9,1 °C 48 % 1032,6 hPa 0,0 mm 1,3 km/h (1 Bft) W 279 ° 0 min 0,000 mm 1,7 UV-I 132 W/m² -1,3 °C 9,1 °C 1,6 km/h (1 Bft)
16.02.2017 12:22 9,2 °C 9,2 °C 47 % 1032,6 hPa 0,0 mm 0,2 km/h (0 Bft) W 279 ° 0 min 0,000 mm 1,5 UV-I 67 W/m² -1,5 °C 9,2 °C 1,6 km/h (1 Bft)
16.02.2017 12:23 9,3 °C 9,3 °C 47 % 1032,6 hPa 0,0 mm 1,6 km/h (1 Bft) W 279 ° 0 min 0,000 mm 1,5 UV-I 56 W/m² -1,4 °C 9,3 °C 3,2 km/h (1 Bft)
16.02.2017 12:24 9,4 °C 9,4 °C 47 % 1032,6 hPa 0,0 mm 1,3 km/h (1 Bft) W 279 ° 0 min 0,000 mm 0,0 UV-I 46 W/m² -1,3 °C 9,4 °C 3,2 km/h (1 Bft)
16.02.2017 12:25 9,4 °C 9,4 °C 46 % 1032,6 hPa 0,0 mm 2,8 km/h (1 Bft) S-SO 160 ° 0 min 0,000 mm 0,0 UV-I 49 W/m² -1,6 °C 9,4 °C 6,4 km/h (2 Bft)
16.02.2017 12:26 9,5 °C 9,5 °C 46 % 1032,5 hPa 0,0 mm 4,9 km/h (1 Bft) S-SO 160 ° 0 min 0,000 mm 1,5 UV-I 60 W/m² -1,5 °C 9,2 °C 8,0 km/h (2 Bft)
16.02.2017 12:27 9,6 °C 9,6 °C 46 % 1032,5 hPa 0,0 mm 2,5 km/h (1 Bft) S-SO 160 ° 0 min 0,000 mm 1,5 UV-I 56 W/m² -1,4 °C 9,6 °C 3,2 km/h (1 Bft)
16.02.2017 12:28 9,6 °C 9,6 °C 46 % 1032,6 hPa 0,0 mm 1,1 km/h (1 Bft) S-SO 160 ° 0 min 0,000 mm 0,0 UV-I 49 W/m² -1,4 °C 9,6 °C 3,2 km/h (1 Bft)
16.02.2017 12:29 9,6 °C 9,6 °C 46 % 1032,5 hPa 0,0 mm 3,4 km/h (1 Bft) S-SO 153 ° 0 min 0,000 mm 1,5 UV-I 162 W/m² -1,4 °C 9,6 °C 6,4 km/h (2 Bft)
16.02.2017 12:30 9,5 °C 9,6 °C 46 % 1032,5 hPa 0,0 mm 4,4 km/h (1 Bft) O 96 ° 0 min 0,000 mm 1,7 UV-I 162 W/m² -1,5 °C 9,5 °C 6,4 km/h (2 Bft)
16.02.2017 12:31 9,5 °C 9,6 °C 46 % 1032,5 hPa 0,0 mm 4,9 km/h (1 Bft) NO 48 ° 1 min 0,000 mm 1,9 UV-I 213 W/m² -1,5 °C 9,2 °C 8,0 km/h (2 Bft)
16.02.2017 12:32 9,5 °C 9,5 °C 46 % 1032,4 hPa 0,0 mm 3,5 km/h (1 Bft) NO 54 ° 1 min 0,000 mm 1,5 UV-I 213 W/m² -1,5 °C 9,5 °C 6,4 km/h (2 Bft)
16.02.2017 12:33 9,3 °C 9,5 °C 47 % 1032,4 hPa 0,0 mm 0,4 km/h (0 Bft) NO 54 ° 0 min 0,000 mm 0,0 UV-I 47 W/m² -1,4 °C 9,3 °C 1,6 km/h (1 Bft)
16.02.2017 12:34 9,3 °C 9,3 °C 47 % 1032,4 hPa 0,0 mm 0,3 km/h (0 Bft) NO 54 ° 0 min 0,000 mm 0,0 UV-I 46 W/m² -1,4 °C 9,3 °C 1,6 km/h (1 Bft)
16.02.2017 12:35 9,3 °C 9,3 °C 47 % 1032,4 hPa 0,0 mm 0,4 km/h (0 Bft) NO 54 ° 0 min 0,000 mm 0,0 UV-I 44 W/m² -1,4 °C 9,3 °C 1,6 km/h (1 Bft)
16.02.2017 12:36 9,4 °C 9,4 °C 46 % 1032,3 hPa 0,0 mm 0,1 km/h (0 Bft) NO 54 ° 0 min 0,000 mm 0,0 UV-I 44 W/m² -1,6 °C 9,4 °C 1,6 km/h (1 Bft)
16.02.2017 12:37 9,4 °C 9,4 °C 46 % 1032,3 hPa 0,0 mm 1,2 km/h (1 Bft) NO 53 ° 0 min 0,000 mm 0,0 UV-I 44 W/m² -1,6 °C 9,4 °C 3,2 km/h (1 Bft)
16.02.2017 12:38 9,4 °C 9,4 °C 46 % 1032,3 hPa 0,0 mm 3,4 km/h (1 Bft) NW 325 ° 0 min 0,000 mm 0,0 UV-I 44 W/m² -1,6 °C 9,4 °C 4,8 km/h (1 Bft)
16.02.2017 12:39 9,6 °C 9,6 °C 46 % 1032,3 hPa 0,0 mm 2,6 km/h (1 Bft) NW 325 ° 0 min 0,000 mm 0,0 UV-I 44 W/m² -1,4 °C 9,6 °C 3,2 km/h (1 Bft)
16.02.2017 12:40 9,6 °C 9,6 °C 45 % 1032,3 hPa 0,0 mm 2,7 km/h (1 Bft) NW 325 ° 0 min 0,000 mm 0,0 UV-I 44 W/m² -1,7 °C 9,6 °C 3,2 km/h (1 Bft)
16.02.2017 12:41 9,7 °C 9,7 °C 45 % 1032,2 hPa 0,0 mm 1,3 km/h (1 Bft) NW 325 ° 0 min 0,000 mm 0,0 UV-I 65 W/m² -1,6 °C 9,7 °C 3,2 km/h (1 Bft)
16.02.2017 12:42 9,7 °C 9,7 °C 46 % 1032,2 hPa 0,0 mm 2,4 km/h (1 Bft) NW 325 ° 0 min 0,000 mm 1,5 UV-I 63 W/m² -1,3 °C 9,7 °C 3,2 km/h (1 Bft)
16.02.2017 12:43 9,7 °C 9,7 °C 46 % 1032,2 hPa 0,0 mm 1,4 km/h (1 Bft) NW 325 ° 0 min 0,000 mm 0,0 UV-I 53 W/m² -1,3 °C 9,7 °C 3,2 km/h (1 Bft)
16.02.2017 12:44 9,7 °C 9,7 °C 46 % 1032,1 hPa 0,0 mm 0,7 km/h (0 Bft) NW 325 ° 0 min 0,000 mm 0,0 UV-I 47 W/m² -1,3 °C 9,7 °C 1,6 km/h (1 Bft)
16.02.2017 12:45 9,4 °C 9,7 °C 48 % 1032,1 hPa 0,0 mm 0,4 km/h (0 Bft) NW 325 ° 0 min 0,000 mm 1,4 UV-I 56 W/m² -1,0 °C 9,4 °C 1,6 km/h (1 Bft)
16.02.2017 12:46 9,3 °C 9,4 °C 48 % 1032,1 hPa 0,0 mm 1,7 km/h (1 Bft) NW 325 ° 0 min 0,000 mm 1,5 UV-I 65 W/m² -1,1 °C 9,3 °C 3,2 km/h (1 Bft)
16.02.2017 12:47 9,4 °C 9,4 °C 47 % 1032,1 hPa 0,0 mm 1,3 km/h (1 Bft) NW 325 ° 0 min 0,000 mm 1,5 UV-I 56 W/m² -1,3 °C 9,4 °C 3,2 km/h (1 Bft)
16.02.2017 12:48 9,3 °C 9,4 °C 47 % 1032,1 hPa 0,0 mm 1,0 km/h (0 Bft) NW 325 ° 0 min 0,000 mm 1,5 UV-I 76 W/m² -1,4 °C 9,3 °C 1,6 km/h (1 Bft)
16.02.2017 12:49 9,3 °C 9,3 °C 48 % 1032,1 hPa 0,0 mm 1,5 km/h (1 Bft) O-NO 67 ° 0 min 0,000 mm 1,6 UV-I 116 W/m² -1,1 °C 9,3 °C 3,2 km/h (1 Bft)
16.02.2017 12:50 9,2 °C 9,3 °C 48 % 1032,1 hPa 0,0 mm 4,9 km/h (1 Bft) O 85 ° 0 min 0,000 mm 1,6 UV-I 90 W/m² -1,2 °C 8,9 °C 8,0 km/h (2 Bft)
16.02.2017 12:51 9,1 °C 9,2 °C 48 % 1032,1 hPa 0,0 mm 4,0 km/h (1 Bft) O-NO 75 ° 0 min 0,000 mm 1,5 UV-I 69 W/m² -1,3 °C 9,1 °C 6,4 km/h (2 Bft)
16.02.2017 12:52 9,1 °C 9,1 °C 47 % 1032,0 hPa 0,0 mm 5,0 km/h (1 Bft) O 82 ° 0 min 0,000 mm 0,0 UV-I 49 W/m² -1,6 °C 8,7 °C 6,4 km/h (2 Bft)
16.02.2017 12:53 9,2 °C 9,2 °C 47 % 1032,0 hPa 0,0 mm 3,4 km/h (1 Bft) O 93 ° 0 min 0,000 mm 0,0 UV-I 44 W/m² -1,5 °C 9,2 °C 6,4 km/h (2 Bft)
16.02.2017 12:54 9,3 °C 9,3 °C 46 % 1032,0 hPa 0,0 mm 3,6 km/h (1 Bft) O 93 ° 0 min 0,000 mm 0,0 UV-I 44 W/m² -1,7 °C 9,3 °C 4,8 km/h (1 Bft)
16.02.2017 12:55 9,3 °C 9,3 °C 47 % 1032,0 hPa 0,0 mm 3,6 km/h (1 Bft) O 93 ° 0 min 0,000 mm 0,0 UV-I 53 W/m² -1,4 °C 9,3 °C 4,8 km/h (1 Bft)
16.02.2017 12:56 9,3 °C 9,3 °C 46 % 1032,0 hPa 0,0 mm 3,7 km/h (1 Bft) O 90 ° 0 min 0,000 mm 1,5 UV-I 102 W/m² -1,7 °C 9,3 °C 4,8 km/h (1 Bft)
16.02.2017 12:57 9,3 °C 9,3 °C 46 % 1032,0 hPa 0,0 mm 1,2 km/h (1 Bft) O 90 ° 0 min 0,000 mm 1,7 UV-I 149 W/m² -1,7 °C 9,3 °C 3,2 km/h (1 Bft)
16.02.2017 12:58 9,4 °C 9,4 °C 46 % 1032,0 hPa 0,0 mm 3,6 km/h (1 Bft) O 90 ° 0 min 0,000 mm 1,5 UV-I 95 W/m² -1,6 °C 9,4 °C 4,8 km/h (1 Bft)
16.02.2017 12:59 9,4 °C 9,4 °C 46 % 1032,0 hPa 0,0 mm 0,9 km/h (0 Bft) O 90 ° 0 min 0,000 mm 1,5 UV-I 128 W/m² -1,6 °C 9,4 °C 3,2 km/h (1 Bft)
16.02.2017 13:00 9,6 °C 9,6 °C 45 % 1032,0 hPa 0,0 mm 1,9 km/h (1 Bft) O 90 ° 0 min 0,000 mm 1,8 UV-I 128 W/m² -1,7 °C 9,6 °C 3,2 km/h (1 Bft)
16.02.2017 13:01 9,7 °C 9,7 °C 45 % 1032,0 hPa 0,0 mm 3,3 km/h (1 Bft) O 90 ° 0 min 0,076 mm 2,2 UV-I 128 W/m² -1,6 °C 9,7 °C 4,8 km/h (1 Bft)
16.02.2017 13:02 9,7 °C 9,7 °C 45 % 1031,9 hPa 0,0 mm 2,1 km/h (1 Bft) O 90 ° 1 min 0,000 mm 2,3 UV-I 455 W/m² -1,6 °C 9,7 °C 3,2 km/h (1 Bft)
16.02.2017 13:03 9,7 °C 9,7 °C 45 % 1031,9 hPa 0,0 mm 2,9 km/h (1 Bft) O 90 ° 1 min 0,000 mm 2,2 UV-I 374 W/m² -1,6 °C 9,7 °C 4,8 km/h (1 Bft)
16.02.2017 13:04 9,7 °C 9,8 °C 46 % 1031,9 hPa 0,0 mm 0,9 km/h (0 Bft) O 90 ° 0 min 0,000 mm 1,9 UV-I 130 W/m² -1,3 °C 9,7 °C 3,2 km/h (1 Bft)
16.02.2017 13:05 9,7 °C 9,7 °C 45 % 1031,8 hPa 0,0 mm 0,0 km/h (0 Bft) O 90 ° 0 min 0,000 mm 1,9 UV-I 95 W/m² -1,6 °C 9,7 °C 0,0 km/h (0 Bft)
16.02.2017 13:06 9,7 °C 9,7 °C 45 % 1031,8 hPa 0,0 mm 0,1 km/h (0 Bft) O 90 ° 0 min 0,000 mm 1,6 UV-I 121 W/m² -1,6 °C 9,7 °C 1,6 km/h (1 Bft)
16.02.2017 13:07 9,7 °C 9,7 °C 45 % 1031,8 hPa 0,0 mm 0,0 km/h (0 Bft) O 90 ° 1 min 0,000 mm 1,8 UV-I 207 W/m² -1,6 °C 9,7 °C 0,0 km/h (0 Bft)
16.02.2017 13:08 9,7 °C 9,7 °C 45 % 1031,8 hPa 0,0 mm 0,5 km/h (0 Bft) O 90 ° 1 min 0,000 mm 2,1 UV-I 207 W/m² -1,6 °C 9,7 °C 1,6 km/h (1 Bft)
16.02.2017 13:09 9,7 °C 9,7 °C 45 % 1031,8 hPa 0,0 mm 0,5 km/h (0 Bft) O 90 ° 1 min 0,000 mm 2,3 UV-I 462 W/m² -1,6 °C 9,7 °C 1,6 km/h (1 Bft)
16.02.2017 13:10 9,8 °C 9,8 °C 45 % 1031,8 hPa 0,0 mm 2,4 km/h (1 Bft) O 90 ° 1 min 0,000 mm 2,4 UV-I 480 W/m² -1,6 °C 9,8 °C 4,8 km/h (1 Bft)
16.02.2017 13:11 9,9 °C 9,9 °C 45 % 1031,7 hPa 0,0 mm 1,7 km/h (1 Bft) O 88 ° 1 min 0,000 mm 2,4 UV-I 482 W/m² -1,5 °C 9,9 °C 3,2 km/h (1 Bft)
16.02.2017 13:12 10,0 °C 10,0 °C 45 % 1031,7 hPa 0,0 mm 1,3 km/h (1 Bft) O 88 ° 1 min 0,000 mm 2,4 UV-I 482 W/m² -1,4 °C 10,0 °C 1,6 km/h (1 Bft)
16.02.2017 13:13 10,1 °C 10,1 °C 45 % 1031,7 hPa 0,0 mm 1,7 km/h (1 Bft) O 88 ° 1 min 0,000 mm 2,4 UV-I 480 W/m² -1,3 °C 10,1 °C 3,2 km/h (1 Bft)
16.02.2017 13:14 9,9 °C 10,1 °C 46 % 1031,7 hPa 0,0 mm 4,4 km/h (1 Bft) O-NO 69 ° 1 min 0,000 mm 2,3 UV-I 462 W/m² -1,2 °C 9,9 °C 6,4 km/h (2 Bft)
16.02.2017 13:15 9,8 °C 9,9 °C 46 % 1031,6 hPa 0,0 mm 3,8 km/h (1 Bft) O-NO 69 ° 1 min 0,000 mm 2,2 UV-I 462 W/m² -1,3 °C 9,8 °C 6,4 km/h (2 Bft)
16.02.2017 13:16 9,8 °C 9,8 °C 45 % 1031,6 hPa 0,0 mm 1,8 km/h (1 Bft) O-NO 69 ° 0 min 0,000 mm 1,8 UV-I 130 W/m² -1,6 °C 9,8 °C 3,2 km/h (1 Bft)
16.02.2017 13:17 9,9 °C 9,9 °C 46 % 1031,6 hPa 0,0 mm 3,0 km/h (1 Bft) O-NO 69 ° 0 min 0,000 mm 1,5 UV-I 86 W/m² -1,2 °C 9,9 °C 4,8 km/h (1 Bft)
16.02.2017 13:18 9,8 °C 9,9 °C 45 % 1031,6 hPa 0,0 mm 1,7 km/h (1 Bft) O-NO 69 ° 0 min 0,000 mm 0,0 UV-I 51 W/m² -1,6 °C 9,8 °C 3,2 km/h (1 Bft)
16.02.2017 13:19 9,8 °C 9,8 °C 45 % 1031,6 hPa 0,0 mm 3,8 km/h (1 Bft) O-SO 119 ° 0 min 0,000 mm 0,0 UV-I 47 W/m² -1,6 °C 9,8 °C 6,4 km/h (2 Bft)
16.02.2017 13:20 9,8 °C 9,8 °C 46 % 1031,6 hPa 0,0 mm 1,9 km/h (1 Bft) O-SO 118 ° 0 min 0,000 mm 0,0 UV-I 49 W/m² -1,3 °C 9,8 °C 4,8 km/h (1 Bft)
16.02.2017 13:21 9,8 °C 9,8 °C 45 % 1031,6 hPa 0,0 mm 2,9 km/h (1 Bft) O-NO 63 ° 0 min 0,000 mm 0,0 UV-I 47 W/m² -1,6 °C 9,8 °C 4,8 km/h (1 Bft)
16.02.2017 13:22 9,8 °C 9,8 °C 46 % 1031,5 hPa 0,0 mm 6,5 km/h (2 Bft) O 88 ° 0 min 0,000 mm 0,0 UV-I 47 W/m² -1,3 °C 9,1 °C 9,7 km/h (2 Bft)
16.02.2017 13:23 9,8 °C 9,8 °C 47 % 1031,5 hPa 0,0 mm 3,4 km/h (1 Bft) O 88 ° 0 min 0,000 mm 0,0 UV-I 102 W/m² -1,0 °C 9,8 °C 4,8 km/h (1 Bft)
16.02.2017 13:24 9,8 °C 9,8 °C 46 % 1031,5 hPa 0,0 mm 3,7 km/h (1 Bft) O 97 ° 0 min 0,000 mm 1,9 UV-I 102 W/m² -1,3 °C 9,8 °C 6,4 km/h (2 Bft)
16.02.2017 13:25 9,7 °C 9,8 °C 47 % 1031,5 hPa 0,0 mm 3,7 km/h (1 Bft) O-NO 74 ° 1 min 0,000 mm 2,1 UV-I 348 W/m² -1,1 °C 9,7 °C 4,8 km/h (1 Bft)
16.02.2017 13:26 9,7 °C 9,7 °C 47 % 1031,5 hPa 0,0 mm 3,4 km/h (1 Bft) O-NO 75 ° 1 min 0,000 mm 2,2 UV-I 410 W/m² -1,1 °C 9,7 °C 4,8 km/h (1 Bft)
16.02.2017 13:27 9,8 °C 9,8 °C 46 % 1031,5 hPa 0,0 mm 2,9 km/h (1 Bft) O-NO 72 ° 1 min 0,000 mm 2,3 UV-I 469 W/m² -1,3 °C 9,8 °C 4,8 km/h (1 Bft)
16.02.2017 13:28 9,8 °C 9,9 °C 48 % 1031,5 hPa 0,0 mm 5,2 km/h (1 Bft) O-NO 58 ° 1 min 0,000 mm 2,2 UV-I 417 W/m² -0,7 °C 9,5 °C 6,4 km/h (2 Bft)
16.02.2017 13:29 9,9 °C 9,9 °C 47 % 1031,5 hPa 0,0 mm 4,0 km/h (1 Bft) O-NO 58 ° 1 min 0,000 mm 1,5 UV-I 417 W/m² -0,9 °C 9,9 °C 4,8 km/h (1 Bft)
16.02.2017 13:30 9,9 °C 10,0 °C 47 % 1031,5 hPa 0,0 mm 4,0 km/h (1 Bft) NO 53 ° 0 min 0,000 mm 1,6 UV-I 128 W/m² -0,9 °C 9,9 °C 6,4 km/h (2 Bft)
16.02.2017 13:31 9,9 °C 9,9 °C 47 % 1031,5 hPa 0,0 mm 1,7 km/h (1 Bft) NO 53 ° 0 min 0,000 mm 1,9 UV-I 128 W/m² -0,9 °C 9,9 °C 3,2 km/h (1 Bft)
16.02.2017 13:32 9,9 °C 9,9 °C 47 % 1031,4 hPa 0,0 mm 2,6 km/h (1 Bft) NO 53 ° 0 min 0,000 mm 2,2 UV-I 128 W/m² -0,9 °C 9,9 °C 3,2 km/h (1 Bft)
16.02.2017 13:33 9,9 °C 9,9 °C 47 % 1031,4 hPa 0,0 mm 0,8 km/h (0 Bft) NO 53 ° 1 min 0,000 mm 2,3 UV-I 466 W/m² -0,9 °C 9,9 °C 3,2 km/h (1 Bft)
16.02.2017 13:34 10,1 °C 10,1 °C 46 % 1031,4 hPa 0,0 mm 3,2 km/h (1 Bft) O-NO 65 ° 1 min 0,000 mm 2,3 UV-I 462 W/m² -1,0 °C 10,1 °C 6,4 km/h (2 Bft)
16.02.2017 13:35 10,1 °C 10,2 °C 46 % 1031,4 hPa 0,0 mm 5,4 km/h (1 Bft) NO 41 ° 1 min 0,000 mm 2,3 UV-I 462 W/m² -1,0 °C 10,1 °C 8,0 km/h (2 Bft)
16.02.2017 13:36 10,1 °C 10,2 °C 46 % 1031,4 hPa 0,0 mm 4,0 km/h (1 Bft) N-NO 27 ° 1 min 0,000 mm 2,3 UV-I 461 W/m² -1,0 °C 10,1 °C 4,8 km/h (1 Bft)
16.02.2017 13:37 10,1 °C 10,2 °C 48 % 1031,4 hPa 0,0 mm 2,5 km/h (1 Bft) N-NO 28 ° 1 min 0,000 mm 2,2 UV-I 459 W/m² -0,4 °C 10,1 °C 3,2 km/h (1 Bft)
16.02.2017 13:38 10,1 °C 10,1 °C 47 % 1031,4 hPa 0,0 mm 3,7 km/h (1 Bft) O-NO 68 ° 1 min 0,000 mm 2,2 UV-I 459 W/m² -0,7 °C 10,1 °C 6,4 km/h (2 Bft)
16.02.2017 13:39 10,1 °C 10,1 °C 46 % 1031,3 hPa 0,0 mm 5,2 km/h (1 Bft) O-NO 57 ° 1 min 0,000 mm 2,2 UV-I 457 W/m² -1,0 °C 10,1 °C 6,4 km/h (2 Bft)
16.02.2017 13:40 10,1 °C 10,1 °C 47 % 1031,4 hPa 0,0 mm 5,0 km/h (1 Bft) S-SO 157 ° 1 min 0,000 mm 2,2 UV-I 457 W/m² -0,7 °C 10,1 °C 6,4 km/h (2 Bft)
16.02.2017 13:41 10,2 °C 10,2 °C 45 % 1031,3 hPa 0,0 mm 1,7 km/h (1 Bft) SO 146 ° 1 min 0,000 mm 2,2 UV-I 457 W/m² -1,2 °C 10,2 °C 3,2 km/h (1 Bft)
16.02.2017 13:42 10,2 °C 10,2 °C 45 % 1031,2 hPa 0,0 mm 1,5 km/h (1 Bft) SO 146 ° 1 min 0,000 mm 2,2 UV-I 457 W/m² -1,2 °C 10,2 °C 1,6 km/h (1 Bft)
16.02.2017 13:43 10,2 °C 10,3 °C 46 % 1031,3 hPa 0,0 mm 2,1 km/h (1 Bft) N-NO 32 ° 1 min 0,000 mm 2,2 UV-I 455 W/m² -0,9 °C 10,2 °C 4,8 km/h (1 Bft)
16.02.2017 13:44 10,2 °C 10,2 °C 46 % 1031,2 hPa 0,0 mm 5,6 km/h (1 Bft) O-NO 68 ° 1 min 0,000 mm 2,2 UV-I 455 W/m² -0,9 °C 10,2 °C 8,0 km/h (2 Bft)
16.02.2017 13:45 10,2 °C 10,2 °C 47 % 1031,3 hPa 0,0 mm 3,2 km/h (1 Bft) O-NO 76 ° 1 min 0,000 mm 2,2 UV-I 455 W/m² -0,6 °C 10,2 °C 6,4 km/h (2 Bft)
16.02.2017 13:46 10,1 °C 10,2 °C 47 % 1031,2 hPa 0,0 mm 5,0 km/h (1 Bft) O-NO 67 ° 1 min 0,000 mm 2,2 UV-I 452 W/m² -0,7 °C 10,1 °C 8,0 km/h (2 Bft)
16.02.2017 13:47 10,1 °C 10,1 °C 47 % 1031,2 hPa 0,0 mm 5,1 km/h (1 Bft) O-NO 65 ° 1 min 0,000 mm 2,2 UV-I 452 W/m² -0,7 °C 10,1 °C 8,0 km/h (2 Bft)
16.02.2017 13:48 10,0 °C 10,1 °C 47 % 1031,2 hPa 0,0 mm 4,3 km/h (1 Bft) N-NO 27 ° 1 min 0,000 mm 2,2 UV-I 450 W/m² -0,8 °C 10,0 °C 8,0 km/h (2 Bft)
16.02.2017 13:49 10,2 °C 10,2 °C 47 % 1031,2 hPa 0,0 mm 3,6 km/h (1 Bft) N-NO 28 ° 1 min 0,000 mm 2,2 UV-I 448 W/m² -0,6 °C 10,2 °C 6,4 km/h (2 Bft)
16.02.2017 13:50 10,3 °C 10,3 °C 46 % 1031,1 hPa 0,0 mm 1,1 km/h (1 Bft) N-NO 27 ° 1 min 0,000 mm 2,2 UV-I 446 W/m² -0,8 °C 10,3 °C 3,2 km/h (1 Bft)
16.02.2017 13:51 10,3 °C 10,3 °C 46 % 1031,1 hPa 0,0 mm 5,2 km/h (1 Bft) O-NO 61 ° 1 min 0,000 mm 2,2 UV-I 446 W/m² -0,8 °C 10,3 °C 8,0 km/h (2 Bft)
16.02.2017 13:52 10,3 °C 10,3 °C 46 % 1031,1 hPa 0,0 mm 3,0 km/h (1 Bft) O-NO 60 ° 1 min 0,000 mm 2,2 UV-I 445 W/m² -0,8 °C 10,3 °C 6,4 km/h (2 Bft)
16.02.2017 13:53 10,4 °C 10,4 °C 45 % 1031,1 hPa 0,0 mm 5,8 km/h (2 Bft) O 90 ° 1 min 0,000 mm 2,2 UV-I 443 W/m² -1,0 °C 10,4 °C 11,3 km/h (2 Bft)
16.02.2017 13:54 10,6 °C 10,6 °C 45 % 1031,1 hPa 0,0 mm 4,0 km/h (1 Bft) NO 55 ° 1 min 0,000 mm 2,2 UV-I 443 W/m² -0,8 °C 10,6 °C 4,8 km/h (1 Bft)
16.02.2017 13:55 10,7 °C 10,7 °C 45 % 1031,1 hPa 0,0 mm 3,6 km/h (1 Bft) N-NO 27 ° 1 min 0,000 mm 2,2 UV-I 443 W/m² -0,7 °C 10,7 °C 6,4 km/h (2 Bft)
16.02.2017 13:56 10,4 °C 10,7 °C 46 % 1031,1 hPa 0,0 mm 5,4 km/h (1 Bft) O-NO 66 ° 1 min 0,000 mm 2,1 UV-I 443 W/m² -0,7 °C 10,4 °C 8,0 km/h (2 Bft)
16.02.2017 13:57 10,2 °C 10,4 °C 46 % 1031,0 hPa 0,0 mm 4,9 km/h (1 Bft) O-NO 61 ° 1 min 0,000 mm 2,1 UV-I 439 W/m² -0,9 °C 10,2 °C 6,4 km/h (2 Bft)
16.02.2017 13:58 10,2 °C 10,2 °C 46 % 1031,0 hPa 0,0 mm 3,8 km/h (1 Bft) O 82 ° 1 min 0,000 mm 2,1 UV-I 436 W/m² -0,9 °C 10,2 °C 8,0 km/h (2 Bft)
16.02.2017 13:59 10,2 °C 10,2 °C 47 % 1031,0 hPa 0,0 mm 2,9 km/h (1 Bft) O-SO 105 ° 1 min 0,000 mm 2,1 UV-I 436 W/m² -0,6 °C 10,2 °C 4,8 km/h (1 Bft)
16.02.2017 14:00 10,3 °C 10,3 °C 46 % 1031,0 hPa 0,0 mm 3,5 km/h (1 Bft) O-SO 107 ° 1 min 0,000 mm 2,1 UV-I 434 W/m² -0,8 °C 10,3 °C 4,8 km/h (1 Bft)
16.02.2017 14:01 10,4 °C 10,4 °C 45 % 1031,0 hPa 0,0 mm 1,7 km/h (1 Bft) O-SO 107 ° 1 min 0,178 mm 2,1 UV-I 434 W/m² -1,0 °C 10,4 °C 3,2 km/h (1 Bft)
16.02.2017 14:02 10,4 °C 10,5 °C 46 % 1030,9 hPa 0,0 mm 1,7 km/h (1 Bft) O-SO 107 ° 1 min 0,000 mm 2,1 UV-I 432 W/m² -0,7 °C 10,4 °C 4,8 km/h (1 Bft)
16.02.2017 14:03 10,5 °C 10,5 °C 45 % 1030,9 hPa 0,0 mm 1,9 km/h (1 Bft) O-SO 107 ° 1 min 0,000 mm 2,1 UV-I 432 W/m² -0,9 °C 10,5 °C 3,2 km/h (1 Bft)
16.02.2017 14:04 10,6 °C 10,6 °C 45 % 1030,8 hPa 0,0 mm 1,3 km/h (1 Bft) O-SO 116 ° 1 min 0,000 mm 2,1 UV-I 429 W/m² -0,8 °C 10,6 °C 3,2 km/h (1 Bft)
16.02.2017 14:05 10,6 °C 10,6 °C 45 % 1030,8 hPa 0,0 mm 2,7 km/h (1 Bft) O 94 ° 1 min 0,000 mm 2,1 UV-I 427 W/m² -0,8 °C 10,6 °C 4,8 km/h (1 Bft)
16.02.2017 14:06 10,6 °C 10,6 °C 45 % 1030,8 hPa 0,0 mm 2,2 km/h (1 Bft) N 350 ° 1 min 0,000 mm 2,1 UV-I 427 W/m² -0,8 °C 10,6 °C 4,8 km/h (1 Bft)
16.02.2017 14:07 10,7 °C 10,7 °C 45 % 1030,8 hPa 0,0 mm 6,4 km/h (2 Bft) NO 51 ° 1 min 0,000 mm 2,1 UV-I 425 W/m² -0,7 °C 10,7 °C 11,3 km/h (2 Bft)
16.02.2017 14:08 10,6 °C 10,7 °C 45 % 1030,8 hPa 0,0 mm 5,5 km/h (1 Bft) O-NO 65 ° 1 min 0,000 mm 2,1 UV-I 425 W/m² -0,8 °C 10,6 °C 12,9 km/h (3 Bft)
16.02.2017 14:09 10,6 °C 10,6 °C 47 % 1030,7 hPa 0,0 mm 7,7 km/h (2 Bft) O-NO 66 ° 1 min 0,000 mm 2,1 UV-I 424 W/m² -0,2 °C 10,6 °C 14,5 km/h (3 Bft)
16.02.2017 14:10 10,3 °C 10,6 °C 46 % 1030,8 hPa 0,0 mm 8,6 km/h (2 Bft) O-NO 61 ° 1 min 0,000 mm 2,1 UV-I 422 W/m² -0,8 °C 10,3 °C 12,9 km/h (3 Bft)
16.02.2017 14:11 10,1 °C 10,3 °C 47 % 1030,8 hPa 0,0 mm 6,8 km/h (2 Bft) O-NO 63 ° 1 min 0,000 mm 2,1 UV-I 422 W/m² -0,7 °C 10,1 °C 9,7 km/h (2 Bft)
16.02.2017 14:12 10,1 °C 10,1 °C 48 % 1030,7 hPa 0,0 mm 5,8 km/h (2 Bft) O-NO 73 ° 1 min 0,000 mm 2,1 UV-I 420 W/m² -0,4 °C 10,1 °C 8,0 km/h (2 Bft)
16.02.2017 14:13 10,1 °C 10,1 °C 48 % 1030,7 hPa 0,0 mm 6,6 km/h (2 Bft) O-NO 78 ° 1 min 0,000 mm 2,0 UV-I 418 W/m² -0,4 °C 10,1 °C 11,3 km/h (2 Bft)
16.02.2017 14:14 10,1 °C 10,1 °C 48 % 1030,7 hPa 0,0 mm 7,6 km/h (2 Bft) O-NO 69 ° 1 min 0,000 mm 2,0 UV-I 418 W/m² -0,4 °C 10,1 °C 12,9 km/h (3 Bft)
16.02.2017 14:15 10,1 °C 10,1 °C 48 % 1030,7 hPa 0,0 mm 6,6 km/h (2 Bft) NO 36 ° 1 min 0,000 mm 2,0 UV-I 415 W/m² -0,4 °C 10,1 °C 8,0 km/h (2 Bft)
16.02.2017 14:16 10,1 °C 10,1 °C 48 % 1030,7 hPa 0,0 mm 5,4 km/h (1 Bft) O 85 ° 1 min 0,000 mm 2,0 UV-I 413 W/m² -0,4 °C 10,1 °C 8,0 km/h (2 Bft)
16.02.2017 14:17 9,9 °C 10,1 °C 48 % 1030,7 hPa 0,0 mm 3,8 km/h (1 Bft) NO 46 ° 1 min 0,000 mm 2,0 UV-I 413 W/m² -0,6 °C 9,9 °C 6,4 km/h (2 Bft)
16.02.2017 14:18 10,0 °C 10,0 °C 48 % 1030,6 hPa 0,0 mm 3,8 km/h (1 Bft) O-NO 76 ° 1 min 0,000 mm 2,0 UV-I 411 W/m² -0,5 °C 10,0 °C 4,8 km/h (1 Bft)
16.02.2017 14:19 10,2 °C 10,2 °C 48 % 1030,7 hPa 0,0 mm 3,5 km/h (1 Bft) O-NO 75 ° 1 min 0,000 mm 2,0 UV-I 410 W/m² -0,3 °C 10,2 °C 4,8 km/h (1 Bft)
16.02.2017 14:20 10,1 °C 10,2 °C 47 % 1030,5 hPa 0,0 mm 6,5 km/h (2 Bft) O-NO 62 ° 1 min 0,000 mm 2,0 UV-I 410 W/m² -0,7 °C 10,1 °C 12,9 km/h (3 Bft)
16.02.2017 14:21 10,2 °C 10,2 °C 47 % 1030,6 hPa 0,0 mm 5,8 km/h (2 Bft) O-NO 67 ° 1 min 0,000 mm 2,0 UV-I 404 W/m² -0,6 °C 10,2 °C 9,7 km/h (2 Bft)
16.02.2017 14:22 10,2 °C 10,3 °C 48 % 1030,6 hPa 0,0 mm 3,8 km/h (1 Bft) O-NO 67 ° 1 min 0,000 mm 1,9 UV-I 403 W/m² -0,3 °C 10,2 °C 4,8 km/h (1 Bft)
16.02.2017 14:23 10,1 °C 10,2 °C 48 % 1030,5 hPa 0,0 mm 1,9 km/h (1 Bft) O-NO 67 ° 1 min 0,000 mm 1,9 UV-I 401 W/m² -0,4 °C 10,1 °C 3,2 km/h (1 Bft)
16.02.2017 14:24 10,1 °C 10,1 °C 49 % 1030,5 hPa 0,0 mm 6,7 km/h (2 Bft) O 95 ° 1 min 0,000 mm 1,9 UV-I 401 W/m² -0,1 °C 10,1 °C 9,7 km/h (2 Bft)
16.02.2017 14:25 9,9 °C 10,1 °C 49 % 1030,5 hPa 0,0 mm 6,6 km/h (2 Bft) O-NO 61 ° 1 min 0,000 mm 1,9 UV-I 401 W/m² -0,3 °C 9,2 °C 14,5 km/h (3 Bft)
16.02.2017 14:26 9,9 °C 9,9 °C 50 % 1030,5 hPa 0,0 mm 7,0 km/h (2 Bft) O-NO 78 ° 1 min 0,000 mm 1,9 UV-I 397 W/m² -0,0 °C 9,1 °C 9,7 km/h (2 Bft)
16.02.2017 14:27 9,9 °C 9,9 °C 47 % 1030,5 hPa 0,0 mm 6,5 km/h (2 Bft) O-NO 59 ° 1 min 0,000 mm 1,9 UV-I 394 W/m² -0,9 °C 9,2 °C 8,0 km/h (2 Bft)
16.02.2017 14:28 10,1 °C 10,1 °C 47 % 1030,4 hPa 0,0 mm 7,4 km/h (2 Bft) O 90 ° 1 min 0,000 mm 1,9 UV-I 394 W/m² -0,7 °C 10,1 °C 9,7 km/h (2 Bft)
16.02.2017 14:29 10,2 °C 10,2 °C 47 % 1030,5 hPa 0,0 mm 2,3 km/h (1 Bft) O 93 ° 1 min 0,000 mm 1,9 UV-I 394 W/m² -0,6 °C 10,2 °C 4,8 km/h (1 Bft)
16.02.2017 14:30 10,3 °C 10,3 °C 47 % 1030,5 hPa 0,0 mm 3,4 km/h (1 Bft) SO 124 ° 1 min 0,000 mm 1,9 UV-I 390 W/m² -0,5 °C 10,3 °C 8,0 km/h (2 Bft)
16.02.2017 14:31 10,3 °C 10,3 °C 47 % 1030,4 hPa 0,0 mm 7,5 km/h (2 Bft) NO 55 ° 1 min 0,000 mm 1,9 UV-I 390 W/m² -0,5 °C 10,3 °C 11,3 km/h (2 Bft)
16.02.2017 14:32 10,3 °C 10,3 °C 48 % 1030,4 hPa 0,0 mm 5,0 km/h (1 Bft) NO 49 ° 1 min 0,000 mm 1,8 UV-I 387 W/m² -0,2 °C 10,3 °C 9,7 km/h (2 Bft)
16.02.2017 14:33 10,4 °C 10,4 °C 47 % 1030,4 hPa 0,0 mm 5,2 km/h (1 Bft) O-NO 68 ° 1 min 0,000 mm 1,8 UV-I 385 W/m² -0,4 °C 10,4 °C 9,7 km/h (2 Bft)
16.02.2017 14:34 10,4 °C 10,4 °C 47 % 1030,4 hPa 0,0 mm 1,5 km/h (1 Bft) O-NO 73 ° 1 min 0,000 mm 1,8 UV-I 383 W/m² -0,4 °C 10,4 °C 4,8 km/h (1 Bft)
16.02.2017 14:35 10,4 °C 10,4 °C 46 % 1030,4 hPa 0,0 mm 2,7 km/h (1 Bft) S-SO 148 ° 1 min 0,000 mm 1,8 UV-I 381 W/m² -0,7 °C 10,4 °C 6,4 km/h (2 Bft)
16.02.2017 14:36 10,3 °C 10,4 °C 46 % 1030,4 hPa 0,0 mm 3,3 km/h (1 Bft) O 94 ° 1 min 0,000 mm 1,8 UV-I 380 W/m² -0,8 °C 10,3 °C 6,4 km/h (2 Bft)
16.02.2017 14:37 10,4 °C 10,4 °C 46 % 1030,4 hPa 0,0 mm 4,6 km/h (1 Bft) NO 46 ° 1 min 0,000 mm 1,8 UV-I 380 W/m² -0,7 °C 10,4 °C 8,0 km/h (2 Bft)
16.02.2017 14:38 10,6 °C 10,6 °C 46 % 1030,4 hPa 0,0 mm 4,6 km/h (1 Bft) O-NO 64 ° 1 min 0,000 mm 1,8 UV-I 376 W/m² -0,5 °C 10,6 °C 6,4 km/h (2 Bft)
16.02.2017 14:39 10,6 °C 10,7 °C 46 % 1030,4 hPa 0,0 mm 6,2 km/h (2 Bft) O-NO 60 ° 1 min 0,000 mm 1,7 UV-I 374 W/m² -0,5 °C 10,6 °C 11,3 km/h (2 Bft)
16.02.2017 14:40 10,4 °C 10,6 °C 46 % 1030,3 hPa 0,0 mm 2,3 km/h (1 Bft) O-NO 63 ° 1 min 0,000 mm 1,7 UV-I 373 W/m² -0,7 °C 10,4 °C 8,0 km/h (2 Bft)
16.02.2017 14:41 10,4 °C 10,4 °C 45 % 1030,3 hPa 0,0 mm 8,4 km/h (2 Bft) O-NO 74 ° 1 min 0,000 mm 1,7 UV-I 371 W/m² -1,0 °C 10,4 °C 12,9 km/h (3 Bft)
16.02.2017 14:42 10,3 °C 10,4 °C 47 % 1030,3 hPa 0,0 mm 5,2 km/h (1 Bft) O-NO 62 ° 1 min 0,000 mm 1,7 UV-I 369 W/m² -0,5 °C 10,3 °C 6,4 km/h (2 Bft)
16.02.2017 14:43 10,2 °C 10,3 °C 47 % 1030,3 hPa 0,0 mm 2,9 km/h (1 Bft) O-NO 62 ° 1 min 0,000 mm 1,7 UV-I 367 W/m² -0,6 °C 10,2 °C 4,8 km/h (1 Bft)
16.02.2017 14:44 10,2 °C 10,2 °C 48 % 1030,3 hPa 0,0 mm 4,3 km/h (1 Bft) O 91 ° 1 min 0,000 mm 1,6 UV-I 366 W/m² -0,3 °C 10,2 °C 6,4 km/h (2 Bft)
16.02.2017 14:45 10,2 °C 10,2 °C 47 % 1030,3 hPa 0,0 mm 3,6 km/h (1 Bft) O-NO 76 ° 1 min 0,000 mm 1,6 UV-I 362 W/m² -0,6 °C 10,2 °C 4,8 km/h (1 Bft)
16.02.2017 14:46 10,0 °C 10,2 °C 48 % 1030,3 hPa 0,0 mm 4,0 km/h (1 Bft) NO 52 ° 1 min 0,000 mm 1,6 UV-I 362 W/m² -0,5 °C 10,0 °C 6,4 km/h (2 Bft)
16.02.2017 14:47 9,9 °C 10,0 °C 48 % 1030,3 hPa 0,0 mm 4,5 km/h (1 Bft) O-NO 74 ° 1 min 0,000 mm 1,6 UV-I 360 W/m² -0,6 °C 9,9 °C 6,4 km/h (2 Bft)
16.02.2017 14:48 9,8 °C 9,9 °C 49 % 1030,3 hPa 0,0 mm 5,1 km/h (1 Bft) O-NO 69 ° 1 min 0,000 mm 1,5 UV-I 357 W/m² -0,4 °C 9,5 °C 6,4 km/h (2 Bft)
16.02.2017 14:49 9,8 °C 9,8 °C 48 % 1030,2 hPa 0,0 mm 6,2 km/h (2 Bft) O 93 ° 1 min 0,000 mm 1,5 UV-I 357 W/m² -0,7 °C 9,2 °C 11,3 km/h (2 Bft)
16.02.2017 14:50 10,1 °C 10,1 °C 48 % 1030,2 hPa 0,0 mm 4,2 km/h (1 Bft) O 85 ° 1 min 0,000 mm 1,5 UV-I 352 W/m² -0,4 °C 10,1 °C 6,4 km/h (2 Bft)
16.02.2017 14:51 10,1 °C 10,1 °C 49 % 1030,3 hPa 0,0 mm 4,8 km/h (1 Bft) N-NO 26 ° 1 min 0,000 mm 1,5 UV-I 352 W/m² -0,1 °C 10,1 °C 6,4 km/h (2 Bft)
16.02.2017 14:52 10,1 °C 10,1 °C 49 % 1030,2 hPa 0,0 mm 5,3 km/h (1 Bft) O-NO 65 ° 1 min 0,000 mm 1,4 UV-I 350 W/m² -0,1 °C 10,1 °C 9,7 km/h (2 Bft)
16.02.2017 14:53 10,2 °C 10,2 °C 48 % 1030,2 hPa 0,0 mm 6,9 km/h (2 Bft) O 101 ° 1 min 0,000 mm 1,4 UV-I 348 W/m² -0,3 °C 10,2 °C 12,9 km/h (3 Bft)
16.02.2017 14:54 10,3 °C 10,3 °C 47 % 1030,2 hPa 0,0 mm 3,4 km/h (1 Bft) O-NO 69 ° 1 min 0,000 mm 1,4 UV-I 348 W/m² -0,5 °C 10,3 °C 6,4 km/h (2 Bft)
16.02.2017 14:55 10,4 °C 10,4 °C 47 % 1030,2 hPa 0,0 mm 4,1 km/h (1 Bft) O-NO 67 ° 1 min 0,000 mm 1,4 UV-I 346 W/m² -0,4 °C 10,4 °C 4,8 km/h (1 Bft)
16.02.2017 14:56 10,2 °C 10,4 °C 49 % 1030,1 hPa 0,0 mm 4,6 km/h (1 Bft) O-NO 75 ° 1 min 0,000 mm 1,4 UV-I 343 W/m² -0,0 °C 10,2 °C 6,4 km/h (2 Bft)
16.02.2017 14:57 10,1 °C 10,2 °C 48 % 1030,1 hPa 0,0 mm 3,9 km/h (1 Bft) O 94 ° 1 min 0,000 mm 1,4 UV-I 339 W/m² -0,4 °C 10,1 °C 8,0 km/h (2 Bft)
16.02.2017 14:58 10,1 °C 10,2 °C 49 % 1030,1 hPa 0,0 mm 6,6 km/h (2 Bft) O 82 ° 1 min 0,000 mm 1,4 UV-I 338 W/m² -0,1 °C 10,1 °C 11,3 km/h (2 Bft)
16.02.2017 14:59 10,0 °C 10,1 °C 50 % 1030,1 hPa 0,0 mm 6,4 km/h (2 Bft) O-NO 70 ° 1 min 0,000 mm 1,4 UV-I 336 W/m² 0,1 °C 9,4 °C 9,7 km/h (2 Bft)
16.02.2017 15:00 9,8 °C 10,0 °C 49 % 1030,1 hPa 0,0 mm 4,0 km/h (1 Bft) NO 45 ° 1 min 0,203 mm 1,4 UV-I 334 W/m² -0,4 °C 9,8 °C 6,4 km/h (2 Bft)
16.02.2017 15:01 9,9 °C 9,9 °C 49 % 1030,0 hPa 0,0 mm 3,1 km/h (1 Bft) NO 46 ° 1 min 0,000 mm 1,4 UV-I 332 W/m² -0,3 °C 9,9 °C 4,8 km/h (1 Bft)
16.02.2017 15:02 10,2 °C 10,2 °C 48 % 1030,1 hPa 0,0 mm 2,5 km/h (1 Bft) NO 46 ° 1 min 0,000 mm 1,4 UV-I 329 W/m² -0,3 °C 10,2 °C 3,2 km/h (1 Bft)
16.02.2017 15:03 10,2 °C 10,2 °C 48 % 1030,2 hPa 0,0 mm 2,2 km/h (1 Bft) NO 42 ° 1 min 0,000 mm 1,3 UV-I 327 W/m² -0,3 °C 10,2 °C 4,8 km/h (1 Bft)
16.02.2017 15:04 10,3 °C 10,3 °C 48 % 1030,2 hPa 0,0 mm 6,6 km/h (2 Bft) O-NO 71 ° 1 min 0,000 mm 1,3 UV-I 325 W/m² -0,2 °C 10,3 °C 12,9 km/h (3 Bft)
16.02.2017 15:05 10,4 °C 10,4 °C 46 % 1030,1 hPa 0,0 mm 6,0 km/h (2 Bft) NO 42 ° 1 min 0,000 mm 1,3 UV-I 323 W/m² -0,7 °C 10,4 °C 8,0 km/h (2 Bft)
16.02.2017 15:06 10,4 °C 10,4 °C 46 % 1030,1 hPa 0,0 mm 5,6 km/h (1 Bft) O-NO 63 ° 1 min 0,000 mm 1,3 UV-I 322 W/m² -0,7 °C 10,4 °C 8,0 km/h (2 Bft)
16.02.2017 15:07 10,4 °C 10,4 °C 47 % 1030,2 hPa 0,0 mm 4,1 km/h (1 Bft) O-NO 64 ° 1 min 0,000 mm 1,3 UV-I 318 W/m² -0,4 °C 10,4 °C 8,0 km/h (2 Bft)
16.02.2017 15:08 10,5 °C 10,5 °C 46 % 1030,2 hPa 0,0 mm 4,4 km/h (1 Bft) O-NO 74 ° 1 min 0,000 mm 1,2 UV-I 315 W/m² -0,6 °C 10,5 °C 8,0 km/h (2 Bft)
16.02.2017 15:09 10,4 °C 10,5 °C 46 % 1030,1 hPa 0,0 mm 2,9 km/h (1 Bft) O-NO 74 ° 1 min 0,000 mm 1,2 UV-I 313 W/m² -0,7 °C 10,4 °C 4,8 km/h (1 Bft)
16.02.2017 15:10 10,3 °C 10,4 °C 46 % 1030,1 hPa 0,0 mm 4,1 km/h (1 Bft) O-NO 57 ° 1 min 0,000 mm 1,2 UV-I 311 W/m² -0,8 °C 10,3 °C 6,4 km/h (2 Bft)
16.02.2017 15:11 10,3 °C 10,3 °C 47 % 1030,1 hPa 0,0 mm 3,4 km/h (1 Bft) NO 45 ° 1 min 0,000 mm 1,2 UV-I 309 W/m² -0,5 °C 10,3 °C 6,4 km/h (2 Bft)
16.02.2017 15:12 10,2 °C 10,3 °C 47 % 1030,1 hPa 0,0 mm 2,9 km/h (1 Bft) O-NO 61 ° 1 min 0,000 mm 1,2 UV-I 308 W/m² -0,6 °C 10,2 °C 4,8 km/h (1 Bft)
16.02.2017 15:13 10,1 °C 10,2 °C 48 % 1030,1 hPa 0,0 mm 2,3 km/h (1 Bft) O-NO 61 ° 1 min 0,000 mm 1,2 UV-I 304 W/m² -0,4 °C 10,1 °C 3,2 km/h (1 Bft)
16.02.2017 15:14 10,1 °C 10,1 °C 47 % 1030,1 hPa 0,0 mm 1,7 km/h (1 Bft) O-NO 61 ° 1 min 0,000 mm 1,2 UV-I 302 W/m² -0,7 °C 10,1 °C 3,2 km/h (1 Bft)
16.02.2017 15:15 10,2 °C 10,2 °C 48 % 1030,1 hPa 0,0 mm 1,8 km/h (1 Bft) O-NO 61 ° 1 min 0,000 mm 1,2 UV-I 301 W/m² -0,3 °C 10,2 °C 3,2 km/h (1 Bft)
16.02.2017 15:16 10,2 °C 10,2 °C 47 % 1030,1 hPa 0,0 mm 1,4 km/h (1 Bft) O-NO 61 ° 1 min 0,000 mm 1,2 UV-I 299 W/m² -0,6 °C 10,2 °C 3,2 km/h (1 Bft)
16.02.2017 15:17 10,1 °C 10,3 °C 47 % 1030,1 hPa 0,0 mm 4,4 km/h (1 Bft) NO 36 ° 1 min 0,000 mm 1,2 UV-I 297 W/m² -0,7 °C 10,1 °C 6,4 km/h (2 Bft)
16.02.2017 15:18 10,1 °C 10,1 °C 49 % 1030,1 hPa 0,0 mm 3,0 km/h (1 Bft) O 96 ° 1 min 0,000 mm 1,2 UV-I 294 W/m² -0,1 °C 10,1 °C 4,8 km/h (1 Bft)
16.02.2017 15:19 10,1 °C 10,1 °C 47 % 1030,1 hPa 0,0 mm 3,5 km/h (1 Bft) O 93 ° 1 min 0,000 mm 1,2 UV-I 292 W/m² -0,7 °C 10,1 °C 4,8 km/h (1 Bft)
16.02.2017 15:20 10,2 °C 10,2 °C 47 % 1030,0 hPa 0,0 mm 2,5 km/h (1 Bft) O-NO 69 ° 1 min 0,000 mm 1,2 UV-I 288 W/m² -0,6 °C 10,2 °C 3,2 km/h (1 Bft)
16.02.2017 15:21 10,1 °C 10,2 °C 48 % 1030,0 hPa 0,0 mm 5,4 km/h (1 Bft) NO 40 ° 1 min 0,000 mm 1,2 UV-I 287 W/m² -0,4 °C 10,1 °C 8,0 km/h (2 Bft)
16.02.2017 15:22 10,0 °C 10,1 °C 48 % 1030,0 hPa 0,0 mm 4,6 km/h (1 Bft) NO 42 ° 1 min 0,000 mm 1,2 UV-I 285 W/m² -0,5 °C 9,9 °C 6,4 km/h (2 Bft)
16.02.2017 15:23 10,1 °C 10,1 °C 48 % 1030,0 hPa 0,0 mm 5,5 km/h (1 Bft) O-NO 57 ° 1 min 0,000 mm 1,2 UV-I 285 W/m² -0,4 °C 10,1 °C 11,3 km/h (2 Bft)
16.02.2017 15:24 10,2 °C 10,2 °C 47 % 1030,0 hPa 0,0 mm 3,2 km/h (1 Bft) O-NO 57 ° 1 min 0,000 mm 1,2 UV-I 281 W/m² -0,6 °C 10,2 °C 4,8 km/h (1 Bft)
16.02.2017 15:25 10,2 °C 10,2 °C 47 % 1030,0 hPa 0,0 mm 2,3 km/h (1 Bft) O-NO 57 ° 1 min 0,000 mm 1,1 UV-I 278 W/m² -0,6 °C 10,2 °C 3,2 km/h (1 Bft)
16.02.2017 15:26 10,3 °C 10,3 °C 47 % 1030,0 hPa 0,0 mm 3,6 km/h (1 Bft) O-NO 69 ° 1 min 0,000 mm 1,1 UV-I 276 W/m² -0,5 °C 10,3 °C 6,4 km/h (2 Bft)
16.02.2017 15:27 10,2 °C 10,3 °C 47 % 1030,0 hPa 0,0 mm 6,7 km/h (2 Bft) O-NO 58 ° 1 min 0,000 mm 1,1 UV-I 272 W/m² -0,6 °C 10,2 °C 9,7 km/h (2 Bft)
16.02.2017 15:28 10,1 °C 10,2 °C 48 % 1029,9 hPa 0,0 mm 2,3 km/h (1 Bft) O-NO 58 ° 1 min 0,000 mm 1,1 UV-I 257 W/m² -0,4 °C 10,1 °C 4,8 km/h (1 Bft)
16.02.2017 15:29 10,1 °C 10,1 °C 48 % 1030,0 hPa 0,0 mm 2,4 km/h (1 Bft) O-NO 58 ° 1 min 0,000 mm 1,0 UV-I 216 W/m² -0,4 °C 10,1 °C 6,4 km/h (2 Bft)
16.02.2017 15:30 10,1 °C 10,1 °C 48 % 1029,9 hPa 0,0 mm 2,7 km/h (1 Bft) O-NO 58 ° 0 min 0,000 mm 1,0 UV-I 179 W/m² -0,4 °C 10,1 °C 4,8 km/h (1 Bft)
16.02.2017 15:31 10,1 °C 10,1 °C 47 % 1029,9 hPa 0,0 mm 0,5 km/h (0 Bft) O-NO 58 ° 0 min 0,000 mm 1,0 UV-I 142 W/m² -0,7 °C 10,1 °C 1,6 km/h (1 Bft)
16.02.2017 15:32 10,1 °C 10,1 °C 48 % 1029,9 hPa 0,0 mm 2,1 km/h (1 Bft) O 86 ° 0 min 0,000 mm 0,9 UV-I 135 W/m² -0,4 °C 10,1 °C 3,2 km/h (1 Bft)
16.02.2017 15:33 10,1 °C 10,1 °C 47 % 1029,9 hPa 0,0 mm 5,4 km/h (1 Bft) NO 36 ° 0 min 0,000 mm 0,9 UV-I 141 W/m² -0,7 °C 10,1 °C 8,0 km/h (2 Bft)
16.02.2017 15:34 10,1 °C 10,1 °C 48 % 1029,9 hPa 0,0 mm 4,9 km/h (1 Bft) NO 55 ° 0 min 0,000 mm 0,9 UV-I 162 W/m² -0,4 °C 10,1 °C 8,0 km/h (2 Bft)
16.02.2017 15:35 10,1 °C 10,1 °C 48 % 1029,9 hPa 0,0 mm 0,8 km/h (0 Bft) NO 55 ° 0 min 0,000 mm 0,9 UV-I 169 W/m² -0,4 °C 10,1 °C 1,6 km/h (1 Bft)
16.02.2017 15:36 10,1 °C 10,1 °C 47 % 1029,8 hPa 0,0 mm 2,3 km/h (1 Bft) NO 55 ° 0 min 0,000 mm 0,9 UV-I 167 W/m² -0,7 °C 10,1 °C 4,8 km/h (1 Bft)
16.02.2017 15:37 10,1 °C 10,1 °C 48 % 1029,8 hPa 0,0 mm 3,1 km/h (1 Bft) O 84 ° 0 min 0,000 mm 0,9 UV-I 169 W/m² -0,4 °C 10,1 °C 6,4 km/h (2 Bft)
16.02.2017 15:38 10,2 °C 10,2 °C 47 % 1029,8 hPa 0,0 mm 3,5 km/h (1 Bft) NO 55 ° 1 min 0,000 mm 0,9 UV-I 204 W/m² -0,6 °C 10,2 °C 4,8 km/h (1 Bft)
16.02.2017 15:39 10,1 °C 10,2 °C 48 % 1029,8 hPa 0,0 mm 2,9 km/h (1 Bft) NO 48 ° 1 min 0,000 mm 0,9 UV-I 206 W/m² -0,4 °C 10,1 °C 4,8 km/h (1 Bft)
16.02.2017 15:40 10,1 °C 10,1 °C 48 % 1029,8 hPa 0,0 mm 1,6 km/h (1 Bft) NO 48 ° 1 min 0,000 mm 0,9 UV-I 211 W/m² -0,4 °C 10,1 °C 3,2 km/h (1 Bft)
16.02.2017 15:41 9,9 °C 10,1 °C 49 % 1029,8 hPa 0,0 mm 2,3 km/h (1 Bft) NO 53 ° 1 min 0,000 mm 0,9 UV-I 227 W/m² -0,3 °C 9,9 °C 4,8 km/h (1 Bft)
16.02.2017 15:42 9,9 °C 9,9 °C 48 % 1029,8 hPa 0,0 mm 2,6 km/h (1 Bft) NO 53 ° 1 min 0,000 mm 0,9 UV-I 225 W/m² -0,6 °C 9,9 °C 4,8 km/h (1 Bft)
16.02.2017 15:43 10,1 °C 10,1 °C 48 % 1029,9 hPa 0,0 mm 3,1 km/h (1 Bft) O 79 ° 0 min 0,000 mm 0,9 UV-I 186 W/m² -0,4 °C 10,1 °C 6,4 km/h (2 Bft)
16.02.2017 15:44 10,2 °C 10,2 °C 48 % 1029,9 hPa 0,0 mm 4,2 km/h (1 Bft) NO 38 ° 0 min 0,000 mm 0,8 UV-I 162 W/m² -0,3 °C 10,2 °C 4,8 km/h (1 Bft)
16.02.2017 15:45 10,2 °C 10,2 °C 48 % 1029,8 hPa 0,0 mm 3,1 km/h (1 Bft) O-NO 57 ° 0 min 0,000 mm 0,8 UV-I 148 W/m² -0,3 °C 10,2 °C 4,8 km/h (1 Bft)
16.02.2017 15:46 10,2 °C 10,2 °C 48 % 1029,8 hPa 0,0 mm 1,7 km/h (1 Bft) O-NO 57 ° 0 min 0,000 mm 0,8 UV-I 142 W/m² -0,3 °C 10,2 °C 3,2 km/h (1 Bft)
16.02.2017 15:47 10,1 °C 10,2 °C 48 % 1029,8 hPa 0,0 mm 0,9 km/h (0 Bft) O-NO 57 ° 0 min 0,000 mm 0,8 UV-I 151 W/m² -0,4 °C 10,1 °C 3,2 km/h (1 Bft)
16.02.2017 15:48 10,1 °C 10,1 °C 48 % 1029,8 hPa 0,0 mm 1,6 km/h (1 Bft) O-NO 57 ° 0 min 0,000 mm 0,8 UV-I 132 W/m² -0,4 °C 10,1 °C 3,2 km/h (1 Bft)
16.02.2017 15:49 10,1 °C 10,1 °C 48 % 1029,8 hPa 0,0 mm 2,7 km/h (1 Bft) O-NO 57 ° 0 min 0,000 mm 0,8 UV-I 105 W/m² -0,4 °C 10,1 °C 4,8 km/h (1 Bft)
16.02.2017 15:50 10,2 °C 10,2 °C 48 % 1029,8 hPa 0,0 mm 2,8 km/h (1 Bft) O-SO 121 ° 0 min 0,000 mm 0,8 UV-I 88 W/m² -0,3 °C 10,2 °C 4,8 km/h (1 Bft)
16.02.2017 15:51 10,1 °C 10,2 °C 48 % 1029,8 hPa 0,0 mm 2,3 km/h (1 Bft) O 100 ° 0 min 0,000 mm 0,7 UV-I 84 W/m² -0,4 °C 10,1 °C 3,2 km/h (1 Bft)
16.02.2017 15:52 9,9 °C 10,1 °C 48 % 1029,8 hPa 0,0 mm 1,6 km/h (1 Bft) O 100 ° 0 min 0,000 mm 0,7 UV-I 81 W/m² -0,6 °C 9,9 °C 3,2 km/h (1 Bft)
16.02.2017 15:53 9,9 °C 9,9 °C 48 % 1029,8 hPa 0,0 mm 1,7 km/h (1 Bft) O 100 ° 0 min 0,000 mm 0,7 UV-I 58 W/m² -0,6 °C 9,9 °C 3,2 km/h (1 Bft)
16.02.2017 15:54 9,9 °C 9,9 °C 48 % 1029,7 hPa 0,0 mm 2,6 km/h (1 Bft) NO 46 ° 0 min 0,000 mm 0,0 UV-I 37 W/m² -0,6 °C 9,9 °C 4,8 km/h (1 Bft)
16.02.2017 15:55 9,9 °C 9,9 °C 48 % 1029,7 hPa 0,0 mm 2,1 km/h (1 Bft) NO 47 ° 0 min 0,000 mm 0,0 UV-I 35 W/m² -0,6 °C 9,9 °C 3,2 km/h (1 Bft)
16.02.2017 15:56 9,9 °C 9,9 °C 48 % 1029,8 hPa 0,0 mm 3,0 km/h (1 Bft) NO 41 ° 0 min 0,000 mm 0,0 UV-I 40 W/m² -0,6 °C 9,9 °C 4,8 km/h (1 Bft)
16.02.2017 15:57 9,9 °C 9,9 °C 48 % 1029,7 hPa 0,0 mm 4,3 km/h (1 Bft) O 81 ° 0 min 0,000 mm 0,0 UV-I 46 W/m² -0,6 °C 9,9 °C 4,8 km/h (1 Bft)
16.02.2017 15:58 10,0 °C 10,0 °C 48 % 1029,7 hPa 0,0 mm 4,4 km/h (1 Bft) O-NO 57 ° 0 min 0,000 mm 0,0 UV-I 46 W/m² -0,5 °C 10,0 °C 9,7 km/h (2 Bft)
16.02.2017 15:59 10,0 °C 10,0 °C 48 % 1029,7 hPa 0,0 mm 2,3 km/h (1 Bft) O-NO 57 ° 0 min 0,000 mm 0,0 UV-I 42 W/m² -0,5 °C 10,0 °C 3,2 km/h (1 Bft)
16.02.2017 16:00 9,9 °C 10,0 °C 48 % 1029,8 hPa 0,0 mm 1,7 km/h (1 Bft) N-NO 19 ° 0 min 0,000 mm 0,0 UV-I 42 W/m² -0,6 °C 9,9 °C 4,8 km/h (1 Bft)
16.02.2017 16:01 10,0 °C 10,0 °C 48 % 1029,7 hPa 0,0 mm 0,2 km/h (0 Bft) N-NO 19 ° 0 min 0,127 mm 0,0 UV-I 46 W/m² -0,5 °C 10,0 °C 1,6 km/h (1 Bft)
16.02.2017 16:02 10,0 °C 10,0 °C 48 % 1029,7 hPa 0,0 mm 0,9 km/h (0 Bft) N-NO 19 ° 0 min 0,000 mm 0,6 UV-I 56 W/m² -0,5 °C 10,0 °C 3,2 km/h (1 Bft)
16.02.2017 16:03 9,9 °C 10,0 °C 48 % 1029,7 hPa 0,0 mm 0,8 km/h (0 Bft) N-NO 19 ° 0 min 0,000 mm 0,6 UV-I 58 W/m² -0,6 °C 9,9 °C 1,6 km/h (1 Bft)
16.02.2017 16:04 9,9 °C 9,9 °C 48 % 1029,8 hPa 0,0 mm 0,9 km/h (0 Bft) NO 44 ° 0 min 0,000 mm 0,0 UV-I 39 W/m² -0,6 °C 9,9 °C 3,2 km/h (1 Bft)
16.02.2017 16:05 9,8 °C 9,9 °C 48 % 1029,7 hPa 0,0 mm 3,2 km/h (1 Bft) N-NO 20 ° 0 min 0,000 mm 0,0 UV-I 30 W/m² -0,7 °C 9,8 °C 4,8 km/h (1 Bft)
16.02.2017 16:06 9,8 °C 9,9 °C 49 % 1029,7 hPa 0,0 mm 2,3 km/h (1 Bft) N-NO 20 ° 0 min 0,000 mm 0,0 UV-I 28 W/m² -0,4 °C 9,8 °C 3,2 km/h (1 Bft)
16.02.2017 16:07 9,8 °C 9,8 °C 49 % 1029,7 hPa 0,0 mm 2,1 km/h (1 Bft) N-NO 22 ° 0 min 0,000 mm 0,0 UV-I 28 W/m² -0,4 °C 9,8 °C 3,2 km/h (1 Bft)
16.02.2017 16:08 9,7 °C 9,8 °C 49 % 1029,7 hPa 0,0 mm 4,2 km/h (1 Bft) NO 40 ° 0 min 0,000 mm 0,0 UV-I 26 W/m² -0,5 °C 9,7 °C 6,4 km/h (2 Bft)
16.02.2017 16:09 9,6 °C 9,7 °C 50 % 1029,8 hPa 0,0 mm 2,7 km/h (1 Bft) NO 40 ° 0 min 0,000 mm 0,0 UV-I 26 W/m² -0,3 °C 9,6 °C 4,8 km/h (1 Bft)
16.02.2017 16:10 9,7 °C 9,7 °C 49 % 1029,8 hPa 0,0 mm 0,7 km/h (0 Bft) NO 40 ° 0 min 0,000 mm 0,0 UV-I 26 W/m² -0,5 °C 9,7 °C 1,6 km/h (1 Bft)
16.02.2017 16:11 9,7 °C 9,7 °C 49 % 1029,7 hPa 0,0 mm 2,0 km/h (1 Bft) NO 40 ° 0 min 0,000 mm 0,0 UV-I 26 W/m² -0,5 °C 9,7 °C 3,2 km/h (1 Bft)
16.02.2017 16:12 9,7 °C 9,7 °C 49 % 1029,8 hPa 0,0 mm 1,5 km/h (1 Bft) NO 40 ° 0 min 0,000 mm 0,0 UV-I 26 W/m² -0,5 °C 9,7 °C 3,2 km/h (1 Bft)
16.02.2017 16:13 9,6 °C 9,7 °C 49 % 1029,8 hPa 0,0 mm 0,7 km/h (0 Bft) NO 40 ° 0 min 0,000 mm 0,0 UV-I 26 W/m² -0,6 °C 9,6 °C 1,6 km/h (1 Bft)
16.02.2017 16:14 9,5 °C 9,6 °C 49 % 1029,8 hPa 0,0 mm 2,3 km/h (1 Bft) NO 40 ° 0 min 0,000 mm 0,0 UV-I 26 W/m² -0,7 °C 9,5 °C 4,8 km/h (1 Bft)
16.02.2017 16:15 9,6 °C 9,6 °C 49 % 1029,7 hPa 0,0 mm 1,3 km/h (1 Bft) NO 40 ° 0 min 0,000 mm 0,0 UV-I 26 W/m² -0,6 °C 9,6 °C 3,2 km/h (1 Bft)
16.02.2017 16:16 9,6 °C 9,6 °C 49 % 1029,8 hPa 0,0 mm 0,3 km/h (0 Bft) NO 40 ° 0 min 0,000 mm 0,0 UV-I 26 W/m² -0,6 °C 9,6 °C 1,6 km/h (1 Bft)
16.02.2017 16:17 9,6 °C 9,6 °C 49 % 1029,8 hPa 0,0 mm 1,0 km/h (0 Bft) NO 40 ° 0 min 0,000 mm 0,0 UV-I 26 W/m² -0,6 °C 9,6 °C 1,6 km/h (1 Bft)
16.02.2017 16:18 9,5 °C 9,6 °C 49 % 1029,8 hPa 0,0 mm 1,1 km/h (1 Bft) NO 40 ° 0 min 0,000 mm 0,0 UV-I 26 W/m² -0,7 °C 9,5 °C 1,6 km/h (1 Bft)
16.02.2017 16:19 9,6 °C 9,6 °C 49 % 1029,8 hPa 0,0 mm 1,1 km/h (1 Bft) NO 40 ° 0 min 0,000 mm 0,0 UV-I 26 W/m² -0,6 °C 9,6 °C 1,6 km/h (1 Bft)
16.02.2017 16:20 9,6 °C 9,6 °C 49 % 1029,7 hPa 0,0 mm 0,1 km/h (0 Bft) NO 40 ° 0 min 0,000 mm 0,0 UV-I 26 W/m² -0,6 °C 9,6 °C 1,6 km/h (1 Bft)
16.02.2017 16:21 9,6 °C 9,6 °C 49 % 1029,8 hPa 0,0 mm 0,2 km/h (0 Bft) NO 40 ° 0 min 0,000 mm 0,0 UV-I 26 W/m² -0,6 °C 9,6 °C 1,6 km/h (1 Bft)
16.02.2017 16:22 9,6 °C 9,6 °C 48 % 1029,7 hPa 0,0 mm 0,1 km/h (0 Bft) NO 40 ° 0 min 0,000 mm 0,0 UV-I 26 W/m² -0,9 °C 9,6 °C 1,6 km/h (1 Bft)
16.02.2017 16:23 9,4 °C 9,6 °C 50 % 1029,8 hPa 0,0 mm 0,9 km/h (0 Bft) NO 40 ° 0 min 0,000 mm 0,0 UV-I 25 W/m² -0,5 °C 9,4 °C 3,2 km/h (1 Bft)
16.02.2017 16:24 9,3 °C 9,4 °C 50 % 1029,7 hPa 0,0 mm 0,5 km/h (0 Bft) NO 40 ° 0 min 0,000 mm 0,0 UV-I 25 W/m² -0,6 °C 9,3 °C 3,2 km/h (1 Bft)
16.02.2017 16:25 9,3 °C 9,3 °C 49 % 1029,8 hPa 0,0 mm 1,5 km/h (1 Bft) NO 40 ° 0 min 0,000 mm 0,0 UV-I 25 W/m² -0,9 °C 9,3 °C 3,2 km/h (1 Bft)
16.02.2017 16:26 9,4 °C 9,4 °C 49 % 1029,8 hPa 0,0 mm 1,1 km/h (1 Bft) NO 40 ° 0 min 0,000 mm 0,0 UV-I 25 W/m² -0,8 °C 9,4 °C 3,2 km/h (1 Bft)
16.02.2017 16:27 9,6 °C 9,6 °C 49 % 1029,8 hPa 0,0 mm 1,0 km/h (0 Bft) NO 40 ° 0 min 0,000 mm 0,0 UV-I 25 W/m² -0,6 °C 9,6 °C 3,2 km/h (1 Bft)
16.02.2017 16:28 9,6 °C 9,6 °C 49 % 1029,7 hPa 0,0 mm 0,8 km/h (0 Bft) NO 40 ° 0 min 0,000 mm 0,0 UV-I 25 W/m² -0,6 °C 9,6 °C 1,6 km/h (1 Bft)
16.02.2017 16:29 9,6 °C 9,6 °C 49 % 1029,8 hPa 0,0 mm 0,7 km/h (0 Bft) NO 40 ° 0 min 0,000 mm 0,0 UV-I 25 W/m² -0,6 °C 9,6 °C 1,6 km/h (1 Bft)
16.02.2017 16:30 9,6 °C 9,6 °C 48 % 1029,8 hPa 0,0 mm 0,7 km/h (0 Bft) NO 40 ° 0 min 0,000 mm 0,0 UV-I 25 W/m² -0,9 °C 9,6 °C 1,6 km/h (1 Bft)
16.02.2017 16:31 9,7 °C 9,7 °C 48 % 1029,8 hPa 0,0 mm 1,9 km/h (1 Bft) NO 40 ° 0 min 0,000 mm 0,0 UV-I 25 W/m² -0,8 °C 9,7 °C 3,2 km/h (1 Bft)
16.02.2017 16:32 9,7 °C 9,7 °C 48 % 1029,8 hPa 0,0 mm 1,4 km/h (1 Bft) NO 40 ° 0 min 0,000 mm 0,0 UV-I 25 W/m² -0,8 °C 9,7 °C 3,2 km/h (1 Bft)
16.02.2017 16:33 9,8 °C 9,8 °C 48 % 1029,8 hPa 0,0 mm 0,9 km/h (0 Bft) NO 40 ° 0 min 0,000 mm 0,0 UV-I 25 W/m² -0,7 °C 9,8 °C 1,6 km/h (1 Bft)
16.02.2017 16:34 9,8 °C 9,8 °C 48 % 1029,8 hPa 0,0 mm 0,5 km/h (0 Bft) NO 40 ° 0 min 0,000 mm 0,0 UV-I 23 W/m² -0,7 °C 9,8 °C 1,6 km/h (1 Bft)
16.02.2017 16:35 9,8 °C 9,8 °C 48 % 1029,8 hPa 0,0 mm 0,8 km/h (0 Bft) NO 40 ° 0 min 0,000 mm 0,0 UV-I 23 W/m² -0,7 °C 9,8 °C 1,6 km/h (1 Bft)
16.02.2017 16:36 9,9 °C 9,9 °C 48 % 1029,8 hPa 0,0 mm 0,9 km/h (0 Bft) NO 40 ° 0 min 0,000 mm 0,0 UV-I 23 W/m² -0,6 °C 9,9 °C 1,6 km/h (1 Bft)
16.02.2017 16:37 9,9 °C 9,9 °C 48 % 1029,8 hPa 0,0 mm 0,7 km/h (0 Bft) NO 40 ° 0 min 0,000 mm 0,0 UV-I 21 W/m² -0,6 °C 9,9 °C 1,6 km/h (1 Bft)
16.02.2017 16:38 9,9 °C 9,9 °C 47 % 1029,8 hPa 0,0 mm 1,1 km/h (1 Bft) NO 40 ° 0 min 0,000 mm 0,0 UV-I 21 W/m² -0,9 °C 9,9 °C 1,6 km/h (1 Bft)
16.02.2017 16:39 9,8 °C 9,9 °C 48 % 1029,8 hPa 0,0 mm 1,5 km/h (1 Bft) NO 40 ° 0 min 0,000 mm 0,0 UV-I 21 W/m² -0,7 °C 9,8 °C 1,6 km/h (1 Bft)
16.02.2017 16:40 9,8 °C 9,8 °C 48 % 1029,8 hPa 0,0 mm 0,7 km/h (0 Bft) NO 40 ° 0 min 0,000 mm 0,0 UV-I 19 W/m² -0,7 °C 9,8 °C 1,6 km/h (1 Bft)
16.02.2017 16:41 9,8 °C 9,8 °C 49 % 1029,8 hPa 0,0 mm 1,1 km/h (1 Bft) NO 40 ° 0 min 0,000 mm 0,0 UV-I 18 W/m² -0,4 °C 9,8 °C 1,6 km/h (1 Bft)
16.02.2017 16:42 9,8 °C 9,8 °C 49 % 1029,9 hPa 0,0 mm 1,6 km/h (1 Bft) NO 40 ° 0 min 0,000 mm 0,0 UV-I 18 W/m² -0,4 °C 9,8 °C 3,2 km/h (1 Bft)
16.02.2017 16:43 9,8 °C 9,8 °C 50 % 1029,8 hPa 0,0 mm 1,7 km/h (1 Bft) NO 40 ° 0 min 0,000 mm 0,0 UV-I 18 W/m² -0,1 °C 9,8 °C 3,2 km/h (1 Bft)
16.02.2017 16:44 9,8 °C 9,8 °C 49 % 1029,8 hPa 0,0 mm 0,5 km/h (0 Bft) NO 40 ° 0 min 0,000 mm 0,0 UV-I 16 W/m² -0,4 °C 9,8 °C 1,6 km/h (1 Bft)
16.02.2017 16:45 9,8 °C 9,8 °C 49 % 1029,8 hPa 0,0 mm 1,9 km/h (1 Bft) NO 40 ° 0 min 0,000 mm 0,0 UV-I 16 W/m² -0,4 °C 9,8 °C 3,2 km/h (1 Bft)
16.02.2017 16:46 9,8 °C 9,8 °C 49 % 1029,8 hPa 0,0 mm 1,9 km/h (1 Bft) NO 40 ° 0 min 0,000 mm 0,0 UV-I 16 W/m² -0,4 °C 9,8 °C 3,2 km/h (1 Bft)
16.02.2017 16:47 9,8 °C 9,8 °C 49 % 1029,8 hPa 0,0 mm 1,8 km/h (1 Bft) NO 40 ° 0 min 0,000 mm 0,0 UV-I 14 W/m² -0,4 °C 9,8 °C 3,2 km/h (1 Bft)
16.02.2017 16:48 9,7 °C 9,8 °C 49 % 1029,8 hPa 0,0 mm 2,1 km/h (1 Bft) NO 40 ° 0 min 0,000 mm 0,0 UV-I 14 W/m² -0,5 °C 9,7 °C 3,2 km/h (1 Bft)
16.02.2017 16:49 9,7 °C 9,7 °C 49 % 1029,8 hPa 0,0 mm 3,2 km/h (1 Bft) NO 40 ° 0 min 0,000 mm 0,0 UV-I 14 W/m² -0,5 °C 9,7 °C 3,2 km/h (1 Bft)
16.02.2017 16:50 9,6 °C 9,7 °C 49 % 1029,8 hPa 0,0 mm 2,9 km/h (1 Bft) NO 40 ° 0 min 0,000 mm 0,0 UV-I 14 W/m² -0,6 °C 9,6 °C 3,2 km/h (1 Bft)
16.02.2017 16:51 9,4 °C 9,6 °C 50 % 1029,9 hPa 0,0 mm 3,1 km/h (1 Bft) NO 40 ° 0 min 0,000 mm 0,0 UV-I 14 W/m² -0,5 °C 9,4 °C 4,8 km/h (1 Bft)
16.02.2017 16:52 9,4 °C 9,4 °C 50 % 1029,8 hPa 0,0 mm 2,2 km/h (1 Bft) NO 40 ° 0 min 0,000 mm 0,0 UV-I 14 W/m² -0,5 °C 9,4 °C 3,2 km/h (1 Bft)
16.02.2017 16:53 9,3 °C 9,4 °C 50 % 1029,9 hPa 0,0 mm 2,9 km/h (1 Bft) NO 40 ° 0 min 0,000 mm 0,0 UV-I 14 W/m² -0,6 °C 9,3 °C 3,2 km/h (1 Bft)
16.02.2017 16:54 9,2 °C 9,3 °C 51 % 1029,8 hPa 0,0 mm 3,1 km/h (1 Bft) NO 41 ° 0 min 0,000 mm 0,0 UV-I 12 W/m² -0,4 °C 9,2 °C 3,2 km/h (1 Bft)
16.02.2017 16:55 9,1 °C 9,2 °C 51 % 1029,9 hPa 0,0 mm 3,3 km/h (1 Bft) O 98 ° 0 min 0,000 mm 0,0 UV-I 12 W/m² -0,5 °C 9,1 °C 4,8 km/h (1 Bft)
16.02.2017 16:56 9,1 °C 9,1 °C 51 % 1029,9 hPa 0,0 mm 2,9 km/h (1 Bft) O 98 ° 0 min 0,000 mm 0,0 UV-I 12 W/m² -0,5 °C 9,1 °C 4,8 km/h (1 Bft)
16.02.2017 16:57 9,1 °C 9,1 °C 51 % 1029,9 hPa 0,0 mm 2,8 km/h (1 Bft) O 98 ° 0 min 0,000 mm 0,0 UV-I 12 W/m² -0,5 °C 9,1 °C 4,8 km/h (1 Bft)
16.02.2017 16:58 9,0 °C 9,1 °C 51 % 1029,9 hPa 0,0 mm 1,7 km/h (1 Bft) O 98 ° 0 min 0,000 mm 0,0 UV-I 12 W/m² -0,6 °C 9,0 °C 3,2 km/h (1 Bft)
16.02.2017 16:59 9,0 °C 9,0 °C 51 % 1029,9 hPa 0,0 mm 1,4 km/h (1 Bft) SO 132 ° 0 min 0,000 mm 0,0 UV-I 12 W/m² -0,6 °C 9,0 °C 3,2 km/h (1 Bft)
16.02.2017 17:00 8,9 °C 9,0 °C 51 % 1029,9 hPa 0,0 mm 1,2 km/h (1 Bft) SO 132 ° 0 min 0,000 mm 0,0 UV-I 12 W/m² -0,7 °C 8,9 °C 1,6 km/h (1 Bft)
16.02.2017 17:01 8,9 °C 8,9 °C 51 % 1029,9 hPa 0,0 mm 1,8 km/h (1 Bft) SO 132 ° 0 min 0,025 mm 0,0 UV-I 12 W/m² -0,7 °C 8,9 °C 3,2 km/h (1 Bft)
16.02.2017 17:02 8,8 °C 8,9 °C 52 % 1029,9 hPa 0,0 mm 1,6 km/h (1 Bft) SO 133 ° 0 min 0,000 mm 0,0 UV-I 12 W/m² -0,5 °C 8,8 °C 3,2 km/h (1 Bft)
16.02.2017 17:03 8,7 °C 8,8 °C 52 % 1029,9 hPa 0,0 mm 0,9 km/h (0 Bft) SO 133 ° 0 min 0,000 mm 0,0 UV-I 12 W/m² -0,6 °C 8,7 °C 3,2 km/h (1 Bft)
16.02.2017 17:04 8,7 °C 8,8 °C 52 % 1029,9 hPa 0,0 mm 0,6 km/h (0 Bft) SO 133 ° 0 min 0,000 mm 0,0 UV-I 12 W/m² -0,6 °C 8,7 °C 1,6 km/h (1 Bft)
16.02.2017 17:05 8,6 °C 8,7 °C 53 % 1029,9 hPa 0,0 mm 0,0 km/h (0 Bft) SO 133 ° 0 min 0,000 mm 0,0 UV-I 14 W/m² -0,4 °C 8,6 °C 0,0 km/h (0 Bft)
16.02.2017 17:06 8,4 °C 8,6 °C 53 % 1030,0 hPa 0,0 mm 0,6 km/h (0 Bft) SO 133 ° 0 min 0,000 mm 0,0 UV-I 14 W/m² -0,6 °C 8,4 °C 1,6 km/h (1 Bft)
16.02.2017 17:07 8,3 °C 8,4 °C 54 % 1030,0 hPa 0,0 mm 1,0 km/h (0 Bft) SO 133 ° 0 min 0,000 mm 0,0 UV-I 14 W/m² -0,5 °C 8,3 °C 1,6 km/h (1 Bft)
16.02.2017 17:08 8,2 °C 8,3 °C 54 % 1030,0 hPa 0,0 mm 1,1 km/h (1 Bft) SO 138 ° 0 min 0,000 mm 0,0 UV-I 14 W/m² -0,5 °C 8,2 °C 1,6 km/h (1 Bft)
16.02.2017 17:09 8,2 °C 8,2 °C 54 % 1030,0 hPa 0,0 mm 0,5 km/h (0 Bft) SO 138 ° 0 min 0,000 mm 0,0 UV-I 14 W/m² -0,5 °C 8,2 °C 1,6 km/h (1 Bft)
16.02.2017 17:10 8,1 °C 8,2 °C 54 % 1030,0 hPa 0,0 mm 0,4 km/h (0 Bft) SO 138 ° 0 min 0,000 mm 0,0 UV-I 14 W/m² -0,6 °C 8,1 °C 1,6 km/h (1 Bft)
16.02.2017 17:11 8,1 °C 8,1 °C 55 % 1030,0 hPa 0,0 mm 0,6 km/h (0 Bft) SO 138 ° 0 min 0,000 mm 0,0 UV-I 14 W/m² -0,4 °C 8,1 °C 1,6 km/h (1 Bft)
16.02.2017 17:12 8,1 °C 8,1 °C 54 % 1029,9 hPa 0,0 mm 0,1 km/h (0 Bft) SO 138 ° 0 min 0,000 mm 0,0 UV-I 14 W/m² -0,6 °C 8,1 °C 1,6 km/h (1 Bft)
16.02.2017 17:13 8,1 °C 8,1 °C 54 % 1029,9 hPa 0,0 mm 0,0 km/h (0 Bft) SO 138 ° 0 min 0,000 mm 0,0 UV-I 14 W/m² -0,6 °C 8,1 °C 0,0 km/h (0 Bft)
16.02.2017 17:14 8,1 °C 8,1 °C 55 % 1029,9 hPa 0,0 mm 0,5 km/h (0 Bft) SO 138 ° 0 min 0,000 mm 0,0 UV-I 14 W/m² -0,4 °C 8,1 °C 1,6 km/h (1 Bft)
16.02.2017 17:15 8,1 °C 8,1 °C 55 % 1029,9 hPa 0,0 mm 1,0 km/h (0 Bft) SO 138 ° 0 min 0,000 mm 0,0 UV-I 14 W/m² -0,4 °C 8,1 °C 1,6 km/h (1 Bft)
16.02.2017 17:16 8,1 °C 8,1 °C 55 % 1030,0 hPa 0,0 mm 0,5 km/h (0 Bft) SO 138 ° 0 min 0,000 mm 0,0 UV-I 12 W/m² -0,4 °C 8,1 °C 1,6 km/h (1 Bft)
16.02.2017 17:17 8,1 °C 8,1 °C 55 % 1029,9 hPa 0,0 mm 0,3 km/h (0 Bft) SO 138 ° 0 min 0,000 mm 0,0 UV-I 12 W/m² -0,4 °C 8,1 °C 1,6 km/h (1 Bft)
16.02.2017 17:18 8,1 °C 8,1 °C 54 % 1029,9 hPa 0,0 mm 0,6 km/h (0 Bft) SO 138 ° 0 min 0,000 mm 0,0 UV-I 12 W/m² -0,6 °C 8,1 °C 1,6 km/h (1 Bft)
16.02.2017 17:19 8,1 °C 8,1 °C 55 % 1029,9 hPa 0,0 mm 0,7 km/h (0 Bft) SO 138 ° 0 min 0,000 mm 0,0 UV-I 12 W/m² -0,4 °C 8,1 °C 1,6 km/h (1 Bft)
16.02.2017 17:20 8,1 °C 8,1 °C 55 % 1030,0 hPa 0,0 mm 0,8 km/h (0 Bft) SO 138 ° 0 min 0,000 mm 0,0 UV-I 12 W/m² -0,4 °C 8,1 °C 1,6 km/h (1 Bft)
16.02.2017 17:21 7,9 °C 8,1 °C 56 % 1030,0 hPa 0,0 mm 0,1 km/h (0 Bft) SO 138 ° 0 min 0,000 mm 0,0 UV-I 12 W/m² -0,3 °C 7,9 °C 1,6 km/h (1 Bft)
16.02.2017 17:22 7,5 °C 7,9 °C 57 % 1030,0 hPa 0,0 mm 0,1 km/h (0 Bft) SO 138 ° 0 min 0,000 mm 0,0 UV-I 11 W/m² -0,5 °C 7,5 °C 1,6 km/h (1 Bft)
16.02.2017 17:23 6,9 °C 7,5 °C 59 % 1029,9 hPa 0,0 mm 0,0 km/h (0 Bft) SO 138 ° 0 min 0,000 mm 0,0 UV-I 11 W/m² -0,5 °C 6,9 °C 0,0 km/h (0 Bft)
16.02.2017 17:24 6,4 °C 6,9 °C 61 % 1029,9 hPa 0,0 mm 0,0 km/h (0 Bft) SO 138 ° 0 min 0,000 mm 0,0 UV-I 11 W/m² -0,6 °C 6,4 °C 0,0 km/h (0 Bft)
16.02.2017 17:25 6,3 °C 6,4 °C 61 % 1029,9 hPa 0,0 mm 0,0 km/h (0 Bft) SO 138 ° 0 min 0,000 mm 0,0 UV-I 9 W/m² -0,7 °C 6,3 °C 0,0 km/h (0 Bft)
16.02.2017 17:26 6,3 °C 6,3 °C 61 % 1030,0 hPa 0,0 mm 0,0 km/h (0 Bft) SO 138 ° 0 min 0,000 mm 0,0 UV-I 9 W/m² -0,7 °C 6,3 °C 0,0 km/h (0 Bft)
16.02.2017 17:27 6,3 °C 6,3 °C 62 % 1029,9 hPa 0,0 mm 0,0 km/h (0 Bft) SO 138 ° 0 min 0,000 mm 0,0 UV-I 9 W/m² -0,4 °C 6,3 °C 0,0 km/h (0 Bft)
16.02.2017 17:28 6,4 °C 6,4 °C 62 % 1030,0 hPa 0,0 mm 0,3 km/h (0 Bft) SO 138 ° 0 min 0,000 mm 0,0 UV-I 7 W/m² -0,3 °C 6,4 °C 1,6 km/h (1 Bft)
16.02.2017 17:29 6,4 °C 6,4 °C 61 % 1029,9 hPa 0,0 mm 1,3 km/h (1 Bft) SO 138 ° 0 min 0,000 mm 0,0 UV-I 7 W/m² -0,6 °C 6,4 °C 3,2 km/h (1 Bft)
16.02.2017 17:30 6,5 °C 6,5 °C 61 % 1029,9 hPa 0,0 mm 1,7 km/h (1 Bft) SO 138 ° 0 min 0,000 mm 0,0 UV-I 7 W/m² -0,5 °C 6,5 °C 3,2 km/h (1 Bft)
16.02.2017 17:31 6,6 °C 6,6 °C 61 % 1029,9 hPa 0,0 mm 1,3 km/h (1 Bft) SO 138 ° 0 min 0,000 mm 0,0 UV-I 7 W/m² -0,4 °C 6,6 °C 3,2 km/h (1 Bft)
16.02.2017 17:32 6,6 °C 6,6 °C 60 % 1029,9 hPa 0,0 mm 1,4 km/h (1 Bft) SO 138 ° 0 min 0,000 mm 0,0 UV-I 7 W/m² -0,6 °C 6,6 °C 1,6 km/h (1 Bft)
16.02.2017 17:33 6,7 °C 6,7 °C 60 % 1029,9 hPa 0,0 mm 0,8 km/h (0 Bft) SO 138 ° 0 min 0,000 mm 0,0 UV-I 7 W/m² -0,5 °C 6,7 °C 3,2 km/h (1 Bft)
16.02.2017 17:34 6,7 °C 6,7 °C 60 % 1030,0 hPa 0,0 mm 1,0 km/h (0 Bft) SO 138 ° 0 min 0,000 mm 0,0 UV-I 5 W/m² -0,5 °C 6,7 °C 3,2 km/h (1 Bft)
16.02.2017 17:35 6,7 °C 6,7 °C 60 % 1030,0 hPa 0,0 mm 0,7 km/h (0 Bft) SO 138 ° 0 min 0,000 mm 0,0 UV-I 5 W/m² -0,5 °C 6,7 °C 1,6 km/h (1 Bft)
16.02.2017 17:36 6,7 °C 6,7 °C 60 % 1030,0 hPa 0,0 mm 1,0 km/h (0 Bft) SO 138 ° 0 min 0,000 mm 0,0 UV-I 5 W/m² -0,5 °C 6,7 °C 3,2 km/h (1 Bft)
16.02.2017 17:37 6,6 °C 6,7 °C 60 % 1030,0 hPa 0,0 mm 2,1 km/h (1 Bft) SO 138 ° 0 min 0,000 mm 0,0 UV-I 5 W/m² -0,6 °C 6,6 °C 3,2 km/h (1 Bft)
16.02.2017 17:38 6,6 °C 6,7 °C 60 % 1030,0 hPa 0,0 mm 1,7 km/h (1 Bft) SO 138 ° 0 min 0,000 mm 0,0 UV-I 5 W/m² -0,6 °C 6,6 °C 3,2 km/h (1 Bft)
16.02.2017 17:39 6,6 °C 6,6 °C 60 % 1030,0 hPa 0,0 mm 2,1 km/h (1 Bft) SO 138 ° 0 min 0,000 mm 0,0 UV-I 5 W/m² -0,6 °C 6,6 °C 3,2 km/h (1 Bft)
16.02.2017 17:40 6,5 °C 6,6 °C 61 % 1030,0 hPa 0,0 mm 2,4 km/h (1 Bft) SO 138 ° 0 min 0,000 mm 0,0 UV-I 0 W/m² -0,5 °C 6,5 °C 3,2 km/h (1 Bft)
16.02.2017 17:41 6,4 °C 6,5 °C 61 % 1030,0 hPa 0,0 mm 1,8 km/h (1 Bft) SO 138 ° 0 min 0,000 mm 0,0 UV-I 0 W/m² -0,6 °C 6,4 °C 3,2 km/h (1 Bft)
16.02.2017 17:42 6,3 °C 6,4 °C 61 % 1030,0 hPa 0,0 mm 2,4 km/h (1 Bft) SO 138 ° 0 min 0,000 mm 0,0 UV-I 0 W/m² -0,7 °C 6,3 °C 3,2 km/h (1 Bft)
16.02.2017 17:43 6,2 °C 6,3 °C 62 % 1030,0 hPa 0,0 mm 3,0 km/h (1 Bft) S-SO 151 ° 0 min 0,000 mm 0,0 UV-I 0 W/m² -0,5 °C 6,2 °C 4,8 km/h (1 Bft)
16.02.2017 17:44 6,1 °C 6,2 °C 62 % 1030,0 hPa 0,0 mm 3,1 km/h (1 Bft) S-SO 151 ° 0 min 0,000 mm 0,0 UV-I 0 W/m² -0,6 °C 6,1 °C 4,8 km/h (1 Bft)
16.02.2017 17:45 6,0 °C 6,1 °C 62 % 1030,0 hPa 0,0 mm 2,1 km/h (1 Bft) S-SO 151 ° 0 min 0,000 mm 0,0 UV-I 0 W/m² -0,7 °C 6,0 °C 3,2 km/h (1 Bft)
16.02.2017 17:46 5,9 °C 6,0 °C 62 % 1030,0 hPa 0,0 mm 2,5 km/h (1 Bft) S-SO 151 ° 0 min 0,000 mm 0,0 UV-I 0 W/m² -0,8 °C 5,9 °C 3,2 km/h (1 Bft)
16.02.2017 17:47 5,9 °C 6,0 °C 62 % 1030,0 hPa 0,0 mm 1,3 km/h (1 Bft) S-SO 151 ° 0 min 0,000 mm 0,0 UV-I 0 W/m² -0,8 °C 5,9 °C 3,2 km/h (1 Bft)
16.02.2017 17:48 6,0 °C 6,0 °C 62 % 1030,0 hPa 0,0 mm 2,2 km/h (1 Bft) S-SO 151 ° 0 min 0,000 mm 0,0 UV-I 0 W/m² -0,7 °C 6,0 °C 3,2 km/h (1 Bft)
16.02.2017 17:49 6,1 °C 6,1 °C 62 % 1030,0 hPa 0,0 mm 1,4 km/h (1 Bft) S-SO 151 ° 0 min 0,000 mm 0,0 UV-I 0 W/m² -0,6 °C 6,1 °C 3,2 km/h (1 Bft)
16.02.2017 17:50 6,1 °C 6,1 °C 62 % 1030,0 hPa 0,0 mm 2,2 km/h (1 Bft) S-SO 151 ° 0 min 0,000 mm 0,0 UV-I 0 W/m² -0,6 °C 6,1 °C 3,2 km/h (1 Bft)
16.02.2017 17:51 6,1 °C 6,1 °C 62 % 1030,0 hPa 0,0 mm 2,2 km/h (1 Bft) S-SO 151 ° 0 min 0,000 mm 0,0 UV-I 0 W/m² -0,6 °C 6,1 °C 3,2 km/h (1 Bft)
16.02.2017 17:52 6,1 °C 6,1 °C 62 % 1030,1 hPa 0,0 mm 2,6 km/h (1 Bft) S-SO 151 ° 0 min 0,000 mm 0,0 UV-I 0 W/m² -0,6 °C 6,1 °C 3,2 km/h (1 Bft)
16.02.2017 17:53 5,9 °C 6,1 °C 62 % 1030,1 hPa 0,0 mm 3,0 km/h (1 Bft) S-SO 167 ° 0 min 0,000 mm 0,0 UV-I 0 W/m² -0,8 °C 5,9 °C 8,0 km/h (2 Bft)
16.02.2017 17:54 5,9 °C 6,0 °C 62 % 1030,1 hPa 0,0 mm 3,9 km/h (1 Bft) S-SO 167 ° 0 min 0,000 mm 0,0 UV-I 0 W/m² -0,8 °C 5,9 °C 6,4 km/h (2 Bft)
16.02.2017 17:55 5,8 °C 5,9 °C 63 % 1030,1 hPa 0,0 mm 1,6 km/h (1 Bft) S-SO 167 ° 0 min 0,000 mm 0,0 UV-I 0 W/m² -0,7 °C 5,8 °C 4,8 km/h (1 Bft)
16.02.2017 17:56 5,8 °C 5,8 °C 63 % 1030,1 hPa 0,0 mm 2,4 km/h (1 Bft) S-SO 167 ° 0 min 0,000 mm 0,0 UV-I 0 W/m² -0,7 °C 5,8 °C 4,8 km/h (1 Bft)
16.02.2017 17:57 5,7 °C 5,8 °C 63 % 1030,1 hPa 0,0 mm 3,0 km/h (1 Bft) S-SO 167 ° 0 min 0,000 mm 0,0 UV-I 0 W/m² -0,8 °C 5,7 °C 4,8 km/h (1 Bft)
16.02.2017 17:58 5,6 °C 5,7 °C 63 % 1030,2 hPa 0,0 mm 4,6 km/h (1 Bft) S-SO 167 ° 0 min 0,000 mm 0,0 UV-I 0 W/m² -0,9 °C 4,9 °C 6,4 km/h (2 Bft)
16.02.2017 17:59 5,5 °C 5,6 °C 63 % 1030,1 hPa 0,0 mm 2,8 km/h (1 Bft) S-SO 167 ° 0 min 0,000 mm 0,0 UV-I 0 W/m² -1,0 °C 5,5 °C 4,8 km/h (1 Bft)
16.02.2017 18:00 5,4 °C 5,5 °C 64 % 1030,2 hPa 0,0 mm 2,7 km/h (1 Bft) S-SO 167 ° 0 min 0,000 mm 0,0 UV-I 0 W/m² -0,9 °C 5,4 °C 4,8 km/h (1 Bft)
16.02.2017 18:01 5,4 °C 5,4 °C 64 % 1030,2 hPa 0,0 mm 3,6 km/h (1 Bft) S-SO 167 ° 0 min 0,026 mm 0,0 UV-I 0 W/m² -0,9 °C 5,4 °C 6,4 km/h (2 Bft)
16.02.2017 18:02 5,4 °C 5,4 °C 64 % 1030,2 hPa 0,0 mm 3,1 km/h (1 Bft) S-SO 167 ° 0 min 0,000 mm 0,0 UV-I 0 W/m² -0,9 °C 5,4 °C 4,8 km/h (1 Bft)
16.02.2017 18:03 5,4 °C 5,4 °C 64 % 1030,2 hPa 0,0 mm 4,6 km/h (1 Bft) S-SO 167 ° 0 min 0,000 mm 0,0 UV-I 0 W/m² -0,9 °C 4,7 °C 4,8 km/h (1 Bft)
16.02.2017 18:04 5,3 °C 5,4 °C 64 % 1030,2 hPa 0,0 mm 3,3 km/h (1 Bft) S-SO 167 ° 0 min 0,000 mm 0,0 UV-I 0 W/m² -0,9 °C 5,3 °C 6,4 km/h (2 Bft)
16.02.2017 18:05 5,3 °C 5,3 °C 64 % 1030,2 hPa 0,0 mm 2,6 km/h (1 Bft) S-SO 167 ° 0 min 0,000 mm 0,0 UV-I 0 W/m² -0,9 °C 5,3 °C 6,4 km/h (2 Bft)
16.02.2017 18:06 5,3 °C 5,4 °C 64 % 1030,2 hPa 0,0 mm 1,9 km/h (1 Bft) S-SO 167 ° 0 min 0,000 mm 0,0 UV-I 0 W/m² -0,9 °C 5,3 °C 4,8 km/h (1 Bft)
16.02.2017 18:07 5,4 °C 5,4 °C 64 % 1030,2 hPa 0,0 mm 2,2 km/h (1 Bft) S-SO 167 ° 0 min 0,000 mm 0,0 UV-I 0 W/m² -0,9 °C 5,4 °C 4,8 km/h (1 Bft)
16.02.2017 18:08 5,5 °C 5,5 °C 64 % 1030,2 hPa 0,0 mm 2,5 km/h (1 Bft) S-SO 167 ° 0 min 0,000 mm 0,0 UV-I 0 W/m² -0,8 °C 5,5 °C 4,8 km/h (1 Bft)
16.02.2017 18:09 5,5 °C 5,6 °C 64 % 1030,2 hPa 0,0 mm 2,6 km/h (1 Bft) S-SO 167 ° 0 min 0,000 mm 0,0 UV-I 0 W/m² -0,8 °C 5,5 °C 4,8 km/h (1 Bft)
16.02.2017 18:10 5,6 °C 5,6 °C 64 % 1030,1 hPa 0,0 mm 3,5 km/h (1 Bft) S-SO 167 ° 0 min 0,000 mm 0,0 UV-I 0 W/m² -0,7 °C 5,6 °C 4,8 km/h (1 Bft)
16.02.2017 18:11 5,6 °C 5,6 °C 64 % 1030,1 hPa 0,0 mm 2,9 km/h (1 Bft) S-SO 167 ° 0 min 0,000 mm 0,0 UV-I 0 W/m² -0,7 °C 5,6 °C 6,4 km/h (2 Bft)
16.02.2017 18:12 5,6 °C 5,6 °C 63 % 1030,2 hPa 0,0 mm 2,4 km/h (1 Bft) S-SO 167 ° 0 min 0,000 mm 0,0 UV-I 0 W/m² -0,9 °C 5,6 °C 4,8 km/h (1 Bft)
16.02.2017 18:13 5,6 °C 5,6 °C 63 % 1030,2 hPa 0,0 mm 1,6 km/h (1 Bft) S-SO 167 ° 0 min 0,000 mm 0,0 UV-I 0 W/m² -0,9 °C 5,6 °C 4,8 km/h (1 Bft)
16.02.2017 18:14 5,6 °C 5,6 °C 64 % 1030,1 hPa 0,0 mm 3,0 km/h (1 Bft) S-SO 167 ° 0 min 0,000 mm 0,0 UV-I 0 W/m² -0,7 °C 5,6 °C 4,8 km/h (1 Bft)
16.02.2017 18:15 5,5 °C 5,6 °C 64 % 1030,2 hPa 0,0 mm 2,4 km/h (1 Bft) S-SO 167 ° 0 min 0,000 mm 0,0 UV-I 0 W/m² -0,8 °C 5,5 °C 4,8 km/h (1 Bft)
16.02.2017 18:16 5,4 °C 5,5 °C 64 % 1030,2 hPa 0,0 mm 2,5 km/h (1 Bft) S-SO 167 ° 0 min 0,000 mm 0,0 UV-I 0 W/m² -0,9 °C 5,4 °C 4,8 km/h (1 Bft)
16.02.2017 18:17 5,5 °C 5,5 °C 64 % 1030,2 hPa 0,0 mm 2,5 km/h (1 Bft) S-SO 167 ° 0 min 0,000 mm 0,0 UV-I 0 W/m² -0,8 °C 5,5 °C 4,8 km/h (1 Bft)
16.02.2017 18:18 5,4 °C 5,5 °C 64 % 1030,2 hPa 0,0 mm 2,1 km/h (1 Bft) S-SO 167 ° 0 min 0,000 mm 0,0 UV-I 0 W/m² -0,9 °C 5,4 °C 4,8 km/h (1 Bft)
16.02.2017 18:19 5,4 °C 5,4 °C 64 % 1030,2 hPa 0,0 mm 2,4 km/h (1 Bft) S-SO 167 ° 0 min 0,000 mm 0,0 UV-I 0 W/m² -0,9 °C 5,4 °C 4,8 km/h (1 Bft)
16.02.2017 18:20 5,4 °C 5,4 °C 64 % 1030,1 hPa 0,0 mm 2,7 km/h (1 Bft) S-SO 167 ° 0 min 0,000 mm 0,0 UV-I 0 W/m² -0,9 °C 5,4 °C 6,4 km/h (2 Bft)
16.02.2017 18:21 5,4 °C 5,4 °C 64 % 1030,1 hPa 0,0 mm 1,8 km/h (1 Bft) S-SO 167 ° 0 min 0,000 mm 0,0 UV-I 0 W/m² -0,9 °C 5,4 °C 4,8 km/h (1 Bft)
16.02.2017 18:22 5,4 °C 5,4 °C 64 % 1030,2 hPa 0,0 mm 1,9 km/h (1 Bft) S-SO 167 ° 0 min 0,000 mm 0,0 UV-I 0 W/m² -0,9 °C 5,4 °C 4,8 km/h (1 Bft)
16.02.2017 18:23 5,4 °C 5,4 °C 64 % 1030,2 hPa 0,0 mm 2,8 km/h (1 Bft) S-SO 167 ° 0 min 0,000 mm 0,0 UV-I 0 W/m² -0,9 °C 5,4 °C 4,8 km/h (1 Bft)
16.02.2017 18:24 5,4 °C 5,4 °C 64 % 1030,2 hPa 0,0 mm 2,5 km/h (1 Bft) S-SO 167 ° 0 min 0,000 mm 0,0 UV-I 0 W/m² -0,9 °C 5,4 °C 4,8 km/h (1 Bft)
16.02.2017 18:25 5,4 °C 5,4 °C 64 % 1030,2 hPa 0,0 mm 1,3 km/h (1 Bft) S-SO 167 ° 0 min 0,000 mm 0,0 UV-I 0 W/m² -0,9 °C 5,4 °C 4,8 km/h (1 Bft)
16.02.2017 18:26 5,4 °C 5,4 °C 64 % 1030,2 hPa 0,0 mm 0,7 km/h (0 Bft) S-SO 167 ° 0 min 0,000 mm 0,0 UV-I 0 W/m² -0,9 °C 5,4 °C 1,6 km/h (1 Bft)
16.02.2017 18:27 5,4 °C 5,4 °C 64 % 1030,2 hPa 0,0 mm 0,4 km/h (0 Bft) S-SO 167 ° 0 min 0,000 mm 0,0 UV-I 0 W/m² -0,9 °C 5,4 °C 1,6 km/h (1 Bft)
16.02.2017 18:28 5,3 °C 5,4 °C 64 % 1030,2 hPa 0,0 mm 0,1 km/h (0 Bft) S-SO 167 ° 0 min 0,000 mm 0,0 UV-I 0 W/m² -0,9 °C 5,3 °C 1,6 km/h (1 Bft)
16.02.2017 18:29 5,1 °C 5,3 °C 65 % 1030,2 hPa 0,0 mm 0,1 km/h (0 Bft) S-SO 167 ° 0 min 0,000 mm 0,0 UV-I 0 W/m² -0,9 °C 5,1 °C 1,6 km/h (1 Bft)
16.02.2017 18:30 4,8 °C 5,1 °C 66 % 1030,2 hPa 0,0 mm 0,2 km/h (0 Bft) S-SO 167 ° 0 min 0,000 mm 0,0 UV-I 0 W/m² -1,0 °C 4,8 °C 1,6 km/h (1 Bft)
16.02.2017 18:31 4,8 °C 4,8 °C 66 % 1030,3 hPa 0,0 mm 1,9 km/h (1 Bft) S-SO 167 ° 0 min 0,000 mm 0,0 UV-I 0 W/m² -1,0 °C 4,8 °C 4,8 km/h (1 Bft)
16.02.2017 18:32 4,7 °C 4,8 °C 66 % 1030,2 hPa 0,0 mm 1,0 km/h (0 Bft) S-SO 167 ° 0 min 0,000 mm 0,0 UV-I 0 W/m² -1,1 °C 4,7 °C 4,8 km/h (1 Bft)
16.02.2017 18:33 4,7 °C 4,7 °C 66 % 1030,3 hPa 0,0 mm 1,2 km/h (1 Bft) S-SO 167 ° 0 min 0,000 mm 0,0 UV-I 0 W/m² -1,1 °C 4,7 °C 4,8 km/h (1 Bft)
16.02.2017 18:34 4,7 °C 4,7 °C 67 % 1030,2 hPa 0,0 mm 1,4 km/h (1 Bft) S-SO 167 ° 0 min 0,000 mm 0,0 UV-I 0 W/m² -0,9 °C 4,7 °C 4,8 km/h (1 Bft)
16.02.2017 18:35 4,7 °C 4,7 °C 67 % 1030,2 hPa 0,0 mm 1,5 km/h (1 Bft) S-SO 167 ° 0 min 0,000 mm 0,0 UV-I 0 W/m² -0,9 °C 4,7 °C 4,8 km/h (1 Bft)
16.02.2017 18:36 4,7 °C 4,7 °C 66 % 1030,2 hPa 0,0 mm 2,8 km/h (1 Bft) S-SO 167 ° 0 min 0,000 mm 0,0 UV-I 0 W/m² -1,1 °C 4,7 °C 4,8 km/h (1 Bft)
16.02.2017 18:37 4,7 °C 4,7 °C 66 % 1030,2 hPa 0,0 mm 1,9 km/h (1 Bft) S-SO 167 ° 0 min 0,000 mm 0,0 UV-I 0 W/m² -1,1 °C 4,7 °C 4,8 km/h (1 Bft)
16.02.2017 18:38 4,6 °C 4,7 °C 67 % 1030,2 hPa 0,0 mm 1,9 km/h (1 Bft) S-SO 167 ° 0 min 0,000 mm 0,0 UV-I 0 W/m² -1,0 °C 4,6 °C 4,8 km/h (1 Bft)
16.02.2017 18:39 4,7 °C 4,7 °C 67 % 1030,2 hPa 0,0 mm 3,0 km/h (1 Bft) S-SO 167 ° 0 min 0,000 mm 0,0 UV-I 0 W/m² -0,9 °C 4,7 °C 4,8 km/h (1 Bft)
16.02.2017 18:40 4,6 °C 4,7 °C 67 % 1030,2 hPa 0,0 mm 1,5 km/h (1 Bft) S-SO 167 ° 0 min 0,000 mm 0,0 UV-I 0 W/m² -1,0 °C 4,6 °C 4,8 km/h (1 Bft)
16.02.2017 18:41 4,7 °C 4,7 °C 67 % 1030,2 hPa 0,0 mm 3,0 km/h (1 Bft) S-SO 167 ° 0 min 0,000 mm 0,0 UV-I 0 W/m² -0,9 °C 4,7 °C 4,8 km/h (1 Bft)
16.02.2017 18:42 4,7 °C 4,7 °C 67 % 1030,2 hPa 0,0 mm 0,7 km/h (0 Bft) S-SO 167 ° 0 min 0,000 mm 0,0 UV-I 0 W/m² -0,9 °C 4,7 °C 1,6 km/h (1 Bft)
16.02.2017 18:43 4,7 °C 4,7 °C 67 % 1030,2 hPa 0,0 mm 1,5 km/h (1 Bft) S-SO 167 ° 0 min 0,000 mm 0,0 UV-I 0 W/m² -0,9 °C 4,7 °C 4,8 km/h (1 Bft)
16.02.2017 18:44 4,8 °C 4,8 °C 67 % 1030,2 hPa 0,0 mm 1,0 km/h (0 Bft) S-SO 167 ° 0 min 0,000 mm 0,0 UV-I 0 W/m² -0,8 °C 4,8 °C 1,6 km/h (1 Bft)
16.02.2017 18:45 4,8 °C 4,8 °C 67 % 1030,2 hPa 0,0 mm 2,3 km/h (1 Bft) S-SO 167 ° 0 min 0,000 mm 0,0 UV-I 0 W/m² -0,8 °C 4,8 °C 4,8 km/h (1 Bft)
16.02.2017 18:46 4,8 °C 4,8 °C 67 % 1030,2 hPa 0,0 mm 0,5 km/h (0 Bft) S-SO 167 ° 0 min 0,000 mm 0,0 UV-I 0 W/m² -0,8 °C 4,8 °C 1,6 km/h (1 Bft)
16.02.2017 18:47 4,8 °C 4,8 °C 67 % 1030,2 hPa 0,0 mm 0,8 km/h (0 Bft) S-SO 167 ° 0 min 0,000 mm 0,0 UV-I 0 W/m² -0,8 °C 4,8 °C 1,6 km/h (1 Bft)
16.02.2017 18:48 4,8 °C 4,8 °C 67 % 1030,2 hPa 0,0 mm 0,7 km/h (0 Bft) S-SO 167 ° 0 min 0,000 mm 0,0 UV-I 0 W/m² -0,8 °C 4,8 °C 1,6 km/h (1 Bft)
16.02.2017 18:49 4,8 °C 4,8 °C 67 % 1030,2 hPa 0,0 mm 0,1 km/h (0 Bft) S-SO 167 ° 0 min 0,000 mm 0,0 UV-I 0 W/m² -0,8 °C 4,8 °C 1,6 km/h (1 Bft)
16.02.2017 18:50 4,7 °C 4,8 °C 67 % 1030,2 hPa 0,0 mm 0,3 km/h (0 Bft) S-SO 167 ° 0 min 0,000 mm 0,0 UV-I 0 W/m² -0,9 °C 4,7 °C 1,6 km/h (1 Bft)
16.02.2017 18:51 4,6 °C 4,7 °C 67 % 1030,2 hPa 0,0 mm 1,7 km/h (1 Bft) S-SO 167 ° 0 min 0,000 mm 0,0 UV-I 0 W/m² -1,0 °C 4,6 °C 4,8 km/h (1 Bft)
16.02.2017 18:52 4,6 °C 4,6 °C 67 % 1030,2 hPa 0,0 mm 1,8 km/h (1 Bft) S-SO 167 ° 0 min 0,000 mm 0,0 UV-I 0 W/m² -1,0 °C 4,6 °C 4,8 km/h (1 Bft)
16.02.2017 18:53 4,4 °C 4,6 °C 68 % 1030,2 hPa 0,0 mm 0,9 km/h (0 Bft) S-SO 167 ° 0 min 0,000 mm 0,0 UV-I 0 W/m² -1,0 °C 4,4 °C 1,6 km/h (1 Bft)
16.02.2017 18:54 4,4 °C 4,4 °C 68 % 1030,2 hPa 0,0 mm 1,1 km/h (1 Bft) S-SO 167 ° 0 min 0,000 mm 0,0 UV-I 0 W/m² -1,0 °C 4,4 °C 1,6 km/h (1 Bft)
16.02.2017 18:55 4,4 °C 4,4 °C 68 % 1030,2 hPa 0,0 mm 0,4 km/h (0 Bft) S-SO 167 ° 0 min 0,000 mm 0,0 UV-I 0 W/m² -1,0 °C 4,4 °C 1,6 km/h (1 Bft)
16.02.2017 18:56 4,4 °C 4,4 °C 68 % 1030,3 hPa 0,0 mm 0,3 km/h (0 Bft) S-SO 167 ° 0 min 0,000 mm 0,0 UV-I 0 W/m² -1,0 °C 4,4 °C 1,6 km/h (1 Bft)
16.02.2017 18:57 4,4 °C 4,4 °C 68 % 1030,3 hPa 0,0 mm 0,9 km/h (0 Bft) S-SO 167 ° 0 min 0,000 mm 0,0 UV-I 0 W/m² -1,0 °C 4,4 °C 1,6 km/h (1 Bft)
16.02.2017 18:58 4,4 °C 4,4 °C 68 % 1030,3 hPa 0,0 mm 0,7 km/h (0 Bft) S-SO 167 ° 0 min 0,000 mm 0,0 UV-I 0 W/m² -1,0 °C 4,4 °C 1,6 km/h (1 Bft)
16.02.2017 18:59 4,4 °C 4,4 °C 68 % 1030,3 hPa 0,0 mm 2,1 km/h (1 Bft) S-SO 167 ° 0 min 0,000 mm 0,0 UV-I 0 W/m² -1,0 °C 4,4 °C 4,8 km/h (1 Bft)
16.02.2017 19:00 4,4 °C 4,4 °C 68 % 1030,3 hPa 0,0 mm 0,5 km/h (0 Bft) S-SO 167 ° 0 min 0,000 mm 0,0 UV-I 0 W/m² -1,0 °C 4,4 °C 1,6 km/h (1 Bft)
16.02.2017 19:01 4,4 °C 4,4 °C 68 % 1030,3 hPa 0,0 mm 0,1 km/h (0 Bft) S-SO 167 ° 0 min 0,025 mm 0,0 UV-I 0 W/m² -1,0 °C 4,4 °C 1,6 km/h (1 Bft)
16.02.2017 19:02 4,4 °C 4,4 °C 68 % 1030,2 hPa 0,0 mm 0,2 km/h (0 Bft) S-SO 167 ° 0 min 0,000 mm 0,0 UV-I 0 W/m² -1,0 °C 4,4 °C 1,6 km/h (1 Bft)
16.02.2017 19:03 4,4 °C 4,4 °C 69 % 1030,2 hPa 0,0 mm 2,3 km/h (1 Bft) S-SO 167 ° 0 min 0,000 mm 0,0 UV-I 0 W/m² -0,8 °C 4,4 °C 4,8 km/h (1 Bft)
16.02.2017 19:04 4,4 °C 4,4 °C 69 % 1030,2 hPa 0,0 mm 4,5 km/h (1 Bft) S-SO 167 ° 0 min 0,000 mm 0,0 UV-I 0 W/m² -0,8 °C 4,4 °C 6,4 km/h (2 Bft)
16.02.2017 19:05 4,4 °C 4,4 °C 69 % 1030,2 hPa 0,0 mm 3,0 km/h (1 Bft) S-SO 167 ° 0 min 0,000 mm 0,0 UV-I 0 W/m² -0,8 °C 4,4 °C 4,8 km/h (1 Bft)
16.02.2017 19:06 4,4 °C 4,4 °C 69 % 1030,2 hPa 0,0 mm 0,5 km/h (0 Bft) S-SO 167 ° 0 min 0,000 mm 0,0 UV-I 0 W/m² -0,8 °C 4,4 °C 1,6 km/h (1 Bft)
16.02.2017 19:07 4,3 °C 4,4 °C 69 % 1030,2 hPa 0,0 mm 0,1 km/h (0 Bft) S-SO 167 ° 0 min 0,000 mm 0,0 UV-I 0 W/m² -0,9 °C 4,3 °C 1,6 km/h (1 Bft)
16.02.2017 19:08 4,2 °C 4,3 °C 69 % 1030,2 hPa 0,0 mm 0,3 km/h (0 Bft) S-SO 167 ° 0 min 0,000 mm 0,0 UV-I 0 W/m² -1,0 °C 4,2 °C 1,6 km/h (1 Bft)
16.02.2017 19:09 4,2 °C 4,2 °C 69 % 1030,2 hPa 0,0 mm 0,3 km/h (0 Bft) S-SO 167 ° 0 min 0,000 mm 0,0 UV-I 0 W/m² -1,0 °C 4,2 °C 1,6 km/h (1 Bft)
16.02.2017 19:10 4,2 °C 4,2 °C 70 % 1030,1 hPa 0,0 mm 0,1 km/h (0 Bft) S-SO 167 ° 0 min 0,000 mm 0,0 UV-I 0 W/m² -0,8 °C 4,2 °C 1,6 km/h (1 Bft)
16.02.2017 19:11 4,2 °C 4,2 °C 70 % 1030,1 hPa 0,0 mm 0,0 km/h (0 Bft) S-SO 167 ° 0 min 0,000 mm 0,0 UV-I 0 W/m² -0,8 °C 4,2 °C 0,0 km/h (0 Bft)
16.02.2017 19:12 4,1 °C 4,2 °C 70 % 1030,2 hPa 0,0 mm 0,3 km/h (0 Bft) S-SO 167 ° 0 min 0,000 mm 0,0 UV-I 0 W/m² -0,9 °C 4,1 °C 1,6 km/h (1 Bft)
16.02.2017 19:13 3,9 °C 4,1 °C 70 % 1030,2 hPa 0,0 mm 0,0 km/h (0 Bft) S-SO 167 ° 0 min 0,000 mm 0,0 UV-I 0 W/m² -1,1 °C 3,9 °C 0,0 km/h (0 Bft)
16.02.2017 19:14 3,7 °C 3,9 °C 70 % 1030,2 hPa 0,0 mm 0,0 km/h (0 Bft) S-SO 167 ° 0 min 0,000 mm 0,0 UV-I 0 W/m² -1,3 °C 3,7 °C 0,0 km/h (0 Bft)
16.02.2017 19:15 3,4 °C 3,7 °C 71 % 1030,2 hPa 0,0 mm 0,0 km/h (0 Bft) S-SO 167 ° 0 min 0,000 mm 0,0 UV-I 0 W/m² -1,3 °C 3,4 °C 0,0 km/h (0 Bft)
16.02.2017 19:16 3,2 °C 3,4 °C 72 % 1030,2 hPa 0,0 mm 0,0 km/h (0 Bft) S-SO 167 ° 0 min 0,000 mm 0,0 UV-I 0 W/m² -1,3 °C 3,2 °C 0,0 km/h (0 Bft)
16.02.2017 19:17 3,1 °C 3,2 °C 74 % 1030,2 hPa 0,0 mm 0,1 km/h (0 Bft) S-SO 167 ° 0 min 0,000 mm 0,0 UV-I 0 W/m² -1,1 °C 3,1 °C 1,6 km/h (1 Bft)
16.02.2017 19:18 2,9 °C 3,1 °C 74 % 1030,2 hPa 0,0 mm 1,5 km/h (1 Bft) S-SO 167 ° 0 min 0,000 mm 0,0 UV-I 0 W/m² -1,3 °C 2,9 °C 4,8 km/h (1 Bft)
16.02.2017 19:19 2,8 °C 2,9 °C 75 % 1030,1 hPa 0,0 mm 0,5 km/h (0 Bft) S-SO 167 ° 0 min 0,000 mm 0,0 UV-I 0 W/m² -1,2 °C 2,8 °C 1,6 km/h (1 Bft)
16.02.2017 19:20 2,8 °C 2,8 °C 75 % 1030,1 hPa 0,0 mm 0,4 km/h (0 Bft) S-SO 167 ° 0 min 0,000 mm 0,0 UV-I 0 W/m² -1,2 °C 2,8 °C 1,6 km/h (1 Bft)
16.02.2017 19:21 2,7 °C 2,8 °C 75 % 1030,1 hPa 0,0 mm 0,0 km/h (0 Bft) S-SO 167 ° 0 min 0,000 mm 0,0 UV-I 0 W/m² -1,3 °C 2,7 °C 0,0 km/h (0 Bft)
16.02.2017 19:22 2,7 °C 2,7 °C 75 % 1030,1 hPa 0,0 mm 0,0 km/h (0 Bft) S-SO 167 ° 0 min 0,000 mm 0,0 UV-I 0 W/m² -1,3 °C 2,7 °C 0,0 km/h (0 Bft)
16.02.2017 19:23 2,6 °C 2,7 °C 75 % 1030,2 hPa 0,0 mm 0,0 km/h (0 Bft) S-SO 167 ° 0 min 0,000 mm 0,0 UV-I 0 W/m² -1,4 °C 2,6 °C 0,0 km/h (0 Bft)
16.02.2017 19:24 2,4 °C 2,6 °C 76 % 1030,2 hPa 0,0 mm 0,1 km/h (0 Bft) S-SO 167 ° 0 min 0,000 mm 0,0 UV-I 0 W/m² -1,4 °C 2,4 °C 1,6 km/h (1 Bft)
16.02.2017 19:25 2,4 °C 2,4 °C 76 % 1030,2 hPa 0,0 mm 0,0 km/h (0 Bft) S-SO 167 ° 0 min 0,000 mm 0,0 UV-I 0 W/m² -1,4 °C 2,4 °C 0,0 km/h (0 Bft)
16.02.2017 19:26 2,3 °C 2,4 °C 76 % 1030,2 hPa 0,0 mm 0,5 km/h (0 Bft) S-SO 167 ° 0 min 0,000 mm 0,0 UV-I 0 W/m² -1,5 °C 2,3 °C 1,6 km/h (1 Bft)
16.02.2017 19:27 2,3 °C 2,3 °C 77 % 1030,2 hPa 0,0 mm 0,0 km/h (0 Bft) S-SO 167 ° 0 min 0,000 mm 0,0 UV-I 0 W/m² -1,3 °C 2,3 °C 0,0 km/h (0 Bft)
16.02.2017 19:28 2,3 °C 2,3 °C 77 % 1030,1 hPa 0,0 mm 1,1 km/h (1 Bft) S-SO 167 ° 0 min 0,000 mm 0,0 UV-I 0 W/m² -1,3 °C 2,3 °C 1,6 km/h (1 Bft)
16.02.2017 19:29 2,3 °C 2,3 °C 77 % 1030,1 hPa 0,0 mm 1,6 km/h (1 Bft) S-SO 167 ° 0 min 0,000 mm 0,0 UV-I 0 W/m² -1,3 °C 2,3 °C 4,8 km/h (1 Bft)
16.02.2017 19:30 2,3 °C 2,3 °C 76 % 1030,2 hPa 0,0 mm 0,6 km/h (0 Bft) S-SO 167 ° 0 min 0,000 mm 0,0 UV-I 0 W/m² -1,5 °C 2,3 °C 1,6 km/h (1 Bft)
16.02.2017 19:31 2,3 °C 2,3 °C 77 % 1030,1 hPa 0,0 mm 0,1 km/h (0 Bft) S-SO 167 ° 0 min 0,000 mm 0,0 UV-I 0 W/m² -1,3 °C 2,3 °C 1,6 km/h (1 Bft)
16.02.2017 19:32 2,3 °C 2,3 °C 77 % 1030,1 hPa 0,0 mm 0,0 km/h (0 Bft) S-SO 167 ° 0 min 0,000 mm 0,0 UV-I 0 W/m² -1,3 °C 2,3 °C 0,0 km/h (0 Bft)
16.02.2017 19:33 2,3 °C 2,3 °C 76 % 1030,1 hPa 0,0 mm 0,0 km/h (0 Bft) S-SO 167 ° 0 min 0,000 mm 0,0 UV-I 0 W/m² -1,5 °C 2,3 °C 0,0 km/h (0 Bft)
16.02.2017 19:34 2,3 °C 2,4 °C 76 % 1030,1 hPa 0,0 mm 0,0 km/h (0 Bft) S-SO 167 ° 0 min 0,000 mm 0,0 UV-I 0 W/m² -1,5 °C 2,3 °C 0,0 km/h (0 Bft)
16.02.2017 19:35 2,4 °C 2,4 °C 77 % 1030,1 hPa 0,0 mm 0,0 km/h (0 Bft) S-SO 167 ° 0 min 0,000 mm 0,0 UV-I 0 W/m² -1,2 °C 2,4 °C 0,0 km/h (0 Bft)
16.02.2017 19:36 2,3 °C 2,4 °C 77 % 1030,1 hPa 0,0 mm 0,0 km/h (0 Bft) S-SO 167 ° 0 min 0,000 mm 0,0 UV-I 0 W/m² -1,3 °C 2,3 °C 0,0 km/h (0 Bft)
16.02.2017 19:37 2,3 °C 2,3 °C 77 % 1030,1 hPa 0,0 mm 0,0 km/h (0 Bft) S-SO 167 ° 0 min 0,000 mm 0,0 UV-I 0 W/m² -1,3 °C 2,3 °C 0,0 km/h (0 Bft)
16.02.2017 19:38 2,2 °C 2,3 °C 77 % 1030,0 hPa 0,0 mm 0,0 km/h (0 Bft) S-SO 167 ° 0 min 0,000 mm 0,0 UV-I 0 W/m² -1,4 °C 2,2 °C 0,0 km/h (0 Bft)
16.02.2017 19:39 2,2 °C 2,2 °C 76 % 1030,0 hPa 0,0 mm 0,0 km/h (0 Bft) S-SO 167 ° 0 min 0,000 mm 0,0 UV-I 0 W/m² -1,6 °C 2,2 °C 0,0 km/h (0 Bft)
16.02.2017 19:40 2,1 °C 2,2 °C 77 % 1030,0 hPa 0,0 mm 0,0 km/h (0 Bft) S-SO 167 ° 0 min 0,000 mm 0,0 UV-I 0 W/m² -1,5 °C 2,1 °C 0,0 km/h (0 Bft)
16.02.2017 19:41 2,1 °C 2,1 °C 77 % 1030,0 hPa 0,0 mm 0,0 km/h (0 Bft) S-SO 167 ° 0 min 0,000 mm 0,0 UV-I 0 W/m² -1,5 °C 2,1 °C 0,0 km/h (0 Bft)
16.02.2017 19:42 2,0 °C 2,1 °C 77 % 1029,9 hPa 0,0 mm 0,0 km/h (0 Bft) S-SO 167 ° 0 min 0,000 mm 0,0 UV-I 0 W/m² -1,6 °C 2,0 °C 0,0 km/h (0 Bft)
16.02.2017 19:43 2,0 °C 2,1 °C 77 % 1030,0 hPa 0,0 mm 0,0 km/h (0 Bft) S-SO 167 ° 0 min 0,000 mm 0,0 UV-I 0 W/m² -1,6 °C 2,0 °C 0,0 km/h (0 Bft)
16.02.2017 19:44 1,9 °C 2,0 °C 77 % 1030,0 hPa 0,0 mm 1,0 km/h (0 Bft) S-SO 167 ° 0 min 0,000 mm 0,0 UV-I 0 W/m² -1,7 °C 1,9 °C 4,8 km/h (1 Bft)
16.02.2017 19:45 1,9 °C 1,9 °C 77 % 1030,0 hPa 0,0 mm 0,9 km/h (0 Bft) S-SO 167 ° 0 min 0,000 mm 0,0 UV-I 0 W/m² -1,7 °C 1,9 °C 1,6 km/h (1 Bft)
16.02.2017 19:46 1,9 °C 1,9 °C 78 % 1030,0 hPa 0,0 mm 0,0 km/h (0 Bft) S-SO 167 ° 0 min 0,000 mm 0,0 UV-I 0 W/m² -1,5 °C 1,9 °C 0,0 km/h (0 Bft)
16.02.2017 19:47 1,8 °C 1,9 °C 78 % 1030,0 hPa 0,0 mm 0,0 km/h (0 Bft) S-SO 167 ° 0 min 0,000 mm 0,0 UV-I 0 W/m² -1,6 °C 1,8 °C 0,0 km/h (0 Bft)
16.02.2017 19:48 1,8 °C 1,8 °C 78 % 1030,0 hPa 0,0 mm 0,0 km/h (0 Bft) S-SO 167 ° 0 min 0,000 mm 0,0 UV-I 0 W/m² -1,6 °C 1,8 °C 0,0 km/h (0 Bft)
16.02.2017 19:49 1,7 °C 1,8 °C 78 % 1030,0 hPa 0,0 mm 0,3 km/h (0 Bft) S-SO 167 ° 0 min 0,000 mm 0,0 UV-I 0 W/m² -1,7 °C 1,7 °C 1,6 km/h (1 Bft)
16.02.2017 19:50 1,8 °C 1,8 °C 79 % 1030,0 hPa 0,0 mm 1,5 km/h (1 Bft) S-SO 167 ° 0 min 0,000 mm 0,0 UV-I 0 W/m² -1,4 °C 1,8 °C 4,8 km/h (1 Bft)
16.02.2017 19:51 1,8 °C 1,8 °C 79 % 1030,0 hPa 0,0 mm 0,0 km/h (0 Bft) S-SO 167 ° 0 min 0,000 mm 0,0 UV-I 0 W/m² -1,4 °C 1,8 °C 0,0 km/h (0 Bft)
16.02.2017 19:52 1,7 °C 1,8 °C 79 % 1029,9 hPa 0,0 mm 0,1 km/h (0 Bft) S-SO 167 ° 0 min 0,000 mm 0,0 UV-I 0 W/m² -1,5 °C 1,7 °C 1,6 km/h (1 Bft)
16.02.2017 19:53 1,7 °C 1,8 °C 78 % 1029,9 hPa 0,0 mm 0,5 km/h (0 Bft) S-SO 167 ° 0 min 0,000 mm 0,0 UV-I 0 W/m² -1,7 °C 1,7 °C 1,6 km/h (1 Bft)
16.02.2017 19:54 1,7 °C 1,7 °C 78 % 1029,9 hPa 0,0 mm 0,0 km/h (0 Bft) S-SO 167 ° 0 min 0,000 mm 0,0 UV-I 0 W/m² -1,7 °C 1,7 °C 0,0 km/h (0 Bft)
16.02.2017 19:55 1,6 °C 1,7 °C 79 % 1029,9 hPa 0,0 mm 0,0 km/h (0 Bft) S-SO 167 ° 0 min 0,000 mm 0,0 UV-I 0 W/m² -1,6 °C 1,6 °C 0,0 km/h (0 Bft)
16.02.2017 19:56 1,6 °C 1,6 °C 79 % 1029,9 hPa 0,0 mm 0,3 km/h (0 Bft) S-SO 167 ° 0 min 0,000 mm 0,0 UV-I 0 W/m² -1,6 °C 1,6 °C 1,6 km/h (1 Bft)
16.02.2017 19:57 1,6 °C 1,6 °C 79 % 1029,9 hPa 0,0 mm 0,0 km/h (0 Bft) S-SO 167 ° 0 min 0,000 mm 0,0 UV-I 0 W/m² -1,6 °C 1,6 °C 0,0 km/h (0 Bft)
16.02.2017 19:58 1,6 °C 1,6 °C 79 % 1029,9 hPa 0,0 mm 0,0 km/h (0 Bft) S-SO 167 ° 0 min 0,000 mm 0,0 UV-I 0 W/m² -1,6 °C 1,6 °C 0,0 km/h (0 Bft)
16.02.2017 19:59 1,6 °C 1,6 °C 79 % 1029,9 hPa 0,0 mm 0,0 km/h (0 Bft) S-SO 167 ° 0 min 0,000 mm 0,0 UV-I 0 W/m² -1,6 °C 1,6 °C 0,0 km/h (0 Bft)
16.02.2017 20:00 1,6 °C 1,6 °C 79 % 1029,9 hPa 0,0 mm 0,0 km/h (0 Bft) S-SO 167 ° 0 min 0,000 mm 0,0 UV-I 0 W/m² -1,6 °C 1,6 °C 0,0 km/h (0 Bft)
16.02.2017 20:01 1,6 °C 1,6 °C 79 % 1029,9 hPa 0,0 mm 0,0 km/h (0 Bft) S-SO 167 ° 0 min 0,026 mm 0,0 UV-I 0 W/m² -1,6 °C 1,6 °C 0,0 km/h (0 Bft)
16.02.2017 20:02 1,5 °C 1,6 °C 79 % 1029,9 hPa 0,0 mm 0,0 km/h (0 Bft) S-SO 167 ° 0 min 0,000 mm 0,0 UV-I 0 W/m² -1,7 °C 1,5 °C 0,0 km/h (0 Bft)
16.02.2017 20:03 1,5 °C 1,5 °C 80 % 1029,9 hPa 0,0 mm 0,0 km/h (0 Bft) S-SO 167 ° 0 min 0,000 mm 0,0 UV-I 0 W/m² -1,6 °C 1,5 °C 0,0 km/h (0 Bft)
16.02.2017 20:04 1,5 °C 1,5 °C 79 % 1029,9 hPa 0,0 mm 0,0 km/h (0 Bft) S-SO 167 ° 0 min 0,000 mm 0,0 UV-I 0 W/m² -1,7 °C 1,5 °C 0,0 km/h (0 Bft)
16.02.2017 20:05 1,4 °C 1,5 °C 79 % 1029,9 hPa 0,0 mm 0,0 km/h (0 Bft) S-SO 167 ° 0 min 0,000 mm 0,0 UV-I 0 W/m² -1,8 °C 1,4 °C 0,0 km/h (0 Bft)
16.02.2017 20:06 1,4 °C 1,4 °C 80 % 1029,9 hPa 0,0 mm 0,0 km/h (0 Bft) S-SO 167 ° 0 min 0,000 mm 0,0 UV-I 0 W/m² -1,7 °C 1,4 °C 0,0 km/h (0 Bft)
16.02.2017 20:07 1,4 °C 1,4 °C 80 % 1029,9 hPa 0,0 mm 0,0 km/h (0 Bft) S-SO 167 ° 0 min 0,000 mm 0,0 UV-I 0 W/m² -1,7 °C 1,4 °C 0,0 km/h (0 Bft)
16.02.2017 20:08 1,5 °C 1,5 °C 80 % 1029,9 hPa 0,0 mm 0,0 km/h (0 Bft) S-SO 167 ° 0 min 0,000 mm 0,0 UV-I 0 W/m² -1,6 °C 1,5 °C 0,0 km/h (0 Bft)
16.02.2017 20:09 1,5 °C 1,5 °C 80 % 1029,8 hPa 0,0 mm 0,0 km/h (0 Bft) S-SO 167 ° 0 min 0,000 mm 0,0 UV-I 0 W/m² -1,6 °C 1,5 °C 0,0 km/h (0 Bft)
16.02.2017 20:10 1,5 °C 1,5 °C 80 % 1029,8 hPa 0,0 mm 0,0 km/h (0 Bft) S-SO 167 ° 0 min 0,000 mm 0,0 UV-I 0 W/m² -1,6 °C 1,5 °C 0,0 km/h (0 Bft)
16.02.2017 20:11 1,6 °C 1,6 °C 80 % 1029,8 hPa 0,0 mm 0,0 km/h (0 Bft) S-SO 167 ° 0 min 0,000 mm 0,0 UV-I 0 W/m² -1,5 °C 1,6 °C 0,0 km/h (0 Bft)
16.02.2017 20:12 1,6 °C 1,6 °C 80 % 1029,8 hPa 0,0 mm 0,0 km/h (0 Bft) S-SO 167 ° 0 min 0,000 mm 0,0 UV-I 0 W/m² -1,5 °C 1,6 °C 0,0 km/h (0 Bft)
16.02.2017 20:13 1,6 °C 1,6 °C 80 % 1029,8 hPa 0,0 mm 0,0 km/h (0 Bft) S-SO 167 ° 0 min 0,000 mm 0,0 UV-I 0 W/m² -1,5 °C 1,6 °C 0,0 km/h (0 Bft)
16.02.2017 20:14 1,5 °C 1,6 °C 80 % 1029,8 hPa 0,0 mm 0,0 km/h (0 Bft) S-SO 167 ° 0 min 0,000 mm 0,0 UV-I 0 W/m² -1,6 °C 1,5 °C 0,0 km/h (0 Bft)
16.02.2017 20:15 1,4 °C 1,5 °C 79 % 1029,8 hPa 0,0 mm 0,0 km/h (0 Bft) S-SO 167 ° 0 min 0,000 mm 0,0 UV-I 0 W/m² -1,8 °C 1,4 °C 0,0 km/h (0 Bft)
16.02.2017 20:16 1,4 °C 1,4 °C 80 % 1029,8 hPa 0,0 mm 0,0 km/h (0 Bft) S-SO 167 ° 0 min 0,000 mm 0,0 UV-I 0 W/m² -1,7 °C 1,4 °C 0,0 km/h (0 Bft)
16.02.2017 20:17 1,4 °C 1,4 °C 80 % 1029,8 hPa 0,0 mm 0,0 km/h (0 Bft) S-SO 167 ° 0 min 0,000 mm 0,0 UV-I 0 W/m² -1,7 °C 1,4 °C 0,0 km/h (0 Bft)
16.02.2017 20:18 1,4 °C 1,4 °C 80 % 1029,8 hPa 0,0 mm 0,0 km/h (0 Bft) S-SO 167 ° 0 min 0,000 mm 0,0 UV-I 0 W/m² -1,7 °C 1,4 °C 0,0 km/h (0 Bft)
16.02.2017 20:19 1,4 °C 1,4 °C 80 % 1029,8 hPa 0,0 mm 0,0 km/h (0 Bft) S-SO 167 ° 0 min 0,000 mm 0,0 UV-I 0 W/m² -1,7 °C 1,4 °C 0,0 km/h (0 Bft)
16.02.2017 20:20 1,4 °C 1,4 °C 80 % 1029,7 hPa 0,0 mm 0,0 km/h (0 Bft) S-SO 167 ° 0 min 0,000 mm 0,0 UV-I 0 W/m² -1,7 °C 1,4 °C 0,0 km/h (0 Bft)
16.02.2017 20:21 1,4 °C 1,4 °C 80 % 1029,7 hPa 0,0 mm 0,0 km/h (0 Bft) S-SO 167 ° 0 min 0,000 mm 0,0 UV-I 0 W/m² -1,7 °C 1,4 °C 0,0 km/h (0 Bft)
16.02.2017 20:22 1,6 °C 1,6 °C 80 % 1029,7 hPa 0,0 mm 0,0 km/h (0 Bft) S-SO 167 ° 0 min 0,000 mm 0,0 UV-I 0 W/m² -1,5 °C 1,6 °C 0,0 km/h (0 Bft)
16.02.2017 20:23 1,6 °C 1,6 °C 80 % 1029,7 hPa 0,0 mm 0,0 km/h (0 Bft) S-SO 167 ° 0 min 0,000 mm 0,0 UV-I 0 W/m² -1,5 °C 1,6 °C 0,0 km/h (0 Bft)
16.02.2017 20:24 1,6 °C 1,6 °C 80 % 1029,7 hPa 0,0 mm 0,0 km/h (0 Bft) S-SO 167 ° 0 min 0,000 mm 0,0 UV-I 0 W/m² -1,5 °C 1,6 °C 0,0 km/h (0 Bft)
16.02.2017 20:25 1,6 °C 1,6 °C 80 % 1029,7 hPa 0,0 mm 0,0 km/h (0 Bft) S-SO 167 ° 0 min 0,000 mm 0,0 UV-I 0 W/m² -1,5 °C 1,6 °C 0,0 km/h (0 Bft)
16.02.2017 20:26 1,7 °C 1,7 °C 80 % 1029,7 hPa 0,0 mm 0,0 km/h (0 Bft) S-SO 167 ° 0 min 0,000 mm 0,0 UV-I 0 W/m² -1,4 °C 1,7 °C 0,0 km/h (0 Bft)
16.02.2017 20:27 1,7 °C 1,7 °C 80 % 1029,7 hPa 0,0 mm 0,0 km/h (0 Bft) S-SO 167 ° 0 min 0,000 mm 0,0 UV-I 0 W/m² -1,4 °C 1,7 °C 0,0 km/h (0 Bft)
16.02.2017 20:28 1,7 °C 1,7 °C 80 % 1029,7 hPa 0,0 mm 0,0 km/h (0 Bft) S-SO 167 ° 0 min 0,000 mm 0,0 UV-I 0 W/m² -1,4 °C 1,7 °C 0,0 km/h (0 Bft)
16.02.2017 20:29 1,7 °C 1,7 °C 80 % 1029,7 hPa 0,0 mm 0,0 km/h (0 Bft) S-SO 167 ° 0 min 0,000 mm 0,0 UV-I 0 W/m² -1,4 °C 1,7 °C 0,0 km/h (0 Bft)
16.02.2017 20:30 1,6 °C 1,7 °C 79 % 1029,7 hPa 0,0 mm 0,0 km/h (0 Bft) S-SO 167 ° 0 min 0,000 mm 0,0 UV-I 0 W/m² -1,6 °C 1,6 °C 0,0 km/h (0 Bft)
16.02.2017 20:31 1,6 °C 1,6 °C 79 % 1029,7 hPa 0,0 mm 0,0 km/h (0 Bft) S-SO 167 ° 0 min 0,000 mm 0,0 UV-I 0 W/m² -1,6 °C 1,6 °C 0,0 km/h (0 Bft)
16.02.2017 20:32 1,5 °C 1,6 °C 79 % 1029,7 hPa 0,0 mm 0,0 km/h (0 Bft) S-SO 167 ° 0 min 0,000 mm 0,0 UV-I 0 W/m² -1,7 °C 1,5 °C 0,0 km/h (0 Bft)
16.02.2017 20:33 1,5 °C 1,6 °C 80 % 1029,6 hPa 0,0 mm 0,0 km/h (0 Bft) S-SO 167 ° 0 min 0,000 mm 0,0 UV-I 0 W/m² -1,6 °C 1,5 °C 0,0 km/h (0 Bft)
16.02.2017 20:34 1,6 °C 1,6 °C 80 % 1029,7 hPa 0,0 mm 0,0 km/h (0 Bft) S-SO 167 ° 0 min 0,000 mm 0,0 UV-I 0 W/m² -1,5 °C 1,6 °C 0,0 km/h (0 Bft)
16.02.2017 20:35 1,6 °C 1,6 °C 81 % 1029,6 hPa 0,0 mm 0,0 km/h (0 Bft) S-SO 167 ° 0 min 0,000 mm 0,0 UV-I 0 W/m² -1,3 °C 1,6 °C 0,0 km/h (0 Bft)
16.02.2017 20:36 1,6 °C 1,6 °C 80 % 1029,6 hPa 0,0 mm 0,0 km/h (0 Bft) S-SO 167 ° 0 min 0,000 mm 0,0 UV-I 0 W/m² -1,5 °C 1,6 °C 0,0 km/h (0 Bft)
16.02.2017 20:37 1,6 °C 1,6 °C 80 % 1029,6 hPa 0,0 mm 0,0 km/h (0 Bft) S-SO 167 ° 0 min 0,000 mm 0,0 UV-I 0 W/m² -1,5 °C 1,6 °C 0,0 km/h (0 Bft)
16.02.2017 20:38 1,6 °C 1,6 °C 81 % 1029,6 hPa 0,0 mm 0,0 km/h (0 Bft) S-SO 167 ° 0 min 0,000 mm 0,0 UV-I 0 W/m² -1,3 °C 1,6 °C 0,0 km/h (0 Bft)
16.02.2017 20:39 1,7 °C 1,7 °C 81 % 1029,6 hPa 0,0 mm 0,0 km/h (0 Bft) S-SO 167 ° 0 min 0,000 mm 0,0 UV-I 0 W/m² -1,2 °C 1,7 °C 0,0 km/h (0 Bft)
16.02.2017 20:40 1,8 °C 1,8 °C 80 % 1029,7 hPa 0,0 mm 0,0 km/h (0 Bft) S-SO 167 ° 0 min 0,000 mm 0,0 UV-I 0 W/m² -1,3 °C 1,8 °C 0,0 km/h (0 Bft)
16.02.2017 20:41 1,7 °C 1,8 °C 79 % 1029,6 hPa 0,0 mm 0,0 km/h (0 Bft) S-SO 167 ° 0 min 0,000 mm 0,0 UV-I 0 W/m² -1,5 °C 1,7 °C 0,0 km/h (0 Bft)
16.02.2017 20:42 1,7 °C 1,8 °C 79 % 1029,7 hPa 0,0 mm 0,0 km/h (0 Bft) S-SO 167 ° 0 min 0,000 mm 0,0 UV-I 0 W/m² -1,5 °C 1,7 °C 0,0 km/h (0 Bft)
16.02.2017 20:43 1,7 °C 1,7 °C 79 % 1029,6 hPa 0,0 mm 0,0 km/h (0 Bft) S-SO 167 ° 0 min 0,000 mm 0,0 UV-I 0 W/m² -1,5 °C 1,7 °C 0,0 km/h (0 Bft)
16.02.2017 20:44 1,6 °C 1,7 °C 79 % 1029,7 hPa 0,0 mm 0,0 km/h (0 Bft) S-SO 167 ° 0 min 0,000 mm 0,0 UV-I 0 W/m² -1,6 °C 1,6 °C 0,0 km/h (0 Bft)
16.02.2017 20:45 1,5 °C 1,6 °C 79 % 1029,7 hPa 0,0 mm 0,0 km/h (0 Bft) S-SO 167 ° 0 min 0,000 mm 0,0 UV-I 0 W/m² -1,7 °C 1,5 °C 0,0 km/h (0 Bft)
16.02.2017 20:46 1,4 °C 1,5 °C 80 % 1029,7 hPa 0,0 mm 0,0 km/h (0 Bft) S-SO 167 ° 0 min 0,000 mm 0,0 UV-I 0 W/m² -1,7 °C 1,4 °C 0,0 km/h (0 Bft)
16.02.2017 20:47 1,4 °C 1,4 °C 80 % 1029,7 hPa 0,0 mm 0,0 km/h (0 Bft) S-SO 167 ° 0 min 0,000 mm 0,0 UV-I 0 W/m² -1,7 °C 1,4 °C 0,0 km/h (0 Bft)
16.02.2017 20:48 1,5 °C 1,5 °C 80 % 1029,7 hPa 0,0 mm 0,0 km/h (0 Bft) S-SO 167 ° 0 min 0,000 mm 0,0 UV-I 0 W/m² -1,6 °C 1,5 °C 0,0 km/h (0 Bft)
16.02.2017 20:49 1,5 °C 1,6 °C 80 % 1029,7 hPa 0,0 mm 0,0 km/h (0 Bft) S-SO 167 ° 0 min 0,000 mm 0,0 UV-I 0 W/m² -1,6 °C 1,5 °C 0,0 km/h (0 Bft)
16.02.2017 20:50 1,6 °C 1,6 °C 80 % 1029,8 hPa 0,0 mm 0,0 km/h (0 Bft) S-SO 167 ° 0 min 0,000 mm 0,0 UV-I 0 W/m² -1,5 °C 1,6 °C 0,0 km/h (0 Bft)
16.02.2017 20:51 1,6 °C 1,6 °C 79 % 1029,8 hPa 0,0 mm 0,0 km/h (0 Bft) S-SO 167 ° 0 min 0,000 mm 0,0 UV-I 0 W/m² -1,6 °C 1,6 °C 0,0 km/h (0 Bft)
16.02.2017 20:52 1,6 °C 1,6 °C 79 % 1029,8 hPa 0,0 mm 0,0 km/h (0 Bft) S-SO 167 ° 0 min 0,000 mm 0,0 UV-I 0 W/m² -1,6 °C 1,6 °C 0,0 km/h (0 Bft)
16.02.2017 20:53 1,6 °C 1,6 °C 79 % 1029,8 hPa 0,0 mm 0,0 km/h (0 Bft) S-SO 167 ° 0 min 0,000 mm 0,0 UV-I 0 W/m² -1,6 °C 1,6 °C 0,0 km/h (0 Bft)
16.02.2017 20:54 1,5 °C 1,6 °C 79 % 1029,8 hPa 0,0 mm 0,0 km/h (0 Bft) S-SO 167 ° 0 min 0,000 mm 0,0 UV-I 0 W/m² -1,7 °C 1,5 °C 0,0 km/h (0 Bft)
16.02.2017 20:55 1,4 °C 1,5 °C 80 % 1029,8 hPa 0,0 mm 0,0 km/h (0 Bft) S-SO 167 ° 0 min 0,000 mm 0,0 UV-I 0 W/m² -1,7 °C 1,4 °C 0,0 km/h (0 Bft)
16.02.2017 20:56 1,4 °C 1,4 °C 80 % 1029,8 hPa 0,0 mm 0,0 km/h (0 Bft) S-SO 167 ° 0 min 0,000 mm 0,0 UV-I 0 W/m² -1,7 °C 1,4 °C 0,0 km/h (0 Bft)
16.02.2017 20:57 1,4 °C 1,4 °C 80 % 1029,8 hPa 0,0 mm 0,0 km/h (0 Bft) S-SO 167 ° 0 min 0,000 mm 0,0 UV-I 0 W/m² -1,7 °C 1,4 °C 0,0 km/h (0 Bft)
16.02.2017 20:58 1,3 °C 1,4 °C 80 % 1029,8 hPa 0,0 mm 0,0 km/h (0 Bft) S-SO 167 ° 0 min 0,000 mm 0,0 UV-I 0 W/m² -1,8 °C 1,3 °C 0,0 km/h (0 Bft)
16.02.2017 20:59 1,3 °C 1,3 °C 80 % 1029,8 hPa 0,0 mm 0,0 km/h (0 Bft) S-SO 167 ° 0 min 0,000 mm 0,0 UV-I 0 W/m² -1,8 °C 1,3 °C 0,0 km/h (0 Bft)
16.02.2017 21:00 1,3 °C 1,3 °C 80 % 1029,8 hPa 0,0 mm 0,0 km/h (0 Bft) S-SO 167 ° 0 min 0,000 mm 0,0 UV-I 0 W/m² -1,8 °C 1,3 °C 0,0 km/h (0 Bft)
16.02.2017 21:01 1,3 °C 1,3 °C 80 % 1029,8 hPa 0,0 mm 0,0 km/h (0 Bft) S-SO 167 ° 0 min 0,000 mm 0,0 UV-I 0 W/m² -1,8 °C 1,3 °C 0,0 km/h (0 Bft)
16.02.2017 21:02 1,3 °C 1,3 °C 80 % 1029,8 hPa 0,0 mm 0,0 km/h (0 Bft) S-SO 167 ° 0 min 0,000 mm 0,0 UV-I 0 W/m² -1,8 °C 1,3 °C 0,0 km/h (0 Bft)
16.02.2017 21:03 1,3 °C 1,3 °C 80 % 1029,8 hPa 0,0 mm 0,0 km/h (0 Bft) S-SO 167 ° 0 min 0,000 mm 0,0 UV-I 0 W/m² -1,8 °C 1,3 °C 0,0 km/h (0 Bft)
16.02.2017 21:04 1,2 °C 1,3 °C 80 % 1029,8 hPa 0,0 mm 0,0 km/h (0 Bft) S-SO 167 ° 0 min 0,000 mm 0,0 UV-I 0 W/m² -1,9 °C 1,2 °C 0,0 km/h (0 Bft)
16.02.2017 21:05 1,2 °C 1,2 °C 80 % 1029,8 hPa 0,0 mm 0,0 km/h (0 Bft) S-SO 167 ° 0 min 0,000 mm 0,0 UV-I 0 W/m² -1,9 °C 1,2 °C 0,0 km/h (0 Bft)
16.02.2017 21:06 1,2 °C 1,2 °C 80 % 1029,8 hPa 0,0 mm 0,0 km/h (0 Bft) S-SO 167 ° 0 min 0,000 mm 0,0 UV-I 0 W/m² -1,9 °C 1,2 °C 0,0 km/h (0 Bft)
16.02.2017 21:07 1,1 °C 1,2 °C 80 % 1029,8 hPa 0,0 mm 0,0 km/h (0 Bft) S-SO 167 ° 0 min 0,000 mm 0,0 UV-I 0 W/m² -2,0 °C 1,1 °C 0,0 km/h (0 Bft)
16.02.2017 21:08 1,1 °C 1,1 °C 81 % 1029,8 hPa 0,0 mm 0,0 km/h (0 Bft) S-SO 167 ° 0 min 0,000 mm 0,0 UV-I 0 W/m² -1,8 °C 1,1 °C 0,0 km/h (0 Bft)
16.02.2017 21:09 1,1 °C 1,1 °C 81 % 1029,8 hPa 0,0 mm 0,0 km/h (0 Bft) S-SO 167 ° 0 min 0,000 mm 0,0 UV-I 0 W/m² -1,8 °C 1,1 °C 0,0 km/h (0 Bft)
16.02.2017 21:10 1,1 °C 1,1 °C 81 % 1029,7 hPa 0,0 mm 0,0 km/h (0 Bft) S-SO 167 ° 0 min 0,000 mm 0,0 UV-I 0 W/m² -1,8 °C 1,1 °C 0,0 km/h (0 Bft)
16.02.2017 21:11 1,1 °C 1,1 °C 81 % 1029,7 hPa 0,0 mm 0,0 km/h (0 Bft) S-SO 167 ° 0 min 0,000 mm 0,0 UV-I 0 W/m² -1,8 °C 1,1 °C 0,0 km/h (0 Bft)
16.02.2017 21:12 1,1 °C 1,1 °C 81 % 1029,7 hPa 0,0 mm 0,0 km/h (0 Bft) S-SO 167 ° 0 min 0,000 mm 0,0 UV-I 0 W/m² -1,8 °C 1,1 °C 0,0 km/h (0 Bft)
16.02.2017 21:13 1,1 °C 1,1 °C 81 % 1029,8 hPa 0,0 mm 0,0 km/h (0 Bft) S-SO 167 ° 0 min 0,000 mm 0,0 UV-I 0 W/m² -1,8 °C 1,1 °C 0,0 km/h (0 Bft)
16.02.2017 21:14 1,1 °C 1,1 °C 81 % 1029,7 hPa 0,0 mm 0,0 km/h (0 Bft) S-SO 167 ° 0 min 0,000 mm 0,0 UV-I 0 W/m² -1,8 °C 1,1 °C 0,0 km/h (0 Bft)
16.02.2017 21:15 1,1 °C 1,1 °C 81 % 1029,7 hPa 0,0 mm 0,0 km/h (0 Bft) S-SO 167 ° 0 min 0,000 mm 0,0 UV-I 0 W/m² -1,8 °C 1,1 °C 0,0 km/h (0 Bft)
16.02.2017 21:16 1,0 °C 1,1 °C 81 % 1029,7 hPa 0,0 mm 0,0 km/h (0 Bft) S-SO 167 ° 0 min 0,000 mm 0,0 UV-I 0 W/m² -1,9 °C 1,0 °C 0,0 km/h (0 Bft)
16.02.2017 21:17 0,9 °C 1,0 °C 81 % 1029,7 hPa 0,0 mm 0,0 km/h (0 Bft) S-SO 167 ° 0 min 0,000 mm 0,0 UV-I 0 W/m² -2,0 °C 0,9 °C 0,0 km/h (0 Bft)
16.02.2017 21:18 0,9 °C 0,9 °C 82 % 1029,7 hPa 0,0 mm 0,0 km/h (0 Bft) S-SO 167 ° 0 min 0,000 mm 0,0 UV-I 0 W/m² -1,8 °C 0,9 °C 0,0 km/h (0 Bft)
16.02.2017 21:19 0,9 °C 0,9 °C 82 % 1029,7 hPa 0,0 mm 0,0 km/h (0 Bft) S-SO 167 ° 0 min 0,000 mm 0,0 UV-I 0 W/m² -1,8 °C 0,9 °C 0,0 km/h (0 Bft)
16.02.2017 21:20 0,9 °C 0,9 °C 82 % 1029,7 hPa 0,0 mm 0,0 km/h (0 Bft) S-SO 167 ° 0 min 0,000 mm 0,0 UV-I 0 W/m² -1,8 °C 0,9 °C 0,0 km/h (0 Bft)
16.02.2017 21:21 1,0 °C 1,0 °C 82 % 1029,7 hPa 0,0 mm 0,0 km/h (0 Bft) S-SO 167 ° 0 min 0,000 mm 0,0 UV-I 0 W/m² -1,7 °C 1,0 °C 0,0 km/h (0 Bft)
16.02.2017 21:22 1,0 °C 1,0 °C 82 % 1029,7 hPa 0,0 mm 0,0 km/h (0 Bft) S-SO 167 ° 0 min 0,000 mm 0,0 UV-I 0 W/m² -1,7 °C 1,0 °C 0,0 km/h (0 Bft)
16.02.2017 21:23 1,0 °C 1,0 °C 82 % 1029,7 hPa 0,0 mm 2,4 km/h (1 Bft) S-SO 167 ° 0 min 0,000 mm 0,0 UV-I 0 W/m² -1,7 °C 1,0 °C 4,8 km/h (1 Bft)
16.02.2017 21:24 1,0 °C 1,0 °C 82 % 1029,7 hPa 0,0 mm 0,0 km/h (0 Bft) S-SO 167 ° 0 min 0,000 mm 0,0 UV-I 0 W/m² -1,7 °C 1,0 °C 0,0 km/h (0 Bft)
16.02.2017 21:25 1,0 °C 1,0 °C 82 % 1029,7 hPa 0,0 mm 1,0 km/h (0 Bft) S-SO 167 ° 0 min 0,000 mm 0,0 UV-I 0 W/m² -1,7 °C 1,0 °C 4,8 km/h (1 Bft)
16.02.2017 21:26 1,0 °C 1,0 °C 81 % 1029,7 hPa 0,0 mm 2,6 km/h (1 Bft) S-SO 167 ° 0 min 0,000 mm 0,0 UV-I 0 W/m² -1,9 °C 1,0 °C 4,8 km/h (1 Bft)
16.02.2017 21:27 0,9 °C 1,0 °C 81 % 1029,7 hPa 0,0 mm 0,7 km/h (0 Bft) S-SO 167 ° 0 min 0,000 mm 0,0 UV-I 0 W/m² -2,0 °C 0,9 °C 1,6 km/h (1 Bft)
16.02.2017 21:28 0,9 °C 0,9 °C 82 % 1029,8 hPa 0,0 mm 0,4 km/h (0 Bft) S-SO 167 ° 0 min 0,000 mm 0,0 UV-I 0 W/m² -1,8 °C 0,9 °C 1,6 km/h (1 Bft)
16.02.2017 21:29 0,9 °C 0,9 °C 82 % 1029,8 hPa 0,0 mm 0,0 km/h (0 Bft) S-SO 167 ° 0 min 0,000 mm 0,0 UV-I 0 W/m² -1,8 °C 0,9 °C 0,0 km/h (0 Bft)
16.02.2017 21:30 0,9 °C 0,9 °C 82 % 1029,7 hPa 0,0 mm 0,1 km/h (0 Bft) S-SO 167 ° 0 min 0,000 mm 0,0 UV-I 0 W/m² -1,8 °C 0,9 °C 1,6 km/h (1 Bft)
16.02.2017 21:31 0,9 °C 0,9 °C 82 % 1029,7 hPa 0,0 mm 0,5 km/h (0 Bft) S-SO 167 ° 0 min 0,000 mm 0,0 UV-I 0 W/m² -1,8 °C 0,9 °C 1,6 km/h (1 Bft)
16.02.2017 21:32 0,9 °C 0,9 °C 82 % 1029,7 hPa 0,0 mm 0,0 km/h (0 Bft) S-SO 167 ° 0 min 0,000 mm 0,0 UV-I 0 W/m² -1,8 °C 0,9 °C 0,0 km/h (0 Bft)
16.02.2017 21:33 1,0 °C 1,0 °C 82 % 1029,7 hPa 0,0 mm 0,0 km/h (0 Bft) S-SO 167 ° 0 min 0,000 mm 0,0 UV-I 0 W/m² -1,7 °C 1,0 °C 0,0 km/h (0 Bft)
16.02.2017 21:34 1,0 °C 1,0 °C 81 % 1029,7 hPa 0,0 mm 0,5 km/h (0 Bft) SW 226 ° 0 min 0,000 mm 0,0 UV-I 0 W/m² -1,9 °C 1,0 °C 1,6 km/h (1 Bft)
16.02.2017 21:35 0,9 °C 1,0 °C 81 % 1029,7 hPa 0,0 mm 0,7 km/h (0 Bft) SW 226 ° 0 min 0,000 mm 0,0 UV-I 0 W/m² -2,0 °C 0,9 °C 1,6 km/h (1 Bft)
16.02.2017 21:36 0,9 °C 0,9 °C 82 % 1029,7 hPa 0,0 mm 0,6 km/h (0 Bft) SW 226 ° 0 min 0,000 mm 0,0 UV-I 0 W/m² -1,8 °C 0,9 °C 1,6 km/h (1 Bft)
16.02.2017 21:37 0,9 °C 0,9 °C 82 % 1029,6 hPa 0,0 mm 0,7 km/h (0 Bft) SW 226 ° 0 min 0,000 mm 0,0 UV-I 0 W/m² -1,8 °C 0,9 °C 3,2 km/h (1 Bft)
16.02.2017 21:38 0,8 °C 0,9 °C 81 % 1029,7 hPa 0,0 mm 0,0 km/h (0 Bft) SW 226 ° 0 min 0,000 mm 0,0 UV-I 0 W/m² -2,1 °C 0,8 °C 0,0 km/h (0 Bft)
16.02.2017 21:39 0,8 °C 0,8 °C 82 % 1029,7 hPa 0,0 mm 0,0 km/h (0 Bft) SW 226 ° 0 min 0,000 mm 0,0 UV-I 0 W/m² -1,9 °C 0,8 °C 0,0 km/h (0 Bft)
16.02.2017 21:40 0,7 °C 0,8 °C 82 % 1029,6 hPa 0,0 mm 0,3 km/h (0 Bft) SW 226 ° 0 min 0,000 mm 0,0 UV-I 0 W/m² -2,0 °C 0,7 °C 1,6 km/h (1 Bft)
16.02.2017 21:41 0,7 °C 0,7 °C 82 % 1029,6 hPa 0,0 mm 0,0 km/h (0 Bft) SW 226 ° 0 min 0,000 mm 0,0 UV-I 0 W/m² -2,0 °C 0,7 °C 0,0 km/h (0 Bft)
16.02.2017 21:42 0,7 °C 0,7 °C 82 % 1029,6 hPa 0,0 mm 0,4 km/h (0 Bft) SW 226 ° 0 min 0,000 mm 0,0 UV-I 0 W/m² -2,0 °C 0,7 °C 1,6 km/h (1 Bft)
16.02.2017 21:43 0,7 °C 0,7 °C 82 % 1029,6 hPa 0,0 mm 0,7 km/h (0 Bft) SW 226 ° 0 min 0,000 mm 0,0 UV-I 0 W/m² -2,0 °C 0,7 °C 1,6 km/h (1 Bft)
16.02.2017 21:44 0,6 °C 0,7 °C 83 % 1029,6 hPa 0,0 mm 0,0 km/h (0 Bft) SW 226 ° 0 min 0,000 mm 0,0 UV-I 0 W/m² -1,9 °C 0,6 °C 0,0 km/h (0 Bft)
16.02.2017 21:45 0,7 °C 0,7 °C 83 % 1029,6 hPa 0,0 mm 0,0 km/h (0 Bft) SW 226 ° 0 min 0,000 mm 0,0 UV-I 0 W/m² -1,8 °C 0,7 °C 0,0 km/h (0 Bft)
16.02.2017 21:46 0,7 °C 0,7 °C 82 % 1029,5 hPa 0,0 mm 0,0 km/h (0 Bft) SW 226 ° 0 min 0,000 mm 0,0 UV-I 0 W/m² -2,0 °C 0,7 °C 0,0 km/h (0 Bft)
16.02.2017 21:47 0,7 °C 0,7 °C 83 % 1029,6 hPa 0,0 mm 0,0 km/h (0 Bft) SW 226 ° 0 min 0,000 mm 0,0 UV-I 0 W/m² -1,8 °C 0,7 °C 0,0 km/h (0 Bft)
16.02.2017 21:48 0,7 °C 0,7 °C 82 % 1029,6 hPa 0,0 mm 0,0 km/h (0 Bft) SW 226 ° 0 min 0,000 mm 0,0 UV-I 0 W/m² -2,0 °C 0,7 °C 0,0 km/h (0 Bft)
16.02.2017 21:49 0,6 °C 0,7 °C 83 % 1029,6 hPa 0,0 mm 0,0 km/h (0 Bft) SW 226 ° 0 min 0,000 mm 0,0 UV-I 0 W/m² -1,9 °C 0,6 °C 0,0 km/h (0 Bft)
16.02.2017 21:50 0,6 °C 0,6 °C 82 % 1029,5 hPa 0,0 mm 0,1 km/h (0 Bft) SW 226 ° 0 min 0,000 mm 0,0 UV-I 0 W/m² -2,1 °C 0,6 °C 1,6 km/h (1 Bft)
16.02.2017 21:51 0,4 °C 0,6 °C 83 % 1029,5 hPa 0,0 mm 0,0 km/h (0 Bft) SW 226 ° 0 min 0,000 mm 0,0 UV-I 0 W/m² -2,1 °C 0,4 °C 0,0 km/h (0 Bft)
16.02.2017 21:52 0,4 °C 0,4 °C 83 % 1029,5 hPa 0,0 mm 0,1 km/h (0 Bft) SW 226 ° 0 min 0,000 mm 0,0 UV-I 0 W/m² -2,1 °C 0,4 °C 1,6 km/h (1 Bft)
16.02.2017 21:53 0,4 °C 0,4 °C 84 % 1029,5 hPa 0,0 mm 0,3 km/h (0 Bft) SW 226 ° 0 min 0,000 mm 0,0 UV-I 0 W/m² -2,0 °C 0,4 °C 1,6 km/h (1 Bft)
16.02.2017 21:54 0,5 °C 0,6 °C 84 % 1029,5 hPa 0,0 mm 0,1 km/h (0 Bft) SW 226 ° 0 min 0,000 mm 0,0 UV-I 0 W/m² -1,9 °C 0,5 °C 1,6 km/h (1 Bft)
16.02.2017 21:55 0,6 °C 0,6 °C 83 % 1029,5 hPa 0,0 mm 0,0 km/h (0 Bft) SW 226 ° 0 min 0,000 mm 0,0 UV-I 0 W/m² -1,9 °C 0,6 °C 0,0 km/h (0 Bft)
16.02.2017 21:56 0,5 °C 0,6 °C 83 % 1029,5 hPa 0,0 mm 0,0 km/h (0 Bft) SW 226 ° 0 min 0,000 mm 0,0 UV-I 0 W/m² -2,0 °C 0,5 °C 0,0 km/h (0 Bft)
16.02.2017 21:57 0,6 °C 0,6 °C 83 % 1029,5 hPa 0,0 mm 0,0 km/h (0 Bft) SW 226 ° 0 min 0,000 mm 0,0 UV-I 0 W/m² -1,9 °C 0,6 °C 0,0 km/h (0 Bft)
16.02.2017 21:58 0,5 °C 0,6 °C 83 % 1029,5 hPa 0,0 mm 0,1 km/h (0 Bft) SW 226 ° 0 min 0,000 mm 0,0 UV-I 0 W/m² -2,0 °C 0,5 °C 1,6 km/h (1 Bft)
16.02.2017 21:59 0,4 °C 0,5 °C 83 % 1029,5 hPa 0,0 mm 0,0 km/h (0 Bft) SW 226 ° 0 min 0,000 mm 0,0 UV-I 0 W/m² -2,1 °C 0,4 °C 0,0 km/h (0 Bft)
16.02.2017 22:00 0,4 °C 0,4 °C 83 % 1029,5 hPa 0,0 mm 0,1 km/h (0 Bft) SW 226 ° 0 min 0,000 mm 0,0 UV-I 0 W/m² -2,1 °C 0,4 °C 1,6 km/h (1 Bft)
16.02.2017 22:01 0,4 °C 0,4 °C 84 % 1029,6 hPa 0,0 mm 0,2 km/h (0 Bft) SW 226 ° 0 min 0,000 mm 0,0 UV-I 0 W/m² -2,0 °C 0,4 °C 1,6 km/h (1 Bft)
16.02.2017 22:02 0,4 °C 0,4 °C 84 % 1029,5 hPa 0,0 mm 0,0 km/h (0 Bft) SW 226 ° 0 min 0,000 mm 0,0 UV-I 0 W/m² -2,0 °C 0,4 °C 0,0 km/h (0 Bft)
16.02.2017 22:03 0,4 °C 0,4 °C 83 % 1029,4 hPa 0,0 mm 0,2 km/h (0 Bft) SW 226 ° 0 min 0,000 mm 0,0 UV-I 0 W/m² -2,1 °C 0,4 °C 1,6 km/h (1 Bft)
16.02.2017 22:04 0,5 °C 0,5 °C 83 % 1029,5 hPa 0,0 mm 0,1 km/h (0 Bft) SW 226 ° 0 min 0,000 mm 0,0 UV-I 0 W/m² -2,0 °C 0,5 °C 1,6 km/h (1 Bft)
16.02.2017 22:05 0,5 °C 0,5 °C 83 % 1029,4 hPa 0,0 mm 0,0 km/h (0 Bft) SW 226 ° 0 min 0,000 mm 0,0 UV-I 0 W/m² -2,0 °C 0,5 °C 0,0 km/h (0 Bft)
16.02.2017 22:06 0,5 °C 0,5 °C 83 % 1029,4 hPa 0,0 mm 0,2 km/h (0 Bft) SW 226 ° 0 min 0,000 mm 0,0 UV-I 0 W/m² -2,0 °C 0,5 °C 1,6 km/h (1 Bft)
16.02.2017 22:07 0,5 °C 0,5 °C 84 % 1029,4 hPa 0,0 mm 0,1 km/h (0 Bft) SW 226 ° 0 min 0,000 mm 0,0 UV-I 0 W/m² -1,9 °C 0,5 °C 1,6 km/h (1 Bft)
16.02.2017 22:08 0,5 °C 0,6 °C 83 % 1029,4 hPa 0,0 mm 0,0 km/h (0 Bft) SW 226 ° 0 min 0,000 mm 0,0 UV-I 0 W/m² -2,0 °C 0,5 °C 0,0 km/h (0 Bft)
16.02.2017 22:09 0,4 °C 0,5 °C 83 % 1029,4 hPa 0,0 mm 0,1 km/h (0 Bft) SW 226 ° 0 min 0,000 mm 0,0 UV-I 0 W/m² -2,1 °C 0,4 °C 1,6 km/h (1 Bft)
16.02.2017 22:10 0,4 °C 0,4 °C 83 % 1029,5 hPa 0,0 mm 1,0 km/h (0 Bft) SW 226 ° 0 min 0,000 mm 0,0 UV-I 0 W/m² -2,1 °C 0,4 °C 1,6 km/h (1 Bft)
16.02.2017 22:11 0,4 °C 0,4 °C 83 % 1029,4 hPa 0,0 mm 0,0 km/h (0 Bft) SW 226 ° 0 min 0,000 mm 0,0 UV-I 0 W/m² -2,1 °C 0,4 °C 0,0 km/h (0 Bft)
16.02.2017 22:12 0,3 °C 0,4 °C 83 % 1029,4 hPa 0,0 mm 0,0 km/h (0 Bft) SW 226 ° 0 min 0,000 mm 0,0 UV-I 0 W/m² -2,2 °C 0,3 °C 0,0 km/h (0 Bft)
16.02.2017 22:13 0,3 °C 0,3 °C 83 % 1029,4 hPa 0,0 mm 0,1 km/h (0 Bft) SW 226 ° 0 min 0,000 mm 0,0 UV-I 0 W/m² -2,2 °C 0,3 °C 1,6 km/h (1 Bft)
16.02.2017 22:14 0,3 °C 0,3 °C 84 % 1029,4 hPa 0,0 mm 0,0 km/h (0 Bft) SW 226 ° 0 min 0,000 mm 0,0 UV-I 0 W/m² -2,1 °C 0,3 °C 0,0 km/h (0 Bft)
16.02.2017 22:15 0,2 °C 0,3 °C 84 % 1029,4 hPa 0,0 mm 0,1 km/h (0 Bft) SW 226 ° 0 min 0,000 mm 0,0 UV-I 0 W/m² -2,2 °C 0,2 °C 1,6 km/h (1 Bft)
16.02.2017 22:16 0,2 °C 0,2 °C 84 % 1029,3 hPa 0,0 mm 0,0 km/h (0 Bft) SW 226 ° 0 min 0,000 mm 0,0 UV-I 0 W/m² -2,2 °C 0,2 °C 0,0 km/h (0 Bft)
16.02.2017 22:17 0,3 °C 0,3 °C 84 % 1029,3 hPa 0,0 mm 0,0 km/h (0 Bft) SW 226 ° 0 min 0,000 mm 0,0 UV-I 0 W/m² -2,1 °C 0,3 °C 0,0 km/h (0 Bft)
16.02.2017 22:18 0,2 °C 0,3 °C 84 % 1029,3 hPa 0,0 mm 0,0 km/h (0 Bft) SW 226 ° 0 min 0,000 mm 0,0 UV-I 0 W/m² -2,2 °C 0,2 °C 0,0 km/h (0 Bft)
16.02.2017 22:19 0,2 °C 0,3 °C 83 % 1029,3 hPa 0,0 mm 0,0 km/h (0 Bft) SW 226 ° 0 min 0,000 mm 0,0 UV-I 0 W/m² -2,3 °C 0,2 °C 0,0 km/h (0 Bft)
16.02.2017 22:20 0,2 °C 0,2 °C 84 % 1029,3 hPa 0,0 mm 0,0 km/h (0 Bft) SW 226 ° 0 min 0,000 mm 0,0 UV-I 0 W/m² -2,2 °C 0,2 °C 0,0 km/h (0 Bft)
16.02.2017 22:21 0,2 °C 0,2 °C 84 % 1029,3 hPa 0,0 mm 0,1 km/h (0 Bft) SW 226 ° 0 min 0,000 mm 0,0 UV-I 0 W/m² -2,2 °C 0,2 °C 1,6 km/h (1 Bft)
16.02.2017 22:22 0,2 °C 0,2 °C 84 % 1029,3 hPa 0,0 mm 0,1 km/h (0 Bft) SW 226 ° 0 min 0,000 mm 0,0 UV-I 0 W/m² -2,2 °C 0,2 °C 1,6 km/h (1 Bft)
16.02.2017 22:23 0,2 °C 0,2 °C 84 % 1029,3 hPa 0,0 mm 0,2 km/h (0 Bft) SW 226 ° 0 min 0,000 mm 0,0 UV-I 0 W/m² -2,2 °C 0,2 °C 1,6 km/h (1 Bft)
16.02.2017 22:24 0,2 °C 0,2 °C 84 % 1029,3 hPa 0,0 mm 0,1 km/h (0 Bft) SW 226 ° 0 min 0,000 mm 0,0 UV-I 0 W/m² -2,2 °C 0,2 °C 1,6 km/h (1 Bft)
16.02.2017 22:25 0,2 °C 0,2 °C 84 % 1029,3 hPa 0,0 mm 0,0 km/h (0 Bft) SW 226 ° 0 min 0,000 mm 0,0 UV-I 0 W/m² -2,2 °C 0,2 °C 0,0 km/h (0 Bft)
16.02.2017 22:26 0,2 °C 0,2 °C 84 % 1029,3 hPa 0,0 mm 0,5 km/h (0 Bft) SW 226 ° 0 min 0,000 mm 0,0 UV-I 0 W/m² -2,2 °C 0,2 °C 1,6 km/h (1 Bft)
16.02.2017 22:27 0,1 °C 0,2 °C 84 % 1029,3 hPa 0,0 mm 0,3 km/h (0 Bft) SW 226 ° 0 min 0,000 mm 0,0 UV-I 0 W/m² -2,3 °C 0,1 °C 1,6 km/h (1 Bft)
16.02.2017 22:28 0,1 °C 0,1 °C 85 % 1029,3 hPa 0,0 mm 0,0 km/h (0 Bft) SW 226 ° 0 min 0,000 mm 0,0 UV-I 0 W/m² -2,1 °C 0,1 °C 0,0 km/h (0 Bft)
16.02.2017 22:29 0,1 °C 0,1 °C 85 % 1029,2 hPa 0,0 mm 0,0 km/h (0 Bft) SW 226 ° 0 min 0,000 mm 0,0 UV-I 0 W/m² -2,1 °C 0,1 °C 0,0 km/h (0 Bft)
16.02.2017 22:30 0,2 °C 0,2 °C 85 % 1029,2 hPa 0,0 mm 0,0 km/h (0 Bft) SW 226 ° 0 min 0,000 mm 0,0 UV-I 0 W/m² -2,0 °C 0,2 °C 0,0 km/h (0 Bft)
16.02.2017 22:31 0,2 °C 0,2 °C 84 % 1029,2 hPa 0,0 mm 0,0 km/h (0 Bft) SW 226 ° 0 min 0,000 mm 0,0 UV-I 0 W/m² -2,2 °C 0,2 °C 0,0 km/h (0 Bft)
16.02.2017 22:32 0,2 °C 0,2 °C 85 % 1029,2 hPa 0,0 mm 0,0 km/h (0 Bft) SW 226 ° 0 min 0,000 mm 0,0 UV-I 0 W/m² -2,0 °C 0,2 °C 0,0 km/h (0 Bft)
16.02.2017 22:33 0,2 °C 0,2 °C 85 % 1029,2 hPa 0,0 mm 0,0 km/h (0 Bft) SW 226 ° 0 min 0,000 mm 0,0 UV-I 0 W/m² -2,0 °C 0,2 °C 0,0 km/h (0 Bft)
16.02.2017 22:34 0,2 °C 0,2 °C 84 % 1029,2 hPa 0,0 mm 0,1 km/h (0 Bft) SW 226 ° 0 min 0,000 mm 0,0 UV-I 0 W/m² -2,2 °C 0,2 °C 1,6 km/h (1 Bft)
16.02.2017 22:35 0,2 °C 0,2 °C 84 % 1029,2 hPa 0,0 mm 0,1 km/h (0 Bft) SW 226 ° 0 min 0,000 mm 0,0 UV-I 0 W/m² -2,2 °C 0,2 °C 1,6 km/h (1 Bft)
16.02.2017 22:36 0,1 °C 0,2 °C 84 % 1029,2 hPa 0,0 mm 0,2 km/h (0 Bft) SW 226 ° 0 min 0,000 mm 0,0 UV-I 0 W/m² -2,3 °C 0,1 °C 1,6 km/h (1 Bft)
16.02.2017 22:37 0,1 °C 0,2 °C 84 % 1029,2 hPa 0,0 mm 0,6 km/h (0 Bft) SW 226 ° 0 min 0,000 mm 0,0 UV-I 0 W/m² -2,3 °C 0,1 °C 1,6 km/h (1 Bft)
16.02.2017 22:38 0,1 °C 0,2 °C 84 % 1029,2 hPa 0,0 mm 0,0 km/h (0 Bft) SW 226 ° 0 min 0,000 mm 0,0 UV-I 0 W/m² -2,3 °C 0,1 °C 0,0 km/h (0 Bft)
16.02.2017 22:39 0,1 °C 0,2 °C 84 % 1029,2 hPa 0,0 mm 0,0 km/h (0 Bft) SW 226 ° 0 min 0,000 mm 0,0 UV-I 0 W/m² -2,3 °C 0,1 °C 0,0 km/h (0 Bft)
16.02.2017 22:40 0,1 °C 0,1 °C 84 % 1029,2 hPa 0,0 mm 0,4 km/h (0 Bft) SW 226 ° 0 min 0,000 mm 0,0 UV-I 0 W/m² -2,3 °C 0,1 °C 1,6 km/h (1 Bft)
16.02.2017 22:41 -0,1 °C 0,1 °C 84 % 1029,2 hPa 0,0 mm 0,1 km/h (0 Bft) SW 226 ° 0 min 0,000 mm 0,0 UV-I 0 W/m² -2,5 °C -0,1 °C 1,6 km/h (1 Bft)
16.02.2017 22:42 -0,1 °C -0,1 °C 84 % 1029,2 hPa 0,0 mm 0,2 km/h (0 Bft) SW 226 ° 0 min 0,000 mm 0,0 UV-I 0 W/m² -2,5 °C -0,1 °C 1,6 km/h (1 Bft)
16.02.2017 22:43 -0,1 °C -0,1 °C 85 % 1029,2 hPa 0,0 mm 0,1 km/h (0 Bft) SW 226 ° 0 min 0,000 mm 0,0 UV-I 0 W/m² -2,3 °C -0,1 °C 1,6 km/h (1 Bft)
16.02.2017 22:44 0,0 °C 0,0 °C 84 % 1029,2 hPa 0,0 mm 0,1 km/h (0 Bft) SW 226 ° 0 min 0,000 mm 0,0 UV-I 0 W/m² -2,4 °C 0,0 °C 1,6 km/h (1 Bft)
16.02.2017 22:45 -0,1 °C 0,0 °C 84 % 1029,2 hPa 0,0 mm 0,5 km/h (0 Bft) SW 226 ° 0 min 0,000 mm 0,0 UV-I 0 W/m² -2,5 °C -0,1 °C 1,6 km/h (1 Bft)
16.02.2017 22:46 -0,1 °C 0,0 °C 84 % 1029,2 hPa 0,0 mm 0,5 km/h (0 Bft) SW 226 ° 0 min 0,000 mm 0,0 UV-I 0 W/m² -2,5 °C -0,1 °C 1,6 km/h (1 Bft)
16.02.2017 22:47 -0,1 °C 0,0 °C 84 % 1029,2 hPa 0,0 mm 0,4 km/h (0 Bft) SW 226 ° 0 min 0,000 mm 0,0 UV-I 0 W/m² -2,5 °C -0,1 °C 1,6 km/h (1 Bft)
16.02.2017 22:48 -0,1 °C -0,1 °C 84 % 1029,2 hPa 0,0 mm 0,0 km/h (0 Bft) SW 226 ° 0 min 0,000 mm 0,0 UV-I 0 W/m² -2,5 °C -0,1 °C 0,0 km/h (0 Bft)
16.02.2017 22:49 -0,1 °C -0,1 °C 85 % 1029,2 hPa 0,0 mm 0,0 km/h (0 Bft) SW 226 ° 0 min 0,000 mm 0,0 UV-I 0 W/m² -2,3 °C -0,1 °C 0,0 km/h (0 Bft)
16.02.2017 22:50 -0,1 °C -0,1 °C 84 % 1029,2 hPa 0,0 mm 0,0 km/h (0 Bft) SW 226 ° 0 min 0,000 mm 0,0 UV-I 0 W/m² -2,5 °C -0,1 °C 0,0 km/h (0 Bft)
16.02.2017 22:51 -0,2 °C -0,1 °C 84 % 1029,2 hPa 0,0 mm 0,0 km/h (0 Bft) SW 226 ° 0 min 0,000 mm 0,0 UV-I 0 W/m² -2,6 °C -0,2 °C 0,0 km/h (0 Bft)
16.02.2017 22:52 -0,2 °C -0,2 °C 84 % 1029,2 hPa 0,0 mm 0,0 km/h (0 Bft) SW 226 ° 0 min 0,000 mm 0,0 UV-I 0 W/m² -2,6 °C -0,2 °C 0,0 km/h (0 Bft)
16.02.2017 22:53 -0,2 °C -0,2 °C 85 % 1029,2 hPa 0,0 mm 0,0 km/h (0 Bft) SW 226 ° 0 min 0,000 mm 0,0 UV-I 0 W/m² -2,4 °C -0,2 °C 0,0 km/h (0 Bft)
16.02.2017 22:54 -0,2 °C -0,2 °C 85 % 1029,1 hPa 0,0 mm 0,0 km/h (0 Bft) SW 226 ° 0 min 0,000 mm 0,0 UV-I 0 W/m² -2,4 °C -0,2 °C 0,0 km/h (0 Bft)
16.02.2017 22:55 -0,2 °C -0,2 °C 85 % 1029,2 hPa 0,0 mm 0,0 km/h (0 Bft) SW 226 ° 0 min 0,000 mm 0,0 UV-I 0 W/m² -2,4 °C -0,2 °C 0,0 km/h (0 Bft)
16.02.2017 22:56 -0,2 °C -0,2 °C 85 % 1029,1 hPa 0,0 mm 0,3 km/h (0 Bft) SW 226 ° 0 min 0,000 mm 0,0 UV-I 0 W/m² -2,4 °C -0,2 °C 1,6 km/h (1 Bft)
16.02.2017 22:57 -0,2 °C -0,2 °C 85 % 1029,1 hPa 0,0 mm 0,2 km/h (0 Bft) SW 226 ° 0 min 0,000 mm 0,0 UV-I 0 W/m² -2,4 °C -0,2 °C 1,6 km/h (1 Bft)
16.02.2017 22:58 -0,2 °C -0,2 °C 85 % 1029,1 hPa 0,0 mm 0,2 km/h (0 Bft) SW 226 ° 0 min 0,000 mm 0,0 UV-I 0 W/m² -2,4 °C -0,2 °C 1,6 km/h (1 Bft)
16.02.2017 22:59 -0,2 °C -0,2 °C 85 % 1029,1 hPa 0,0 mm 0,5 km/h (0 Bft) SW 226 ° 0 min 0,000 mm 0,0 UV-I 0 W/m² -2,4 °C -0,2 °C 1,6 km/h (1 Bft)
16.02.2017 23:00 -0,3 °C -0,2 °C 85 % 1029,0 hPa 0,0 mm 0,6 km/h (0 Bft) SW 226 ° 0 min 0,000 mm 0,0 UV-I 0 W/m² -2,5 °C -0,3 °C 1,6 km/h (1 Bft)
16.02.2017 23:01 -0,3 °C -0,2 °C 85 % 1029,1 hPa 0,0 mm 0,0 km/h (0 Bft) SW 226 ° 0 min 0,000 mm 0,0 UV-I 0 W/m² -2,5 °C -0,3 °C 0,0 km/h (0 Bft)
16.02.2017 23:02 -0,2 °C -0,2 °C 85 % 1029,1 hPa 0,0 mm 0,0 km/h (0 Bft) SW 226 ° 0 min 0,000 mm 0,0 UV-I 0 W/m² -2,4 °C -0,2 °C 0,0 km/h (0 Bft)
16.02.2017 23:03 -0,2 °C -0,2 °C 85 % 1029,1 hPa 0,0 mm 0,0 km/h (0 Bft) SW 226 ° 0 min 0,000 mm 0,0 UV-I 0 W/m² -2,4 °C -0,2 °C 0,0 km/h (0 Bft)
16.02.2017 23:04 -0,2 °C -0,2 °C 85 % 1029,0 hPa 0,0 mm 0,3 km/h (0 Bft) SW 226 ° 0 min 0,000 mm 0,0 UV-I 0 W/m² -2,4 °C -0,2 °C 1,6 km/h (1 Bft)
16.02.2017 23:05 -0,2 °C -0,2 °C 85 % 1029,1 hPa 0,0 mm 0,3 km/h (0 Bft) SW 226 ° 0 min 0,000 mm 0,0 UV-I 0 W/m² -2,4 °C -0,2 °C 1,6 km/h (1 Bft)
16.02.2017 23:06 -0,2 °C -0,2 °C 85 % 1029,1 hPa 0,0 mm 0,2 km/h (0 Bft) SW 226 ° 0 min 0,000 mm 0,0 UV-I 0 W/m² -2,4 °C -0,2 °C 1,6 km/h (1 Bft)
16.02.2017 23:07 -0,2 °C -0,2 °C 85 % 1029,0 hPa 0,0 mm 0,4 km/h (0 Bft) SW 226 ° 0 min 0,000 mm 0,0 UV-I 0 W/m² -2,4 °C -0,2 °C 1,6 km/h (1 Bft)
16.02.2017 23:08 -0,3 °C -0,2 °C 84 % 1029,0 hPa 0,0 mm 0,1 km/h (0 Bft) SW 226 ° 0 min 0,000 mm 0,0 UV-I 0 W/m² -2,7 °C -0,3 °C 1,6 km/h (1 Bft)
16.02.2017 23:09 -0,3 °C -0,3 °C 85 % 1029,0 hPa 0,0 mm 0,0 km/h (0 Bft) SW 226 ° 0 min 0,000 mm 0,0 UV-I 0 W/m² -2,5 °C -0,3 °C 0,0 km/h (0 Bft)
16.02.2017 23:10 -0,4 °C -0,3 °C 85 % 1029,0 hPa 0,0 mm 0,0 km/h (0 Bft) SW 226 ° 0 min 0,000 mm 0,0 UV-I 0 W/m² -2,6 °C -0,4 °C 0,0 km/h (0 Bft)
16.02.2017 23:11 -0,4 °C -0,4 °C 85 % 1029,0 hPa 0,0 mm 0,0 km/h (0 Bft) SW 226 ° 0 min 0,000 mm 0,0 UV-I 0 W/m² -2,6 °C -0,4 °C 0,0 km/h (0 Bft)
16.02.2017 23:12 -0,6 °C -0,4 °C 85 % 1029,0 hPa 0,0 mm 0,0 km/h (0 Bft) SW 226 ° 0 min 0,000 mm 0,0 UV-I 0 W/m² -2,8 °C -0,6 °C 0,0 km/h (0 Bft)
16.02.2017 23:13 -0,6 °C -0,6 °C 86 % 1029,0 hPa 0,0 mm 0,0 km/h (0 Bft) SW 226 ° 0 min 0,000 mm 0,0 UV-I 0 W/m² -2,6 °C -0,6 °C 0,0 km/h (0 Bft)
16.02.2017 23:14 -0,6 °C -0,6 °C 86 % 1029,0 hPa 0,0 mm 0,0 km/h (0 Bft) SW 226 ° 0 min 0,000 mm 0,0 UV-I 0 W/m² -2,6 °C -0,6 °C 0,0 km/h (0 Bft)
16.02.2017 23:15 -0,5 °C -0,4 °C 86 % 1029,0 hPa 0,0 mm 0,0 km/h (0 Bft) SW 226 ° 0 min 0,000 mm 0,0 UV-I 0 W/m² -2,5 °C -0,5 °C 0,0 km/h (0 Bft)
16.02.2017 23:16 -0,5 °C -0,4 °C 86 % 1029,0 hPa 0,0 mm 0,0 km/h (0 Bft) SW 226 ° 0 min 0,000 mm 0,0 UV-I 0 W/m² -2,5 °C -0,5 °C 0,0 km/h (0 Bft)
16.02.2017 23:17 -0,5 °C -0,4 °C 86 % 1029,0 hPa 0,0 mm 0,5 km/h (0 Bft) SW 226 ° 0 min 0,000 mm 0,0 UV-I 0 W/m² -2,5 °C -0,5 °C 1,6 km/h (1 Bft)
16.02.2017 23:18 -0,4 °C -0,4 °C 86 % 1029,0 hPa 0,0 mm 2,7 km/h (1 Bft) S-SW 207 ° 0 min 0,000 mm 0,0 UV-I 0 W/m² -2,4 °C -0,4 °C 3,2 km/h (1 Bft)
16.02.2017 23:19 -0,3 °C -0,3 °C 86 % 1028,9 hPa 0,0 mm 2,3 km/h (1 Bft) S-SW 207 ° 0 min 0,000 mm 0,0 UV-I 0 W/m² -2,3 °C -0,3 °C 3,2 km/h (1 Bft)
16.02.2017 23:20 -0,1 °C -0,1 °C 86 % 1028,9 hPa 0,0 mm 0,0 km/h (0 Bft) S-SW 207 ° 0 min 0,000 mm 0,0 UV-I 0 W/m² -2,2 °C -0,1 °C 0,0 km/h (0 Bft)
16.02.2017 23:21 -0,2 °C -0,1 °C 85 % 1028,9 hPa 0,0 mm 0,1 km/h (0 Bft) S-SW 207 ° 0 min 0,000 mm 0,0 UV-I 0 W/m² -2,4 °C -0,2 °C 1,6 km/h (1 Bft)
16.02.2017 23:22 -0,2 °C -0,2 °C 85 % 1028,8 hPa 0,0 mm 1,4 km/h (1 Bft) S-SW 207 ° 0 min 0,000 mm 0,0 UV-I 0 W/m² -2,4 °C -0,2 °C 3,2 km/h (1 Bft)
16.02.2017 23:23 -0,2 °C -0,2 °C 85 % 1028,8 hPa 0,0 mm 0,1 km/h (0 Bft) S-SW 207 ° 0 min 0,000 mm 0,0 UV-I 0 W/m² -2,4 °C -0,2 °C 1,6 km/h (1 Bft)
16.02.2017 23:24 -0,2 °C -0,2 °C 85 % 1028,8 hPa 0,0 mm 0,0 km/h (0 Bft) S-SW 207 ° 0 min 0,000 mm 0,0 UV-I 0 W/m² -2,4 °C -0,2 °C 0,0 km/h (0 Bft)
16.02.2017 23:25 -0,3 °C -0,2 °C 85 % 1028,8 hPa 0,0 mm 0,0 km/h (0 Bft) S-SW 207 ° 0 min 0,000 mm 0,0 UV-I 0 W/m² -2,5 °C -0,3 °C 0,0 km/h (0 Bft)
16.02.2017 23:26 -0,3 °C -0,3 °C 86 % 1028,8 hPa 0,0 mm 0,4 km/h (0 Bft) S-SW 207 ° 0 min 0,000 mm 0,0 UV-I 0 W/m² -2,3 °C -0,3 °C 1,6 km/h (1 Bft)
16.02.2017 23:28 -0,2 °C -0,2 °C 86 % 1028,7 hPa 0,0 mm 0,0 km/h (0 Bft) S-SW 207 ° 0 min 0,000 mm 0,0 UV-I 0 W/m² -2,3 °C -0,2 °C 0,0 km/h (0 Bft)
16.02.2017 23:29 -0,2 °C -0,2 °C 85 % 1028,7 hPa 0,0 mm 0,0 km/h (0 Bft) S-SW 207 ° 0 min 0,000 mm 0,0 UV-I 0 W/m² -2,4 °C -0,2 °C 0,0 km/h (0 Bft)
16.02.2017 23:30 -0,3 °C -0,2 °C 85 % 1028,7 hPa 0,0 mm 0,0 km/h (0 Bft) S-SW 207 ° 0 min 0,000 mm 0,0 UV-I 0 W/m² -2,5 °C -0,3 °C 0,0 km/h (0 Bft)
16.02.2017 23:31 -0,3 °C -0,3 °C 85 % 1028,7 hPa 0,0 mm 0,0 km/h (0 Bft) S-SW 207 ° 0 min 0,000 mm 0,0 UV-I 0 W/m² -2,5 °C -0,3 °C 0,0 km/h (0 Bft)
16.02.2017 23:32 -0,3 °C -0,3 °C 85 % 1028,7 hPa 0,0 mm 0,0 km/h (0 Bft) S-SW 207 ° 0 min 0,000 mm 0,0 UV-I 0 W/m² -2,5 °C -0,3 °C 0,0 km/h (0 Bft)
16.02.2017 23:33 -0,4 °C -0,3 °C 85 % 1028,6 hPa 0,0 mm 0,0 km/h (0 Bft) S-SW 207 ° 0 min 0,000 mm 0,0 UV-I 0 W/m² -2,6 °C -0,4 °C 0,0 km/h (0 Bft)
16.02.2017 23:34 -0,4 °C -0,3 °C 85 % 1028,7 hPa 0,0 mm 0,0 km/h (0 Bft) S-SW 207 ° 0 min 0,000 mm 0,0 UV-I 0 W/m² -2,6 °C -0,4 °C 0,0 km/h (0 Bft)
16.02.2017 23:35 -0,4 °C -0,4 °C 86 % 1028,6 hPa 0,0 mm 0,0 km/h (0 Bft) S-SW 207 ° 0 min 0,000 mm 0,0 UV-I 0 W/m² -2,4 °C -0,4 °C 0,0 km/h (0 Bft)
16.02.2017 23:36 -0,4 °C -0,4 °C 86 % 1028,6 hPa 0,0 mm 0,0 km/h (0 Bft) S-SW 207 ° 0 min 0,000 mm 0,0 UV-I 0 W/m² -2,4 °C -0,4 °C 0,0 km/h (0 Bft)
16.02.2017 23:37 -0,3 °C -0,3 °C 86 % 1028,6 hPa 0,0 mm 0,0 km/h (0 Bft) S-SW 207 ° 0 min 0,000 mm 0,0 UV-I 0 W/m² -2,3 °C -0,3 °C 0,0 km/h (0 Bft)
16.02.2017 23:38 -0,2 °C -0,2 °C 86 % 1028,6 hPa 0,0 mm 0,0 km/h (0 Bft) S-SW 207 ° 0 min 0,000 mm 0,0 UV-I 0 W/m² -2,3 °C -0,2 °C 0,0 km/h (0 Bft)
16.02.2017 23:39 -0,1 °C -0,1 °C 86 % 1028,6 hPa 0,0 mm 0,0 km/h (0 Bft) S-SW 207 ° 0 min 0,000 mm 0,0 UV-I 0 W/m² -2,2 °C -0,1 °C 0,0 km/h (0 Bft)
16.02.2017 23:40 -0,1 °C -0,1 °C 86 % 1028,6 hPa 0,0 mm 0,0 km/h (0 Bft) S-SW 207 ° 0 min 0,000 mm 0,0 UV-I 0 W/m² -2,2 °C -0,1 °C 0,0 km/h (0 Bft)
16.02.2017 23:41 -0,1 °C -0,1 °C 84 % 1028,5 hPa 0,0 mm 0,0 km/h (0 Bft) S-SW 207 ° 0 min 0,000 mm 0,0 UV-I 0 W/m² -2,5 °C -0,1 °C 0,0 km/h (0 Bft)
16.02.2017 23:42 -0,2 °C -0,1 °C 85 % 1028,5 hPa 0,0 mm 0,0 km/h (0 Bft) S-SW 207 ° 0 min 0,000 mm 0,0 UV-I 0 W/m² -2,4 °C -0,2 °C 0,0 km/h (0 Bft)
16.02.2017 23:43 -0,2 °C -0,2 °C 85 % 1028,6 hPa 0,0 mm 0,0 km/h (0 Bft) S-SW 207 ° 0 min 0,000 mm 0,0 UV-I 0 W/m² -2,4 °C -0,2 °C 0,0 km/h (0 Bft)
16.02.2017 23:44 -0,3 °C -0,2 °C 85 % 1028,5 hPa 0,0 mm 0,0 km/h (0 Bft) S-SW 207 ° 0 min 0,000 mm 0,0 UV-I 0 W/m² -2,5 °C -0,3 °C 0,0 km/h (0 Bft)
16.02.2017 23:45 -0,3 °C -0,3 °C 85 % 1028,5 hPa 0,0 mm 0,0 km/h (0 Bft) S-SW 207 ° 0 min 0,000 mm 0,0 UV-I 0 W/m² -2,5 °C -0,3 °C 0,0 km/h (0 Bft)
16.02.2017 23:46 -0,3 °C -0,3 °C 86 % 1028,5 hPa 0,0 mm 0,0 km/h (0 Bft) S-SW 207 ° 0 min 0,000 mm 0,0 UV-I 0 W/m² -2,3 °C -0,3 °C 0,0 km/h (0 Bft)
16.02.2017 23:47 -0,3 °C -0,3 °C 86 % 1028,5 hPa 0,0 mm 0,0 km/h (0 Bft) S-SW 207 ° 0 min 0,000 mm 0,0 UV-I 0 W/m² -2,3 °C -0,3 °C 0,0 km/h (0 Bft)
16.02.2017 23:48 -0,3 °C -0,3 °C 86 % 1028,5 hPa 0,0 mm 0,0 km/h (0 Bft) S-SW 207 ° 0 min 0,000 mm 0,0 UV-I 0 W/m² -2,3 °C -0,3 °C 0,0 km/h (0 Bft)
16.02.2017 23:49 -0,3 °C -0,2 °C 86 % 1028,4 hPa 0,0 mm 0,0 km/h (0 Bft) S-SW 207 ° 0 min 0,000 mm 0,0 UV-I 0 W/m² -2,3 °C -0,3 °C 0,0 km/h (0 Bft)
16.02.2017 23:50 -0,3 °C -0,2 °C 85 % 1028,4 hPa 0,0 mm 0,0 km/h (0 Bft) S-SW 207 ° 0 min 0,000 mm 0,0 UV-I 0 W/m² -2,5 °C -0,3 °C 0,0 km/h (0 Bft)
16.02.2017 23:51 -0,2 °C -0,2 °C 86 % 1028,4 hPa 0,0 mm 0,0 km/h (0 Bft) S-SW 207 ° 0 min 0,000 mm 0,0 UV-I 0 W/m² -2,3 °C -0,2 °C 0,0 km/h (0 Bft)
16.02.2017 23:52 -0,2 °C -0,2 °C 86 % 1028,4 hPa 0,0 mm 0,0 km/h (0 Bft) S-SW 207 ° 0 min 0,000 mm 0,0 UV-I 0 W/m² -2,3 °C -0,2 °C 0,0 km/h (0 Bft)
16.02.2017 23:53 -0,2 °C -0,2 °C 86 % 1028,4 hPa 0,0 mm 0,1 km/h (0 Bft) S-SW 207 ° 0 min 0,000 mm 0,0 UV-I 0 W/m² -2,3 °C -0,2 °C 1,6 km/h (1 Bft)
16.02.2017 23:54 -0,2 °C -0,2 °C 86 % 1028,4 hPa 0,0 mm 0,1 km/h (0 Bft) S-SW 207 ° 0 min 0,000 mm 0,0 UV-I 0 W/m² -2,3 °C -0,2 °C 1,6 km/h (1 Bft)
16.02.2017 23:55 -0,1 °C -0,1 °C 86 % 1028,4 hPa 0,0 mm 0,2 km/h (0 Bft) S-SW 207 ° 0 min 0,000 mm 0,0 UV-I 0 W/m² -2,2 °C -0,1 °C 1,6 km/h (1 Bft)
16.02.2017 23:56 -0,1 °C -0,1 °C 86 % 1028,4 hPa 0,0 mm 0,1 km/h (0 Bft) S-SW 207 ° 0 min 0,000 mm 0,0 UV-I 0 W/m² -2,2 °C -0,1 °C 1,6 km/h (1 Bft)
16.02.2017 23:57 0,1 °C 0,1 °C 86 % 1028,4 hPa 0,0 mm 0,3 km/h (0 Bft) S-SW 207 ° 0 min 0,000 mm 0,0 UV-I 0 W/m² -2,0 °C 0,1 °C 1,6 km/h (1 Bft)
16.02.2017 23:58 0,1 °C 0,1 °C 85 % 1028,4 hPa 0,0 mm 1,5 km/h (1 Bft) S-SW 207 ° 0 min 0,000 mm 0,0 UV-I 0 W/m² -2,1 °C 0,1 °C 3,2 km/h (1 Bft)
16.02.2017 23:59 0,1 °C 0,1 °C 85 % 1028,4 hPa 0,0 mm 0,0 km/h (0 Bft) S-SW 207 ° 0 min 0,000 mm 0,0 UV-I 0 W/m² -2,1 °C 0,1 °C 0,0 km/h (0 Bft)
_ Min-Zeit 07:49 07:43 14:41 23:59 - 23:59 - - - - - - 07:09 07:49 23:59
Minimum _ -2,7 °C -2,7 °C 45 % 1028,4 hPa - 0,0 km/h (0 Bft) - - - - - - -4,9 °C -2,7 °C 0,0 km/h (0 Bft)
_ Max-Zeit 14:07 14:39 08:16 00:07 23:59 14:10 - - 15:42 15:00 11:58 12:00 14:59 14:07 14:25
Maximum _ 10,7 °C 10,7 °C 87 % 1035,9 hPa 0,0 mm 8,6 km/h
O-NO (2 Bft)
- - 1 min 0,203 mm 2,5 UV-I 490 W/m² 0,1 °C 10,7 °C 14,5 km/h
O (3 Bft)
Durchschnitt _ 2,8 °C 2,8 °C 71 % 1032,4 hPa #0,0 mm 1,0 km/h (0 Bft) O-NO - #3:08 h #0,864 mm 1,7 UV-I 62 W/m² -2,4 °C 2,7 °C 1,9 km/h (1 Bft)